<?xml version="1.0" encoding="UTF-8"?>
<gpx version="1.1" creator="https://www.youtrack.es" xsi:schemaLocation="http://www.topografix.com/GPX/1/1 http://www.topografix.com/GPX/1/1/gpx.xsd http://www.garmin.com/xmlschemas/GpxExtensions/v3 http://www.garmin.com/xmlschemas/GpxExtensionsv3.xsd http://www.garmin.com/xmlschemas/TrackPointExtension/v1 http://www.garmin.com/xmlschemas/TrackPointExtensionv1.xsd" xmlns:gpxtpx="http://www.garmin.com/xmlschemas/TrackPointExtension/v1" xmlns:gpxx="http://www.garmin.com/xmlschemas/GpxExtensions/v3" xmlns:xsi="http://www.w3.org/2001/XMLSchema-instance">
  <metadata>
    <link href="https://www.youtrack.es">
      <text>YouTrack.es</text>
    </link>
    <time>2026-05-09T02:34:54Z</time>
  </metadata>
  <trk>
    <src>https://www.youtrack.es</src>
    <link href="https://www.youtrack.es/ruta/14902-1234-2020-08-09-235662816-castell-popa-st-pere-de-valldeneu-puiggracios-clascar-castell">
      <text>YouTrack.es</text>
    </link>
    <trkseg>
      <trkpt lat="41.750202" lon="2.119362">
        <ele>766.112803</ele>
        <time>2020-08-09T05:04:55.703Z</time>
      </trkpt>
      <trkpt lat="41.750188" lon="2.119522">
        <ele>766.112803</ele>
        <time>2020-08-09T05:09:43.713Z</time>
      </trkpt>
      <trkpt lat="41.750160" lon="2.119657">
        <ele>766.112803</ele>
        <time>2020-08-09T05:09:46.705Z</time>
      </trkpt>
      <trkpt lat="41.750123" lon="2.119789">
        <ele>766.112803</ele>
        <time>2020-08-09T05:09:49.735Z</time>
      </trkpt>
      <trkpt lat="41.750081" lon="2.119923">
        <ele>766.112803</ele>
        <time>2020-08-09T05:09:52.710Z</time>
      </trkpt>
      <trkpt lat="41.750041" lon="2.120069">
        <ele>766.112803</ele>
        <time>2020-08-09T05:09:55.709Z</time>
      </trkpt>
      <trkpt lat="41.749989" lon="2.120215">
        <ele>766.112803</ele>
        <time>2020-08-09T05:09:58.729Z</time>
      </trkpt>
      <trkpt lat="41.749942" lon="2.120355">
        <ele>766.112803</ele>
        <time>2020-08-09T05:10:01.721Z</time>
      </trkpt>
      <trkpt lat="41.749903" lon="2.120499">
        <ele>766.105977</ele>
        <time>2020-08-09T05:10:04.706Z</time>
      </trkpt>
      <trkpt lat="41.749870" lon="2.120632">
        <ele>765.950911</ele>
        <time>2020-08-09T05:10:07.714Z</time>
      </trkpt>
      <trkpt lat="41.749834" lon="2.120774">
        <ele>765.784990</ele>
        <time>2020-08-09T05:10:10.722Z</time>
      </trkpt>
      <trkpt lat="41.749813" lon="2.120925">
        <ele>765.615057</ele>
        <time>2020-08-09T05:10:13.701Z</time>
      </trkpt>
      <trkpt lat="41.749801" lon="2.121089">
        <ele>765.432749</ele>
        <time>2020-08-09T05:10:16.715Z</time>
      </trkpt>
      <trkpt lat="41.749801" lon="2.121218">
        <ele>765.290033</ele>
        <time>2020-08-09T05:10:18.715Z</time>
      </trkpt>
      <trkpt lat="41.749796" lon="2.121345">
        <ele>765.149334</ele>
        <time>2020-08-09T05:10:20.725Z</time>
      </trkpt>
      <trkpt lat="41.749785" lon="2.121523">
        <ele>764.951734</ele>
        <time>2020-08-09T05:10:23.727Z</time>
      </trkpt>
      <trkpt lat="41.749772" lon="2.121701">
        <ele>764.753866</ele>
        <time>2020-08-09T05:10:26.722Z</time>
      </trkpt>
      <trkpt lat="41.749756" lon="2.121875">
        <ele>764.559909</ele>
        <time>2020-08-09T05:10:29.723Z</time>
      </trkpt>
      <trkpt lat="41.749739" lon="2.122041">
        <ele>764.374536</ele>
        <time>2020-08-09T05:10:32.722Z</time>
      </trkpt>
      <trkpt lat="41.749713" lon="2.122205">
        <ele>764.189047</ele>
        <time>2020-08-09T05:10:35.722Z</time>
      </trkpt>
      <trkpt lat="41.749706" lon="2.122383">
        <ele>763.991847</ele>
        <time>2020-08-09T05:10:38.712Z</time>
      </trkpt>
      <trkpt lat="41.749735" lon="2.122548">
        <ele>763.804306</ele>
        <time>2020-08-09T05:10:41.702Z</time>
      </trkpt>
      <trkpt lat="41.749771" lon="2.122669">
        <ele>763.660189</ele>
        <time>2020-08-09T05:10:43.708Z</time>
      </trkpt>
      <trkpt lat="41.749832" lon="2.122781">
        <ele>763.506775</ele>
        <time>2020-08-09T05:10:45.712Z</time>
      </trkpt>
      <trkpt lat="41.749898" lon="2.122899">
        <ele>763.335385</ele>
        <time>2020-08-09T05:10:47.729Z</time>
      </trkpt>
      <trkpt lat="41.749961" lon="2.123021">
        <ele>763.157988</ele>
        <time>2020-08-09T05:10:49.729Z</time>
      </trkpt>
      <trkpt lat="41.750023" lon="2.123142">
        <ele>762.982486</ele>
        <time>2020-08-09T05:10:51.703Z</time>
      </trkpt>
      <trkpt lat="41.750096" lon="2.123256">
        <ele>762.802866</ele>
        <time>2020-08-09T05:10:53.717Z</time>
      </trkpt>
      <trkpt lat="41.750149" lon="2.123370">
        <ele>762.642269</ele>
        <time>2020-08-09T05:10:56.704Z</time>
      </trkpt>
      <trkpt lat="41.750235" lon="2.123425">
        <ele>762.489565</ele>
        <time>2020-08-09T05:11:00.716Z</time>
      </trkpt>
      <trkpt lat="41.750342" lon="2.123380">
        <ele>762.309848</ele>
        <time>2020-08-09T05:11:03.707Z</time>
      </trkpt>
      <trkpt lat="41.750437" lon="2.123347">
        <ele>762.152575</ele>
        <time>2020-08-09T05:11:05.719Z</time>
      </trkpt>
      <trkpt lat="41.750539" lon="2.123303">
        <ele>761.980857</ele>
        <time>2020-08-09T05:11:07.711Z</time>
      </trkpt>
      <trkpt lat="41.750659" lon="2.123260">
        <ele>761.781796</ele>
        <time>2020-08-09T05:11:09.699Z</time>
      </trkpt>
      <trkpt lat="41.750784" lon="2.123208">
        <ele>761.572050</ele>
        <time>2020-08-09T05:11:11.740Z</time>
      </trkpt>
      <trkpt lat="41.750925" lon="2.123143">
        <ele>761.333099</ele>
        <time>2020-08-09T05:11:13.725Z</time>
      </trkpt>
      <trkpt lat="41.751065" lon="2.123071">
        <ele>761.092793</ele>
        <time>2020-08-09T05:11:15.730Z</time>
      </trkpt>
      <trkpt lat="41.751170" lon="2.123030">
        <ele>760.917529</ele>
        <time>2020-08-09T05:11:16.724Z</time>
      </trkpt>
      <trkpt lat="41.751318" lon="2.122956">
        <ele>760.664386</ele>
        <time>2020-08-09T05:11:18.721Z</time>
      </trkpt>
      <trkpt lat="41.751475" lon="2.122883">
        <ele>759.860097</ele>
        <time>2020-08-09T05:11:20.724Z</time>
      </trkpt>
      <trkpt lat="41.751642" lon="2.122810">
        <ele>758.661294</ele>
        <time>2020-08-09T05:11:22.731Z</time>
      </trkpt>
      <trkpt lat="41.751727" lon="2.122772">
        <ele>758.049778</ele>
        <time>2020-08-09T05:11:23.727Z</time>
      </trkpt>
      <trkpt lat="41.751886" lon="2.122693">
        <ele>756.892498</ele>
        <time>2020-08-09T05:11:25.718Z</time>
      </trkpt>
      <trkpt lat="41.752053" lon="2.122624">
        <ele>755.699852</ele>
        <time>2020-08-09T05:11:27.722Z</time>
      </trkpt>
      <trkpt lat="41.752146" lon="2.122584">
        <ele>755.033278</ele>
        <time>2020-08-09T05:11:28.726Z</time>
      </trkpt>
      <trkpt lat="41.752227" lon="2.122531">
        <ele>754.418129</ele>
        <time>2020-08-09T05:11:29.718Z</time>
      </trkpt>
      <trkpt lat="41.752321" lon="2.122484">
        <ele>753.733427</ele>
        <time>2020-08-09T05:11:30.719Z</time>
      </trkpt>
      <trkpt lat="41.752476" lon="2.122430">
        <ele>752.640449</ele>
        <time>2020-08-09T05:11:32.729Z</time>
      </trkpt>
      <trkpt lat="41.752566" lon="2.122408">
        <ele>752.016093</ele>
        <time>2020-08-09T05:11:33.728Z</time>
      </trkpt>
      <trkpt lat="41.752651" lon="2.122366">
        <ele>751.397833</ele>
        <time>2020-08-09T05:11:34.723Z</time>
      </trkpt>
      <trkpt lat="41.752792" lon="2.122265">
        <ele>750.306764</ele>
        <time>2020-08-09T05:11:36.719Z</time>
      </trkpt>
      <trkpt lat="41.752950" lon="2.122192">
        <ele>749.166200</ele>
        <time>2020-08-09T05:11:38.718Z</time>
      </trkpt>
      <trkpt lat="41.753108" lon="2.122129">
        <ele>748.040297</ele>
        <time>2020-08-09T05:11:40.726Z</time>
      </trkpt>
      <trkpt lat="41.753197" lon="2.122087">
        <ele>747.394005</ele>
        <time>2020-08-09T05:11:41.721Z</time>
      </trkpt>
      <trkpt lat="41.753375" lon="2.122016">
        <ele>746.121936</ele>
        <time>2020-08-09T05:11:43.725Z</time>
      </trkpt>
      <trkpt lat="41.753465" lon="2.121975">
        <ele>745.470842</ele>
        <time>2020-08-09T05:11:44.734Z</time>
      </trkpt>
      <trkpt lat="41.753560" lon="2.121943">
        <ele>744.799896</ele>
        <time>2020-08-09T05:11:45.725Z</time>
      </trkpt>
      <trkpt lat="41.753655" lon="2.121911">
        <ele>744.128951</ele>
        <time>2020-08-09T05:11:46.721Z</time>
      </trkpt>
      <trkpt lat="41.753746" lon="2.121882">
        <ele>743.488262</ele>
        <time>2020-08-09T05:11:47.724Z</time>
      </trkpt>
      <trkpt lat="41.753907" lon="2.121835">
        <ele>742.359624</ele>
        <time>2020-08-09T05:11:49.721Z</time>
      </trkpt>
      <trkpt lat="41.754069" lon="2.121818">
        <ele>741.246589</ele>
        <time>2020-08-09T05:11:51.724Z</time>
      </trkpt>
      <trkpt lat="41.754234" lon="2.121813">
        <ele>740.116112</ele>
        <time>2020-08-09T05:11:53.724Z</time>
      </trkpt>
      <trkpt lat="41.754395" lon="2.121810">
        <ele>739.013216</ele>
        <time>2020-08-09T05:11:55.733Z</time>
      </trkpt>
      <trkpt lat="41.754541" lon="2.121791">
        <ele>738.008469</ele>
        <time>2020-08-09T05:11:57.720Z</time>
      </trkpt>
      <trkpt lat="41.754683" lon="2.121758">
        <ele>737.021313</ele>
        <time>2020-08-09T05:11:59.719Z</time>
      </trkpt>
      <trkpt lat="41.754821" lon="2.121738">
        <ele>736.070556</ele>
        <time>2020-08-09T05:12:01.725Z</time>
      </trkpt>
      <trkpt lat="41.754931" lon="2.121697">
        <ele>735.521298</ele>
        <time>2020-08-09T05:12:03.727Z</time>
      </trkpt>
      <trkpt lat="41.755030" lon="2.121642">
        <ele>735.038772</ele>
        <time>2020-08-09T05:12:05.718Z</time>
      </trkpt>
      <trkpt lat="41.755137" lon="2.121588">
        <ele>734.523979</ele>
        <time>2020-08-09T05:12:07.734Z</time>
      </trkpt>
      <trkpt lat="41.755233" lon="2.121520">
        <ele>734.035091</ele>
        <time>2020-08-09T05:12:09.729Z</time>
      </trkpt>
      <trkpt lat="41.755321" lon="2.121458">
        <ele>733.587465</ele>
        <time>2020-08-09T05:12:11.723Z</time>
      </trkpt>
      <trkpt lat="41.755408" lon="2.121396">
        <ele>733.143821</ele>
        <time>2020-08-09T05:12:13.733Z</time>
      </trkpt>
      <trkpt lat="41.755559" lon="2.121342">
        <ele>732.440146</ele>
        <time>2020-08-09T05:12:16.731Z</time>
      </trkpt>
      <trkpt lat="41.755636" lon="2.121257">
        <ele>731.991017</ele>
        <time>2020-08-09T05:12:20.728Z</time>
      </trkpt>
      <trkpt lat="41.755741" lon="2.121217">
        <ele>731.499521</ele>
        <time>2020-08-09T05:12:23.725Z</time>
      </trkpt>
      <trkpt lat="41.755875" lon="2.121197">
        <ele>730.892441</ele>
        <time>2020-08-09T05:12:26.722Z</time>
      </trkpt>
      <trkpt lat="41.755988" lon="2.121183">
        <ele>730.381477</ele>
        <time>2020-08-09T05:12:29.723Z</time>
      </trkpt>
      <trkpt lat="41.756067" lon="2.121253">
        <ele>729.955085</ele>
        <time>2020-08-09T05:12:32.720Z</time>
      </trkpt>
      <trkpt lat="41.756082" lon="2.121371">
        <ele>729.553022</ele>
        <time>2020-08-09T05:12:34.723Z</time>
      </trkpt>
      <trkpt lat="41.756094" lon="2.121507">
        <ele>729.093028</ele>
        <time>2020-08-09T05:12:36.718Z</time>
      </trkpt>
      <trkpt lat="41.756112" lon="2.121631">
        <ele>728.668713</ele>
        <time>2020-08-09T05:12:38.733Z</time>
      </trkpt>
      <trkpt lat="41.756133" lon="2.121768">
        <ele>728.198930</ele>
        <time>2020-08-09T05:12:40.725Z</time>
      </trkpt>
      <trkpt lat="41.756145" lon="2.121940">
        <ele>728.071940</ele>
        <time>2020-08-09T05:12:43.722Z</time>
      </trkpt>
      <trkpt lat="41.756158" lon="2.122061">
        <ele>728.404014</ele>
        <time>2020-08-09T05:12:47.724Z</time>
      </trkpt>
      <trkpt lat="41.756205" lon="2.122168">
        <ele>728.741310</ele>
        <time>2020-08-09T05:12:52.713Z</time>
      </trkpt>
      <trkpt lat="41.756236" lon="2.122288">
        <ele>729.086268</ele>
        <time>2020-08-09T05:12:57.729Z</time>
      </trkpt>
      <trkpt lat="41.756243" lon="2.122409">
        <ele>729.415938</ele>
        <time>2020-08-09T05:13:02.739Z</time>
      </trkpt>
      <trkpt lat="41.756252" lon="2.122533">
        <ele>729.754359</ele>
        <time>2020-08-09T05:13:08.728Z</time>
      </trkpt>
      <trkpt lat="41.756275" lon="2.122653">
        <ele>730.090912</ele>
        <time>2020-08-09T05:13:15.733Z</time>
      </trkpt>
      <trkpt lat="41.756290" lon="2.122773">
        <ele>730.421422</ele>
        <time>2020-08-09T05:13:22.725Z</time>
      </trkpt>
      <trkpt lat="41.756311" lon="2.122895">
        <ele>730.761529</ele>
        <time>2020-08-09T05:13:29.742Z</time>
      </trkpt>
      <trkpt lat="41.756353" lon="2.123013">
        <ele>731.116677</ele>
        <time>2020-08-09T05:13:36.738Z</time>
      </trkpt>
      <trkpt lat="41.756365" lon="2.123142">
        <ele>731.469804</ele>
        <time>2020-08-09T05:13:44.738Z</time>
      </trkpt>
      <trkpt lat="41.756395" lon="2.123257">
        <ele>731.800737</ele>
        <time>2020-08-09T05:14:10.725Z</time>
      </trkpt>
      <trkpt lat="41.756492" lon="2.123273">
        <ele>732.156611</ele>
        <time>2020-08-09T05:14:25.718Z</time>
      </trkpt>
      <trkpt lat="41.756583" lon="2.123263">
        <ele>732.489084</ele>
        <time>2020-08-09T05:14:30.730Z</time>
      </trkpt>
      <trkpt lat="41.756686" lon="2.123275">
        <ele>732.865555</ele>
        <time>2020-08-09T05:14:35.716Z</time>
      </trkpt>
      <trkpt lat="41.756797" lon="2.123307">
        <ele>733.278985</ele>
        <time>2020-08-09T05:14:40.730Z</time>
      </trkpt>
      <trkpt lat="41.756899" lon="2.123322">
        <ele>733.652629</ele>
        <time>2020-08-09T05:14:44.725Z</time>
      </trkpt>
      <trkpt lat="41.757008" lon="2.123341">
        <ele>734.052877</ele>
        <time>2020-08-09T05:14:48.719Z</time>
      </trkpt>
      <trkpt lat="41.757115" lon="2.123374">
        <ele>734.384500</ele>
        <time>2020-08-09T05:14:52.729Z</time>
      </trkpt>
      <trkpt lat="41.757208" lon="2.123393">
        <ele>734.038833</ele>
        <time>2020-08-09T05:14:57.727Z</time>
      </trkpt>
      <trkpt lat="41.757294" lon="2.123433">
        <ele>733.704352</ele>
        <time>2020-08-09T05:15:01.702Z</time>
      </trkpt>
      <trkpt lat="41.757407" lon="2.123466">
        <ele>733.279404</ele>
        <time>2020-08-09T05:15:06.739Z</time>
      </trkpt>
      <trkpt lat="41.757515" lon="2.123469">
        <ele>732.882482</ele>
        <time>2020-08-09T05:15:10.718Z</time>
      </trkpt>
      <trkpt lat="41.757629" lon="2.123463">
        <ele>732.463275</ele>
        <time>2020-08-09T05:15:14.741Z</time>
      </trkpt>
      <trkpt lat="41.757723" lon="2.123453">
        <ele>732.116793</ele>
        <time>2020-08-09T05:15:17.734Z</time>
      </trkpt>
      <trkpt lat="41.757810" lon="2.123380">
        <ele>731.739661</ele>
        <time>2020-08-09T05:15:20.721Z</time>
      </trkpt>
      <trkpt lat="41.757941" lon="2.123327">
        <ele>731.236867</ele>
        <time>2020-08-09T05:15:23.721Z</time>
      </trkpt>
      <trkpt lat="41.758037" lon="2.123275">
        <ele>730.856415</ele>
        <time>2020-08-09T05:15:25.727Z</time>
      </trkpt>
      <trkpt lat="41.758131" lon="2.123227">
        <ele>730.486810</ele>
        <time>2020-08-09T05:15:27.742Z</time>
      </trkpt>
      <trkpt lat="41.758214" lon="2.123154">
        <ele>730.122053</ele>
        <time>2020-08-09T05:15:30.737Z</time>
      </trkpt>
      <trkpt lat="41.758270" lon="2.123059">
        <ele>729.790173</ele>
        <time>2020-08-09T05:15:33.738Z</time>
      </trkpt>
      <trkpt lat="41.758342" lon="2.122937">
        <ele>729.363777</ele>
        <time>2020-08-09T05:15:37.736Z</time>
      </trkpt>
      <trkpt lat="41.758412" lon="2.122856">
        <ele>729.023999</ele>
        <time>2020-08-09T05:15:40.718Z</time>
      </trkpt>
      <trkpt lat="41.758509" lon="2.122811">
        <ele>728.646841</ele>
        <time>2020-08-09T05:15:43.725Z</time>
      </trkpt>
      <trkpt lat="41.758616" lon="2.122801">
        <ele>728.252723</ele>
        <time>2020-08-09T05:15:46.743Z</time>
      </trkpt>
      <trkpt lat="41.758719" lon="2.122796">
        <ele>727.874010</ele>
        <time>2020-08-09T05:15:49.727Z</time>
      </trkpt>
      <trkpt lat="41.758818" lon="2.122768">
        <ele>727.175780</ele>
        <time>2020-08-09T05:15:52.735Z</time>
      </trkpt>
      <trkpt lat="41.758915" lon="2.122707">
        <ele>726.364187</ele>
        <time>2020-08-09T05:15:56.723Z</time>
      </trkpt>
      <trkpt lat="41.759009" lon="2.122756">
        <ele>725.600211</ele>
        <time>2020-08-09T05:16:01.705Z</time>
      </trkpt>
      <trkpt lat="41.759017" lon="2.122901">
        <ele>724.778651</ele>
        <time>2020-08-09T05:16:05.733Z</time>
      </trkpt>
      <trkpt lat="41.759014" lon="2.123042">
        <ele>723.981606</ele>
        <time>2020-08-09T05:16:10.728Z</time>
      </trkpt>
      <trkpt lat="41.759055" lon="2.123187">
        <ele>723.105396</ele>
        <time>2020-08-09T05:16:14.736Z</time>
      </trkpt>
      <trkpt lat="41.759061" lon="2.123336">
        <ele>722.262246</ele>
        <time>2020-08-09T05:16:18.728Z</time>
      </trkpt>
      <trkpt lat="41.759073" lon="2.123466">
        <ele>721.522079</ele>
        <time>2020-08-09T05:16:22.741Z</time>
      </trkpt>
      <trkpt lat="41.759118" lon="2.123603">
        <ele>720.676235</ele>
        <time>2020-08-09T05:16:26.732Z</time>
      </trkpt>
      <trkpt lat="41.759233" lon="2.123698">
        <ele>719.653012</ele>
        <time>2020-08-09T05:16:51.737Z</time>
      </trkpt>
      <trkpt lat="41.759209" lon="2.123816">
        <ele>718.961915</ele>
        <time>2020-08-09T05:17:09.732Z</time>
      </trkpt>
      <trkpt lat="41.759187" lon="2.123936">
        <ele>718.263679</ele>
        <time>2020-08-09T05:17:15.721Z</time>
      </trkpt>
      <trkpt lat="41.759274" lon="2.124002">
        <ele>717.506461</ele>
        <time>2020-08-09T05:17:21.731Z</time>
      </trkpt>
      <trkpt lat="41.759376" lon="2.124018">
        <ele>716.728552</ele>
        <time>2020-08-09T05:17:25.734Z</time>
      </trkpt>
      <trkpt lat="41.759469" lon="2.124033">
        <ele>716.019007</ele>
        <time>2020-08-09T05:17:29.732Z</time>
      </trkpt>
      <trkpt lat="41.759558" lon="2.123988">
        <ele>715.298486</ele>
        <time>2020-08-09T05:17:33.708Z</time>
      </trkpt>
      <trkpt lat="41.759660" lon="2.123957">
        <ele>714.506241</ele>
        <time>2020-08-09T05:17:37.724Z</time>
      </trkpt>
      <trkpt lat="41.759762" lon="2.123933">
        <ele>713.669643</ele>
        <time>2020-08-09T05:17:40.737Z</time>
      </trkpt>
      <trkpt lat="41.759873" lon="2.123885">
        <ele>712.686760</ele>
        <time>2020-08-09T05:17:43.750Z</time>
      </trkpt>
      <trkpt lat="41.759977" lon="2.123833">
        <ele>711.751355</ele>
        <time>2020-08-09T05:17:46.728Z</time>
      </trkpt>
      <trkpt lat="41.760092" lon="2.123782">
        <ele>710.730574</ele>
        <time>2020-08-09T05:17:49.727Z</time>
      </trkpt>
      <trkpt lat="41.760186" lon="2.123763">
        <ele>709.929462</ele>
        <time>2020-08-09T05:17:51.726Z</time>
      </trkpt>
      <trkpt lat="41.760275" lon="2.123710">
        <ele>709.108771</ele>
        <time>2020-08-09T05:17:53.717Z</time>
      </trkpt>
      <trkpt lat="41.760371" lon="2.123684">
        <ele>708.283414</ele>
        <time>2020-08-09T05:17:55.711Z</time>
      </trkpt>
      <trkpt lat="41.760464" lon="2.123651">
        <ele>707.472694</ele>
        <time>2020-08-09T05:17:57.719Z</time>
      </trkpt>
      <trkpt lat="41.760599" lon="2.123599">
        <ele>706.288992</ele>
        <time>2020-08-09T05:18:00.735Z</time>
      </trkpt>
      <trkpt lat="41.760729" lon="2.123581">
        <ele>705.187626</ele>
        <time>2020-08-09T05:18:03.730Z</time>
      </trkpt>
      <trkpt lat="41.760823" lon="2.123580">
        <ele>704.395443</ele>
        <time>2020-08-09T05:18:07.725Z</time>
      </trkpt>
      <trkpt lat="41.760910" lon="2.123614">
        <ele>703.631758</ele>
        <time>2020-08-09T05:18:12.731Z</time>
      </trkpt>
      <trkpt lat="41.760895" lon="2.123477">
        <ele>702.761332</ele>
        <time>2020-08-09T05:18:24.734Z</time>
      </trkpt>
      <trkpt lat="41.760918" lon="2.123340">
        <ele>701.878592</ele>
        <time>2020-08-09T05:18:33.722Z</time>
      </trkpt>
      <trkpt lat="41.761033" lon="2.123270">
        <ele>700.814244</ele>
        <time>2020-08-09T05:18:36.728Z</time>
      </trkpt>
      <trkpt lat="41.761112" lon="2.123203">
        <ele>700.026459</ele>
        <time>2020-08-09T05:18:39.722Z</time>
      </trkpt>
      <trkpt lat="41.761183" lon="2.123283">
        <ele>699.244859</ele>
        <time>2020-08-09T05:18:45.725Z</time>
      </trkpt>
      <trkpt lat="41.761229" lon="2.123421">
        <ele>698.911945</ele>
        <time>2020-08-09T05:18:49.732Z</time>
      </trkpt>
      <trkpt lat="41.761297" lon="2.123526">
        <ele>698.773897</ele>
        <time>2020-08-09T05:18:53.722Z</time>
      </trkpt>
      <trkpt lat="41.761329" lon="2.123657">
        <ele>698.637047</ele>
        <time>2020-08-09T05:18:56.729Z</time>
      </trkpt>
      <trkpt lat="41.761387" lon="2.123820">
        <ele>698.457755</ele>
        <time>2020-08-09T05:18:59.720Z</time>
      </trkpt>
      <trkpt lat="41.761434" lon="2.123930">
        <ele>698.331902</ele>
        <time>2020-08-09T05:19:01.721Z</time>
      </trkpt>
      <trkpt lat="41.761494" lon="2.124027">
        <ele>698.206800</ele>
        <time>2020-08-09T05:19:03.725Z</time>
      </trkpt>
      <trkpt lat="41.761575" lon="2.124165">
        <ele>698.032467</ele>
        <time>2020-08-09T05:19:06.718Z</time>
      </trkpt>
      <trkpt lat="41.761636" lon="2.124293">
        <ele>697.881671</ele>
        <time>2020-08-09T05:19:09.730Z</time>
      </trkpt>
      <trkpt lat="41.761699" lon="2.124428">
        <ele>697.723578</ele>
        <time>2020-08-09T05:19:12.730Z</time>
      </trkpt>
      <trkpt lat="41.761768" lon="2.124567">
        <ele>697.557818</ele>
        <time>2020-08-09T05:19:15.726Z</time>
      </trkpt>
      <trkpt lat="41.761843" lon="2.124700">
        <ele>697.392294</ele>
        <time>2020-08-09T05:19:18.720Z</time>
      </trkpt>
      <trkpt lat="41.761914" lon="2.124832">
        <ele>697.230731</ele>
        <time>2020-08-09T05:19:21.705Z</time>
      </trkpt>
      <trkpt lat="41.761966" lon="2.124981">
        <ele>697.067419</ele>
        <time>2020-08-09T05:19:24.729Z</time>
      </trkpt>
      <trkpt lat="41.762019" lon="2.125121">
        <ele>696.911555</ele>
        <time>2020-08-09T05:19:27.734Z</time>
      </trkpt>
      <trkpt lat="41.762085" lon="2.125226">
        <ele>696.775238</ele>
        <time>2020-08-09T05:19:30.733Z</time>
      </trkpt>
      <trkpt lat="41.762185" lon="2.125280">
        <ele>696.641599</ele>
        <time>2020-08-09T05:19:33.731Z</time>
      </trkpt>
      <trkpt lat="41.762278" lon="2.125267">
        <ele>697.106728</ele>
        <time>2020-08-09T05:19:36.723Z</time>
      </trkpt>
      <trkpt lat="41.762386" lon="2.125208">
        <ele>697.686856</ele>
        <time>2020-08-09T05:19:40.719Z</time>
      </trkpt>
      <trkpt lat="41.762496" lon="2.125225">
        <ele>698.237665</ele>
        <time>2020-08-09T05:19:43.728Z</time>
      </trkpt>
      <trkpt lat="41.762575" lon="2.125331">
        <ele>698.793655</ele>
        <time>2020-08-09T05:19:46.735Z</time>
      </trkpt>
      <trkpt lat="41.762621" lon="2.125463">
        <ele>699.334254</ele>
        <time>2020-08-09T05:19:49.722Z</time>
      </trkpt>
      <trkpt lat="41.762654" lon="2.125598">
        <ele>699.861379</ele>
        <time>2020-08-09T05:19:52.727Z</time>
      </trkpt>
      <trkpt lat="41.762690" lon="2.125719">
        <ele>700.344742</ele>
        <time>2020-08-09T05:19:55.708Z</time>
      </trkpt>
      <trkpt lat="41.762730" lon="2.125843">
        <ele>700.846022</ele>
        <time>2020-08-09T05:19:59.725Z</time>
      </trkpt>
      <trkpt lat="41.762774" lon="2.125949">
        <ele>701.296130</ele>
        <time>2020-08-09T05:20:03.730Z</time>
      </trkpt>
      <trkpt lat="41.762840" lon="2.126031">
        <ele>701.743747</ele>
        <time>2020-08-09T05:20:06.729Z</time>
      </trkpt>
      <trkpt lat="41.762894" lon="2.126151">
        <ele>702.263754</ele>
        <time>2020-08-09T05:20:10.725Z</time>
      </trkpt>
      <trkpt lat="41.762906" lon="2.126277">
        <ele>702.735067</ele>
        <time>2020-08-09T05:20:14.742Z</time>
      </trkpt>
      <trkpt lat="41.762924" lon="2.126421">
        <ele>703.276822</ele>
        <time>2020-08-09T05:20:18.720Z</time>
      </trkpt>
      <trkpt lat="41.762974" lon="2.126533">
        <ele>703.761137</ele>
        <time>2020-08-09T05:20:22.730Z</time>
      </trkpt>
      <trkpt lat="41.763018" lon="2.126656">
        <ele>704.267292</ele>
        <time>2020-08-09T05:20:26.726Z</time>
      </trkpt>
      <trkpt lat="41.763063" lon="2.126772">
        <ele>704.752434</ele>
        <time>2020-08-09T05:20:29.723Z</time>
      </trkpt>
      <trkpt lat="41.763120" lon="2.126870">
        <ele>705.213539</ele>
        <time>2020-08-09T05:20:32.740Z</time>
      </trkpt>
      <trkpt lat="41.763190" lon="2.126960">
        <ele>705.696869</ele>
        <time>2020-08-09T05:20:35.731Z</time>
      </trkpt>
      <trkpt lat="41.763267" lon="2.127082">
        <ele>706.294350</ele>
        <time>2020-08-09T05:20:39.738Z</time>
      </trkpt>
      <trkpt lat="41.763318" lon="2.127199">
        <ele>706.800981</ele>
        <time>2020-08-09T05:20:42.722Z</time>
      </trkpt>
      <trkpt lat="41.763360" lon="2.127318">
        <ele>707.293165</ele>
        <time>2020-08-09T05:20:45.723Z</time>
      </trkpt>
      <trkpt lat="41.763423" lon="2.127433">
        <ele>707.826603</ele>
        <time>2020-08-09T05:20:48.730Z</time>
      </trkpt>
      <trkpt lat="41.763476" lon="2.127549">
        <ele>708.335173</ele>
        <time>2020-08-09T05:20:51.707Z</time>
      </trkpt>
      <trkpt lat="41.763508" lon="2.127681">
        <ele>708.854077</ele>
        <time>2020-08-09T05:20:54.724Z</time>
      </trkpt>
      <trkpt lat="41.763547" lon="2.127802">
        <ele>709.346873</ele>
        <time>2020-08-09T05:20:57.745Z</time>
      </trkpt>
      <trkpt lat="41.763602" lon="2.127928">
        <ele>709.892669</ele>
        <time>2020-08-09T05:21:00.732Z</time>
      </trkpt>
      <trkpt lat="41.763654" lon="2.128052">
        <ele>710.424496</ele>
        <time>2020-08-09T05:21:03.731Z</time>
      </trkpt>
      <trkpt lat="41.763655" lon="2.128197">
        <ele>710.966613</ele>
        <time>2020-08-09T05:21:06.723Z</time>
      </trkpt>
      <trkpt lat="41.763645" lon="2.128338">
        <ele>711.496130</ele>
        <time>2020-08-09T05:21:09.728Z</time>
      </trkpt>
      <trkpt lat="41.763646" lon="2.128479">
        <ele>712.023294</ele>
        <time>2020-08-09T05:21:13.725Z</time>
      </trkpt>
      <trkpt lat="41.763662" lon="2.128602">
        <ele>712.490079</ele>
        <time>2020-08-09T05:21:17.742Z</time>
      </trkpt>
      <trkpt lat="41.763680" lon="2.128737">
        <ele>713.002788</ele>
        <time>2020-08-09T05:21:21.726Z</time>
      </trkpt>
      <trkpt lat="41.763695" lon="2.128878">
        <ele>713.535261</ele>
        <time>2020-08-09T05:21:25.733Z</time>
      </trkpt>
      <trkpt lat="41.763694" lon="2.129018">
        <ele>714.058686</ele>
        <time>2020-08-09T05:21:30.736Z</time>
      </trkpt>
      <trkpt lat="41.763704" lon="2.129167">
        <ele>714.598523</ele>
        <time>2020-08-09T05:21:53.728Z</time>
      </trkpt>
      <trkpt lat="41.763709" lon="2.129304">
        <ele>714.654183</ele>
        <time>2020-08-09T05:21:57.749Z</time>
      </trkpt>
      <trkpt lat="41.763724" lon="2.129434">
        <ele>714.707564</ele>
        <time>2020-08-09T05:22:01.708Z</time>
      </trkpt>
      <trkpt lat="41.763750" lon="2.129572">
        <ele>714.765323</ele>
        <time>2020-08-09T05:22:05.732Z</time>
      </trkpt>
      <trkpt lat="41.763810" lon="2.129683">
        <ele>714.820950</ele>
        <time>2020-08-09T05:22:09.733Z</time>
      </trkpt>
      <trkpt lat="41.763861" lon="2.129782">
        <ele>714.869774</ele>
        <time>2020-08-09T05:22:12.739Z</time>
      </trkpt>
      <trkpt lat="41.763903" lon="2.129889">
        <ele>714.918839</ele>
        <time>2020-08-09T05:22:15.748Z</time>
      </trkpt>
      <trkpt lat="41.763951" lon="2.129993">
        <ele>714.968467</ele>
        <time>2020-08-09T05:22:18.737Z</time>
      </trkpt>
      <trkpt lat="41.764015" lon="2.130105">
        <ele>715.025721</ele>
        <time>2020-08-09T05:22:21.758Z</time>
      </trkpt>
      <trkpt lat="41.764084" lon="2.130211">
        <ele>715.082811</ele>
        <time>2020-08-09T05:22:24.745Z</time>
      </trkpt>
      <trkpt lat="41.764154" lon="2.130308">
        <ele>715.137580</ele>
        <time>2020-08-09T05:22:27.740Z</time>
      </trkpt>
      <trkpt lat="41.764231" lon="2.130407">
        <ele>715.195621</ele>
        <time>2020-08-09T05:22:30.739Z</time>
      </trkpt>
      <trkpt lat="41.764307" lon="2.130496">
        <ele>715.250520</ele>
        <time>2020-08-09T05:22:33.729Z</time>
      </trkpt>
      <trkpt lat="41.764377" lon="2.130594">
        <ele>715.305581</ele>
        <time>2020-08-09T05:22:36.739Z</time>
      </trkpt>
      <trkpt lat="41.764280" lon="2.130497">
        <ele>715.371416</ele>
        <time>2020-08-09T05:22:52.743Z</time>
      </trkpt>
      <trkpt lat="41.764186" lon="2.130397">
        <ele>715.436699</ele>
        <time>2020-08-09T05:22:55.747Z</time>
      </trkpt>
      <trkpt lat="41.764098" lon="2.130275">
        <ele>715.505568</ele>
        <time>2020-08-09T05:22:58.744Z</time>
      </trkpt>
      <trkpt lat="41.764028" lon="2.130184">
        <ele>715.558614</ele>
        <time>2020-08-09T05:23:00.731Z</time>
      </trkpt>
      <trkpt lat="41.763950" lon="2.130097">
        <ele>715.360305</ele>
        <time>2020-08-09T05:23:02.743Z</time>
      </trkpt>
      <trkpt lat="41.763887" lon="2.129999">
        <ele>715.072719</ele>
        <time>2020-08-09T05:23:04.730Z</time>
      </trkpt>
      <trkpt lat="41.763825" lon="2.129849">
        <ele>714.691512</ele>
        <time>2020-08-09T05:23:07.727Z</time>
      </trkpt>
      <trkpt lat="41.763770" lon="2.129692">
        <ele>714.305943</ele>
        <time>2020-08-09T05:23:10.711Z</time>
      </trkpt>
      <trkpt lat="41.763723" lon="2.129529">
        <ele>713.917480</ele>
        <time>2020-08-09T05:23:13.740Z</time>
      </trkpt>
      <trkpt lat="41.763699" lon="2.129400">
        <ele>713.621941</ele>
        <time>2020-08-09T05:23:15.731Z</time>
      </trkpt>
      <trkpt lat="41.763681" lon="2.129266">
        <ele>713.319281</ele>
        <time>2020-08-09T05:23:17.746Z</time>
      </trkpt>
      <trkpt lat="41.763673" lon="2.129114">
        <ele>712.980560</ele>
        <time>2020-08-09T05:23:19.745Z</time>
      </trkpt>
      <trkpt lat="41.763669" lon="2.128971">
        <ele>712.662462</ele>
        <time>2020-08-09T05:23:21.734Z</time>
      </trkpt>
      <trkpt lat="41.763670" lon="2.128809">
        <ele>712.302340</ele>
        <time>2020-08-09T05:23:23.733Z</time>
      </trkpt>
      <trkpt lat="41.763669" lon="2.128649">
        <ele>711.946664</ele>
        <time>2020-08-09T05:23:25.741Z</time>
      </trkpt>
      <trkpt lat="41.763643" lon="2.128491">
        <ele>711.587000</ele>
        <time>2020-08-09T05:23:27.741Z</time>
      </trkpt>
      <trkpt lat="41.763635" lon="2.128322">
        <ele>711.210574</ele>
        <time>2020-08-09T05:23:29.742Z</time>
      </trkpt>
      <trkpt lat="41.763629" lon="2.128167">
        <ele>710.865560</ele>
        <time>2020-08-09T05:23:31.718Z</time>
      </trkpt>
      <trkpt lat="41.763618" lon="2.128022">
        <ele>710.541577</ele>
        <time>2020-08-09T05:23:33.734Z</time>
      </trkpt>
      <trkpt lat="41.763580" lon="2.127876">
        <ele>710.186772</ele>
        <time>2020-08-09T05:23:35.738Z</time>
      </trkpt>
      <trkpt lat="41.763536" lon="2.127731">
        <ele>709.606527</ele>
        <time>2020-08-09T05:23:37.731Z</time>
      </trkpt>
      <trkpt lat="41.763494" lon="2.127584">
        <ele>709.023038</ele>
        <time>2020-08-09T05:23:39.730Z</time>
      </trkpt>
      <trkpt lat="41.763442" lon="2.127450">
        <ele>708.463142</ele>
        <time>2020-08-09T05:23:41.738Z</time>
      </trkpt>
      <trkpt lat="41.763364" lon="2.127329">
        <ele>707.870347</ele>
        <time>2020-08-09T05:23:43.771Z</time>
      </trkpt>
      <trkpt lat="41.763288" lon="2.127199">
        <ele>707.258107</ele>
        <time>2020-08-09T05:23:45.723Z</time>
      </trkpt>
      <trkpt lat="41.763205" lon="2.127068">
        <ele>706.620995</ele>
        <time>2020-08-09T05:23:47.730Z</time>
      </trkpt>
      <trkpt lat="41.763122" lon="2.126946">
        <ele>706.008928</ele>
        <time>2020-08-09T05:23:49.739Z</time>
      </trkpt>
      <trkpt lat="41.763051" lon="2.126809">
        <ele>705.390568</ele>
        <time>2020-08-09T05:23:51.724Z</time>
      </trkpt>
      <trkpt lat="41.762995" lon="2.126663">
        <ele>704.782029</ele>
        <time>2020-08-09T05:23:53.726Z</time>
      </trkpt>
      <trkpt lat="41.762926" lon="2.126500">
        <ele>704.087316</ele>
        <time>2020-08-09T05:23:55.745Z</time>
      </trkpt>
      <trkpt lat="41.762864" lon="2.126336">
        <ele>703.405793</ele>
        <time>2020-08-09T05:23:57.729Z</time>
      </trkpt>
      <trkpt lat="41.762869" lon="2.126157">
        <ele>702.741824</ele>
        <time>2020-08-09T05:23:59.726Z</time>
      </trkpt>
      <trkpt lat="41.762851" lon="2.126008">
        <ele>702.182325</ele>
        <time>2020-08-09T05:24:01.792Z</time>
      </trkpt>
      <trkpt lat="41.762774" lon="2.125904">
        <ele>701.639161</ele>
        <time>2020-08-09T05:24:03.714Z</time>
      </trkpt>
      <trkpt lat="41.762711" lon="2.125798">
        <ele>701.180183</ele>
        <time>2020-08-09T05:24:05.734Z</time>
      </trkpt>
      <trkpt lat="41.762665" lon="2.125656">
        <ele>700.784974</ele>
        <time>2020-08-09T05:24:07.713Z</time>
      </trkpt>
      <trkpt lat="41.762608" lon="2.125503">
        <ele>700.348387</ele>
        <time>2020-08-09T05:24:09.722Z</time>
      </trkpt>
      <trkpt lat="41.762547" lon="2.125346">
        <ele>699.896483</ele>
        <time>2020-08-09T05:24:11.735Z</time>
      </trkpt>
      <trkpt lat="41.762482" lon="2.125237">
        <ele>699.540233</ele>
        <time>2020-08-09T05:24:13.739Z</time>
      </trkpt>
      <trkpt lat="41.762382" lon="2.125210">
        <ele>699.191120</ele>
        <time>2020-08-09T05:24:15.735Z</time>
      </trkpt>
      <trkpt lat="41.762258" lon="2.125262">
        <ele>698.746464</ele>
        <time>2020-08-09T05:24:18.720Z</time>
      </trkpt>
      <trkpt lat="41.762155" lon="2.125252">
        <ele>698.393032</ele>
        <time>2020-08-09T05:24:20.739Z</time>
      </trkpt>
      <trkpt lat="41.762049" lon="2.125171">
        <ele>697.975463</ele>
        <time>2020-08-09T05:24:22.728Z</time>
      </trkpt>
      <trkpt lat="41.761990" lon="2.125037">
        <ele>697.578234</ele>
        <time>2020-08-09T05:24:24.726Z</time>
      </trkpt>
      <trkpt lat="41.761952" lon="2.124909">
        <ele>697.226541</ele>
        <time>2020-08-09T05:24:26.716Z</time>
      </trkpt>
      <trkpt lat="41.761925" lon="2.124787">
        <ele>696.901676</ele>
        <time>2020-08-09T05:24:28.732Z</time>
      </trkpt>
      <trkpt lat="41.761865" lon="2.124680">
        <ele>696.559946</ele>
        <time>2020-08-09T05:24:30.737Z</time>
      </trkpt>
      <trkpt lat="41.761795" lon="2.124578">
        <ele>696.206115</ele>
        <time>2020-08-09T05:24:32.723Z</time>
      </trkpt>
      <trkpt lat="41.761733" lon="2.124464">
        <ele>695.845949</ele>
        <time>2020-08-09T05:24:34.728Z</time>
      </trkpt>
      <trkpt lat="41.761680" lon="2.124348">
        <ele>695.498681</ele>
        <time>2020-08-09T05:24:36.738Z</time>
      </trkpt>
      <trkpt lat="41.761625" lon="2.124241">
        <ele>695.166951</ele>
        <time>2020-08-09T05:24:38.737Z</time>
      </trkpt>
      <trkpt lat="41.761552" lon="2.124140">
        <ele>695.658956</ele>
        <time>2020-08-09T05:24:40.740Z</time>
      </trkpt>
      <trkpt lat="41.761488" lon="2.124039">
        <ele>696.241674</ele>
        <time>2020-08-09T05:24:42.721Z</time>
      </trkpt>
      <trkpt lat="41.761419" lon="2.123938">
        <ele>696.843894</ele>
        <time>2020-08-09T05:24:44.736Z</time>
      </trkpt>
      <trkpt lat="41.761357" lon="2.123825">
        <ele>697.460705</ele>
        <time>2020-08-09T05:24:46.736Z</time>
      </trkpt>
      <trkpt lat="41.761302" lon="2.123676">
        <ele>698.191703</ele>
        <time>2020-08-09T05:24:49.729Z</time>
      </trkpt>
      <trkpt lat="41.761256" lon="2.123542">
        <ele>698.840315</ele>
        <time>2020-08-09T05:24:52.748Z</time>
      </trkpt>
      <trkpt lat="41.761206" lon="2.123439">
        <ele>699.380678</ele>
        <time>2020-08-09T05:24:55.722Z</time>
      </trkpt>
      <trkpt lat="41.761130" lon="2.123355">
        <ele>699.961309</ele>
        <time>2020-08-09T05:24:58.738Z</time>
      </trkpt>
      <trkpt lat="41.761083" lon="2.123229">
        <ele>700.580757</ele>
        <time>2020-08-09T05:25:02.736Z</time>
      </trkpt>
      <trkpt lat="41.760984" lon="2.123266">
        <ele>701.186597</ele>
        <time>2020-08-09T05:25:06.719Z</time>
      </trkpt>
      <trkpt lat="41.760900" lon="2.123341">
        <ele>701.781530</ele>
        <time>2020-08-09T05:25:10.721Z</time>
      </trkpt>
      <trkpt lat="41.760915" lon="2.123463">
        <ele>702.325217</ele>
        <time>2020-08-09T05:25:24.721Z</time>
      </trkpt>
      <trkpt lat="41.760992" lon="2.123539">
        <ele>702.888868</ele>
        <time>2020-08-09T05:25:39.725Z</time>
      </trkpt>
      <trkpt lat="41.760905" lon="2.123581">
        <ele>703.433955</ele>
        <time>2020-08-09T05:26:04.729Z</time>
      </trkpt>
      <trkpt lat="41.760811" lon="2.123585">
        <ele>703.988347</ele>
        <time>2020-08-09T05:26:13.737Z</time>
      </trkpt>
      <trkpt lat="41.760721" lon="2.123599">
        <ele>704.522439</ele>
        <time>2020-08-09T05:26:26.714Z</time>
      </trkpt>
      <trkpt lat="41.760628" lon="2.123614">
        <ele>705.074610</ele>
        <time>2020-08-09T05:26:30.728Z</time>
      </trkpt>
      <trkpt lat="41.760534" lon="2.123635">
        <ele>705.636364</ele>
        <time>2020-08-09T05:26:34.739Z</time>
      </trkpt>
      <trkpt lat="41.760434" lon="2.123661">
        <ele>706.425009</ele>
        <time>2020-08-09T05:26:38.744Z</time>
      </trkpt>
      <trkpt lat="41.760338" lon="2.123688">
        <ele>707.215072</ele>
        <time>2020-08-09T05:26:42.739Z</time>
      </trkpt>
      <trkpt lat="41.760236" lon="2.123735">
        <ele>708.083804</ele>
        <time>2020-08-09T05:26:46.738Z</time>
      </trkpt>
      <trkpt lat="41.760136" lon="2.123779">
        <ele>708.931525</ele>
        <time>2020-08-09T05:26:50.727Z</time>
      </trkpt>
      <trkpt lat="41.760036" lon="2.123803">
        <ele>709.749778</ele>
        <time>2020-08-09T05:26:54.738Z</time>
      </trkpt>
      <trkpt lat="41.759950" lon="2.123851">
        <ele>710.500099</ele>
        <time>2020-08-09T05:26:58.728Z</time>
      </trkpt>
      <trkpt lat="41.759843" lon="2.123902">
        <ele>711.414780</ele>
        <time>2020-08-09T05:27:03.725Z</time>
      </trkpt>
      <trkpt lat="41.759734" lon="2.123941">
        <ele>712.323449</ele>
        <time>2020-08-09T05:27:07.749Z</time>
      </trkpt>
      <trkpt lat="41.759625" lon="2.123958">
        <ele>713.207309</ele>
        <time>2020-08-09T05:27:11.742Z</time>
      </trkpt>
      <trkpt lat="41.759523" lon="2.123992">
        <ele>714.053881</ele>
        <time>2020-08-09T05:27:15.736Z</time>
      </trkpt>
      <trkpt lat="41.759407" lon="2.124038">
        <ele>715.028220</ele>
        <time>2020-08-09T05:27:38.720Z</time>
      </trkpt>
      <trkpt lat="41.759298" lon="2.124017">
        <ele>715.915178</ele>
        <time>2020-08-09T05:27:49.729Z</time>
      </trkpt>
      <trkpt lat="41.759194" lon="2.123991">
        <ele>716.767285</ele>
        <time>2020-08-09T05:27:55.725Z</time>
      </trkpt>
      <trkpt lat="41.759200" lon="2.123869">
        <ele>717.501882</ele>
        <time>2020-08-09T05:28:09.732Z</time>
      </trkpt>
      <trkpt lat="41.759218" lon="2.123742">
        <ele>718.278579</ele>
        <time>2020-08-09T05:28:14.738Z</time>
      </trkpt>
      <trkpt lat="41.759130" lon="2.123703">
        <ele>719.025101</ele>
        <time>2020-08-09T05:28:28.702Z</time>
      </trkpt>
      <trkpt lat="41.759098" lon="2.123582">
        <ele>719.796436</ele>
        <time>2020-08-09T05:28:36.733Z</time>
      </trkpt>
      <trkpt lat="41.759072" lon="2.123461">
        <ele>720.509533</ele>
        <time>2020-08-09T05:28:41.714Z</time>
      </trkpt>
      <trkpt lat="41.759053" lon="2.123326">
        <ele>721.230268</ele>
        <time>2020-08-09T05:28:46.720Z</time>
      </trkpt>
      <trkpt lat="41.759034" lon="2.123195">
        <ele>721.930393</ele>
        <time>2020-08-09T05:28:56.739Z</time>
      </trkpt>
      <trkpt lat="41.759015" lon="2.123072">
        <ele>722.589369</ele>
        <time>2020-08-09T05:29:05.744Z</time>
      </trkpt>
      <trkpt lat="41.758988" lon="2.122946">
        <ele>723.277126</ele>
        <time>2020-08-09T05:29:27.723Z</time>
      </trkpt>
      <trkpt lat="41.758976" lon="2.122691">
        <ele>724.617573</ele>
        <time>2020-08-09T05:29:55.732Z</time>
      </trkpt>
      <trkpt lat="41.758874" lon="2.122716">
        <ele>725.346822</ele>
        <time>2020-08-09T05:30:00.745Z</time>
      </trkpt>
      <trkpt lat="41.758772" lon="2.122775">
        <ele>726.128109</ele>
        <time>2020-08-09T05:30:04.736Z</time>
      </trkpt>
      <trkpt lat="41.758661" lon="2.122793">
        <ele>726.914453</ele>
        <time>2020-08-09T05:30:08.728Z</time>
      </trkpt>
      <trkpt lat="41.758475" lon="2.122833">
        <ele>728.239301</ele>
        <time>2020-08-09T05:30:50.727Z</time>
      </trkpt>
      <trkpt lat="41.758376" lon="2.122887">
        <ele>728.990989</ele>
        <time>2020-08-09T05:31:01.723Z</time>
      </trkpt>
      <trkpt lat="41.758303" lon="2.122983">
        <ele>729.710182</ele>
        <time>2020-08-09T05:31:06.735Z</time>
      </trkpt>
      <trkpt lat="41.758249" lon="2.123091">
        <ele>730.392285</ele>
        <time>2020-08-09T05:31:10.724Z</time>
      </trkpt>
      <trkpt lat="41.758183" lon="2.123196">
        <ele>731.112634</ele>
        <time>2020-08-09T05:31:14.741Z</time>
      </trkpt>
      <trkpt lat="41.758083" lon="2.123273">
        <ele>731.923687</ele>
        <time>2020-08-09T05:31:18.736Z</time>
      </trkpt>
      <trkpt lat="41.757977" lon="2.123317">
        <ele>732.704097</ele>
        <time>2020-08-09T05:31:22.737Z</time>
      </trkpt>
      <trkpt lat="41.757880" lon="2.123355">
        <ele>733.501500</ele>
        <time>2020-08-09T05:31:26.729Z</time>
      </trkpt>
      <trkpt lat="41.757779" lon="2.123404">
        <ele>734.374930</ele>
        <time>2020-08-09T05:31:31.732Z</time>
      </trkpt>
      <trkpt lat="41.757679" lon="2.123464">
        <ele>735.265832</ele>
        <time>2020-08-09T05:31:36.766Z</time>
      </trkpt>
      <trkpt lat="41.757580" lon="2.123444">
        <ele>736.079958</ele>
        <time>2020-08-09T05:31:41.733Z</time>
      </trkpt>
      <trkpt lat="41.757491" lon="2.123512">
        <ele>736.912974</ele>
        <time>2020-08-09T05:31:47.759Z</time>
      </trkpt>
      <trkpt lat="41.757429" lon="2.123626">
        <ele>737.768769</ele>
        <time>2020-08-09T05:31:52.737Z</time>
      </trkpt>
      <trkpt lat="41.757346" lon="2.123712">
        <ele>738.621808</ele>
        <time>2020-08-09T05:31:58.736Z</time>
      </trkpt>
      <trkpt lat="41.757265" lon="2.123778">
        <ele>739.392604</ele>
        <time>2020-08-09T05:32:03.742Z</time>
      </trkpt>
      <trkpt lat="41.757168" lon="2.123828">
        <ele>740.237680</ele>
        <time>2020-08-09T05:32:09.768Z</time>
      </trkpt>
      <trkpt lat="41.757093" lon="2.123930">
        <ele>741.106461</ele>
        <time>2020-08-09T05:32:14.731Z</time>
      </trkpt>
      <trkpt lat="41.757022" lon="2.124017">
        <ele>741.888667</ele>
        <time>2020-08-09T05:32:19.741Z</time>
      </trkpt>
      <trkpt lat="41.756948" lon="2.124095">
        <ele>742.654152</ele>
        <time>2020-08-09T05:32:24.746Z</time>
      </trkpt>
      <trkpt lat="41.756872" lon="2.124188">
        <ele>743.490925</ele>
        <time>2020-08-09T05:32:28.742Z</time>
      </trkpt>
      <trkpt lat="41.756785" lon="2.124272">
        <ele>744.362782</ele>
        <time>2020-08-09T05:32:33.723Z</time>
      </trkpt>
      <trkpt lat="41.756693" lon="2.124283">
        <ele>745.113866</ele>
        <time>2020-08-09T05:32:37.709Z</time>
      </trkpt>
      <trkpt lat="41.756609" lon="2.124345">
        <ele>745.893622</ele>
        <time>2020-08-09T05:32:41.737Z</time>
      </trkpt>
      <trkpt lat="41.756530" lon="2.124439">
        <ele>746.752588</ele>
        <time>2020-08-09T05:32:45.725Z</time>
      </trkpt>
      <trkpt lat="41.756454" lon="2.124529">
        <ele>747.532300</ele>
        <time>2020-08-09T05:32:49.736Z</time>
      </trkpt>
      <trkpt lat="41.756379" lon="2.124614">
        <ele>747.937685</ele>
        <time>2020-08-09T05:32:53.723Z</time>
      </trkpt>
      <trkpt lat="41.756293" lon="2.124686">
        <ele>748.356204</ele>
        <time>2020-08-09T05:32:58.733Z</time>
      </trkpt>
      <trkpt lat="41.756199" lon="2.124761">
        <ele>748.807728</ele>
        <time>2020-08-09T05:33:03.749Z</time>
      </trkpt>
      <trkpt lat="41.756118" lon="2.124836">
        <ele>749.214070</ele>
        <time>2020-08-09T05:33:08.739Z</time>
      </trkpt>
      <trkpt lat="41.756024" lon="2.124902">
        <ele>749.652068</ele>
        <time>2020-08-09T05:33:13.718Z</time>
      </trkpt>
      <trkpt lat="41.755924" lon="2.124954">
        <ele>750.094799</ele>
        <time>2020-08-09T05:33:17.721Z</time>
      </trkpt>
      <trkpt lat="41.755822" lon="2.125007">
        <ele>750.546341</ele>
        <time>2020-08-09T05:33:21.735Z</time>
      </trkpt>
      <trkpt lat="41.755728" lon="2.125097">
        <ele>751.023144</ele>
        <time>2020-08-09T05:33:25.714Z</time>
      </trkpt>
      <trkpt lat="41.755629" lon="2.125193">
        <ele>751.527488</ele>
        <time>2020-08-09T05:33:29.738Z</time>
      </trkpt>
      <trkpt lat="41.755524" lon="2.125260">
        <ele>752.007487</ele>
        <time>2020-08-09T05:33:33.731Z</time>
      </trkpt>
      <trkpt lat="41.755416" lon="2.125314">
        <ele>752.483272</ele>
        <time>2020-08-09T05:33:37.713Z</time>
      </trkpt>
      <trkpt lat="41.755303" lon="2.125336">
        <ele>752.954588</ele>
        <time>2020-08-09T05:33:41.721Z</time>
      </trkpt>
      <trkpt lat="41.755187" lon="2.125319">
        <ele>753.436247</ele>
        <time>2020-08-09T05:33:45.741Z</time>
      </trkpt>
      <trkpt lat="41.755095" lon="2.125296">
        <ele>753.822537</ele>
        <time>2020-08-09T05:33:48.738Z</time>
      </trkpt>
      <trkpt lat="41.754978" lon="2.125309">
        <ele>754.307126</ele>
        <time>2020-08-09T05:33:52.742Z</time>
      </trkpt>
      <trkpt lat="41.754890" lon="2.125340">
        <ele>754.682691</ele>
        <time>2020-08-09T05:33:55.736Z</time>
      </trkpt>
      <trkpt lat="41.754789" lon="2.125416">
        <ele>754.717049</ele>
        <time>2020-08-09T05:33:59.736Z</time>
      </trkpt>
      <trkpt lat="41.754688" lon="2.125490">
        <ele>754.350989</ele>
        <time>2020-08-09T05:34:03.713Z</time>
      </trkpt>
      <trkpt lat="41.754598" lon="2.125575">
        <ele>754.000854</ele>
        <time>2020-08-09T05:34:07.738Z</time>
      </trkpt>
      <trkpt lat="41.754532" lon="2.125673">
        <ele>753.687617</ele>
        <time>2020-08-09T05:34:11.742Z</time>
      </trkpt>
      <trkpt lat="41.754433" lon="2.125687">
        <ele>753.371020</ele>
        <time>2020-08-09T05:34:15.715Z</time>
      </trkpt>
      <trkpt lat="41.754348" lon="2.125602">
        <ele>753.033759</ele>
        <time>2020-08-09T05:34:17.739Z</time>
      </trkpt>
      <trkpt lat="41.754242" lon="2.125515">
        <ele>752.638475</ele>
        <time>2020-08-09T05:34:19.727Z</time>
      </trkpt>
      <trkpt lat="41.754119" lon="2.125419">
        <ele>752.185821</ele>
        <time>2020-08-09T05:34:21.742Z</time>
      </trkpt>
      <trkpt lat="41.754025" lon="2.125272">
        <ele>751.726467</ele>
        <time>2020-08-09T05:34:23.727Z</time>
      </trkpt>
      <trkpt lat="41.753965" lon="2.125086">
        <ele>751.245685</ele>
        <time>2020-08-09T05:34:25.728Z</time>
      </trkpt>
      <trkpt lat="41.753919" lon="2.124911">
        <ele>750.805471</ele>
        <time>2020-08-09T05:34:27.724Z</time>
      </trkpt>
      <trkpt lat="41.753887" lon="2.124743">
        <ele>750.394096</ele>
        <time>2020-08-09T05:34:29.725Z</time>
      </trkpt>
      <trkpt lat="41.753882" lon="2.124560">
        <ele>749.959629</ele>
        <time>2020-08-09T05:34:31.738Z</time>
      </trkpt>
      <trkpt lat="41.753886" lon="2.124377">
        <ele>749.525267</ele>
        <time>2020-08-09T05:34:33.736Z</time>
      </trkpt>
      <trkpt lat="41.753868" lon="2.124206">
        <ele>749.185927</ele>
        <time>2020-08-09T05:34:35.729Z</time>
      </trkpt>
      <trkpt lat="41.753832" lon="2.124068">
        <ele>749.167303</ele>
        <time>2020-08-09T05:34:37.714Z</time>
      </trkpt>
      <trkpt lat="41.753758" lon="2.123947">
        <ele>749.147371</ele>
        <time>2020-08-09T05:34:39.722Z</time>
      </trkpt>
      <trkpt lat="41.753653" lon="2.123842">
        <ele>749.125002</ele>
        <time>2020-08-09T05:34:41.740Z</time>
      </trkpt>
      <trkpt lat="41.753524" lon="2.123742">
        <ele>749.099555</ele>
        <time>2020-08-09T05:34:43.732Z</time>
      </trkpt>
      <trkpt lat="41.753375" lon="2.123639">
        <ele>749.070928</ele>
        <time>2020-08-09T05:34:45.727Z</time>
      </trkpt>
      <trkpt lat="41.753213" lon="2.123537">
        <ele>749.040365</ele>
        <time>2020-08-09T05:34:47.740Z</time>
      </trkpt>
      <trkpt lat="41.753066" lon="2.123427">
        <ele>749.011617</ele>
        <time>2020-08-09T05:34:49.734Z</time>
      </trkpt>
      <trkpt lat="41.752938" lon="2.123294">
        <ele>748.983961</ele>
        <time>2020-08-09T05:34:51.718Z</time>
      </trkpt>
      <trkpt lat="41.752833" lon="2.123157">
        <ele>748.958940</ele>
        <time>2020-08-09T05:34:53.740Z</time>
      </trkpt>
      <trkpt lat="41.752756" lon="2.123023">
        <ele>748.937392</ele>
        <time>2020-08-09T05:34:55.734Z</time>
      </trkpt>
      <trkpt lat="41.752696" lon="2.122903">
        <ele>748.918990</ele>
        <time>2020-08-09T05:34:58.710Z</time>
      </trkpt>
      <trkpt lat="41.752671" lon="2.122782">
        <ele>748.902995</ele>
        <time>2020-08-09T05:35:01.744Z</time>
      </trkpt>
      <trkpt lat="41.752625" lon="2.122655">
        <ele>748.885010</ele>
        <time>2020-08-09T05:35:05.731Z</time>
      </trkpt>
      <trkpt lat="41.752624" lon="2.122512">
        <ele>749.333934</ele>
        <time>2020-08-09T05:35:09.714Z</time>
      </trkpt>
      <trkpt lat="41.752636" lon="2.122350">
        <ele>749.919068</ele>
        <time>2020-08-09T05:35:12.727Z</time>
      </trkpt>
      <trkpt lat="41.752628" lon="2.122201">
        <ele>750.455998</ele>
        <time>2020-08-09T05:35:15.707Z</time>
      </trkpt>
      <trkpt lat="41.752516" lon="2.122145">
        <ele>751.031918</ele>
        <time>2020-08-09T05:35:18.738Z</time>
      </trkpt>
      <trkpt lat="41.752424" lon="2.122262">
        <ele>751.642910</ele>
        <time>2020-08-09T05:35:20.723Z</time>
      </trkpt>
      <trkpt lat="41.752355" lon="2.122358">
        <ele>752.122047</ele>
        <time>2020-08-09T05:35:22.732Z</time>
      </trkpt>
      <trkpt lat="41.752236" lon="2.122421">
        <ele>752.738471</ele>
        <time>2020-08-09T05:35:25.720Z</time>
      </trkpt>
      <trkpt lat="41.752120" lon="2.122472">
        <ele>753.326639</ele>
        <time>2020-08-09T05:35:28.732Z</time>
      </trkpt>
      <trkpt lat="41.752010" lon="2.122520">
        <ele>753.883981</ele>
        <time>2020-08-09T05:35:31.733Z</time>
      </trkpt>
      <trkpt lat="41.751894" lon="2.122565">
        <ele>754.465789</ele>
        <time>2020-08-09T05:35:34.710Z</time>
      </trkpt>
      <trkpt lat="41.751787" lon="2.122612">
        <ele>755.008275</ele>
        <time>2020-08-09T05:35:37.748Z</time>
      </trkpt>
      <trkpt lat="41.751678" lon="2.122646">
        <ele>755.547456</ele>
        <time>2020-08-09T05:35:40.716Z</time>
      </trkpt>
      <trkpt lat="41.751569" lon="2.122699">
        <ele>756.106089</ele>
        <time>2020-08-09T05:35:43.736Z</time>
      </trkpt>
      <trkpt lat="41.751459" lon="2.122748">
        <ele>756.664554</ele>
        <time>2020-08-09T05:35:46.735Z</time>
      </trkpt>
      <trkpt lat="41.751347" lon="2.122805">
        <ele>757.241741</ele>
        <time>2020-08-09T05:35:49.719Z</time>
      </trkpt>
      <trkpt lat="41.751244" lon="2.122862">
        <ele>757.763128</ele>
        <time>2020-08-09T05:35:52.702Z</time>
      </trkpt>
      <trkpt lat="41.751143" lon="2.122906">
        <ele>758.240373</ele>
        <time>2020-08-09T05:35:55.718Z</time>
      </trkpt>
      <trkpt lat="41.751042" lon="2.122942">
        <ele>758.710021</ele>
        <time>2020-08-09T05:35:58.721Z</time>
      </trkpt>
      <trkpt lat="41.750945" lon="2.122984">
        <ele>759.168100</ele>
        <time>2020-08-09T05:36:01.721Z</time>
      </trkpt>
      <trkpt lat="41.750854" lon="2.123043">
        <ele>759.622363</ele>
        <time>2020-08-09T05:36:04.735Z</time>
      </trkpt>
      <trkpt lat="41.750756" lon="2.123062">
        <ele>760.067340</ele>
        <time>2020-08-09T05:36:35.722Z</time>
      </trkpt>
      <trkpt lat="41.750669" lon="2.123116">
        <ele>760.498184</ele>
        <time>2020-08-09T05:36:39.736Z</time>
      </trkpt>
      <trkpt lat="41.750578" lon="2.123143">
        <ele>760.917020</ele>
        <time>2020-08-09T05:36:42.740Z</time>
      </trkpt>
      <trkpt lat="41.750474" lon="2.123197">
        <ele>761.418217</ele>
        <time>2020-08-09T05:36:46.711Z</time>
      </trkpt>
      <trkpt lat="41.750381" lon="2.123262">
        <ele>761.889545</ele>
        <time>2020-08-09T05:36:50.722Z</time>
      </trkpt>
      <trkpt lat="41.750273" lon="2.123301">
        <ele>762.392181</ele>
        <time>2020-08-09T05:36:54.740Z</time>
      </trkpt>
      <trkpt lat="41.750177" lon="2.123319">
        <ele>762.827787</ele>
        <time>2020-08-09T05:36:58.734Z</time>
      </trkpt>
      <trkpt lat="41.750099" lon="2.123211">
        <ele>763.331739</ele>
        <time>2020-08-09T05:37:02.733Z</time>
      </trkpt>
      <trkpt lat="41.750048" lon="2.123105">
        <ele>763.754611</ele>
        <time>2020-08-09T05:37:05.714Z</time>
      </trkpt>
      <trkpt lat="41.749995" lon="2.122993">
        <ele>764.199271</ele>
        <time>2020-08-09T05:37:08.742Z</time>
      </trkpt>
      <trkpt lat="41.749941" lon="2.122878">
        <ele>764.654835</ele>
        <time>2020-08-09T05:37:11.740Z</time>
      </trkpt>
      <trkpt lat="41.749887" lon="2.122764">
        <ele>765.107566</ele>
        <time>2020-08-09T05:37:14.710Z</time>
      </trkpt>
      <trkpt lat="41.749831" lon="2.122657">
        <ele>765.545766</ele>
        <time>2020-08-09T05:37:17.739Z</time>
      </trkpt>
      <trkpt lat="41.749768" lon="2.122554">
        <ele>765.681699</ele>
        <time>2020-08-09T05:37:20.729Z</time>
      </trkpt>
      <trkpt lat="41.749735" lon="2.122438">
        <ele>765.739918</ele>
        <time>2020-08-09T05:37:23.713Z</time>
      </trkpt>
      <trkpt lat="41.749718" lon="2.122315">
        <ele>765.798582</ele>
        <time>2020-08-09T05:37:26.736Z</time>
      </trkpt>
      <trkpt lat="41.749718" lon="2.122184">
        <ele>765.860015</ele>
        <time>2020-08-09T05:37:29.717Z</time>
      </trkpt>
      <trkpt lat="41.749736" lon="2.122031">
        <ele>765.932652</ele>
        <time>2020-08-09T05:37:32.714Z</time>
      </trkpt>
      <trkpt lat="41.749721" lon="2.121849">
        <ele>766.018521</ele>
        <time>2020-08-09T05:37:35.738Z</time>
      </trkpt>
      <trkpt lat="41.749761" lon="2.121684">
        <ele>766.099881</ele>
        <time>2020-08-09T05:37:38.736Z</time>
      </trkpt>
      <trkpt lat="41.749777" lon="2.121511">
        <ele>766.181632</ele>
        <time>2020-08-09T05:37:41.738Z</time>
      </trkpt>
      <trkpt lat="41.749794" lon="2.121377">
        <ele>766.245374</ele>
        <time>2020-08-09T05:37:43.710Z</time>
      </trkpt>
      <trkpt lat="41.749813" lon="2.121223">
        <ele>766.318574</ele>
        <time>2020-08-09T05:37:46.745Z</time>
      </trkpt>
      <trkpt lat="41.749816" lon="2.121047">
        <ele>766.401131</ele>
        <time>2020-08-09T05:37:49.731Z</time>
      </trkpt>
      <trkpt lat="41.749831" lon="2.120885">
        <ele>766.477685</ele>
        <time>2020-08-09T05:37:52.714Z</time>
      </trkpt>
      <trkpt lat="41.749840" lon="2.120749">
        <ele>766.541713</ele>
        <time>2020-08-09T05:37:54.722Z</time>
      </trkpt>
      <trkpt lat="41.749869" lon="2.120623">
        <ele>766.603550</ele>
        <time>2020-08-09T05:37:56.747Z</time>
      </trkpt>
      <trkpt lat="41.749909" lon="2.120502">
        <ele>766.665614</ele>
        <time>2020-08-09T05:37:58.708Z</time>
      </trkpt>
      <trkpt lat="41.749978" lon="2.120363">
        <ele>766.743910</ele>
        <time>2020-08-09T05:38:01.708Z</time>
      </trkpt>
      <trkpt lat="41.750031" lon="2.120193">
        <ele>766.761772</ele>
        <time>2020-08-09T05:38:04.736Z</time>
      </trkpt>
      <trkpt lat="41.750074" lon="2.120036">
        <ele>766.761772</ele>
        <time>2020-08-09T05:38:07.741Z</time>
      </trkpt>
      <trkpt lat="41.750139" lon="2.119905">
        <ele>766.761772</ele>
        <time>2020-08-09T05:38:10.739Z</time>
      </trkpt>
      <trkpt lat="41.750184" lon="2.119761">
        <ele>766.761772</ele>
        <time>2020-08-09T05:38:13.723Z</time>
      </trkpt>
      <trkpt lat="41.750221" lon="2.119620">
        <ele>766.761772</ele>
        <time>2020-08-09T05:38:16.730Z</time>
      </trkpt>
      <trkpt lat="41.750260" lon="2.119485">
        <ele>766.761772</ele>
        <time>2020-08-09T05:38:19.722Z</time>
      </trkpt>
      <trkpt lat="41.750298" lon="2.119353">
        <ele>766.761772</ele>
        <time>2020-08-09T05:38:23.737Z</time>
      </trkpt>
      <trkpt lat="41.750218" lon="2.119448">
        <ele>766.761772</ele>
        <time>2020-08-09T06:03:04.719Z</time>
      </trkpt>
      <trkpt lat="41.750161" lon="2.119557">
        <ele>766.761772</ele>
        <time>2020-08-09T06:03:07.722Z</time>
      </trkpt>
      <trkpt lat="41.750243" lon="2.119460">
        <ele>766.761772</ele>
        <time>2020-08-09T06:03:16.737Z</time>
      </trkpt>
      <trkpt lat="41.750307" lon="2.119367">
        <ele>766.761772</ele>
        <time>2020-08-09T06:03:21.728Z</time>
      </trkpt>
      <trkpt lat="41.750175" lon="2.119576">
        <ele>766.761772</ele>
        <time>2020-08-09T06:03:45.721Z</time>
      </trkpt>
      <trkpt lat="41.750132" lon="2.119715">
        <ele>766.761772</ele>
        <time>2020-08-09T06:03:48.720Z</time>
      </trkpt>
      <trkpt lat="41.750071" lon="2.119845">
        <ele>766.761772</ele>
        <time>2020-08-09T06:03:51.716Z</time>
      </trkpt>
      <trkpt lat="41.750020" lon="2.119980">
        <ele>766.761772</ele>
        <time>2020-08-09T06:03:54.726Z</time>
      </trkpt>
      <trkpt lat="41.749976" lon="2.120116">
        <ele>766.761772</ele>
        <time>2020-08-09T06:03:57.740Z</time>
      </trkpt>
      <trkpt lat="41.749938" lon="2.120255">
        <ele>766.761772</ele>
        <time>2020-08-09T06:04:00.733Z</time>
      </trkpt>
      <trkpt lat="41.749898" lon="2.120389">
        <ele>766.761772</ele>
        <time>2020-08-09T06:04:03.714Z</time>
      </trkpt>
      <trkpt lat="41.749856" lon="2.120502">
        <ele>766.761772</ele>
        <time>2020-08-09T06:04:06.721Z</time>
      </trkpt>
      <trkpt lat="41.749817" lon="2.120611">
        <ele>766.761772</ele>
        <time>2020-08-09T06:04:09.710Z</time>
      </trkpt>
      <trkpt lat="41.749804" lon="2.120649">
        <ele>766.761772</ele>
        <time>2020-08-09T06:04:10.778Z</time>
      </trkpt>
      <trkpt lat="41.749784" lon="2.120722">
        <ele>771.743807</ele>
        <time>2020-08-09T06:05:02.707Z</time>
      </trkpt>
      <trkpt lat="41.749716" lon="2.121954">
        <ele>771.639938</ele>
        <time>2020-08-09T06:05:03.760Z</time>
      </trkpt>
      <trkpt lat="41.749690" lon="2.122109">
        <ele>771.088771</ele>
        <time>2020-08-09T06:05:06.200Z</time>
      </trkpt>
      <trkpt lat="41.749684" lon="2.122287">
        <ele>770.470604</ele>
        <time>2020-08-09T06:05:09.198Z</time>
      </trkpt>
      <trkpt lat="41.749693" lon="2.122457">
        <ele>769.879339</ele>
        <time>2020-08-09T06:05:12.204Z</time>
      </trkpt>
      <trkpt lat="41.749728" lon="2.122582">
        <ele>769.416140</ele>
        <time>2020-08-09T06:05:14.207Z</time>
      </trkpt>
      <trkpt lat="41.749793" lon="2.122705">
        <ele>768.893210</ele>
        <time>2020-08-09T06:05:17.201Z</time>
      </trkpt>
      <trkpt lat="41.749868" lon="2.122861">
        <ele>768.249359</ele>
        <time>2020-08-09T06:05:20.184Z</time>
      </trkpt>
      <trkpt lat="41.749936" lon="2.122976">
        <ele>767.740276</ele>
        <time>2020-08-09T06:05:22.214Z</time>
      </trkpt>
      <trkpt lat="41.750014" lon="2.123103">
        <ele>767.169584</ele>
        <time>2020-08-09T06:05:24.206Z</time>
      </trkpt>
      <trkpt lat="41.750078" lon="2.123205">
        <ele>766.707205</ele>
        <time>2020-08-09T06:05:26.222Z</time>
      </trkpt>
      <trkpt lat="41.750139" lon="2.123325">
        <ele>766.203439</ele>
        <time>2020-08-09T06:05:29.223Z</time>
      </trkpt>
      <trkpt lat="41.750184" lon="2.123441">
        <ele>765.749848</ele>
        <time>2020-08-09T06:05:32.207Z</time>
      </trkpt>
      <trkpt lat="41.750223" lon="2.123603">
        <ele>765.159289</ele>
        <time>2020-08-09T06:05:35.215Z</time>
      </trkpt>
      <trkpt lat="41.750251" lon="2.123727">
        <ele>764.709826</ele>
        <time>2020-08-09T06:05:37.221Z</time>
      </trkpt>
      <trkpt lat="41.750301" lon="2.123883">
        <ele>764.120788</ele>
        <time>2020-08-09T06:05:40.229Z</time>
      </trkpt>
      <trkpt lat="41.750381" lon="2.124004">
        <ele>763.559887</ele>
        <time>2020-08-09T06:05:43.213Z</time>
      </trkpt>
      <trkpt lat="41.750456" lon="2.124103">
        <ele>763.379817</ele>
        <time>2020-08-09T06:05:46.209Z</time>
      </trkpt>
      <trkpt lat="41.750524" lon="2.124193">
        <ele>763.379817</ele>
        <time>2020-08-09T06:05:49.225Z</time>
      </trkpt>
      <trkpt lat="41.750586" lon="2.124285">
        <ele>763.379817</ele>
        <time>2020-08-09T06:05:52.212Z</time>
      </trkpt>
      <trkpt lat="41.750632" lon="2.124390">
        <ele>763.379817</ele>
        <time>2020-08-09T06:05:55.205Z</time>
      </trkpt>
      <trkpt lat="41.750691" lon="2.124512">
        <ele>763.379817</ele>
        <time>2020-08-09T06:05:59.211Z</time>
      </trkpt>
      <trkpt lat="41.750750" lon="2.124639">
        <ele>763.379817</ele>
        <time>2020-08-09T06:06:03.212Z</time>
      </trkpt>
      <trkpt lat="41.750794" lon="2.124745">
        <ele>763.379817</ele>
        <time>2020-08-09T06:06:06.229Z</time>
      </trkpt>
      <trkpt lat="41.750845" lon="2.124845">
        <ele>763.379817</ele>
        <time>2020-08-09T06:06:09.222Z</time>
      </trkpt>
      <trkpt lat="41.750894" lon="2.124955">
        <ele>763.379817</ele>
        <time>2020-08-09T06:06:12.231Z</time>
      </trkpt>
      <trkpt lat="41.750939" lon="2.125069">
        <ele>763.379817</ele>
        <time>2020-08-09T06:06:15.188Z</time>
      </trkpt>
      <trkpt lat="41.750982" lon="2.125191">
        <ele>763.379817</ele>
        <time>2020-08-09T06:06:18.221Z</time>
      </trkpt>
      <trkpt lat="41.751033" lon="2.125302">
        <ele>763.379817</ele>
        <time>2020-08-09T06:06:21.189Z</time>
      </trkpt>
      <trkpt lat="41.751075" lon="2.125427">
        <ele>763.379817</ele>
        <time>2020-08-09T06:06:24.188Z</time>
      </trkpt>
      <trkpt lat="41.751126" lon="2.125543">
        <ele>763.379817</ele>
        <time>2020-08-09T06:06:27.208Z</time>
      </trkpt>
      <trkpt lat="41.751169" lon="2.125657">
        <ele>763.379817</ele>
        <time>2020-08-09T06:06:30.208Z</time>
      </trkpt>
      <trkpt lat="41.751186" lon="2.125781">
        <ele>763.379817</ele>
        <time>2020-08-09T06:06:33.195Z</time>
      </trkpt>
      <trkpt lat="41.751186" lon="2.125781">
        <ele>763.379817</ele>
        <time>2020-08-09T06:06:33.531Z</time>
      </trkpt>
      <trkpt lat="41.751338" lon="2.128600">
        <ele>783.437793</ele>
        <time>2020-08-09T06:07:46.035Z</time>
      </trkpt>
      <trkpt lat="41.751366" lon="2.128718">
        <ele>783.437793</ele>
        <time>2020-08-09T06:07:48.137Z</time>
      </trkpt>
      <trkpt lat="41.751409" lon="2.128863">
        <ele>783.437793</ele>
        <time>2020-08-09T06:07:52.130Z</time>
      </trkpt>
      <trkpt lat="41.751461" lon="2.128966">
        <ele>783.437793</ele>
        <time>2020-08-09T06:07:55.132Z</time>
      </trkpt>
      <trkpt lat="41.751498" lon="2.129082">
        <ele>783.437793</ele>
        <time>2020-08-09T06:07:58.173Z</time>
      </trkpt>
      <trkpt lat="41.751537" lon="2.129205">
        <ele>783.437793</ele>
        <time>2020-08-09T06:08:01.136Z</time>
      </trkpt>
      <trkpt lat="41.751582" lon="2.129339">
        <ele>783.437793</ele>
        <time>2020-08-09T06:08:04.163Z</time>
      </trkpt>
      <trkpt lat="41.751635" lon="2.129475">
        <ele>783.437793</ele>
        <time>2020-08-09T06:08:07.151Z</time>
      </trkpt>
      <trkpt lat="41.751695" lon="2.129620">
        <ele>783.437793</ele>
        <time>2020-08-09T06:08:10.182Z</time>
      </trkpt>
      <trkpt lat="41.751758" lon="2.129769">
        <ele>783.458591</ele>
        <time>2020-08-09T06:08:13.180Z</time>
      </trkpt>
      <trkpt lat="41.751801" lon="2.129888">
        <ele>783.487226</ele>
        <time>2020-08-09T06:08:15.167Z</time>
      </trkpt>
      <trkpt lat="41.751844" lon="2.130000">
        <ele>783.514504</ele>
        <time>2020-08-09T06:08:17.154Z</time>
      </trkpt>
      <trkpt lat="41.751896" lon="2.130167">
        <ele>783.553694</ele>
        <time>2020-08-09T06:08:20.175Z</time>
      </trkpt>
      <trkpt lat="41.751934" lon="2.130287">
        <ele>783.581926</ele>
        <time>2020-08-09T06:08:22.166Z</time>
      </trkpt>
      <trkpt lat="41.751975" lon="2.130401">
        <ele>783.609333</ele>
        <time>2020-08-09T06:08:24.172Z</time>
      </trkpt>
      <trkpt lat="41.752012" lon="2.130523">
        <ele>783.637854</ele>
        <time>2020-08-09T06:08:26.151Z</time>
      </trkpt>
      <trkpt lat="41.752050" lon="2.130636">
        <ele>783.664696</ele>
        <time>2020-08-09T06:08:28.168Z</time>
      </trkpt>
      <trkpt lat="41.752092" lon="2.130760">
        <ele>783.694188</ele>
        <time>2020-08-09T06:08:30.165Z</time>
      </trkpt>
      <trkpt lat="41.752137" lon="2.130875">
        <ele>783.722311</ele>
        <time>2020-08-09T06:08:32.167Z</time>
      </trkpt>
      <trkpt lat="41.752185" lon="2.130994">
        <ele>783.751608</ele>
        <time>2020-08-09T06:08:34.179Z</time>
      </trkpt>
      <trkpt lat="41.752225" lon="2.131113">
        <ele>783.779874</ele>
        <time>2020-08-09T06:08:36.145Z</time>
      </trkpt>
      <trkpt lat="41.752265" lon="2.131243">
        <ele>783.810327</ele>
        <time>2020-08-09T06:08:38.172Z</time>
      </trkpt>
      <trkpt lat="41.752306" lon="2.131371">
        <ele>783.840494</ele>
        <time>2020-08-09T06:08:40.154Z</time>
      </trkpt>
      <trkpt lat="41.752351" lon="2.131500">
        <ele>783.871334</ele>
        <time>2020-08-09T06:08:42.176Z</time>
      </trkpt>
      <trkpt lat="41.752394" lon="2.131624">
        <ele>783.900947</ele>
        <time>2020-08-09T06:08:44.177Z</time>
      </trkpt>
      <trkpt lat="41.752434" lon="2.131742">
        <ele>783.929015</ele>
        <time>2020-08-09T06:08:46.159Z</time>
      </trkpt>
      <trkpt lat="41.752473" lon="2.131867">
        <ele>783.958358</ele>
        <time>2020-08-09T06:08:48.168Z</time>
      </trkpt>
      <trkpt lat="41.752516" lon="2.131988">
        <ele>784.170199</ele>
        <time>2020-08-09T06:08:50.173Z</time>
      </trkpt>
      <trkpt lat="41.752566" lon="2.132123">
        <ele>784.420071</ele>
        <time>2020-08-09T06:08:52.155Z</time>
      </trkpt>
      <trkpt lat="41.752615" lon="2.132249">
        <ele>784.655636</ele>
        <time>2020-08-09T06:08:54.174Z</time>
      </trkpt>
      <trkpt lat="41.752665" lon="2.132377">
        <ele>784.895168</ele>
        <time>2020-08-09T06:08:56.157Z</time>
      </trkpt>
      <trkpt lat="41.752719" lon="2.132503">
        <ele>785.136070</ele>
        <time>2020-08-09T06:08:58.169Z</time>
      </trkpt>
      <trkpt lat="41.752760" lon="2.132643">
        <ele>785.385410</ele>
        <time>2020-08-09T06:09:00.138Z</time>
      </trkpt>
      <trkpt lat="41.752810" lon="2.132787">
        <ele>785.648729</ele>
        <time>2020-08-09T06:09:02.173Z</time>
      </trkpt>
      <trkpt lat="41.752857" lon="2.132927">
        <ele>785.903243</ele>
        <time>2020-08-09T06:09:04.166Z</time>
      </trkpt>
      <trkpt lat="41.752900" lon="2.133063">
        <ele>786.148121</ele>
        <time>2020-08-09T06:09:06.159Z</time>
      </trkpt>
      <trkpt lat="41.752950" lon="2.133208">
        <ele>786.412943</ele>
        <time>2020-08-09T06:09:08.143Z</time>
      </trkpt>
      <trkpt lat="41.752999" lon="2.133337">
        <ele>786.652928</ele>
        <time>2020-08-09T06:09:10.167Z</time>
      </trkpt>
      <trkpt lat="41.753046" lon="2.133472">
        <ele>786.899906</ele>
        <time>2020-08-09T06:09:12.152Z</time>
      </trkpt>
      <trkpt lat="41.753097" lon="2.133612">
        <ele>787.158194</ele>
        <time>2020-08-09T06:09:14.165Z</time>
      </trkpt>
      <trkpt lat="41.753140" lon="2.133745">
        <ele>787.398500</ele>
        <time>2020-08-09T06:09:16.176Z</time>
      </trkpt>
      <trkpt lat="41.753200" lon="2.133872">
        <ele>787.647712</ele>
        <time>2020-08-09T06:09:18.172Z</time>
      </trkpt>
      <trkpt lat="41.753253" lon="2.134003">
        <ele>787.894767</ele>
        <time>2020-08-09T06:09:20.179Z</time>
      </trkpt>
      <trkpt lat="41.753312" lon="2.134115">
        <ele>788.181075</ele>
        <time>2020-08-09T06:09:22.143Z</time>
      </trkpt>
      <trkpt lat="41.753381" lon="2.134212">
        <ele>788.482649</ele>
        <time>2020-08-09T06:09:24.162Z</time>
      </trkpt>
      <trkpt lat="41.753443" lon="2.134299">
        <ele>788.753368</ele>
        <time>2020-08-09T06:09:26.156Z</time>
      </trkpt>
      <trkpt lat="41.753509" lon="2.134387">
        <ele>789.034140</ele>
        <time>2020-08-09T06:09:28.149Z</time>
      </trkpt>
      <trkpt lat="41.753588" lon="2.134477">
        <ele>789.346842</ele>
        <time>2020-08-09T06:09:30.151Z</time>
      </trkpt>
      <trkpt lat="41.753670" lon="2.134559">
        <ele>789.655403</ele>
        <time>2020-08-09T06:09:32.154Z</time>
      </trkpt>
      <trkpt lat="41.753744" lon="2.134660">
        <ele>789.973931</ele>
        <time>2020-08-09T06:09:34.174Z</time>
      </trkpt>
      <trkpt lat="41.753827" lon="2.134748">
        <ele>790.293110</ele>
        <time>2020-08-09T06:09:36.175Z</time>
      </trkpt>
      <trkpt lat="41.753896" lon="2.134834">
        <ele>790.577283</ele>
        <time>2020-08-09T06:09:38.148Z</time>
      </trkpt>
      <trkpt lat="41.753981" lon="2.134917">
        <ele>790.894462</ele>
        <time>2020-08-09T06:09:40.176Z</time>
      </trkpt>
      <trkpt lat="41.754065" lon="2.135001">
        <ele>791.210549</ele>
        <time>2020-08-09T06:09:42.166Z</time>
      </trkpt>
      <trkpt lat="41.754135" lon="2.135101">
        <ele>791.519097</ele>
        <time>2020-08-09T06:09:44.167Z</time>
      </trkpt>
      <trkpt lat="41.754229" lon="2.135175">
        <ele>791.847888</ele>
        <time>2020-08-09T06:09:46.166Z</time>
      </trkpt>
      <trkpt lat="41.754306" lon="2.135270">
        <ele>792.163525</ele>
        <time>2020-08-09T06:09:48.144Z</time>
      </trkpt>
      <trkpt lat="41.754379" lon="2.135367">
        <ele>792.473545</ele>
        <time>2020-08-09T06:09:50.147Z</time>
      </trkpt>
      <trkpt lat="41.754446" lon="2.135456">
        <ele>792.758040</ele>
        <time>2020-08-09T06:09:52.166Z</time>
      </trkpt>
      <trkpt lat="41.754530" lon="2.135540">
        <ele>793.074125</ele>
        <time>2020-08-09T06:09:54.155Z</time>
      </trkpt>
      <trkpt lat="41.754624" lon="2.135645">
        <ele>793.372151</ele>
        <time>2020-08-09T06:09:56.145Z</time>
      </trkpt>
      <trkpt lat="41.754717" lon="2.135739">
        <ele>793.316877</ele>
        <time>2020-08-09T06:09:58.166Z</time>
      </trkpt>
      <trkpt lat="41.754805" lon="2.135842">
        <ele>793.261438</ele>
        <time>2020-08-09T06:10:00.171Z</time>
      </trkpt>
      <trkpt lat="41.754901" lon="2.135928">
        <ele>793.206644</ele>
        <time>2020-08-09T06:10:02.162Z</time>
      </trkpt>
      <trkpt lat="41.755000" lon="2.136053">
        <ele>793.142104</ele>
        <time>2020-08-09T06:10:04.164Z</time>
      </trkpt>
      <trkpt lat="41.755089" lon="2.136144">
        <ele>793.088985</ele>
        <time>2020-08-09T06:10:06.138Z</time>
      </trkpt>
      <trkpt lat="41.755185" lon="2.136246">
        <ele>793.030853</ele>
        <time>2020-08-09T06:10:08.174Z</time>
      </trkpt>
      <trkpt lat="41.755280" lon="2.136336">
        <ele>792.975649</ele>
        <time>2020-08-09T06:10:10.174Z</time>
      </trkpt>
      <trkpt lat="41.755369" lon="2.136427">
        <ele>792.922530</ele>
        <time>2020-08-09T06:10:12.139Z</time>
      </trkpt>
      <trkpt lat="41.755471" lon="2.136533">
        <ele>792.861283</ele>
        <time>2020-08-09T06:10:14.170Z</time>
      </trkpt>
      <trkpt lat="41.755568" lon="2.136631">
        <ele>792.803642</ele>
        <time>2020-08-09T06:10:16.165Z</time>
      </trkpt>
      <trkpt lat="41.755652" lon="2.136734">
        <ele>792.749618</ele>
        <time>2020-08-09T06:10:18.161Z</time>
      </trkpt>
      <trkpt lat="41.755746" lon="2.136831">
        <ele>792.693324</ele>
        <time>2020-08-09T06:10:20.171Z</time>
      </trkpt>
      <trkpt lat="41.755838" lon="2.136920">
        <ele>792.639484</ele>
        <time>2020-08-09T06:10:22.156Z</time>
      </trkpt>
      <trkpt lat="41.755920" lon="2.137007">
        <ele>792.589857</ele>
        <time>2020-08-09T06:10:24.174Z</time>
      </trkpt>
      <trkpt lat="41.755993" lon="2.137091">
        <ele>792.544203</ele>
        <time>2020-08-09T06:10:26.174Z</time>
      </trkpt>
      <trkpt lat="41.756082" lon="2.137174">
        <ele>792.733051</ele>
        <time>2020-08-09T06:10:28.166Z</time>
      </trkpt>
      <trkpt lat="41.756166" lon="2.137268">
        <ele>793.032557</ele>
        <time>2020-08-09T06:10:30.159Z</time>
      </trkpt>
      <trkpt lat="41.756250" lon="2.137364">
        <ele>793.334695</ele>
        <time>2020-08-09T06:10:32.161Z</time>
      </trkpt>
      <trkpt lat="41.756316" lon="2.137449">
        <ele>793.585211</ele>
        <time>2020-08-09T06:10:34.173Z</time>
      </trkpt>
      <trkpt lat="41.756405" lon="2.137526">
        <ele>793.875149</ele>
        <time>2020-08-09T06:10:36.168Z</time>
      </trkpt>
      <trkpt lat="41.756487" lon="2.137619">
        <ele>794.169149</ele>
        <time>2020-08-09T06:10:38.174Z</time>
      </trkpt>
      <trkpt lat="41.756578" lon="2.137708">
        <ele>794.477477</ele>
        <time>2020-08-09T06:10:40.144Z</time>
      </trkpt>
      <trkpt lat="41.756659" lon="2.137781">
        <ele>794.744634</ele>
        <time>2020-08-09T06:10:42.163Z</time>
      </trkpt>
      <trkpt lat="41.756725" lon="2.137874">
        <ele>795.006731</ele>
        <time>2020-08-09T06:10:44.155Z</time>
      </trkpt>
      <trkpt lat="41.756805" lon="2.137973">
        <ele>795.304744</ele>
        <time>2020-08-09T06:10:46.161Z</time>
      </trkpt>
      <trkpt lat="41.756883" lon="2.138062">
        <ele>795.585111</ele>
        <time>2020-08-09T06:10:48.165Z</time>
      </trkpt>
      <trkpt lat="41.756958" lon="2.138130">
        <ele>795.832943</ele>
        <time>2020-08-09T06:10:50.177Z</time>
      </trkpt>
      <trkpt lat="41.757031" lon="2.138218">
        <ele>796.101665</ele>
        <time>2020-08-09T06:10:52.168Z</time>
      </trkpt>
      <trkpt lat="41.757106" lon="2.138295">
        <ele>796.360241</ele>
        <time>2020-08-09T06:10:54.145Z</time>
      </trkpt>
      <trkpt lat="41.757178" lon="2.138398">
        <ele>796.648458</ele>
        <time>2020-08-09T06:10:56.171Z</time>
      </trkpt>
      <trkpt lat="41.757248" lon="2.138490">
        <ele>796.916784</ele>
        <time>2020-08-09T06:10:58.165Z</time>
      </trkpt>
      <trkpt lat="41.757312" lon="2.138595">
        <ele>797.193645</ele>
        <time>2020-08-09T06:11:00.172Z</time>
      </trkpt>
      <trkpt lat="41.757376" lon="2.138700">
        <ele>797.507530</ele>
        <time>2020-08-09T06:11:02.158Z</time>
      </trkpt>
      <trkpt lat="41.757449" lon="2.138851">
        <ele>798.587982</ele>
        <time>2020-08-09T06:11:05.174Z</time>
      </trkpt>
      <trkpt lat="41.757496" lon="2.138998">
        <ele>799.548318</ele>
        <time>2020-08-09T06:11:08.152Z</time>
      </trkpt>
      <trkpt lat="41.757543" lon="2.139130">
        <ele>800.426585</ele>
        <time>2020-08-09T06:11:11.162Z</time>
      </trkpt>
      <trkpt lat="41.757601" lon="2.139245">
        <ele>801.260127</ele>
        <time>2020-08-09T06:11:14.167Z</time>
      </trkpt>
      <trkpt lat="41.757647" lon="2.139365">
        <ele>802.070247</ele>
        <time>2020-08-09T06:11:17.168Z</time>
      </trkpt>
      <trkpt lat="41.757690" lon="2.139473">
        <ele>802.805330</ele>
        <time>2020-08-09T06:11:20.165Z</time>
      </trkpt>
      <trkpt lat="41.757757" lon="2.139607">
        <ele>803.773967</ele>
        <time>2020-08-09T06:11:24.171Z</time>
      </trkpt>
      <trkpt lat="41.757803" lon="2.139720">
        <ele>804.546940</ele>
        <time>2020-08-09T06:11:27.136Z</time>
      </trkpt>
      <trkpt lat="41.757851" lon="2.139830">
        <ele>805.312150</ele>
        <time>2020-08-09T06:11:30.177Z</time>
      </trkpt>
      <trkpt lat="41.757907" lon="2.139940">
        <ele>806.111808</ele>
        <time>2020-08-09T06:11:33.176Z</time>
      </trkpt>
      <trkpt lat="41.757959" lon="2.140053">
        <ele>806.909042</ele>
        <time>2020-08-09T06:11:36.176Z</time>
      </trkpt>
      <trkpt lat="41.758019" lon="2.140160">
        <ele>807.712810</ele>
        <time>2020-08-09T06:11:39.172Z</time>
      </trkpt>
      <trkpt lat="41.758073" lon="2.140264">
        <ele>808.473666</ele>
        <time>2020-08-09T06:11:42.160Z</time>
      </trkpt>
      <trkpt lat="41.758125" lon="2.140377">
        <ele>809.270899</ele>
        <time>2020-08-09T06:11:45.158Z</time>
      </trkpt>
      <trkpt lat="41.758174" lon="2.140492">
        <ele>810.066127</ele>
        <time>2020-08-09T06:11:48.143Z</time>
      </trkpt>
      <trkpt lat="41.758221" lon="2.140604">
        <ele>810.837745</ele>
        <time>2020-08-09T06:11:51.145Z</time>
      </trkpt>
      <trkpt lat="41.758265" lon="2.140722">
        <ele>811.629869</ele>
        <time>2020-08-09T06:11:54.142Z</time>
      </trkpt>
      <trkpt lat="41.758317" lon="2.140842">
        <ele>812.159443</ele>
        <time>2020-08-09T06:11:57.145Z</time>
      </trkpt>
      <trkpt lat="41.758372" lon="2.140967">
        <ele>812.535002</ele>
        <time>2020-08-09T06:12:00.166Z</time>
      </trkpt>
      <trkpt lat="41.758433" lon="2.141088">
        <ele>812.912933</ele>
        <time>2020-08-09T06:12:03.170Z</time>
      </trkpt>
      <trkpt lat="41.758497" lon="2.141210">
        <ele>813.298901</ele>
        <time>2020-08-09T06:12:06.164Z</time>
      </trkpt>
      <trkpt lat="41.758561" lon="2.141338">
        <ele>813.697669</ele>
        <time>2020-08-09T06:12:09.176Z</time>
      </trkpt>
      <trkpt lat="41.758617" lon="2.141474">
        <ele>814.099672</ele>
        <time>2020-08-09T06:12:12.141Z</time>
      </trkpt>
      <trkpt lat="41.758681" lon="2.141606">
        <ele>814.507080</ele>
        <time>2020-08-09T06:12:15.174Z</time>
      </trkpt>
      <trkpt lat="41.758739" lon="2.141736">
        <ele>814.899077</ele>
        <time>2020-08-09T06:12:18.174Z</time>
      </trkpt>
      <trkpt lat="41.758789" lon="2.141872">
        <ele>815.291444</ele>
        <time>2020-08-09T06:12:21.165Z</time>
      </trkpt>
      <trkpt lat="41.758849" lon="2.141996">
        <ele>815.673930</ele>
        <time>2020-08-09T06:12:24.173Z</time>
      </trkpt>
      <trkpt lat="41.758908" lon="2.142120">
        <ele>816.054539</ele>
        <time>2020-08-09T06:12:27.169Z</time>
      </trkpt>
      <trkpt lat="41.758963" lon="2.142249">
        <ele>816.439048</ele>
        <time>2020-08-09T06:12:30.133Z</time>
      </trkpt>
      <trkpt lat="41.759022" lon="2.142380">
        <ele>816.835049</ele>
        <time>2020-08-09T06:12:33.165Z</time>
      </trkpt>
      <trkpt lat="41.759082" lon="2.142511">
        <ele>817.232854</ele>
        <time>2020-08-09T06:12:36.166Z</time>
      </trkpt>
      <trkpt lat="41.759138" lon="2.142639">
        <ele>817.616860</ele>
        <time>2020-08-09T06:12:39.150Z</time>
      </trkpt>
      <trkpt lat="41.759200" lon="2.142763">
        <ele>818.003165</ele>
        <time>2020-08-09T06:12:42.141Z</time>
      </trkpt>
      <trkpt lat="41.759270" lon="2.142875">
        <ele>818.359440</ele>
        <time>2020-08-09T06:12:45.173Z</time>
      </trkpt>
      <trkpt lat="41.759339" lon="2.142992">
        <ele>818.705663</ele>
        <time>2020-08-09T06:12:48.174Z</time>
      </trkpt>
      <trkpt lat="41.759422" lon="2.143097">
        <ele>819.060800</ele>
        <time>2020-08-09T06:12:51.142Z</time>
      </trkpt>
      <trkpt lat="41.759502" lon="2.143197">
        <ele>819.401188</ele>
        <time>2020-08-09T06:12:54.142Z</time>
      </trkpt>
      <trkpt lat="41.759600" lon="2.143269">
        <ele>819.748952</ele>
        <time>2020-08-09T06:12:57.157Z</time>
      </trkpt>
      <trkpt lat="41.759709" lon="2.143329">
        <ele>820.115633</ele>
        <time>2020-08-09T06:13:00.156Z</time>
      </trkpt>
      <trkpt lat="41.759818" lon="2.143392">
        <ele>820.485015</ele>
        <time>2020-08-09T06:13:03.182Z</time>
      </trkpt>
      <trkpt lat="41.759945" lon="2.143435">
        <ele>820.892639</ele>
        <time>2020-08-09T06:13:06.178Z</time>
      </trkpt>
      <trkpt lat="41.760034" lon="2.143469">
        <ele>821.180626</ele>
        <time>2020-08-09T06:13:08.135Z</time>
      </trkpt>
      <trkpt lat="41.760157" lon="2.143538">
        <ele>821.595552</ele>
        <time>2020-08-09T06:13:11.173Z</time>
      </trkpt>
      <trkpt lat="41.760252" lon="2.143575">
        <ele>821.903408</ele>
        <time>2020-08-09T06:13:13.179Z</time>
      </trkpt>
      <trkpt lat="41.760353" lon="2.143596">
        <ele>822.221470</ele>
        <time>2020-08-09T06:13:15.168Z</time>
      </trkpt>
      <trkpt lat="41.760450" lon="2.143640">
        <ele>822.540138</ele>
        <time>2020-08-09T06:13:17.148Z</time>
      </trkpt>
      <trkpt lat="41.760580" lon="2.143676">
        <ele>822.953228</ele>
        <time>2020-08-09T06:13:20.152Z</time>
      </trkpt>
      <trkpt lat="41.760680" lon="2.143704">
        <ele>823.271135</ele>
        <time>2020-08-09T06:13:22.169Z</time>
      </trkpt>
      <trkpt lat="41.760772" lon="2.143749">
        <ele>823.575893</ele>
        <time>2020-08-09T06:13:24.160Z</time>
      </trkpt>
      <trkpt lat="41.760874" lon="2.143802">
        <ele>823.765578</ele>
        <time>2020-08-09T06:13:26.137Z</time>
      </trkpt>
      <trkpt lat="41.760967" lon="2.143856">
        <ele>823.763904</ele>
        <time>2020-08-09T06:13:28.187Z</time>
      </trkpt>
      <trkpt lat="41.761065" lon="2.143861">
        <ele>823.762285</ele>
        <time>2020-08-09T06:13:30.153Z</time>
      </trkpt>
      <trkpt lat="41.761163" lon="2.143905">
        <ele>823.760579</ele>
        <time>2020-08-09T06:13:32.175Z</time>
      </trkpt>
      <trkpt lat="41.761255" lon="2.143948">
        <ele>823.758970</ele>
        <time>2020-08-09T06:13:34.175Z</time>
      </trkpt>
      <trkpt lat="41.761352" lon="2.143971">
        <ele>823.757344</ele>
        <time>2020-08-09T06:13:36.143Z</time>
      </trkpt>
      <trkpt lat="41.761449" lon="2.143996">
        <ele>823.755713</ele>
        <time>2020-08-09T06:13:38.188Z</time>
      </trkpt>
      <trkpt lat="41.761545" lon="2.144037">
        <ele>823.754050</ele>
        <time>2020-08-09T06:13:40.155Z</time>
      </trkpt>
      <trkpt lat="41.761654" lon="2.144070">
        <ele>823.752205</ele>
        <time>2020-08-09T06:13:42.160Z</time>
      </trkpt>
      <trkpt lat="41.761758" lon="2.144099">
        <ele>823.750451</ele>
        <time>2020-08-09T06:13:44.156Z</time>
      </trkpt>
      <trkpt lat="41.761863" lon="2.144137">
        <ele>823.748656</ele>
        <time>2020-08-09T06:13:46.157Z</time>
      </trkpt>
      <trkpt lat="41.761960" lon="2.144169">
        <ele>823.747007</ele>
        <time>2020-08-09T06:13:48.172Z</time>
      </trkpt>
      <trkpt lat="41.762066" lon="2.144205">
        <ele>823.745201</ele>
        <time>2020-08-09T06:13:50.155Z</time>
      </trkpt>
      <trkpt lat="41.762160" lon="2.144241">
        <ele>823.743587</ele>
        <time>2020-08-09T06:13:52.137Z</time>
      </trkpt>
      <trkpt lat="41.762255" lon="2.144271">
        <ele>823.741976</ele>
        <time>2020-08-09T06:13:54.170Z</time>
      </trkpt>
      <trkpt lat="41.762354" lon="2.144312">
        <ele>823.740265</ele>
        <time>2020-08-09T06:13:56.151Z</time>
      </trkpt>
      <trkpt lat="41.762442" lon="2.144343">
        <ele>823.738763</ele>
        <time>2020-08-09T06:13:58.141Z</time>
      </trkpt>
      <trkpt lat="41.762533" lon="2.144369">
        <ele>823.737227</ele>
        <time>2020-08-09T06:14:00.173Z</time>
      </trkpt>
      <trkpt lat="41.762633" lon="2.144401">
        <ele>823.404138</ele>
        <time>2020-08-09T06:14:02.139Z</time>
      </trkpt>
      <trkpt lat="41.762742" lon="2.144439">
        <ele>822.865754</ele>
        <time>2020-08-09T06:14:04.147Z</time>
      </trkpt>
      <trkpt lat="41.762835" lon="2.144461">
        <ele>822.414316</ele>
        <time>2020-08-09T06:14:06.149Z</time>
      </trkpt>
      <trkpt lat="41.762939" lon="2.144505">
        <ele>821.892995</ele>
        <time>2020-08-09T06:14:08.161Z</time>
      </trkpt>
      <trkpt lat="41.763038" lon="2.144533">
        <ele>821.409327</ele>
        <time>2020-08-09T06:14:10.171Z</time>
      </trkpt>
      <trkpt lat="41.763141" lon="2.144581">
        <ele>820.888055</ele>
        <time>2020-08-09T06:14:12.161Z</time>
      </trkpt>
      <trkpt lat="41.763275" lon="2.144629">
        <ele>820.225021</ele>
        <time>2020-08-09T06:14:15.157Z</time>
      </trkpt>
      <trkpt lat="41.763378" lon="2.144669">
        <ele>819.712406</ele>
        <time>2020-08-09T06:14:17.149Z</time>
      </trkpt>
      <trkpt lat="41.763480" lon="2.144711">
        <ele>819.202334</ele>
        <time>2020-08-09T06:14:19.152Z</time>
      </trkpt>
      <trkpt lat="41.763577" lon="2.144753">
        <ele>818.715059</ele>
        <time>2020-08-09T06:14:21.156Z</time>
      </trkpt>
      <trkpt lat="41.763677" lon="2.144786">
        <ele>818.222758</ele>
        <time>2020-08-09T06:14:23.149Z</time>
      </trkpt>
      <trkpt lat="41.763780" lon="2.144828">
        <ele>817.708115</ele>
        <time>2020-08-09T06:14:25.149Z</time>
      </trkpt>
      <trkpt lat="41.763879" lon="2.144864">
        <ele>817.217763</ele>
        <time>2020-08-09T06:14:27.155Z</time>
      </trkpt>
      <trkpt lat="41.763965" lon="2.144902">
        <ele>816.784903</ele>
        <time>2020-08-09T06:14:29.173Z</time>
      </trkpt>
      <trkpt lat="41.764056" lon="2.144961">
        <ele>816.301696</ele>
        <time>2020-08-09T06:14:31.159Z</time>
      </trkpt>
      <trkpt lat="41.764147" lon="2.145028">
        <ele>815.805405</ele>
        <time>2020-08-09T06:14:33.180Z</time>
      </trkpt>
      <trkpt lat="41.764225" lon="2.145099">
        <ele>815.354720</ele>
        <time>2020-08-09T06:14:35.144Z</time>
      </trkpt>
      <trkpt lat="41.764312" lon="2.145182">
        <ele>815.621562</ele>
        <time>2020-08-09T06:14:37.170Z</time>
      </trkpt>
      <trkpt lat="41.764386" lon="2.145273">
        <ele>816.409310</ele>
        <time>2020-08-09T06:14:39.142Z</time>
      </trkpt>
      <trkpt lat="41.764459" lon="2.145367">
        <ele>817.203353</ele>
        <time>2020-08-09T06:14:41.162Z</time>
      </trkpt>
      <trkpt lat="41.764524" lon="2.145467">
        <ele>817.979506</ele>
        <time>2020-08-09T06:14:43.139Z</time>
      </trkpt>
      <trkpt lat="41.764584" lon="2.145568">
        <ele>818.735039</ele>
        <time>2020-08-09T06:14:45.160Z</time>
      </trkpt>
      <trkpt lat="41.764648" lon="2.145684">
        <ele>819.579317</ele>
        <time>2020-08-09T06:14:47.145Z</time>
      </trkpt>
      <trkpt lat="41.764708" lon="2.145802">
        <ele>820.414961</ele>
        <time>2020-08-09T06:14:49.164Z</time>
      </trkpt>
      <trkpt lat="41.764777" lon="2.145907">
        <ele>821.233798</ele>
        <time>2020-08-09T06:14:51.167Z</time>
      </trkpt>
      <trkpt lat="41.764837" lon="2.145997">
        <ele>821.940120</ele>
        <time>2020-08-09T06:14:53.151Z</time>
      </trkpt>
      <trkpt lat="41.764897" lon="2.146113">
        <ele>822.766120</ele>
        <time>2020-08-09T06:14:55.162Z</time>
      </trkpt>
      <trkpt lat="41.764962" lon="2.146228">
        <ele>823.610412</ele>
        <time>2020-08-09T06:14:57.135Z</time>
      </trkpt>
      <trkpt lat="41.765019" lon="2.146349">
        <ele>824.447816</ele>
        <time>2020-08-09T06:14:59.148Z</time>
      </trkpt>
      <trkpt lat="41.765103" lon="2.146486">
        <ele>825.485543</ele>
        <time>2020-08-09T06:15:02.147Z</time>
      </trkpt>
      <trkpt lat="41.765167" lon="2.146578">
        <ele>826.221665</ele>
        <time>2020-08-09T06:15:04.175Z</time>
      </trkpt>
      <trkpt lat="41.765236" lon="2.146705">
        <ele>827.141036</ele>
        <time>2020-08-09T06:15:07.178Z</time>
      </trkpt>
      <trkpt lat="41.765215" lon="2.146828">
        <ele>827.879370</ele>
        <time>2020-08-09T06:15:10.145Z</time>
      </trkpt>
      <trkpt lat="41.765139" lon="2.146931">
        <ele>828.727138</ele>
        <time>2020-08-09T06:15:13.152Z</time>
      </trkpt>
      <trkpt lat="41.765053" lon="2.147037">
        <ele>829.342526</ele>
        <time>2020-08-09T06:15:16.180Z</time>
      </trkpt>
      <trkpt lat="41.764967" lon="2.147158">
        <ele>829.574669</ele>
        <time>2020-08-09T06:15:19.163Z</time>
      </trkpt>
      <trkpt lat="41.764886" lon="2.147276">
        <ele>829.797406</ele>
        <time>2020-08-09T06:15:22.188Z</time>
      </trkpt>
      <trkpt lat="41.764805" lon="2.147397">
        <ele>830.023227</ele>
        <time>2020-08-09T06:15:25.159Z</time>
      </trkpt>
      <trkpt lat="41.764724" lon="2.147516">
        <ele>830.246989</ele>
        <time>2020-08-09T06:15:28.179Z</time>
      </trkpt>
      <trkpt lat="41.764644" lon="2.147635">
        <ele>830.469500</ele>
        <time>2020-08-09T06:15:31.144Z</time>
      </trkpt>
      <trkpt lat="41.764572" lon="2.147754">
        <ele>830.682325</ele>
        <time>2020-08-09T06:15:34.148Z</time>
      </trkpt>
      <trkpt lat="41.764491" lon="2.147857">
        <ele>830.890212</ele>
        <time>2020-08-09T06:15:37.164Z</time>
      </trkpt>
      <trkpt lat="41.764414" lon="2.147964">
        <ele>831.096721</ele>
        <time>2020-08-09T06:15:40.171Z</time>
      </trkpt>
      <trkpt lat="41.764340" lon="2.148069">
        <ele>831.297364</ele>
        <time>2020-08-09T06:15:43.170Z</time>
      </trkpt>
      <trkpt lat="41.764272" lon="2.148181">
        <ele>831.497947</ele>
        <time>2020-08-09T06:15:46.173Z</time>
      </trkpt>
      <trkpt lat="41.764203" lon="2.148287">
        <ele>831.693357</ele>
        <time>2020-08-09T06:15:49.147Z</time>
      </trkpt>
      <trkpt lat="41.764147" lon="2.148388">
        <ele>831.868154</ele>
        <time>2020-08-09T06:15:52.168Z</time>
      </trkpt>
      <trkpt lat="41.764074" lon="2.148471">
        <ele>832.046392</ele>
        <time>2020-08-09T06:15:55.162Z</time>
      </trkpt>
      <trkpt lat="41.764005" lon="2.148553">
        <ele>832.218092</ele>
        <time>2020-08-09T06:15:58.165Z</time>
      </trkpt>
      <trkpt lat="41.763917" lon="2.148593">
        <ele>832.391122</ele>
        <time>2020-08-09T06:16:01.160Z</time>
      </trkpt>
      <trkpt lat="41.763809" lon="2.148636">
        <ele>832.597435</ele>
        <time>2020-08-09T06:16:05.140Z</time>
      </trkpt>
      <trkpt lat="41.763718" lon="2.148682">
        <ele>832.551810</ele>
        <time>2020-08-09T06:16:08.171Z</time>
      </trkpt>
      <trkpt lat="41.763617" lon="2.148724">
        <ele>832.502200</ele>
        <time>2020-08-09T06:16:11.157Z</time>
      </trkpt>
      <trkpt lat="41.763516" lon="2.148761">
        <ele>832.453081</ele>
        <time>2020-08-09T06:16:14.169Z</time>
      </trkpt>
      <trkpt lat="41.763422" lon="2.148800">
        <ele>832.406919</ele>
        <time>2020-08-09T06:16:17.140Z</time>
      </trkpt>
      <trkpt lat="41.763326" lon="2.148844">
        <ele>832.359322</ele>
        <time>2020-08-09T06:16:20.148Z</time>
      </trkpt>
      <trkpt lat="41.763214" lon="2.148889">
        <ele>832.304470</ele>
        <time>2020-08-09T06:16:23.156Z</time>
      </trkpt>
      <trkpt lat="41.763088" lon="2.148956">
        <ele>832.240880</ele>
        <time>2020-08-09T06:16:26.142Z</time>
      </trkpt>
      <trkpt lat="41.762996" lon="2.148993">
        <ele>832.195819</ele>
        <time>2020-08-09T06:16:28.154Z</time>
      </trkpt>
      <trkpt lat="41.762899" lon="2.149025">
        <ele>832.148956</ele>
        <time>2020-08-09T06:16:30.158Z</time>
      </trkpt>
      <trkpt lat="41.762799" lon="2.149061">
        <ele>832.100380</ele>
        <time>2020-08-09T06:16:32.164Z</time>
      </trkpt>
      <trkpt lat="41.762698" lon="2.149095">
        <ele>832.051527</ele>
        <time>2020-08-09T06:16:34.155Z</time>
      </trkpt>
      <trkpt lat="41.762593" lon="2.149134">
        <ele>832.000412</ele>
        <time>2020-08-09T06:16:36.139Z</time>
      </trkpt>
      <trkpt lat="41.762475" lon="2.149187">
        <ele>831.942030</ele>
        <time>2020-08-09T06:16:38.181Z</time>
      </trkpt>
      <trkpt lat="41.762378" lon="2.149251">
        <ele>831.891311</ele>
        <time>2020-08-09T06:16:40.142Z</time>
      </trkpt>
      <trkpt lat="41.762277" lon="2.149332">
        <ele>831.836098</ele>
        <time>2020-08-09T06:16:42.144Z</time>
      </trkpt>
      <trkpt lat="41.762179" lon="2.149418">
        <ele>831.781149</ele>
        <time>2020-08-09T06:16:44.142Z</time>
      </trkpt>
      <trkpt lat="41.762087" lon="2.149502">
        <ele>831.761975</ele>
        <time>2020-08-09T06:16:46.158Z</time>
      </trkpt>
      <trkpt lat="41.761974" lon="2.149586">
        <ele>831.780222</ele>
        <time>2020-08-09T06:16:49.135Z</time>
      </trkpt>
      <trkpt lat="41.761880" lon="2.149652">
        <ele>831.795206</ele>
        <time>2020-08-09T06:16:51.158Z</time>
      </trkpt>
      <trkpt lat="41.761799" lon="2.149729">
        <ele>831.809229</ele>
        <time>2020-08-09T06:16:53.176Z</time>
      </trkpt>
      <trkpt lat="41.761711" lon="2.149807">
        <ele>831.824127</ele>
        <time>2020-08-09T06:16:55.179Z</time>
      </trkpt>
      <trkpt lat="41.761621" lon="2.149880">
        <ele>831.838982</ele>
        <time>2020-08-09T06:16:57.140Z</time>
      </trkpt>
      <trkpt lat="41.761529" lon="2.149961">
        <ele>831.854525</ele>
        <time>2020-08-09T06:16:59.163Z</time>
      </trkpt>
      <trkpt lat="41.761435" lon="2.150049">
        <ele>831.870716</ele>
        <time>2020-08-09T06:17:01.165Z</time>
      </trkpt>
      <trkpt lat="41.761349" lon="2.150139">
        <ele>831.886123</ele>
        <time>2020-08-09T06:17:03.165Z</time>
      </trkpt>
      <trkpt lat="41.761280" lon="2.150230">
        <ele>831.899792</ele>
        <time>2020-08-09T06:17:05.168Z</time>
      </trkpt>
      <trkpt lat="41.761197" lon="2.150301">
        <ele>831.913696</ele>
        <time>2020-08-09T06:17:07.172Z</time>
      </trkpt>
      <trkpt lat="41.761091" lon="2.150418">
        <ele>831.933086</ele>
        <time>2020-08-09T06:17:10.174Z</time>
      </trkpt>
      <trkpt lat="41.761025" lon="2.150502">
        <ele>831.945937</ele>
        <time>2020-08-09T06:17:12.159Z</time>
      </trkpt>
      <trkpt lat="41.760936" lon="2.150585">
        <ele>831.961248</ele>
        <time>2020-08-09T06:17:15.168Z</time>
      </trkpt>
      <trkpt lat="41.760849" lon="2.150668">
        <ele>831.976327</ele>
        <time>2020-08-09T06:17:18.142Z</time>
      </trkpt>
      <trkpt lat="41.760765" lon="2.150770">
        <ele>831.992332</ele>
        <time>2020-08-09T06:17:21.143Z</time>
      </trkpt>
      <trkpt lat="41.760738" lon="2.150892">
        <ele>832.005738</ele>
        <time>2020-08-09T06:17:24.155Z</time>
      </trkpt>
      <trkpt lat="41.760809" lon="2.150984">
        <ele>831.490784</ele>
        <time>2020-08-09T06:17:26.162Z</time>
      </trkpt>
      <trkpt lat="41.760897" lon="2.151060">
        <ele>830.816767</ele>
        <time>2020-08-09T06:17:28.172Z</time>
      </trkpt>
      <trkpt lat="41.760967" lon="2.151143">
        <ele>830.215048</ele>
        <time>2020-08-09T06:17:30.172Z</time>
      </trkpt>
      <trkpt lat="41.760956" lon="2.151310">
        <ele>829.409837</ele>
        <time>2020-08-09T06:17:33.173Z</time>
      </trkpt>
      <trkpt lat="41.760939" lon="2.151432">
        <ele>828.813743</ele>
        <time>2020-08-09T06:17:35.153Z</time>
      </trkpt>
      <trkpt lat="41.760927" lon="2.151579">
        <ele>828.103496</ele>
        <time>2020-08-09T06:17:37.165Z</time>
      </trkpt>
      <trkpt lat="41.761023" lon="2.151638">
        <ele>827.423507</ele>
        <time>2020-08-09T06:17:38.173Z</time>
      </trkpt>
      <trkpt lat="41.761162" lon="2.151666">
        <ele>826.518460</ele>
        <time>2020-08-09T06:17:40.164Z</time>
      </trkpt>
      <trkpt lat="41.761328" lon="2.151664">
        <ele>825.449567</ele>
        <time>2020-08-09T06:17:42.167Z</time>
      </trkpt>
      <trkpt lat="41.761421" lon="2.151661">
        <ele>824.850580</ele>
        <time>2020-08-09T06:17:43.161Z</time>
      </trkpt>
      <trkpt lat="41.761585" lon="2.151642">
        <ele>823.790673</ele>
        <time>2020-08-09T06:17:45.162Z</time>
      </trkpt>
      <trkpt lat="41.761754" lon="2.151626">
        <ele>822.699797</ele>
        <time>2020-08-09T06:17:47.155Z</time>
      </trkpt>
      <trkpt lat="41.761918" lon="2.151569">
        <ele>821.608915</ele>
        <time>2020-08-09T06:17:49.157Z</time>
      </trkpt>
      <trkpt lat="41.762088" lon="2.151522">
        <ele>820.491276</ele>
        <time>2020-08-09T06:17:51.152Z</time>
      </trkpt>
      <trkpt lat="41.762241" lon="2.151482">
        <ele>819.832342</ele>
        <time>2020-08-09T06:17:53.151Z</time>
      </trkpt>
      <trkpt lat="41.762355" lon="2.151477">
        <ele>819.367414</ele>
        <time>2020-08-09T06:17:55.149Z</time>
      </trkpt>
      <trkpt lat="41.762439" lon="2.151529">
        <ele>818.990279</ele>
        <time>2020-08-09T06:17:57.164Z</time>
      </trkpt>
      <trkpt lat="41.762504" lon="2.151424">
        <ele>818.575410</ele>
        <time>2020-08-09T06:18:01.157Z</time>
      </trkpt>
      <trkpt lat="41.762396" lon="2.151307">
        <ele>818.009423</ele>
        <time>2020-08-09T06:18:03.160Z</time>
      </trkpt>
      <trkpt lat="41.762254" lon="2.151286">
        <ele>817.427101</ele>
        <time>2020-08-09T06:18:05.164Z</time>
      </trkpt>
      <trkpt lat="41.762137" lon="2.151259">
        <ele>816.943179</ele>
        <time>2020-08-09T06:18:07.155Z</time>
      </trkpt>
      <trkpt lat="41.762019" lon="2.151203">
        <ele>816.432948</ele>
        <time>2020-08-09T06:18:09.166Z</time>
      </trkpt>
      <trkpt lat="41.761938" lon="2.151078">
        <ele>815.929506</ele>
        <time>2020-08-09T06:18:11.156Z</time>
      </trkpt>
      <trkpt lat="41.761906" lon="2.150921">
        <ele>815.434652</ele>
        <time>2020-08-09T06:18:13.169Z</time>
      </trkpt>
      <trkpt lat="41.761954" lon="2.150817">
        <ele>815.062808</ele>
        <time>2020-08-09T06:18:15.166Z</time>
      </trkpt>
      <trkpt lat="41.762050" lon="2.150775">
        <ele>814.651189</ele>
        <time>2020-08-09T06:18:17.153Z</time>
      </trkpt>
      <trkpt lat="41.762159" lon="2.150879">
        <ele>814.105856</ele>
        <time>2020-08-09T06:18:19.135Z</time>
      </trkpt>
      <trkpt lat="41.762296" lon="2.150942">
        <ele>813.515487</ele>
        <time>2020-08-09T06:18:21.157Z</time>
      </trkpt>
      <trkpt lat="41.762456" lon="2.151007">
        <ele>812.484572</ele>
        <time>2020-08-09T06:18:23.166Z</time>
      </trkpt>
      <trkpt lat="41.762545" lon="2.151040">
        <ele>811.605384</ele>
        <time>2020-08-09T06:18:24.155Z</time>
      </trkpt>
      <trkpt lat="41.762717" lon="2.151033">
        <ele>809.967005</ele>
        <time>2020-08-09T06:18:26.158Z</time>
      </trkpt>
      <trkpt lat="41.762880" lon="2.151011">
        <ele>808.407224</ele>
        <time>2020-08-09T06:18:28.161Z</time>
      </trkpt>
      <trkpt lat="41.763007" lon="2.151030">
        <ele>807.190542</ele>
        <time>2020-08-09T06:18:30.154Z</time>
      </trkpt>
      <trkpt lat="41.763162" lon="2.151096">
        <ele>805.642128</ele>
        <time>2020-08-09T06:18:32.162Z</time>
      </trkpt>
      <trkpt lat="41.763240" lon="2.151251">
        <ele>804.314259</ele>
        <time>2020-08-09T06:18:34.151Z</time>
      </trkpt>
      <trkpt lat="41.763326" lon="2.151429">
        <ele>802.808120</ele>
        <time>2020-08-09T06:18:36.148Z</time>
      </trkpt>
      <trkpt lat="41.763392" lon="2.151622">
        <ele>801.300293</ele>
        <time>2020-08-09T06:18:38.155Z</time>
      </trkpt>
      <trkpt lat="41.763447" lon="2.151818">
        <ele>799.813100</ele>
        <time>2020-08-09T06:18:40.153Z</time>
      </trkpt>
      <trkpt lat="41.763518" lon="2.151988">
        <ele>798.429428</ele>
        <time>2020-08-09T06:18:42.154Z</time>
      </trkpt>
      <trkpt lat="41.763554" lon="2.152122">
        <ele>797.417945</ele>
        <time>2020-08-09T06:18:44.156Z</time>
      </trkpt>
      <trkpt lat="41.763522" lon="2.152269">
        <ele>796.330435</ele>
        <time>2020-08-09T06:18:46.160Z</time>
      </trkpt>
      <trkpt lat="41.763436" lon="2.152371">
        <ele>795.300306</ele>
        <time>2020-08-09T06:18:48.169Z</time>
      </trkpt>
      <trkpt lat="41.763388" lon="2.152511">
        <ele>794.300220</ele>
        <time>2020-08-09T06:18:53.265Z</time>
      </trkpt>
      <trkpt lat="41.763327" lon="2.152683">
        <ele>793.064067</ele>
        <time>2020-08-09T06:18:53.289Z</time>
      </trkpt>
      <trkpt lat="41.763194" lon="2.152791">
        <ele>791.710998</ele>
        <time>2020-08-09T06:18:54.147Z</time>
      </trkpt>
      <trkpt lat="41.763121" lon="2.152869">
        <ele>790.898704</ele>
        <time>2020-08-09T06:18:55.148Z</time>
      </trkpt>
      <trkpt lat="41.763060" lon="2.152974">
        <ele>790.034863</ele>
        <time>2020-08-09T06:18:56.152Z</time>
      </trkpt>
      <trkpt lat="41.763009" lon="2.153082">
        <ele>789.205203</ele>
        <time>2020-08-09T06:18:57.152Z</time>
      </trkpt>
      <trkpt lat="41.762889" lon="2.153287">
        <ele>787.513804</ele>
        <time>2020-08-09T06:18:59.166Z</time>
      </trkpt>
      <trkpt lat="41.762813" lon="2.153363">
        <ele>786.688762</ele>
        <time>2020-08-09T06:19:00.142Z</time>
      </trkpt>
      <trkpt lat="41.762705" lon="2.153545">
        <ele>785.179232</ele>
        <time>2020-08-09T06:19:02.160Z</time>
      </trkpt>
      <trkpt lat="41.762592" lon="2.153673">
        <ele>783.891944</ele>
        <time>2020-08-09T06:19:04.169Z</time>
      </trkpt>
      <trkpt lat="41.762487" lon="2.153837">
        <ele>782.489117</ele>
        <time>2020-08-09T06:19:06.180Z</time>
      </trkpt>
      <trkpt lat="41.762411" lon="2.154050">
        <ele>780.956561</ele>
        <time>2020-08-09T06:19:08.160Z</time>
      </trkpt>
      <trkpt lat="41.762345" lon="2.154285">
        <ele>779.482902</ele>
        <time>2020-08-09T06:19:10.153Z</time>
      </trkpt>
      <trkpt lat="41.762330" lon="2.154406">
        <ele>778.812036</ele>
        <time>2020-08-09T06:19:11.156Z</time>
      </trkpt>
      <trkpt lat="41.762329" lon="2.154643">
        <ele>777.515782</ele>
        <time>2020-08-09T06:19:13.165Z</time>
      </trkpt>
      <trkpt lat="41.762321" lon="2.154874">
        <ele>776.251005</ele>
        <time>2020-08-09T06:19:15.158Z</time>
      </trkpt>
      <trkpt lat="41.762332" lon="2.154993">
        <ele>775.595175</ele>
        <time>2020-08-09T06:19:16.160Z</time>
      </trkpt>
      <trkpt lat="41.762338" lon="2.155220">
        <ele>774.352857</ele>
        <time>2020-08-09T06:19:18.168Z</time>
      </trkpt>
      <trkpt lat="41.762333" lon="2.155350">
        <ele>773.640899</ele>
        <time>2020-08-09T06:19:19.157Z</time>
      </trkpt>
      <trkpt lat="41.762335" lon="2.155479">
        <ele>772.935203</ele>
        <time>2020-08-09T06:19:20.150Z</time>
      </trkpt>
      <trkpt lat="41.762358" lon="2.155607">
        <ele>772.215101</ele>
        <time>2020-08-09T06:19:21.158Z</time>
      </trkpt>
      <trkpt lat="41.762346" lon="2.155733">
        <ele>771.520371</ele>
        <time>2020-08-09T06:19:22.150Z</time>
      </trkpt>
      <trkpt lat="41.762384" lon="2.155971">
        <ele>770.189183</ele>
        <time>2020-08-09T06:19:24.158Z</time>
      </trkpt>
      <trkpt lat="41.762380" lon="2.156113">
        <ele>769.411985</ele>
        <time>2020-08-09T06:19:25.147Z</time>
      </trkpt>
      <trkpt lat="41.762370" lon="2.156328">
        <ele>768.233795</ele>
        <time>2020-08-09T06:19:27.151Z</time>
      </trkpt>
      <trkpt lat="41.762355" lon="2.156511">
        <ele>767.226882</ele>
        <time>2020-08-09T06:19:29.157Z</time>
      </trkpt>
      <trkpt lat="41.762380" lon="2.156713">
        <ele>766.380561</ele>
        <time>2020-08-09T06:19:31.150Z</time>
      </trkpt>
      <trkpt lat="41.762408" lon="2.156910">
        <ele>765.576772</ele>
        <time>2020-08-09T06:19:33.155Z</time>
      </trkpt>
      <trkpt lat="41.762462" lon="2.157066">
        <ele>764.887472</ele>
        <time>2020-08-09T06:19:35.155Z</time>
      </trkpt>
      <trkpt lat="41.762545" lon="2.157154">
        <ele>764.318873</ele>
        <time>2020-08-09T06:19:37.144Z</time>
      </trkpt>
      <trkpt lat="41.762656" lon="2.157155">
        <ele>763.722420</ele>
        <time>2020-08-09T06:19:39.148Z</time>
      </trkpt>
      <trkpt lat="41.762784" lon="2.157155">
        <ele>763.034634</ele>
        <time>2020-08-09T06:19:41.153Z</time>
      </trkpt>
      <trkpt lat="41.762904" lon="2.157117">
        <ele>762.372092</ele>
        <time>2020-08-09T06:19:43.145Z</time>
      </trkpt>
      <trkpt lat="41.763024" lon="2.157111">
        <ele>761.726845</ele>
        <time>2020-08-09T06:19:45.164Z</time>
      </trkpt>
      <trkpt lat="41.763117" lon="2.157089">
        <ele>761.219406</ele>
        <time>2020-08-09T06:19:46.154Z</time>
      </trkpt>
      <trkpt lat="41.763257" lon="2.157070">
        <ele>760.463296</ele>
        <time>2020-08-09T06:19:48.155Z</time>
      </trkpt>
      <trkpt lat="41.763383" lon="2.157050">
        <ele>759.781528</ele>
        <time>2020-08-09T06:19:50.154Z</time>
      </trkpt>
      <trkpt lat="41.763536" lon="2.157043">
        <ele>758.958930</ele>
        <time>2020-08-09T06:19:52.154Z</time>
      </trkpt>
      <trkpt lat="41.763685" lon="2.157011">
        <ele>758.148097</ele>
        <time>2020-08-09T06:19:54.159Z</time>
      </trkpt>
      <trkpt lat="41.763775" lon="2.157007">
        <ele>757.664232</ele>
        <time>2020-08-09T06:19:55.153Z</time>
      </trkpt>
      <trkpt lat="41.763937" lon="2.156976">
        <ele>756.663294</ele>
        <time>2020-08-09T06:19:57.150Z</time>
      </trkpt>
      <trkpt lat="41.764085" lon="2.156962">
        <ele>755.723736</ele>
        <time>2020-08-09T06:19:59.154Z</time>
      </trkpt>
      <trkpt lat="41.764219" lon="2.156954">
        <ele>754.874324</ele>
        <time>2020-08-09T06:20:01.155Z</time>
      </trkpt>
      <trkpt lat="41.764349" lon="2.156988">
        <ele>754.035565</ele>
        <time>2020-08-09T06:20:03.159Z</time>
      </trkpt>
      <trkpt lat="41.764466" lon="2.157004">
        <ele>753.290804</ele>
        <time>2020-08-09T06:20:05.151Z</time>
      </trkpt>
      <trkpt lat="41.764559" lon="2.157028">
        <ele>752.691059</ele>
        <time>2020-08-09T06:20:07.153Z</time>
      </trkpt>
      <trkpt lat="41.764702" lon="2.157032">
        <ele>751.785298</ele>
        <time>2020-08-09T06:20:10.154Z</time>
      </trkpt>
      <trkpt lat="41.764718" lon="2.157185">
        <ele>751.055547</ele>
        <time>2020-08-09T06:20:14.150Z</time>
      </trkpt>
      <trkpt lat="41.764615" lon="2.157225">
        <ele>750.376474</ele>
        <time>2020-08-09T06:20:17.142Z</time>
      </trkpt>
      <trkpt lat="41.764497" lon="2.157249">
        <ele>749.620675</ele>
        <time>2020-08-09T06:20:20.157Z</time>
      </trkpt>
      <trkpt lat="41.764401" lon="2.157361">
        <ele>748.814792</ele>
        <time>2020-08-09T06:20:22.159Z</time>
      </trkpt>
      <trkpt lat="41.764289" lon="2.157412">
        <ele>748.065745</ele>
        <time>2020-08-09T06:20:24.161Z</time>
      </trkpt>
      <trkpt lat="41.764191" lon="2.157477">
        <ele>747.373355</ele>
        <time>2020-08-09T06:20:26.162Z</time>
      </trkpt>
      <trkpt lat="41.764098" lon="2.157531">
        <ele>746.731559</ele>
        <time>2020-08-09T06:20:28.154Z</time>
      </trkpt>
      <trkpt lat="41.763951" lon="2.157556">
        <ele>745.756301</ele>
        <time>2020-08-09T06:20:30.156Z</time>
      </trkpt>
      <trkpt lat="41.763825" lon="2.157613">
        <ele>744.804355</ele>
        <time>2020-08-09T06:20:32.165Z</time>
      </trkpt>
      <trkpt lat="41.763693" lon="2.157672">
        <ele>743.808290</ele>
        <time>2020-08-09T06:20:34.163Z</time>
      </trkpt>
      <trkpt lat="41.763559" lon="2.157746">
        <ele>742.770848</ele>
        <time>2020-08-09T06:20:36.163Z</time>
      </trkpt>
      <trkpt lat="41.763435" lon="2.157831">
        <ele>741.773882</ele>
        <time>2020-08-09T06:20:38.163Z</time>
      </trkpt>
      <trkpt lat="41.763363" lon="2.157938">
        <ele>741.004413</ele>
        <time>2020-08-09T06:20:40.162Z</time>
      </trkpt>
      <trkpt lat="41.763273" lon="2.157981">
        <ele>740.320451</ele>
        <time>2020-08-09T06:20:42.165Z</time>
      </trkpt>
      <trkpt lat="41.763181" lon="2.158088">
        <ele>739.448575</ele>
        <time>2020-08-09T06:20:44.154Z</time>
      </trkpt>
      <trkpt lat="41.763106" lon="2.158213">
        <ele>738.591985</ele>
        <time>2020-08-09T06:20:46.151Z</time>
      </trkpt>
      <trkpt lat="41.763015" lon="2.158397">
        <ele>737.413150</ele>
        <time>2020-08-09T06:20:48.156Z</time>
      </trkpt>
      <trkpt lat="41.762945" lon="2.158524">
        <ele>736.569961</ele>
        <time>2020-08-09T06:20:50.154Z</time>
      </trkpt>
      <trkpt lat="41.762905" lon="2.158711">
        <ele>735.531203</ele>
        <time>2020-08-09T06:20:52.157Z</time>
      </trkpt>
      <trkpt lat="41.762849" lon="2.158883">
        <ele>734.529107</ele>
        <time>2020-08-09T06:20:54.154Z</time>
      </trkpt>
      <trkpt lat="41.762821" lon="2.159025">
        <ele>733.744831</ele>
        <time>2020-08-09T06:20:56.151Z</time>
      </trkpt>
      <trkpt lat="41.762803" lon="2.159152">
        <ele>733.225117</ele>
        <time>2020-08-09T06:20:58.142Z</time>
      </trkpt>
      <trkpt lat="41.762739" lon="2.159255">
        <ele>733.346395</ele>
        <time>2020-08-09T06:21:03.150Z</time>
      </trkpt>
      <trkpt lat="41.762659" lon="2.159310">
        <ele>733.455438</ele>
        <time>2020-08-09T06:21:10.138Z</time>
      </trkpt>
      <trkpt lat="41.762749" lon="2.159247">
        <ele>733.578580</ele>
        <time>2020-08-09T06:21:31.161Z</time>
      </trkpt>
      <trkpt lat="41.762818" lon="2.159333">
        <ele>733.692847</ele>
        <time>2020-08-09T06:21:35.150Z</time>
      </trkpt>
      <trkpt lat="41.762837" lon="2.159463">
        <ele>733.812693</ele>
        <time>2020-08-09T06:21:39.162Z</time>
      </trkpt>
      <trkpt lat="41.762871" lon="2.159587">
        <ele>733.932213</ele>
        <time>2020-08-09T06:21:43.160Z</time>
      </trkpt>
      <trkpt lat="41.762946" lon="2.159683">
        <ele>734.057980</ele>
        <time>2020-08-09T06:21:48.156Z</time>
      </trkpt>
      <trkpt lat="41.763027" lon="2.159789">
        <ele>734.195267</ele>
        <time>2020-08-09T06:21:51.163Z</time>
      </trkpt>
      <trkpt lat="41.763108" lon="2.159846">
        <ele>734.306220</ele>
        <time>2020-08-09T06:21:53.166Z</time>
      </trkpt>
      <trkpt lat="41.763187" lon="2.159946">
        <ele>734.437997</ele>
        <time>2020-08-09T06:21:55.165Z</time>
      </trkpt>
      <trkpt lat="41.763262" lon="2.160012">
        <ele>734.546808</ele>
        <time>2020-08-09T06:21:57.168Z</time>
      </trkpt>
      <trkpt lat="41.763337" lon="2.160101">
        <ele>734.668288</ele>
        <time>2020-08-09T06:21:59.157Z</time>
      </trkpt>
      <trkpt lat="41.763427" lon="2.160162">
        <ele>734.790603</ele>
        <time>2020-08-09T06:22:01.173Z</time>
      </trkpt>
      <trkpt lat="41.763528" lon="2.160244">
        <ele>734.933814</ele>
        <time>2020-08-09T06:22:04.142Z</time>
      </trkpt>
      <trkpt lat="41.763623" lon="2.160303">
        <ele>735.060798</ele>
        <time>2020-08-09T06:22:07.152Z</time>
      </trkpt>
      <trkpt lat="41.763727" lon="2.160311">
        <ele>735.187144</ele>
        <time>2020-08-09T06:22:11.166Z</time>
      </trkpt>
      <trkpt lat="41.763820" lon="2.160304">
        <ele>735.300118</ele>
        <time>2020-08-09T06:22:15.149Z</time>
      </trkpt>
      <trkpt lat="41.763924" lon="2.160344">
        <ele>735.730308</ele>
        <time>2020-08-09T06:22:20.145Z</time>
      </trkpt>
      <trkpt lat="41.764018" lon="2.160417">
        <ele>736.659002</ele>
        <time>2020-08-09T06:22:25.165Z</time>
      </trkpt>
      <trkpt lat="41.764098" lon="2.160500">
        <ele>737.523796</ele>
        <time>2020-08-09T06:22:29.173Z</time>
      </trkpt>
      <trkpt lat="41.764183" lon="2.160597">
        <ele>738.478066</ele>
        <time>2020-08-09T06:22:33.169Z</time>
      </trkpt>
      <trkpt lat="41.764259" lon="2.160691">
        <ele>739.362051</ele>
        <time>2020-08-09T06:22:37.171Z</time>
      </trkpt>
      <trkpt lat="41.764326" lon="2.160810">
        <ele>740.312782</ele>
        <time>2020-08-09T06:22:41.170Z</time>
      </trkpt>
      <trkpt lat="41.764388" lon="2.160916">
        <ele>741.171743</ele>
        <time>2020-08-09T06:22:45.160Z</time>
      </trkpt>
      <trkpt lat="41.764444" lon="2.161034">
        <ele>742.063576</ele>
        <time>2020-08-09T06:22:49.161Z</time>
      </trkpt>
      <trkpt lat="41.764507" lon="2.161137">
        <ele>742.912960</ele>
        <time>2020-08-09T06:22:53.168Z</time>
      </trkpt>
      <trkpt lat="41.764588" lon="2.161221">
        <ele>743.788415</ele>
        <time>2020-08-09T06:22:57.178Z</time>
      </trkpt>
      <trkpt lat="41.764673" lon="2.161291">
        <ele>744.641224</ele>
        <time>2020-08-09T06:23:01.143Z</time>
      </trkpt>
      <trkpt lat="41.764760" lon="2.161368">
        <ele>745.532440</ele>
        <time>2020-08-09T06:23:06.177Z</time>
      </trkpt>
      <trkpt lat="41.764845" lon="2.161425">
        <ele>746.344937</ele>
        <time>2020-08-09T06:23:11.159Z</time>
      </trkpt>
      <trkpt lat="41.764933" lon="2.161511">
        <ele>747.275906</ele>
        <time>2020-08-09T06:23:16.175Z</time>
      </trkpt>
      <trkpt lat="41.765020" lon="2.161586">
        <ele>748.160159</ele>
        <time>2020-08-09T06:23:21.177Z</time>
      </trkpt>
      <trkpt lat="41.765120" lon="2.161672">
        <ele>749.175827</ele>
        <time>2020-08-09T06:23:26.174Z</time>
      </trkpt>
      <trkpt lat="41.765201" lon="2.161769">
        <ele>750.104315</ele>
        <time>2020-08-09T06:23:29.175Z</time>
      </trkpt>
      <trkpt lat="41.765267" lon="2.161854">
        <ele>750.708097</ele>
        <time>2020-08-09T06:23:31.158Z</time>
      </trkpt>
      <trkpt lat="41.765367" lon="2.161951">
        <ele>750.292623</ele>
        <time>2020-08-09T06:23:33.167Z</time>
      </trkpt>
      <trkpt lat="41.765485" lon="2.162085">
        <ele>749.772086</ele>
        <time>2020-08-09T06:23:35.173Z</time>
      </trkpt>
      <trkpt lat="41.765594" lon="2.162202">
        <ele>749.302073</ele>
        <time>2020-08-09T06:23:37.157Z</time>
      </trkpt>
      <trkpt lat="41.765681" lon="2.162332">
        <ele>748.863560</ele>
        <time>2020-08-09T06:23:39.172Z</time>
      </trkpt>
      <trkpt lat="41.765733" lon="2.162475">
        <ele>748.464133</ele>
        <time>2020-08-09T06:23:41.173Z</time>
      </trkpt>
      <trkpt lat="41.765762" lon="2.162610">
        <ele>748.111411</ele>
        <time>2020-08-09T06:23:43.168Z</time>
      </trkpt>
      <trkpt lat="41.765785" lon="2.162749">
        <ele>747.753939</ele>
        <time>2020-08-09T06:23:45.176Z</time>
      </trkpt>
      <trkpt lat="41.765839" lon="2.162876">
        <ele>747.386909</ele>
        <time>2020-08-09T06:23:47.148Z</time>
      </trkpt>
      <trkpt lat="41.765930" lon="2.162968">
        <ele>747.003263</ele>
        <time>2020-08-09T06:23:49.161Z</time>
      </trkpt>
      <trkpt lat="41.766032" lon="2.163036">
        <ele>746.619814</ele>
        <time>2020-08-09T06:23:51.164Z</time>
      </trkpt>
      <trkpt lat="41.766124" lon="2.163081">
        <ele>746.290166</ele>
        <time>2020-08-09T06:23:53.167Z</time>
      </trkpt>
      <trkpt lat="41.766209" lon="2.163130">
        <ele>745.978718</ele>
        <time>2020-08-09T06:23:55.152Z</time>
      </trkpt>
      <trkpt lat="41.766333" lon="2.163205">
        <ele>745.520811</ele>
        <time>2020-08-09T06:23:58.162Z</time>
      </trkpt>
      <trkpt lat="41.766420" lon="2.163254">
        <ele>745.203167</ele>
        <time>2020-08-09T06:24:00.164Z</time>
      </trkpt>
      <trkpt lat="41.766509" lon="2.163313">
        <ele>744.868962</ele>
        <time>2020-08-09T06:24:02.161Z</time>
      </trkpt>
      <trkpt lat="41.766604" lon="2.163352">
        <ele>744.777861</ele>
        <time>2020-08-09T06:24:04.168Z</time>
      </trkpt>
      <trkpt lat="41.766708" lon="2.163387">
        <ele>744.934843</ele>
        <time>2020-08-09T06:24:07.170Z</time>
      </trkpt>
      <trkpt lat="41.766831" lon="2.163417">
        <ele>745.117872</ele>
        <time>2020-08-09T06:24:10.159Z</time>
      </trkpt>
      <trkpt lat="41.766945" lon="2.163472">
        <ele>745.295247</ele>
        <time>2020-08-09T06:24:13.158Z</time>
      </trkpt>
      <trkpt lat="41.767078" lon="2.163515">
        <ele>745.495542</ele>
        <time>2020-08-09T06:24:16.157Z</time>
      </trkpt>
      <trkpt lat="41.767164" lon="2.163558">
        <ele>745.629918</ele>
        <time>2020-08-09T06:24:18.168Z</time>
      </trkpt>
      <trkpt lat="41.767278" lon="2.163616">
        <ele>745.808428</ele>
        <time>2020-08-09T06:24:21.161Z</time>
      </trkpt>
      <trkpt lat="41.767387" lon="2.163646">
        <ele>745.971334</ele>
        <time>2020-08-09T06:24:24.155Z</time>
      </trkpt>
      <trkpt lat="41.767495" lon="2.163671">
        <ele>746.131787</ele>
        <time>2020-08-09T06:24:27.159Z</time>
      </trkpt>
      <trkpt lat="41.767601" lon="2.163722">
        <ele>746.296662</ele>
        <time>2020-08-09T06:24:30.161Z</time>
      </trkpt>
      <trkpt lat="41.767710" lon="2.163744">
        <ele>746.458038</ele>
        <time>2020-08-09T06:24:35.162Z</time>
      </trkpt>
      <trkpt lat="41.767827" lon="2.163761">
        <ele>746.630331</ele>
        <time>2020-08-09T06:24:39.150Z</time>
      </trkpt>
      <trkpt lat="41.767941" lon="2.163753">
        <ele>746.797457</ele>
        <time>2020-08-09T06:24:43.166Z</time>
      </trkpt>
      <trkpt lat="41.768032" lon="2.163762">
        <ele>746.931045</ele>
        <time>2020-08-09T06:24:46.165Z</time>
      </trkpt>
      <trkpt lat="41.768130" lon="2.163777">
        <ele>747.075450</ele>
        <time>2020-08-09T06:24:49.162Z</time>
      </trkpt>
      <trkpt lat="41.768238" lon="2.163807">
        <ele>747.236922</ele>
        <time>2020-08-09T06:24:53.144Z</time>
      </trkpt>
      <trkpt lat="41.768336" lon="2.163838">
        <ele>747.250221</ele>
        <time>2020-08-09T06:24:57.160Z</time>
      </trkpt>
      <trkpt lat="41.768431" lon="2.163895">
        <ele>746.967662</ele>
        <time>2020-08-09T06:25:01.160Z</time>
      </trkpt>
      <trkpt lat="41.768508" lon="2.164042">
        <ele>746.603935</ele>
        <time>2020-08-09T06:25:04.158Z</time>
      </trkpt>
      <trkpt lat="41.768605" lon="2.164168">
        <ele>746.237272</ele>
        <time>2020-08-09T06:25:07.168Z</time>
      </trkpt>
      <trkpt lat="41.768698" lon="2.164260">
        <ele>745.923505</ele>
        <time>2020-08-09T06:25:10.170Z</time>
      </trkpt>
      <trkpt lat="41.768795" lon="2.164297">
        <ele>745.649714</ele>
        <time>2020-08-09T06:25:12.157Z</time>
      </trkpt>
      <trkpt lat="41.768892" lon="2.164310">
        <ele>745.385060</ele>
        <time>2020-08-09T06:25:14.151Z</time>
      </trkpt>
      <trkpt lat="41.768982" lon="2.164345">
        <ele>745.130652</ele>
        <time>2020-08-09T06:25:16.153Z</time>
      </trkpt>
      <trkpt lat="41.769071" lon="2.164395">
        <ele>744.868676</ele>
        <time>2020-08-09T06:25:18.158Z</time>
      </trkpt>
      <trkpt lat="41.769162" lon="2.164423">
        <ele>744.615201</ele>
        <time>2020-08-09T06:25:20.151Z</time>
      </trkpt>
      <trkpt lat="41.769281" lon="2.164425">
        <ele>744.292107</ele>
        <time>2020-08-09T06:25:23.147Z</time>
      </trkpt>
      <trkpt lat="41.769375" lon="2.164434">
        <ele>744.036260</ele>
        <time>2020-08-09T06:25:25.171Z</time>
      </trkpt>
      <trkpt lat="41.769475" lon="2.164464">
        <ele>743.758061</ele>
        <time>2020-08-09T06:25:27.153Z</time>
      </trkpt>
      <trkpt lat="41.769574" lon="2.164519">
        <ele>743.467131</ele>
        <time>2020-08-09T06:25:29.158Z</time>
      </trkpt>
      <trkpt lat="41.769667" lon="2.164574">
        <ele>743.191179</ele>
        <time>2020-08-09T06:25:31.154Z</time>
      </trkpt>
      <trkpt lat="41.769759" lon="2.164632">
        <ele>742.915180</ele>
        <time>2020-08-09T06:25:33.157Z</time>
      </trkpt>
      <trkpt lat="41.769868" lon="2.164690">
        <ele>742.596808</ele>
        <time>2020-08-09T06:25:35.153Z</time>
      </trkpt>
      <trkpt lat="41.769997" lon="2.164758">
        <ele>742.219956</ele>
        <time>2020-08-09T06:25:38.160Z</time>
      </trkpt>
      <trkpt lat="41.770094" lon="2.164802">
        <ele>741.941310</ele>
        <time>2020-08-09T06:25:40.156Z</time>
      </trkpt>
      <trkpt lat="41.770192" lon="2.164859">
        <ele>741.650628</ele>
        <time>2020-08-09T06:25:42.160Z</time>
      </trkpt>
      <trkpt lat="41.770298" lon="2.164935">
        <ele>741.323538</ele>
        <time>2020-08-09T06:25:45.153Z</time>
      </trkpt>
      <trkpt lat="41.770389" lon="2.164994">
        <ele>741.048483</ele>
        <time>2020-08-09T06:25:47.167Z</time>
      </trkpt>
      <trkpt lat="41.770464" lon="2.165078">
        <ele>740.782564</ele>
        <time>2020-08-09T06:25:49.156Z</time>
      </trkpt>
      <trkpt lat="41.770543" lon="2.165170">
        <ele>740.497830</ele>
        <time>2020-08-09T06:25:51.170Z</time>
      </trkpt>
      <trkpt lat="41.770650" lon="2.165279">
        <ele>740.132166</ele>
        <time>2020-08-09T06:25:54.167Z</time>
      </trkpt>
      <trkpt lat="41.770729" lon="2.165352">
        <ele>739.871089</ele>
        <time>2020-08-09T06:25:57.157Z</time>
      </trkpt>
      <trkpt lat="41.770832" lon="2.165399">
        <ele>739.575026</ele>
        <time>2020-08-09T06:25:59.153Z</time>
      </trkpt>
      <trkpt lat="41.770925" lon="2.165459">
        <ele>739.294188</ele>
        <time>2020-08-09T06:26:01.154Z</time>
      </trkpt>
      <trkpt lat="41.771016" lon="2.165503">
        <ele>739.030956</ele>
        <time>2020-08-09T06:26:03.168Z</time>
      </trkpt>
      <trkpt lat="41.771149" lon="2.165564">
        <ele>738.648457</ele>
        <time>2020-08-09T06:26:06.151Z</time>
      </trkpt>
      <trkpt lat="41.771271" lon="2.165579">
        <ele>738.315085</ele>
        <time>2020-08-09T06:26:09.154Z</time>
      </trkpt>
      <trkpt lat="41.771383" lon="2.165595">
        <ele>738.008593</ele>
        <time>2020-08-09T06:26:12.162Z</time>
      </trkpt>
      <trkpt lat="41.771472" lon="2.165567">
        <ele>737.759834</ele>
        <time>2020-08-09T06:26:15.171Z</time>
      </trkpt>
      <trkpt lat="41.771564" lon="2.165585">
        <ele>737.621576</ele>
        <time>2020-08-09T06:26:18.186Z</time>
      </trkpt>
      <trkpt lat="41.771671" lon="2.165590">
        <ele>737.959924</ele>
        <time>2020-08-09T06:26:21.174Z</time>
      </trkpt>
      <trkpt lat="41.771771" lon="2.165606">
        <ele>738.278187</ele>
        <time>2020-08-09T06:26:24.174Z</time>
      </trkpt>
      <trkpt lat="41.771880" lon="2.165619">
        <ele>738.624011</ele>
        <time>2020-08-09T06:26:28.175Z</time>
      </trkpt>
      <trkpt lat="41.771992" lon="2.165590">
        <ele>738.984494</ele>
        <time>2020-08-09T06:26:33.162Z</time>
      </trkpt>
      <trkpt lat="41.772095" lon="2.165578">
        <ele>739.311223</ele>
        <time>2020-08-09T06:26:36.167Z</time>
      </trkpt>
      <trkpt lat="41.772190" lon="2.165592">
        <ele>739.613251</ele>
        <time>2020-08-09T06:26:39.168Z</time>
      </trkpt>
      <trkpt lat="41.772287" lon="2.165616">
        <ele>739.924967</ele>
        <time>2020-08-09T06:26:43.163Z</time>
      </trkpt>
      <trkpt lat="41.772392" lon="2.165610">
        <ele>740.257091</ele>
        <time>2020-08-09T06:26:47.155Z</time>
      </trkpt>
      <trkpt lat="41.772492" lon="2.165635">
        <ele>740.578558</ele>
        <time>2020-08-09T06:26:51.160Z</time>
      </trkpt>
      <trkpt lat="41.772583" lon="2.165668">
        <ele>740.876470</ele>
        <time>2020-08-09T06:26:54.166Z</time>
      </trkpt>
      <trkpt lat="41.772665" lon="2.165723">
        <ele>741.166221</ele>
        <time>2020-08-09T06:26:58.159Z</time>
      </trkpt>
      <trkpt lat="41.773021" lon="2.165760">
        <ele>742.294632</ele>
        <time>2020-08-09T06:28:10.154Z</time>
      </trkpt>
      <trkpt lat="41.773145" lon="2.165746">
        <ele>742.687885</ele>
        <time>2020-08-09T06:28:12.152Z</time>
      </trkpt>
      <trkpt lat="41.773242" lon="2.165705">
        <ele>743.009296</ele>
        <time>2020-08-09T06:28:14.161Z</time>
      </trkpt>
      <trkpt lat="41.773341" lon="2.165677">
        <ele>743.363852</ele>
        <time>2020-08-09T06:28:16.153Z</time>
      </trkpt>
      <trkpt lat="41.773427" lon="2.165721">
        <ele>743.773848</ele>
        <time>2020-08-09T06:28:18.160Z</time>
      </trkpt>
      <trkpt lat="41.773482" lon="2.165820">
        <ele>744.183927</ele>
        <time>2020-08-09T06:28:21.155Z</time>
      </trkpt>
      <trkpt lat="41.773436" lon="2.165945">
        <ele>744.646957</ele>
        <time>2020-08-09T06:28:27.156Z</time>
      </trkpt>
      <trkpt lat="41.773369" lon="2.166031">
        <ele>745.060082</ele>
        <time>2020-08-09T06:28:31.147Z</time>
      </trkpt>
      <trkpt lat="41.773299" lon="2.166121">
        <ele>745.492049</ele>
        <time>2020-08-09T06:28:35.164Z</time>
      </trkpt>
      <trkpt lat="41.773221" lon="2.166229">
        <ele>745.991461</ele>
        <time>2020-08-09T06:28:39.168Z</time>
      </trkpt>
      <trkpt lat="41.773130" lon="2.166320">
        <ele>746.497099</ele>
        <time>2020-08-09T06:28:44.167Z</time>
      </trkpt>
      <trkpt lat="41.773055" lon="2.166390">
        <ele>746.904122</ele>
        <time>2020-08-09T06:28:47.167Z</time>
      </trkpt>
      <trkpt lat="41.772977" lon="2.166455">
        <ele>747.313177</ele>
        <time>2020-08-09T06:28:52.167Z</time>
      </trkpt>
      <trkpt lat="41.772899" lon="2.166531">
        <ele>747.742643</ele>
        <time>2020-08-09T06:28:59.158Z</time>
      </trkpt>
      <trkpt lat="41.772839" lon="2.166624">
        <ele>748.151132</ele>
        <time>2020-08-09T06:29:06.147Z</time>
      </trkpt>
      <trkpt lat="41.772751" lon="2.166695">
        <ele>748.608586</ele>
        <time>2020-08-09T06:29:12.152Z</time>
      </trkpt>
      <trkpt lat="41.772656" lon="2.166676">
        <ele>749.036412</ele>
        <time>2020-08-09T06:29:19.157Z</time>
      </trkpt>
      <trkpt lat="41.772563" lon="2.166730">
        <ele>749.487821</ele>
        <time>2020-08-09T06:29:29.178Z</time>
      </trkpt>
      <trkpt lat="41.772486" lon="2.166818">
        <ele>749.938469</ele>
        <time>2020-08-09T06:29:36.165Z</time>
      </trkpt>
      <trkpt lat="41.772414" lon="2.166913">
        <ele>750.388402</ele>
        <time>2020-08-09T06:29:43.168Z</time>
      </trkpt>
      <trkpt lat="41.772334" lon="2.166969">
        <ele>750.790370</ele>
        <time>2020-08-09T06:29:49.161Z</time>
      </trkpt>
      <trkpt lat="41.772255" lon="2.167029">
        <ele>751.194777</ele>
        <time>2020-08-09T06:29:56.139Z</time>
      </trkpt>
      <trkpt lat="41.772170" lon="2.167086">
        <ele>752.274050</ele>
        <time>2020-08-09T06:30:02.157Z</time>
      </trkpt>
      <trkpt lat="41.772070" lon="2.167126">
        <ele>753.579685</ele>
        <time>2020-08-09T06:30:08.138Z</time>
      </trkpt>
      <trkpt lat="41.771978" lon="2.167142">
        <ele>754.740383</ele>
        <time>2020-08-09T06:30:13.145Z</time>
      </trkpt>
      <trkpt lat="41.771893" lon="2.167207">
        <ele>755.964658</ele>
        <time>2020-08-09T06:30:19.162Z</time>
      </trkpt>
      <trkpt lat="41.771807" lon="2.167272">
        <ele>757.199817</ele>
        <time>2020-08-09T06:30:23.160Z</time>
      </trkpt>
      <trkpt lat="41.771713" lon="2.167309">
        <ele>758.425525</ele>
        <time>2020-08-09T06:30:27.163Z</time>
      </trkpt>
      <trkpt lat="41.771614" lon="2.167345">
        <ele>759.708905</ele>
        <time>2020-08-09T06:30:31.162Z</time>
      </trkpt>
      <trkpt lat="41.771522" lon="2.167391">
        <ele>760.937388</ele>
        <time>2020-08-09T06:30:35.185Z</time>
      </trkpt>
      <trkpt lat="41.771430" lon="2.167440">
        <ele>762.175930</ele>
        <time>2020-08-09T06:30:40.163Z</time>
      </trkpt>
      <trkpt lat="41.771375" lon="2.167551">
        <ele>763.419443</ele>
        <time>2020-08-09T06:30:44.162Z</time>
      </trkpt>
      <trkpt lat="41.771377" lon="2.167682">
        <ele>764.642083</ele>
        <time>2020-08-09T06:30:49.163Z</time>
      </trkpt>
      <trkpt lat="41.771428" lon="2.167812">
        <ele>766.012721</ele>
        <time>2020-08-09T06:30:55.167Z</time>
      </trkpt>
      <trkpt lat="41.771454" lon="2.167938">
        <ele>767.232619</ele>
        <time>2020-08-09T06:31:00.159Z</time>
      </trkpt>
      <trkpt lat="41.771487" lon="2.168057">
        <ele>768.417303</ele>
        <time>2020-08-09T06:31:05.154Z</time>
      </trkpt>
      <trkpt lat="41.771533" lon="2.168171">
        <ele>769.626766</ele>
        <time>2020-08-09T06:31:10.164Z</time>
      </trkpt>
      <trkpt lat="41.771585" lon="2.168278">
        <ele>770.818464</ele>
        <time>2020-08-09T06:31:15.162Z</time>
      </trkpt>
      <trkpt lat="41.771647" lon="2.168388">
        <ele>772.105040</ele>
        <time>2020-08-09T06:31:21.162Z</time>
      </trkpt>
      <trkpt lat="41.771692" lon="2.168502">
        <ele>773.308597</ele>
        <time>2020-08-09T06:31:26.152Z</time>
      </trkpt>
      <trkpt lat="41.771740" lon="2.168616">
        <ele>774.593666</ele>
        <time>2020-08-09T06:31:31.158Z</time>
      </trkpt>
      <trkpt lat="41.771793" lon="2.168721">
        <ele>775.874181</ele>
        <time>2020-08-09T06:31:36.143Z</time>
      </trkpt>
      <trkpt lat="41.771855" lon="2.168830">
        <ele>777.258679</ele>
        <time>2020-08-09T06:31:41.163Z</time>
      </trkpt>
      <trkpt lat="41.771915" lon="2.168937">
        <ele>778.610723</ele>
        <time>2020-08-09T06:31:47.161Z</time>
      </trkpt>
      <trkpt lat="41.771983" lon="2.169036">
        <ele>779.970026</ele>
        <time>2020-08-09T06:31:53.168Z</time>
      </trkpt>
      <trkpt lat="41.772072" lon="2.169112">
        <ele>781.398930</ele>
        <time>2020-08-09T06:31:59.157Z</time>
      </trkpt>
      <trkpt lat="41.772153" lon="2.169172">
        <ele>782.652086</ele>
        <time>2020-08-09T06:32:04.144Z</time>
      </trkpt>
      <trkpt lat="41.772206" lon="2.169274">
        <ele>783.907618</ele>
        <time>2020-08-09T06:32:22.169Z</time>
      </trkpt>
      <trkpt lat="41.772276" lon="2.169374">
        <ele>785.292757</ele>
        <time>2020-08-09T06:32:29.152Z</time>
      </trkpt>
      <trkpt lat="41.772333" lon="2.169494">
        <ele>786.729644</ele>
        <time>2020-08-09T06:32:35.166Z</time>
      </trkpt>
      <trkpt lat="41.772403" lon="2.169599">
        <ele>788.152021</ele>
        <time>2020-08-09T06:32:41.148Z</time>
      </trkpt>
      <trkpt lat="41.772454" lon="2.169705">
        <ele>789.426020</ele>
        <time>2020-08-09T06:32:48.162Z</time>
      </trkpt>
      <trkpt lat="41.772510" lon="2.169803">
        <ele>790.672903</ele>
        <time>2020-08-09T06:32:54.162Z</time>
      </trkpt>
      <trkpt lat="41.772573" lon="2.169900">
        <ele>791.971974</ele>
        <time>2020-08-09T06:33:01.141Z</time>
      </trkpt>
      <trkpt lat="41.772623" lon="2.170013">
        <ele>793.298968</ele>
        <time>2020-08-09T06:33:08.155Z</time>
      </trkpt>
      <trkpt lat="41.772688" lon="2.170119">
        <ele>794.684927</ele>
        <time>2020-08-09T06:33:16.148Z</time>
      </trkpt>
      <trkpt lat="41.772776" lon="2.170191">
        <ele>796.080960</ele>
        <time>2020-08-09T06:33:23.159Z</time>
      </trkpt>
      <trkpt lat="41.772839" lon="2.170307">
        <ele>797.530226</ele>
        <time>2020-08-09T06:33:29.152Z</time>
      </trkpt>
      <trkpt lat="41.772901" lon="2.170418">
        <ele>798.890188</ele>
        <time>2020-08-09T06:33:35.166Z</time>
      </trkpt>
      <trkpt lat="41.772954" lon="2.170523">
        <ele>800.106796</ele>
        <time>2020-08-09T06:33:42.159Z</time>
      </trkpt>
      <trkpt lat="41.773027" lon="2.170604">
        <ele>801.325926</ele>
        <time>2020-08-09T06:33:49.157Z</time>
      </trkpt>
      <trkpt lat="41.773110" lon="2.170677">
        <ele>802.603066</ele>
        <time>2020-08-09T06:33:56.145Z</time>
      </trkpt>
      <trkpt lat="41.773178" lon="2.170761">
        <ele>803.792664</ele>
        <time>2020-08-09T06:34:03.166Z</time>
      </trkpt>
      <trkpt lat="41.773262" lon="2.170838">
        <ele>805.101852</ele>
        <time>2020-08-09T06:34:11.137Z</time>
      </trkpt>
      <trkpt lat="41.773360" lon="2.170871">
        <ele>806.401904</ele>
        <time>2020-08-09T06:34:18.146Z</time>
      </trkpt>
      <trkpt lat="41.773438" lon="2.170931">
        <ele>807.558893</ele>
        <time>2020-08-09T06:34:24.158Z</time>
      </trkpt>
      <trkpt lat="41.773530" lon="2.170977">
        <ele>808.822212</ele>
        <time>2020-08-09T06:34:30.150Z</time>
      </trkpt>
      <trkpt lat="41.773616" lon="2.171042">
        <ele>810.092392</ele>
        <time>2020-08-09T06:34:36.155Z</time>
      </trkpt>
      <trkpt lat="41.773694" lon="2.171118">
        <ele>811.332945</ele>
        <time>2020-08-09T06:34:43.154Z</time>
      </trkpt>
      <trkpt lat="41.773775" lon="2.171176">
        <ele>812.514408</ele>
        <time>2020-08-09T06:34:51.147Z</time>
      </trkpt>
      <trkpt lat="41.773864" lon="2.171230">
        <ele>813.771286</ele>
        <time>2020-08-09T06:34:58.143Z</time>
      </trkpt>
      <trkpt lat="41.773942" lon="2.171305">
        <ele>815.006221</ele>
        <time>2020-08-09T06:35:04.133Z</time>
      </trkpt>
      <trkpt lat="41.774024" lon="2.171377">
        <ele>816.267335</ele>
        <time>2020-08-09T06:35:10.161Z</time>
      </trkpt>
      <trkpt lat="41.774110" lon="2.171417">
        <ele>817.438515</ele>
        <time>2020-08-09T06:35:16.134Z</time>
      </trkpt>
      <trkpt lat="41.774198" lon="2.171479">
        <ele>818.717531</ele>
        <time>2020-08-09T06:35:23.165Z</time>
      </trkpt>
      <trkpt lat="41.774281" lon="2.171530">
        <ele>819.892221</ele>
        <time>2020-08-09T06:35:29.160Z</time>
      </trkpt>
      <trkpt lat="41.774367" lon="2.171579">
        <ele>821.094474</ele>
        <time>2020-08-09T06:35:35.155Z</time>
      </trkpt>
      <trkpt lat="41.774466" lon="2.171577">
        <ele>822.282994</ele>
        <time>2020-08-09T06:35:42.132Z</time>
      </trkpt>
      <trkpt lat="41.774551" lon="2.171618">
        <ele>823.355837</ele>
        <time>2020-08-09T06:35:47.153Z</time>
      </trkpt>
      <trkpt lat="41.774641" lon="2.171653">
        <ele>824.468780</ele>
        <time>2020-08-09T06:35:52.164Z</time>
      </trkpt>
      <trkpt lat="41.774736" lon="2.171670">
        <ele>825.607063</ele>
        <time>2020-08-09T06:35:57.159Z</time>
      </trkpt>
      <trkpt lat="41.774829" lon="2.171722">
        <ele>826.803770</ele>
        <time>2020-08-09T06:36:03.162Z</time>
      </trkpt>
      <trkpt lat="41.774927" lon="2.171743">
        <ele>827.982448</ele>
        <time>2020-08-09T06:36:09.160Z</time>
      </trkpt>
      <trkpt lat="41.775018" lon="2.171770">
        <ele>829.089363</ele>
        <time>2020-08-09T06:36:16.154Z</time>
      </trkpt>
      <trkpt lat="41.775099" lon="2.171837">
        <ele>830.219681</ele>
        <time>2020-08-09T06:36:23.152Z</time>
      </trkpt>
      <trkpt lat="41.775166" lon="2.171931">
        <ele>831.371364</ele>
        <time>2020-08-09T06:36:30.157Z</time>
      </trkpt>
      <trkpt lat="41.775214" lon="2.172051">
        <ele>832.577457</ele>
        <time>2020-08-09T06:36:40.149Z</time>
      </trkpt>
      <trkpt lat="41.775276" lon="2.172160">
        <ele>833.791652</ele>
        <time>2020-08-09T06:36:47.156Z</time>
      </trkpt>
      <trkpt lat="41.775337" lon="2.172265">
        <ele>834.970534</ele>
        <time>2020-08-09T06:36:54.182Z</time>
      </trkpt>
      <trkpt lat="41.775410" lon="2.172347">
        <ele>836.101538</ele>
        <time>2020-08-09T06:37:00.166Z</time>
      </trkpt>
      <trkpt lat="41.775482" lon="2.172434">
        <ele>837.252626</ele>
        <time>2020-08-09T06:37:05.165Z</time>
      </trkpt>
      <trkpt lat="41.775566" lon="2.172500">
        <ele>838.408914</ele>
        <time>2020-08-09T06:37:11.174Z</time>
      </trkpt>
      <trkpt lat="41.775661" lon="2.172531">
        <ele>839.570122</ele>
        <time>2020-08-09T06:37:17.172Z</time>
      </trkpt>
      <trkpt lat="41.775745" lon="2.172595">
        <ele>840.717555</ele>
        <time>2020-08-09T06:37:23.173Z</time>
      </trkpt>
      <trkpt lat="41.775821" lon="2.172665">
        <ele>841.812601</ele>
        <time>2020-08-09T06:37:29.165Z</time>
      </trkpt>
      <trkpt lat="41.775907" lon="2.172703">
        <ele>842.905179</ele>
        <time>2020-08-09T06:37:34.155Z</time>
      </trkpt>
      <trkpt lat="41.775996" lon="2.172728">
        <ele>844.054328</ele>
        <time>2020-08-09T06:37:39.173Z</time>
      </trkpt>
      <trkpt lat="41.776093" lon="2.172754">
        <ele>845.304415</ele>
        <time>2020-08-09T06:37:46.193Z</time>
      </trkpt>
      <trkpt lat="41.776182" lon="2.172732">
        <ele>846.448103</ele>
        <time>2020-08-09T06:37:52.164Z</time>
      </trkpt>
      <trkpt lat="41.776279" lon="2.172731">
        <ele>847.673975</ele>
        <time>2020-08-09T06:37:59.171Z</time>
      </trkpt>
      <trkpt lat="41.776374" lon="2.172729">
        <ele>848.874684</ele>
        <time>2020-08-09T06:38:05.155Z</time>
      </trkpt>
      <trkpt lat="41.776470" lon="2.172711">
        <ele>850.099686</ele>
        <time>2020-08-09T06:38:11.173Z</time>
      </trkpt>
      <trkpt lat="41.776560" lon="2.172684">
        <ele>851.265177</ele>
        <time>2020-08-09T06:38:18.128Z</time>
      </trkpt>
      <trkpt lat="41.776660" lon="2.172646">
        <ele>852.578689</ele>
        <time>2020-08-09T06:38:26.169Z</time>
      </trkpt>
      <trkpt lat="41.776749" lon="2.172607">
        <ele>853.761958</ele>
        <time>2020-08-09T06:38:32.128Z</time>
      </trkpt>
      <trkpt lat="41.776845" lon="2.172609">
        <ele>854.975303</ele>
        <time>2020-08-09T06:38:38.146Z</time>
      </trkpt>
      <trkpt lat="41.776937" lon="2.172565">
        <ele>856.209688</ele>
        <time>2020-08-09T06:38:45.140Z</time>
      </trkpt>
      <trkpt lat="41.777034" lon="2.172536">
        <ele>857.465622</ele>
        <time>2020-08-09T06:38:54.149Z</time>
      </trkpt>
      <trkpt lat="41.777122" lon="2.172499">
        <ele>858.631107</ele>
        <time>2020-08-09T06:39:00.133Z</time>
      </trkpt>
      <trkpt lat="41.777217" lon="2.172494">
        <ele>859.832592</ele>
        <time>2020-08-09T06:39:05.160Z</time>
      </trkpt>
      <trkpt lat="41.777316" lon="2.172498">
        <ele>861.084272</ele>
        <time>2020-08-09T06:39:10.132Z</time>
      </trkpt>
      <trkpt lat="41.777411" lon="2.172518">
        <ele>862.299539</ele>
        <time>2020-08-09T06:39:16.149Z</time>
      </trkpt>
      <trkpt lat="41.777523" lon="2.172534">
        <ele>863.722947</ele>
        <time>2020-08-09T06:39:22.149Z</time>
      </trkpt>
      <trkpt lat="41.777635" lon="2.172565">
        <ele>865.168182</ele>
        <time>2020-08-09T06:39:26.148Z</time>
      </trkpt>
      <trkpt lat="41.777723" lon="2.172614">
        <ele>865.459132</ele>
        <time>2020-08-09T06:39:30.145Z</time>
      </trkpt>
      <trkpt lat="41.777829" lon="2.172582">
        <ele>865.605188</ele>
        <time>2020-08-09T06:39:34.152Z</time>
      </trkpt>
      <trkpt lat="41.777924" lon="2.172596">
        <ele>865.733660</ele>
        <time>2020-08-09T06:39:40.147Z</time>
      </trkpt>
      <trkpt lat="41.778032" lon="2.172599">
        <ele>865.878869</ele>
        <time>2020-08-09T06:39:48.175Z</time>
      </trkpt>
      <trkpt lat="41.778122" lon="2.172606">
        <ele>866.000055</ele>
        <time>2020-08-09T06:39:55.167Z</time>
      </trkpt>
      <trkpt lat="41.778212" lon="2.172649">
        <ele>866.128486</ele>
        <time>2020-08-09T06:40:00.167Z</time>
      </trkpt>
      <trkpt lat="41.778307" lon="2.172696">
        <ele>866.264603</ele>
        <time>2020-08-09T06:40:06.155Z</time>
      </trkpt>
      <trkpt lat="41.778401" lon="2.172693">
        <ele>866.390998</ele>
        <time>2020-08-09T06:40:12.196Z</time>
      </trkpt>
      <trkpt lat="41.778496" lon="2.172725">
        <ele>866.522668</ele>
        <time>2020-08-09T06:40:17.156Z</time>
      </trkpt>
      <trkpt lat="41.778579" lon="2.172794">
        <ele>866.653941</ele>
        <time>2020-08-09T06:40:22.161Z</time>
      </trkpt>
      <trkpt lat="41.778669" lon="2.172860">
        <ele>866.791832</ele>
        <time>2020-08-09T06:40:27.163Z</time>
      </trkpt>
      <trkpt lat="41.778753" lon="2.172940">
        <ele>866.930329</ele>
        <time>2020-08-09T06:40:32.158Z</time>
      </trkpt>
      <trkpt lat="41.778848" lon="2.173011">
        <ele>867.076526</ele>
        <time>2020-08-09T06:40:37.164Z</time>
      </trkpt>
      <trkpt lat="41.778937" lon="2.173076">
        <ele>867.212756</ele>
        <time>2020-08-09T06:40:42.157Z</time>
      </trkpt>
      <trkpt lat="41.779028" lon="2.173135">
        <ele>867.348630</ele>
        <time>2020-08-09T06:40:47.159Z</time>
      </trkpt>
      <trkpt lat="41.779114" lon="2.173216">
        <ele>867.489901</ele>
        <time>2020-08-09T06:40:52.145Z</time>
      </trkpt>
      <trkpt lat="41.779190" lon="2.173301">
        <ele>867.622932</ele>
        <time>2020-08-09T06:40:57.152Z</time>
      </trkpt>
      <trkpt lat="41.779268" lon="2.173385">
        <ele>867.757409</ele>
        <time>2020-08-09T06:41:03.155Z</time>
      </trkpt>
      <trkpt lat="41.779343" lon="2.173454">
        <ele>867.372870</ele>
        <time>2020-08-09T06:41:08.154Z</time>
      </trkpt>
      <trkpt lat="41.779293" lon="2.173567">
        <ele>866.905511</ele>
        <time>2020-08-09T06:41:18.149Z</time>
      </trkpt>
      <trkpt lat="41.779324" lon="2.173696">
        <ele>866.423435</ele>
        <time>2020-08-09T06:41:22.155Z</time>
      </trkpt>
      <trkpt lat="41.779396" lon="2.173821">
        <ele>865.861634</ele>
        <time>2020-08-09T06:41:26.150Z</time>
      </trkpt>
      <trkpt lat="41.779466" lon="2.173928">
        <ele>865.355348</ele>
        <time>2020-08-09T06:41:29.152Z</time>
      </trkpt>
      <trkpt lat="41.779508" lon="2.174043">
        <ele>864.899883</ele>
        <time>2020-08-09T06:41:31.159Z</time>
      </trkpt>
      <trkpt lat="41.779546" lon="2.174167">
        <ele>864.423039</ele>
        <time>2020-08-09T06:41:33.158Z</time>
      </trkpt>
      <trkpt lat="41.779565" lon="2.174294">
        <ele>863.962313</ele>
        <time>2020-08-09T06:41:35.160Z</time>
      </trkpt>
      <trkpt lat="41.779601" lon="2.174447">
        <ele>863.391662</ele>
        <time>2020-08-09T06:41:38.165Z</time>
      </trkpt>
      <trkpt lat="41.779570" lon="2.174577">
        <ele>862.906201</ele>
        <time>2020-08-09T06:41:41.162Z</time>
      </trkpt>
      <trkpt lat="41.779527" lon="2.174688">
        <ele>862.461291</ele>
        <time>2020-08-09T06:41:44.164Z</time>
      </trkpt>
      <trkpt lat="41.779439" lon="2.174807">
        <ele>861.865188</ele>
        <time>2020-08-09T06:41:47.166Z</time>
      </trkpt>
      <trkpt lat="41.779332" lon="2.174787">
        <ele>861.349888</ele>
        <time>2020-08-09T06:41:50.152Z</time>
      </trkpt>
      <trkpt lat="41.779243" lon="2.174754">
        <ele>860.909449</ele>
        <time>2020-08-09T06:41:52.143Z</time>
      </trkpt>
      <trkpt lat="41.779154" lon="2.174716">
        <ele>860.463941</ele>
        <time>2020-08-09T06:41:54.167Z</time>
      </trkpt>
      <trkpt lat="41.779040" lon="2.174675">
        <ele>859.900970</ele>
        <time>2020-08-09T06:41:58.153Z</time>
      </trkpt>
      <trkpt lat="41.778924" lon="2.174678">
        <ele>859.347573</ele>
        <time>2020-08-09T06:42:02.147Z</time>
      </trkpt>
      <trkpt lat="41.778830" lon="2.174644">
        <ele>859.385270</ele>
        <time>2020-08-09T06:42:05.187Z</time>
      </trkpt>
      <trkpt lat="41.778721" lon="2.174625">
        <ele>859.721411</ele>
        <time>2020-08-09T06:42:10.162Z</time>
      </trkpt>
      <trkpt lat="41.778638" lon="2.174676">
        <ele>860.000615</ele>
        <time>2020-08-09T06:42:14.164Z</time>
      </trkpt>
      <trkpt lat="41.778554" lon="2.174743">
        <ele>860.299506</ele>
        <time>2020-08-09T06:42:18.170Z</time>
      </trkpt>
      <trkpt lat="41.778460" lon="2.174830">
        <ele>860.648792</ele>
        <time>2020-08-09T06:42:23.167Z</time>
      </trkpt>
      <trkpt lat="41.778355" lon="2.174882">
        <ele>860.991095</ele>
        <time>2020-08-09T06:42:28.167Z</time>
      </trkpt>
      <trkpt lat="41.778264" lon="2.174917">
        <ele>861.280606</ele>
        <time>2020-08-09T06:42:33.174Z</time>
      </trkpt>
      <trkpt lat="41.778171" lon="2.174969">
        <ele>861.588746</ele>
        <time>2020-08-09T06:42:38.143Z</time>
      </trkpt>
      <trkpt lat="41.778069" lon="2.175002">
        <ele>861.909626</ele>
        <time>2020-08-09T06:42:43.158Z</time>
      </trkpt>
      <trkpt lat="41.777977" lon="2.175029">
        <ele>862.197634</ele>
        <time>2020-08-09T06:42:48.172Z</time>
      </trkpt>
      <trkpt lat="41.777877" lon="2.175052">
        <ele>862.507914</ele>
        <time>2020-08-09T06:42:53.167Z</time>
      </trkpt>
      <trkpt lat="41.777781" lon="2.175084">
        <ele>862.810429</ele>
        <time>2020-08-09T06:42:58.161Z</time>
      </trkpt>
      <trkpt lat="41.777682" lon="2.175138">
        <ele>863.137273</ele>
        <time>2020-08-09T06:43:04.169Z</time>
      </trkpt>
      <trkpt lat="41.777604" lon="2.175237">
        <ele>863.465714</ele>
        <time>2020-08-09T06:43:10.168Z</time>
      </trkpt>
      <trkpt lat="41.777549" lon="2.175360">
        <ele>863.792786</ele>
        <time>2020-08-09T06:43:16.156Z</time>
      </trkpt>
      <trkpt lat="41.777487" lon="2.175453">
        <ele>864.077274</ele>
        <time>2020-08-09T06:43:21.173Z</time>
      </trkpt>
      <trkpt lat="41.777441" lon="2.175579">
        <ele>864.397211</ele>
        <time>2020-08-09T06:43:27.170Z</time>
      </trkpt>
      <trkpt lat="41.777398" lon="2.175707">
        <ele>864.770989</ele>
        <time>2020-08-09T06:43:33.162Z</time>
      </trkpt>
      <trkpt lat="41.777327" lon="2.175803">
        <ele>865.674929</ele>
        <time>2020-08-09T06:43:38.171Z</time>
      </trkpt>
      <trkpt lat="41.777251" lon="2.175892">
        <ele>866.579527</ele>
        <time>2020-08-09T06:43:43.157Z</time>
      </trkpt>
      <trkpt lat="41.777169" lon="2.175985">
        <ele>867.542353</ele>
        <time>2020-08-09T06:43:49.158Z</time>
      </trkpt>
      <trkpt lat="41.777091" lon="2.176056">
        <ele>868.387529</ele>
        <time>2020-08-09T06:43:54.168Z</time>
      </trkpt>
      <trkpt lat="41.777006" lon="2.176106">
        <ele>869.219666</ele>
        <time>2020-08-09T06:43:59.176Z</time>
      </trkpt>
      <trkpt lat="41.776924" lon="2.176162">
        <ele>870.044658</ele>
        <time>2020-08-09T06:44:04.135Z</time>
      </trkpt>
      <trkpt lat="41.776840" lon="2.176213">
        <ele>870.871328</ele>
        <time>2020-08-09T06:44:10.174Z</time>
      </trkpt>
      <trkpt lat="41.776780" lon="2.176318">
        <ele>871.755723</ele>
        <time>2020-08-09T06:44:18.170Z</time>
      </trkpt>
      <trkpt lat="41.776774" lon="2.176444">
        <ele>872.599842</ele>
        <time>2020-08-09T06:44:24.168Z</time>
      </trkpt>
      <trkpt lat="41.776753" lon="2.176565">
        <ele>873.430435</ele>
        <time>2020-08-09T06:44:30.226Z</time>
      </trkpt>
      <trkpt lat="41.776751" lon="2.176687">
        <ele>874.246293</ele>
        <time>2020-08-09T06:44:36.162Z</time>
      </trkpt>
      <trkpt lat="41.776747" lon="2.176824">
        <ele>875.162941</ele>
        <time>2020-08-09T06:44:43.168Z</time>
      </trkpt>
      <trkpt lat="41.776748" lon="2.176962">
        <ele>876.085618</ele>
        <time>2020-08-09T06:44:50.157Z</time>
      </trkpt>
      <trkpt lat="41.776755" lon="2.177082">
        <ele>876.890358</ele>
        <time>2020-08-09T06:44:55.161Z</time>
      </trkpt>
      <trkpt lat="41.776791" lon="2.177218">
        <ele>877.855200</ele>
        <time>2020-08-09T06:45:00.154Z</time>
      </trkpt>
      <trkpt lat="41.776796" lon="2.177343">
        <ele>878.692118</ele>
        <time>2020-08-09T06:45:04.208Z</time>
      </trkpt>
      <trkpt lat="41.776797" lon="2.177486">
        <ele>879.648221</ele>
        <time>2020-08-09T06:45:08.159Z</time>
      </trkpt>
      <trkpt lat="41.776822" lon="2.177617">
        <ele>880.552276</ele>
        <time>2020-08-09T06:45:12.166Z</time>
      </trkpt>
      <trkpt lat="41.776895" lon="2.177745">
        <ele>880.726236</ele>
        <time>2020-08-09T06:45:16.160Z</time>
      </trkpt>
      <trkpt lat="41.776951" lon="2.177863">
        <ele>880.624644</ele>
        <time>2020-08-09T06:45:19.158Z</time>
      </trkpt>
      <trkpt lat="41.777026" lon="2.178009">
        <ele>880.495873</ele>
        <time>2020-08-09T06:45:22.159Z</time>
      </trkpt>
      <trkpt lat="41.777067" lon="2.178118">
        <ele>880.407201</ele>
        <time>2020-08-09T06:45:24.163Z</time>
      </trkpt>
      <trkpt lat="41.777127" lon="2.178256">
        <ele>880.291175</ele>
        <time>2020-08-09T06:45:27.157Z</time>
      </trkpt>
      <trkpt lat="41.777138" lon="2.178412">
        <ele>880.177360</ele>
        <time>2020-08-09T06:45:30.151Z</time>
      </trkpt>
      <trkpt lat="41.777059" lon="2.178510">
        <ele>880.072540</ele>
        <time>2020-08-09T06:45:34.176Z</time>
      </trkpt>
      <trkpt lat="41.776974" lon="2.178570">
        <ele>879.978981</ele>
        <time>2020-08-09T06:45:38.156Z</time>
      </trkpt>
      <trkpt lat="41.776883" lon="2.178611">
        <ele>879.885479</ele>
        <time>2020-08-09T06:45:42.160Z</time>
      </trkpt>
      <trkpt lat="41.776795" lon="2.178647">
        <ele>879.795869</ele>
        <time>2020-08-09T06:45:47.159Z</time>
      </trkpt>
      <trkpt lat="41.776683" lon="2.178672">
        <ele>879.685282</ele>
        <time>2020-08-09T06:45:52.162Z</time>
      </trkpt>
      <trkpt lat="41.776581" lon="2.178704">
        <ele>879.583253</ele>
        <time>2020-08-09T06:45:56.155Z</time>
      </trkpt>
      <trkpt lat="41.776474" lon="2.178720">
        <ele>879.478391</ele>
        <time>2020-08-09T06:46:01.171Z</time>
      </trkpt>
      <trkpt lat="41.776378" lon="2.178740">
        <ele>879.383766</ele>
        <time>2020-08-09T06:46:06.166Z</time>
      </trkpt>
      <trkpt lat="41.776287" lon="2.178739">
        <ele>879.295131</ele>
        <time>2020-08-09T06:46:10.169Z</time>
      </trkpt>
      <trkpt lat="41.776173" lon="2.178701">
        <ele>879.180718</ele>
        <time>2020-08-09T06:46:14.174Z</time>
      </trkpt>
      <trkpt lat="41.776081" lon="2.178658">
        <ele>879.085824</ele>
        <time>2020-08-09T06:46:17.152Z</time>
      </trkpt>
      <trkpt lat="41.775986" lon="2.178601">
        <ele>878.890508</ele>
        <time>2020-08-09T06:46:20.158Z</time>
      </trkpt>
      <trkpt lat="41.775902" lon="2.178524">
        <ele>878.672734</ele>
        <time>2020-08-09T06:46:23.173Z</time>
      </trkpt>
      <trkpt lat="41.775813" lon="2.178458">
        <ele>878.455064</ele>
        <time>2020-08-09T06:46:26.158Z</time>
      </trkpt>
      <trkpt lat="41.775723" lon="2.178408">
        <ele>878.246564</ele>
        <time>2020-08-09T06:46:29.170Z</time>
      </trkpt>
      <trkpt lat="41.775633" lon="2.178350">
        <ele>878.032851</ele>
        <time>2020-08-09T06:46:32.166Z</time>
      </trkpt>
      <trkpt lat="41.775532" lon="2.178285">
        <ele>877.793079</ele>
        <time>2020-08-09T06:46:35.166Z</time>
      </trkpt>
      <trkpt lat="41.775430" lon="2.178208">
        <ele>877.542556</ele>
        <time>2020-08-09T06:46:38.156Z</time>
      </trkpt>
      <trkpt lat="41.775339" lon="2.178133">
        <ele>877.313946</ele>
        <time>2020-08-09T06:46:41.159Z</time>
      </trkpt>
      <trkpt lat="41.775234" lon="2.178079">
        <ele>877.073259</ele>
        <time>2020-08-09T06:46:45.172Z</time>
      </trkpt>
      <trkpt lat="41.775138" lon="2.178009">
        <ele>876.839381</ele>
        <time>2020-08-09T06:46:49.169Z</time>
      </trkpt>
      <trkpt lat="41.775047" lon="2.177955">
        <ele>876.626400</ele>
        <time>2020-08-09T06:46:53.166Z</time>
      </trkpt>
      <trkpt lat="41.774961" lon="2.177898">
        <ele>876.421081</ele>
        <time>2020-08-09T06:46:57.163Z</time>
      </trkpt>
      <trkpt lat="41.774882" lon="2.177809">
        <ele>876.200248</ele>
        <time>2020-08-09T06:47:01.156Z</time>
      </trkpt>
      <trkpt lat="41.774797" lon="2.177706">
        <ele>875.955048</ele>
        <time>2020-08-09T06:47:05.145Z</time>
      </trkpt>
      <trkpt lat="41.774694" lon="2.177573">
        <ele>875.649007</ele>
        <time>2020-08-09T06:47:08.131Z</time>
      </trkpt>
      <trkpt lat="41.774602" lon="2.177444">
        <ele>875.364110</ele>
        <time>2020-08-09T06:47:11.150Z</time>
      </trkpt>
      <trkpt lat="41.774544" lon="2.177351">
        <ele>875.084558</ele>
        <time>2020-08-09T06:47:15.154Z</time>
      </trkpt>
      <trkpt lat="41.774527" lon="2.177204">
        <ele>874.369417</ele>
        <time>2020-08-09T06:47:21.148Z</time>
      </trkpt>
      <trkpt lat="41.774454" lon="2.177089">
        <ele>873.643406</ele>
        <time>2020-08-09T06:47:26.147Z</time>
      </trkpt>
      <trkpt lat="41.774379" lon="2.177021">
        <ele>873.059787</ele>
        <time>2020-08-09T06:47:31.147Z</time>
      </trkpt>
      <trkpt lat="41.774452" lon="2.177109">
        <ele>872.427000</ele>
        <time>2020-08-09T06:50:16.157Z</time>
      </trkpt>
      <trkpt lat="41.774530" lon="2.177198">
        <ele>871.766786</ele>
        <time>2020-08-09T06:50:23.170Z</time>
      </trkpt>
      <trkpt lat="41.774530" lon="2.177320">
        <ele>871.180278</ele>
        <time>2020-08-09T06:50:39.135Z</time>
      </trkpt>
      <trkpt lat="41.774560" lon="2.177444">
        <ele>870.553571</ele>
        <time>2020-08-09T06:50:52.149Z</time>
      </trkpt>
      <trkpt lat="41.774604" lon="2.177563">
        <ele>869.915033</ele>
        <time>2020-08-09T06:50:57.154Z</time>
      </trkpt>
      <trkpt lat="41.774607" lon="2.177705">
        <ele>869.232103</ele>
        <time>2020-08-09T06:51:01.156Z</time>
      </trkpt>
      <trkpt lat="41.774625" lon="2.177840">
        <ele>868.572808</ele>
        <time>2020-08-09T06:51:05.153Z</time>
      </trkpt>
      <trkpt lat="41.774638" lon="2.177967">
        <ele>867.956539</ele>
        <time>2020-08-09T06:51:10.140Z</time>
      </trkpt>
      <trkpt lat="41.774652" lon="2.178093">
        <ele>867.344117</ele>
        <time>2020-08-09T06:51:14.155Z</time>
      </trkpt>
      <trkpt lat="41.774682" lon="2.178238">
        <ele>866.620711</ele>
        <time>2020-08-09T06:51:18.155Z</time>
      </trkpt>
      <trkpt lat="41.774702" lon="2.178389">
        <ele>865.883429</ele>
        <time>2020-08-09T06:51:23.148Z</time>
      </trkpt>
      <trkpt lat="41.774699" lon="2.178529">
        <ele>865.210111</ele>
        <time>2020-08-09T06:51:39.158Z</time>
      </trkpt>
      <trkpt lat="41.774767" lon="2.178640">
        <ele>864.519529</ele>
        <time>2020-08-09T06:51:52.142Z</time>
      </trkpt>
      <trkpt lat="41.774859" lon="2.178710">
        <ele>863.837649</ele>
        <time>2020-08-09T06:51:57.170Z</time>
      </trkpt>
      <trkpt lat="41.774894" lon="2.178851">
        <ele>862.861817</ele>
        <time>2020-08-09T06:52:01.144Z</time>
      </trkpt>
      <trkpt lat="41.774901" lon="2.178983">
        <ele>861.890062</ele>
        <time>2020-08-09T06:52:07.193Z</time>
      </trkpt>
      <trkpt lat="41.774986" lon="2.179107">
        <ele>860.653285</ele>
        <time>2020-08-09T06:52:11.145Z</time>
      </trkpt>
      <trkpt lat="41.775065" lon="2.179214">
        <ele>859.547637</ele>
        <time>2020-08-09T06:52:14.147Z</time>
      </trkpt>
      <trkpt lat="41.775131" lon="2.179333">
        <ele>858.458631</ele>
        <time>2020-08-09T06:52:17.149Z</time>
      </trkpt>
      <trkpt lat="41.775212" lon="2.179440">
        <ele>857.339042</ele>
        <time>2020-08-09T06:52:20.162Z</time>
      </trkpt>
      <trkpt lat="41.775284" lon="2.179514">
        <ele>856.445795</ele>
        <time>2020-08-09T06:52:23.170Z</time>
      </trkpt>
      <trkpt lat="41.775350" lon="2.179596">
        <ele>855.559844</ele>
        <time>2020-08-09T06:52:26.161Z</time>
      </trkpt>
      <trkpt lat="41.775428" lon="2.179692">
        <ele>854.517338</ele>
        <time>2020-08-09T06:52:29.164Z</time>
      </trkpt>
      <trkpt lat="41.775497" lon="2.179791">
        <ele>853.522305</ele>
        <time>2020-08-09T06:52:32.171Z</time>
      </trkpt>
      <trkpt lat="41.775552" lon="2.179913">
        <ele>852.475470</ele>
        <time>2020-08-09T06:52:36.160Z</time>
      </trkpt>
      <trkpt lat="41.775584" lon="2.180028">
        <ele>851.574137</ele>
        <time>2020-08-09T06:52:39.163Z</time>
      </trkpt>
      <trkpt lat="41.775619" lon="2.180141">
        <ele>850.675639</ele>
        <time>2020-08-09T06:52:42.158Z</time>
      </trkpt>
      <trkpt lat="41.775646" lon="2.180281">
        <ele>849.613778</ele>
        <time>2020-08-09T06:52:45.167Z</time>
      </trkpt>
      <trkpt lat="41.775678" lon="2.180397">
        <ele>848.705563</ele>
        <time>2020-08-09T06:52:48.156Z</time>
      </trkpt>
      <trkpt lat="41.775703" lon="2.180540">
        <ele>847.627026</ele>
        <time>2020-08-09T06:52:52.148Z</time>
      </trkpt>
      <trkpt lat="41.775712" lon="2.180709">
        <ele>846.382874</ele>
        <time>2020-08-09T06:52:55.158Z</time>
      </trkpt>
      <trkpt lat="41.775752" lon="2.180838">
        <ele>846.140386</ele>
        <time>2020-08-09T06:52:58.149Z</time>
      </trkpt>
      <trkpt lat="41.775837" lon="2.180904">
        <ele>846.547212</ele>
        <time>2020-08-09T06:53:28.142Z</time>
      </trkpt>
      <trkpt lat="41.775923" lon="2.180997">
        <ele>847.004814</ele>
        <time>2020-08-09T06:53:33.159Z</time>
      </trkpt>
      <trkpt lat="41.775983" lon="2.181105">
        <ele>847.420799</ele>
        <time>2020-08-09T06:53:36.166Z</time>
      </trkpt>
      <trkpt lat="41.776050" lon="2.181244">
        <ele>847.932023</ele>
        <time>2020-08-09T06:53:40.146Z</time>
      </trkpt>
      <trkpt lat="41.776076" lon="2.181362">
        <ele>848.312081</ele>
        <time>2020-08-09T06:53:43.177Z</time>
      </trkpt>
      <trkpt lat="41.776065" lon="2.181492">
        <ele>848.716205</ele>
        <time>2020-08-09T06:53:48.153Z</time>
      </trkpt>
      <trkpt lat="41.776051" lon="2.181629">
        <ele>849.143330</ele>
        <time>2020-08-09T06:53:53.144Z</time>
      </trkpt>
      <trkpt lat="41.776039" lon="2.181777">
        <ele>849.603171</ele>
        <time>2020-08-09T06:53:57.150Z</time>
      </trkpt>
      <trkpt lat="41.776042" lon="2.181907">
        <ele>850.004911</ele>
        <time>2020-08-09T06:54:01.163Z</time>
      </trkpt>
      <trkpt lat="41.776033" lon="2.182036">
        <ele>850.405110</ele>
        <time>2020-08-09T06:54:05.156Z</time>
      </trkpt>
      <trkpt lat="41.776031" lon="2.182167">
        <ele>850.809832</ele>
        <time>2020-08-09T06:54:10.164Z</time>
      </trkpt>
      <trkpt lat="41.776067" lon="2.182289">
        <ele>851.215097</ele>
        <time>2020-08-09T06:54:15.158Z</time>
      </trkpt>
      <trkpt lat="41.776120" lon="2.182406">
        <ele>851.637938</ele>
        <time>2020-08-09T06:54:20.142Z</time>
      </trkpt>
      <trkpt lat="41.776159" lon="2.182537">
        <ele>852.073625</ele>
        <time>2020-08-09T06:54:25.154Z</time>
      </trkpt>
      <trkpt lat="41.776206" lon="2.182648">
        <ele>852.467895</ele>
        <time>2020-08-09T06:54:30.152Z</time>
      </trkpt>
      <trkpt lat="41.776273" lon="2.182755">
        <ele>852.899454</ele>
        <time>2020-08-09T06:54:35.165Z</time>
      </trkpt>
      <trkpt lat="41.776336" lon="2.182854">
        <ele>853.301447</ele>
        <time>2020-08-09T06:54:40.166Z</time>
      </trkpt>
      <trkpt lat="41.776397" lon="2.182962">
        <ele>853.648398</ele>
        <time>2020-08-09T06:54:46.177Z</time>
      </trkpt>
      <trkpt lat="41.776450" lon="2.183070">
        <ele>853.968778</ele>
        <time>2020-08-09T06:54:50.161Z</time>
      </trkpt>
      <trkpt lat="41.776516" lon="2.183197">
        <ele>854.352371</ele>
        <time>2020-08-09T06:54:54.155Z</time>
      </trkpt>
      <trkpt lat="41.776579" lon="2.183321">
        <ele>854.724186</ele>
        <time>2020-08-09T06:54:58.155Z</time>
      </trkpt>
      <trkpt lat="41.776666" lon="2.183426">
        <ele>855.113131</ele>
        <time>2020-08-09T06:55:02.165Z</time>
      </trkpt>
      <trkpt lat="41.776747" lon="2.183483">
        <ele>855.417099</ele>
        <time>2020-08-09T06:55:05.166Z</time>
      </trkpt>
      <trkpt lat="41.776838" lon="2.183542">
        <ele>855.752976</ele>
        <time>2020-08-09T06:55:08.171Z</time>
      </trkpt>
      <trkpt lat="41.776930" lon="2.183585">
        <ele>856.076723</ele>
        <time>2020-08-09T06:55:11.142Z</time>
      </trkpt>
      <trkpt lat="41.777034" lon="2.183615">
        <ele>856.430213</ele>
        <time>2020-08-09T06:55:14.142Z</time>
      </trkpt>
      <trkpt lat="41.777135" lon="2.183681">
        <ele>856.803559</ele>
        <time>2020-08-09T06:55:18.183Z</time>
      </trkpt>
      <trkpt lat="41.777241" lon="2.183735">
        <ele>857.180351</ele>
        <time>2020-08-09T06:55:21.132Z</time>
      </trkpt>
      <trkpt lat="41.777341" lon="2.183754">
        <ele>857.515962</ele>
        <time>2020-08-09T06:55:24.166Z</time>
      </trkpt>
      <trkpt lat="41.777440" lon="2.183783">
        <ele>857.852689</ele>
        <time>2020-08-09T06:55:27.165Z</time>
      </trkpt>
      <trkpt lat="41.777555" lon="2.183824">
        <ele>858.248101</ele>
        <time>2020-08-09T06:55:30.169Z</time>
      </trkpt>
      <trkpt lat="41.777671" lon="2.183862">
        <ele>858.644896</ele>
        <time>2020-08-09T06:55:33.160Z</time>
      </trkpt>
      <trkpt lat="41.777770" lon="2.183877">
        <ele>858.975959</ele>
        <time>2020-08-09T06:55:36.166Z</time>
      </trkpt>
      <trkpt lat="41.777881" lon="2.183874">
        <ele>859.349553</ele>
        <time>2020-08-09T06:55:40.149Z</time>
      </trkpt>
      <trkpt lat="41.777996" lon="2.184011">
        <ele>860.101672</ele>
        <time>2020-08-09T06:55:43.157Z</time>
      </trkpt>
      <trkpt lat="41.778040" lon="2.184116">
        <ele>860.540824</ele>
        <time>2020-08-09T06:55:45.161Z</time>
      </trkpt>
      <trkpt lat="41.778088" lon="2.184232">
        <ele>861.024530</ele>
        <time>2020-08-09T06:55:47.160Z</time>
      </trkpt>
      <trkpt lat="41.778087" lon="2.184365">
        <ele>861.509494</ele>
        <time>2020-08-09T06:55:50.152Z</time>
      </trkpt>
      <trkpt lat="41.778018" lon="2.184477">
        <ele>862.039195</ele>
        <time>2020-08-09T06:55:53.148Z</time>
      </trkpt>
      <trkpt lat="41.777951" lon="2.184600">
        <ele>862.594576</ele>
        <time>2020-08-09T06:55:56.171Z</time>
      </trkpt>
      <trkpt lat="41.777910" lon="2.184715">
        <ele>863.059342</ele>
        <time>2020-08-09T06:55:59.144Z</time>
      </trkpt>
      <trkpt lat="41.777868" lon="2.184830">
        <ele>863.526237</ele>
        <time>2020-08-09T06:56:03.164Z</time>
      </trkpt>
      <trkpt lat="41.777826" lon="2.184940">
        <ele>863.976831</ele>
        <time>2020-08-09T06:56:07.176Z</time>
      </trkpt>
      <trkpt lat="41.777812" lon="2.185067">
        <ele>864.444928</ele>
        <time>2020-08-09T06:56:13.172Z</time>
      </trkpt>
      <trkpt lat="41.777828" lon="2.185187">
        <ele>864.889408</ele>
        <time>2020-08-09T06:56:19.168Z</time>
      </trkpt>
      <trkpt lat="41.777817" lon="2.185315">
        <ele>865.359208</ele>
        <time>2020-08-09T06:56:25.170Z</time>
      </trkpt>
      <trkpt lat="41.777791" lon="2.185443">
        <ele>865.842922</ele>
        <time>2020-08-09T06:56:30.153Z</time>
      </trkpt>
      <trkpt lat="41.777758" lon="2.185569">
        <ele>866.329851</ele>
        <time>2020-08-09T06:56:35.174Z</time>
      </trkpt>
      <trkpt lat="41.777753" lon="2.185700">
        <ele>866.808126</ele>
        <time>2020-08-09T06:56:40.157Z</time>
      </trkpt>
      <trkpt lat="41.777759" lon="2.185836">
        <ele>867.304874</ele>
        <time>2020-08-09T06:56:46.148Z</time>
      </trkpt>
      <trkpt lat="41.777736" lon="2.185967">
        <ele>867.795584</ele>
        <time>2020-08-09T06:56:52.199Z</time>
      </trkpt>
      <trkpt lat="41.777713" lon="2.186103">
        <ele>868.215023</ele>
        <time>2020-08-09T06:56:58.157Z</time>
      </trkpt>
      <trkpt lat="41.777666" lon="2.186227">
        <ele>868.463927</ele>
        <time>2020-08-09T06:57:03.179Z</time>
      </trkpt>
      <trkpt lat="41.777577" lon="2.186309">
        <ele>868.723036</ele>
        <time>2020-08-09T06:57:08.171Z</time>
      </trkpt>
      <trkpt lat="41.777507" lon="2.186393">
        <ele>868.948439</ele>
        <time>2020-08-09T06:57:12.150Z</time>
      </trkpt>
      <trkpt lat="41.777466" lon="2.186512">
        <ele>869.183008</ele>
        <time>2020-08-09T06:57:16.154Z</time>
      </trkpt>
      <trkpt lat="41.777442" lon="2.186638">
        <ele>869.415714</ele>
        <time>2020-08-09T06:57:22.146Z</time>
      </trkpt>
      <trkpt lat="41.777446" lon="2.186766">
        <ele>869.644961</ele>
        <time>2020-08-09T06:57:28.161Z</time>
      </trkpt>
      <trkpt lat="41.777418" lon="2.186900">
        <ele>869.893979</ele>
        <time>2020-08-09T06:57:34.155Z</time>
      </trkpt>
      <trkpt lat="41.777425" lon="2.187049">
        <ele>870.161131</ele>
        <time>2020-08-09T06:57:39.159Z</time>
      </trkpt>
      <trkpt lat="41.777439" lon="2.187193">
        <ele>870.420989</ele>
        <time>2020-08-09T06:57:44.167Z</time>
      </trkpt>
      <trkpt lat="41.777489" lon="2.187303">
        <ele>870.651508</ele>
        <time>2020-08-09T06:57:48.165Z</time>
      </trkpt>
      <trkpt lat="41.777517" lon="2.187419">
        <ele>870.869683</ele>
        <time>2020-08-09T06:57:52.152Z</time>
      </trkpt>
      <trkpt lat="41.777537" lon="2.187539">
        <ele>871.089711</ele>
        <time>2020-08-09T06:57:56.150Z</time>
      </trkpt>
      <trkpt lat="41.777570" lon="2.187671">
        <ele>871.338834</ele>
        <time>2020-08-09T06:58:00.148Z</time>
      </trkpt>
      <trkpt lat="41.777622" lon="2.187776">
        <ele>871.564381</ele>
        <time>2020-08-09T06:58:04.148Z</time>
      </trkpt>
      <trkpt lat="41.777695" lon="2.187853">
        <ele>871.787243</ele>
        <time>2020-08-09T06:58:08.144Z</time>
      </trkpt>
      <trkpt lat="41.777778" lon="2.187930">
        <ele>872.029421</ele>
        <time>2020-08-09T06:58:13.140Z</time>
      </trkpt>
      <trkpt lat="41.777868" lon="2.187969">
        <ele>872.256374</ele>
        <time>2020-08-09T06:58:17.154Z</time>
      </trkpt>
      <trkpt lat="41.777946" lon="2.188036">
        <ele>872.571059</ele>
        <time>2020-08-09T06:58:21.161Z</time>
      </trkpt>
      <trkpt lat="41.778047" lon="2.188071">
        <ele>873.511433</ele>
        <time>2020-08-09T06:58:26.167Z</time>
      </trkpt>
      <trkpt lat="41.778149" lon="2.188113">
        <ele>874.473283</ele>
        <time>2020-08-09T06:58:31.129Z</time>
      </trkpt>
      <trkpt lat="41.778246" lon="2.188158">
        <ele>875.398537</ele>
        <time>2020-08-09T06:58:35.162Z</time>
      </trkpt>
      <trkpt lat="41.778344" lon="2.188216">
        <ele>876.364172</ele>
        <time>2020-08-09T06:58:40.154Z</time>
      </trkpt>
      <trkpt lat="41.778431" lon="2.188305">
        <ele>877.350587</ele>
        <time>2020-08-09T06:58:44.160Z</time>
      </trkpt>
      <trkpt lat="41.778475" lon="2.188417">
        <ele>878.201577</ele>
        <time>2020-08-09T06:58:48.164Z</time>
      </trkpt>
      <trkpt lat="41.778455" lon="2.188544">
        <ele>879.074143</ele>
        <time>2020-08-09T06:58:53.157Z</time>
      </trkpt>
      <trkpt lat="41.778423" lon="2.188676">
        <ele>880.007203</ele>
        <time>2020-08-09T06:58:57.168Z</time>
      </trkpt>
      <trkpt lat="41.778377" lon="2.188798">
        <ele>880.926201</ele>
        <time>2020-08-09T06:59:01.172Z</time>
      </trkpt>
      <trkpt lat="41.778370" lon="2.188940">
        <ele>881.882858</ele>
        <time>2020-08-09T06:59:05.158Z</time>
      </trkpt>
      <trkpt lat="41.778369" lon="2.189063">
        <ele>882.709757</ele>
        <time>2020-08-09T06:59:08.163Z</time>
      </trkpt>
      <trkpt lat="41.778361" lon="2.189204">
        <ele>883.660348</ele>
        <time>2020-08-09T06:59:12.162Z</time>
      </trkpt>
      <trkpt lat="41.778366" lon="2.189352">
        <ele>884.656277</ele>
        <time>2020-08-09T06:59:16.161Z</time>
      </trkpt>
      <trkpt lat="41.778370" lon="2.189497">
        <ele>885.631685</ele>
        <time>2020-08-09T06:59:20.169Z</time>
      </trkpt>
      <trkpt lat="41.778380" lon="2.189630">
        <ele>886.530291</ele>
        <time>2020-08-09T06:59:24.154Z</time>
      </trkpt>
      <trkpt lat="41.778393" lon="2.189774">
        <ele>887.505377</ele>
        <time>2020-08-09T06:59:28.159Z</time>
      </trkpt>
      <trkpt lat="41.778375" lon="2.189905">
        <ele>888.400829</ele>
        <time>2020-08-09T06:59:32.170Z</time>
      </trkpt>
      <trkpt lat="41.778389" lon="2.190057">
        <ele>888.893438</ele>
        <time>2020-08-09T06:59:38.154Z</time>
      </trkpt>
      <trkpt lat="41.778405" lon="2.190202">
        <ele>889.192928</ele>
        <time>2020-08-09T06:59:43.166Z</time>
      </trkpt>
      <trkpt lat="41.778443" lon="2.190316">
        <ele>889.448063</ele>
        <time>2020-08-09T06:59:48.172Z</time>
      </trkpt>
      <trkpt lat="41.778504" lon="2.190423">
        <ele>889.723251</ele>
        <time>2020-08-09T06:59:54.147Z</time>
      </trkpt>
      <trkpt lat="41.778567" lon="2.190509">
        <ele>889.969565</ele>
        <time>2020-08-09T07:00:06.171Z</time>
      </trkpt>
      <trkpt lat="41.778625" lon="2.190632">
        <ele>890.266906</ele>
        <time>2020-08-09T07:00:34.151Z</time>
      </trkpt>
      <trkpt lat="41.778668" lon="2.190739">
        <ele>890.515251</ele>
        <time>2020-08-09T07:00:38.159Z</time>
      </trkpt>
      <trkpt lat="41.778739" lon="2.190857">
        <ele>890.825041</ele>
        <time>2020-08-09T07:00:42.142Z</time>
      </trkpt>
      <trkpt lat="41.778800" lon="2.190956">
        <ele>891.087431</ele>
        <time>2020-08-09T07:00:45.169Z</time>
      </trkpt>
      <trkpt lat="41.778873" lon="2.191032">
        <ele>891.340644</ele>
        <time>2020-08-09T07:00:48.156Z</time>
      </trkpt>
      <trkpt lat="41.778946" lon="2.191135">
        <ele>891.630976</ele>
        <time>2020-08-09T07:00:51.154Z</time>
      </trkpt>
      <trkpt lat="41.779017" lon="2.191234">
        <ele>891.911614</ele>
        <time>2020-08-09T07:00:54.149Z</time>
      </trkpt>
      <trkpt lat="41.779105" lon="2.191327">
        <ele>892.218598</ele>
        <time>2020-08-09T07:00:57.151Z</time>
      </trkpt>
      <trkpt lat="41.779181" lon="2.191428">
        <ele>892.511761</ele>
        <time>2020-08-09T07:01:00.150Z</time>
      </trkpt>
      <trkpt lat="41.779242" lon="2.191523">
        <ele>892.767903</ele>
        <time>2020-08-09T07:01:03.153Z</time>
      </trkpt>
      <trkpt lat="41.779311" lon="2.191636">
        <ele>893.066307</ele>
        <time>2020-08-09T07:01:07.136Z</time>
      </trkpt>
      <trkpt lat="41.779367" lon="2.191764">
        <ele>893.369519</ele>
        <time>2020-08-09T07:01:11.131Z</time>
      </trkpt>
      <trkpt lat="41.779404" lon="2.191895">
        <ele>893.828400</ele>
        <time>2020-08-09T07:01:15.158Z</time>
      </trkpt>
      <trkpt lat="41.779390" lon="2.192027">
        <ele>894.785484</ele>
        <time>2020-08-09T07:01:19.168Z</time>
      </trkpt>
      <trkpt lat="41.779402" lon="2.192168">
        <ele>895.804209</ele>
        <time>2020-08-09T07:01:23.169Z</time>
      </trkpt>
      <trkpt lat="41.779384" lon="2.192303">
        <ele>896.788661</ele>
        <time>2020-08-09T07:01:27.160Z</time>
      </trkpt>
      <trkpt lat="41.779313" lon="2.192397">
        <ele>897.749094</ele>
        <time>2020-08-09T07:01:31.151Z</time>
      </trkpt>
      <trkpt lat="41.779234" lon="2.192505">
        <ele>898.835074</ele>
        <time>2020-08-09T07:01:35.158Z</time>
      </trkpt>
      <trkpt lat="41.779157" lon="2.192611">
        <ele>899.897331</ele>
        <time>2020-08-09T07:01:39.162Z</time>
      </trkpt>
      <trkpt lat="41.779057" lon="2.192709">
        <ele>901.089609</ele>
        <time>2020-08-09T07:01:43.156Z</time>
      </trkpt>
      <trkpt lat="41.778962" lon="2.192781">
        <ele>902.140047</ele>
        <time>2020-08-09T07:01:47.155Z</time>
      </trkpt>
      <trkpt lat="41.778890" lon="2.192855">
        <ele>903.013286</ele>
        <time>2020-08-09T07:01:51.158Z</time>
      </trkpt>
      <trkpt lat="41.778849" lon="2.192968">
        <ele>903.915371</ele>
        <time>2020-08-09T07:01:55.133Z</time>
      </trkpt>
      <trkpt lat="41.778836" lon="2.193089">
        <ele>904.792933</ele>
        <time>2020-08-09T07:01:59.149Z</time>
      </trkpt>
      <trkpt lat="41.778800" lon="2.193225">
        <ele>905.828885</ele>
        <time>2020-08-09T07:02:04.177Z</time>
      </trkpt>
      <trkpt lat="41.778812" lon="2.193354">
        <ele>906.762084</ele>
        <time>2020-08-09T07:02:09.172Z</time>
      </trkpt>
      <trkpt lat="41.778801" lon="2.193475">
        <ele>907.637108</ele>
        <time>2020-08-09T07:02:13.175Z</time>
      </trkpt>
      <trkpt lat="41.778776" lon="2.193616">
        <ele>908.677488</ele>
        <time>2020-08-09T07:02:18.156Z</time>
      </trkpt>
      <trkpt lat="41.778771" lon="2.193762">
        <ele>909.726649</ele>
        <time>2020-08-09T07:02:23.158Z</time>
      </trkpt>
      <trkpt lat="41.778773" lon="2.193888">
        <ele>910.631341</ele>
        <time>2020-08-09T07:02:27.151Z</time>
      </trkpt>
      <trkpt lat="41.778765" lon="2.194025">
        <ele>911.376437</ele>
        <time>2020-08-09T07:02:32.163Z</time>
      </trkpt>
      <trkpt lat="41.778733" lon="2.194157">
        <ele>912.037257</ele>
        <time>2020-08-09T07:02:37.171Z</time>
      </trkpt>
      <trkpt lat="41.778741" lon="2.194312">
        <ele>912.776970</ele>
        <time>2020-08-09T07:02:42.177Z</time>
      </trkpt>
      <trkpt lat="41.778703" lon="2.194450">
        <ele>913.477343</ele>
        <time>2020-08-09T07:02:47.138Z</time>
      </trkpt>
      <trkpt lat="41.778641" lon="2.194568">
        <ele>914.164579</ele>
        <time>2020-08-09T07:02:52.171Z</time>
      </trkpt>
      <trkpt lat="41.778602" lon="2.194708">
        <ele>914.876102</ele>
        <time>2020-08-09T07:02:57.155Z</time>
      </trkpt>
      <trkpt lat="41.778579" lon="2.194837">
        <ele>915.507576</ele>
        <time>2020-08-09T07:03:02.188Z</time>
      </trkpt>
      <trkpt lat="41.778520" lon="2.194959">
        <ele>916.199861</ele>
        <time>2020-08-09T07:03:07.144Z</time>
      </trkpt>
      <trkpt lat="41.778451" lon="2.195035">
        <ele>916.769933</ele>
        <time>2020-08-09T07:03:13.178Z</time>
      </trkpt>
      <trkpt lat="41.778352" lon="2.195019">
        <ele>917.406557</ele>
        <time>2020-08-09T07:03:19.173Z</time>
      </trkpt>
      <trkpt lat="41.778252" lon="2.195016">
        <ele>918.045152</ele>
        <time>2020-08-09T07:03:26.169Z</time>
      </trkpt>
      <trkpt lat="41.778165" lon="2.195062">
        <ele>918.642207</ele>
        <time>2020-08-09T07:03:31.172Z</time>
      </trkpt>
      <trkpt lat="41.778072" lon="2.195114">
        <ele>919.285499</ele>
        <time>2020-08-09T07:03:36.169Z</time>
      </trkpt>
      <trkpt lat="41.777986" lon="2.195163">
        <ele>919.882059</ele>
        <time>2020-08-09T07:03:40.158Z</time>
      </trkpt>
      <trkpt lat="41.777905" lon="2.195241">
        <ele>920.518717</ele>
        <time>2020-08-09T07:03:45.149Z</time>
      </trkpt>
      <trkpt lat="41.777827" lon="2.195330">
        <ele>921.172576</ele>
        <time>2020-08-09T07:03:50.149Z</time>
      </trkpt>
      <trkpt lat="41.777764" lon="2.195422">
        <ele>921.767246</ele>
        <time>2020-08-09T07:03:54.148Z</time>
      </trkpt>
      <trkpt lat="41.777684" lon="2.195519">
        <ele>922.476567</ele>
        <time>2020-08-09T07:03:59.151Z</time>
      </trkpt>
      <trkpt lat="41.777623" lon="2.195624">
        <ele>923.293954</ele>
        <time>2020-08-09T07:04:04.150Z</time>
      </trkpt>
      <trkpt lat="41.777581" lon="2.195738">
        <ele>924.074814</ele>
        <time>2020-08-09T07:04:08.142Z</time>
      </trkpt>
      <trkpt lat="41.777585" lon="2.195860">
        <ele>924.824751</ele>
        <time>2020-08-09T07:04:12.147Z</time>
      </trkpt>
      <trkpt lat="41.777594" lon="2.195994">
        <ele>925.650989</ele>
        <time>2020-08-09T07:04:17.166Z</time>
      </trkpt>
      <trkpt lat="41.777579" lon="2.196113">
        <ele>926.392145</ele>
        <time>2020-08-09T07:04:21.181Z</time>
      </trkpt>
      <trkpt lat="41.777558" lon="2.196236">
        <ele>927.167043</ele>
        <time>2020-08-09T07:04:26.150Z</time>
      </trkpt>
      <trkpt lat="41.777564" lon="2.196365">
        <ele>927.960783</ele>
        <time>2020-08-09T07:04:32.151Z</time>
      </trkpt>
      <trkpt lat="41.777547" lon="2.196499">
        <ele>928.795513</ele>
        <time>2020-08-09T07:04:38.160Z</time>
      </trkpt>
      <trkpt lat="41.777528" lon="2.196629">
        <ele>929.609044</ele>
        <time>2020-08-09T07:04:44.186Z</time>
      </trkpt>
      <trkpt lat="41.777544" lon="2.196757">
        <ele>930.406070</ele>
        <time>2020-08-09T07:04:50.166Z</time>
      </trkpt>
      <trkpt lat="41.777493" lon="2.196868">
        <ele>931.206725</ele>
        <time>2020-08-09T07:04:55.155Z</time>
      </trkpt>
      <trkpt lat="41.777425" lon="2.196977">
        <ele>932.079446</ele>
        <time>2020-08-09T07:04:59.198Z</time>
      </trkpt>
      <trkpt lat="41.777322" lon="2.197064">
        <ele>933.081890</ele>
        <time>2020-08-09T07:05:03.164Z</time>
      </trkpt>
      <trkpt lat="41.777232" lon="2.197131">
        <ele>933.929586</ele>
        <time>2020-08-09T07:05:06.170Z</time>
      </trkpt>
      <trkpt lat="41.777125" lon="2.197195">
        <ele>934.894407</ele>
        <time>2020-08-09T07:05:09.172Z</time>
      </trkpt>
      <trkpt lat="41.777007" lon="2.197251">
        <ele>935.925190</ele>
        <time>2020-08-09T07:05:12.178Z</time>
      </trkpt>
      <trkpt lat="41.776895" lon="2.197331">
        <ele>936.970192</ele>
        <time>2020-08-09T07:05:15.173Z</time>
      </trkpt>
      <trkpt lat="41.776805" lon="2.197437">
        <ele>936.565476</ele>
        <time>2020-08-09T07:05:18.171Z</time>
      </trkpt>
      <trkpt lat="41.776705" lon="2.197554">
        <ele>935.659583</ele>
        <time>2020-08-09T07:05:21.146Z</time>
      </trkpt>
      <trkpt lat="41.776636" lon="2.197654">
        <ele>934.966076</ele>
        <time>2020-08-09T07:05:23.155Z</time>
      </trkpt>
      <trkpt lat="41.776545" lon="2.197710">
        <ele>934.282630</ele>
        <time>2020-08-09T07:05:39.172Z</time>
      </trkpt>
      <trkpt lat="41.776462" lon="2.197797">
        <ele>933.563526</ele>
        <time>2020-08-09T07:05:44.158Z</time>
      </trkpt>
      <trkpt lat="41.776387" lon="2.197865">
        <ele>932.945541</ele>
        <time>2020-08-09T07:05:48.155Z</time>
      </trkpt>
      <trkpt lat="41.776244" lon="2.197934">
        <ele>931.908163</ele>
        <time>2020-08-09T07:06:31.152Z</time>
      </trkpt>
      <trkpt lat="41.776141" lon="2.197958">
        <ele>931.194559</ele>
        <time>2020-08-09T07:06:35.164Z</time>
      </trkpt>
      <trkpt lat="41.775977" lon="2.198009">
        <ele>930.045399</ele>
        <time>2020-08-09T07:06:57.171Z</time>
      </trkpt>
      <trkpt lat="41.775879" lon="2.198044">
        <ele>929.353140</ele>
        <time>2020-08-09T07:07:00.161Z</time>
      </trkpt>
      <trkpt lat="41.775780" lon="2.198112">
        <ele>928.593877</ele>
        <time>2020-08-09T07:07:03.143Z</time>
      </trkpt>
      <trkpt lat="41.775679" lon="2.198195">
        <ele>927.785291</ele>
        <time>2020-08-09T07:07:06.147Z</time>
      </trkpt>
      <trkpt lat="41.775603" lon="2.198269">
        <ele>927.144181</ele>
        <time>2020-08-09T07:07:08.141Z</time>
      </trkpt>
      <trkpt lat="41.775502" lon="2.198360">
        <ele>926.313589</ele>
        <time>2020-08-09T07:07:10.134Z</time>
      </trkpt>
      <trkpt lat="41.775370" lon="2.198434">
        <ele>925.336994</ele>
        <time>2020-08-09T07:07:12.151Z</time>
      </trkpt>
      <trkpt lat="41.775224" lon="2.198461">
        <ele>924.648484</ele>
        <time>2020-08-09T07:07:14.163Z</time>
      </trkpt>
      <trkpt lat="41.775073" lon="2.198491">
        <ele>924.169526</ele>
        <time>2020-08-09T07:07:16.173Z</time>
      </trkpt>
      <trkpt lat="41.774936" lon="2.198544">
        <ele>923.722134</ele>
        <time>2020-08-09T07:07:18.139Z</time>
      </trkpt>
      <trkpt lat="41.774790" lon="2.198630">
        <ele>923.221784</ele>
        <time>2020-08-09T07:07:20.160Z</time>
      </trkpt>
      <trkpt lat="41.774642" lon="2.198676">
        <ele>922.745099</ele>
        <time>2020-08-09T07:07:22.160Z</time>
      </trkpt>
      <trkpt lat="41.774504" lon="2.198727">
        <ele>922.295958</ele>
        <time>2020-08-09T07:07:24.161Z</time>
      </trkpt>
      <trkpt lat="41.774360" lon="2.198774">
        <ele>921.830943</ele>
        <time>2020-08-09T07:07:26.150Z</time>
      </trkpt>
      <trkpt lat="41.774219" lon="2.198850">
        <ele>921.354127</ele>
        <time>2020-08-09T07:07:28.151Z</time>
      </trkpt>
      <trkpt lat="41.774105" lon="2.199007">
        <ele>920.841379</ele>
        <time>2020-08-09T07:07:30.150Z</time>
      </trkpt>
      <trkpt lat="41.774002" lon="2.199148">
        <ele>920.379530</ele>
        <time>2020-08-09T07:07:32.156Z</time>
      </trkpt>
      <trkpt lat="41.773928" lon="2.199298">
        <ele>919.958684</ele>
        <time>2020-08-09T07:07:34.169Z</time>
      </trkpt>
      <trkpt lat="41.773887" lon="2.199413">
        <ele>919.660415</ele>
        <time>2020-08-09T07:07:36.150Z</time>
      </trkpt>
      <trkpt lat="41.773841" lon="2.199530">
        <ele>919.350920</ele>
        <time>2020-08-09T07:07:39.166Z</time>
      </trkpt>
      <trkpt lat="41.773821" lon="2.199656">
        <ele>918.719316</ele>
        <time>2020-08-09T07:07:43.158Z</time>
      </trkpt>
      <trkpt lat="41.773812" lon="2.199809">
        <ele>917.834583</ele>
        <time>2020-08-09T07:07:46.152Z</time>
      </trkpt>
      <trkpt lat="41.773799" lon="2.199960">
        <ele>916.958338</ele>
        <time>2020-08-09T07:07:49.162Z</time>
      </trkpt>
      <trkpt lat="41.773765" lon="2.200106">
        <ele>916.076619</ele>
        <time>2020-08-09T07:07:53.156Z</time>
      </trkpt>
      <trkpt lat="41.773739" lon="2.200234">
        <ele>915.311862</ele>
        <time>2020-08-09T07:07:56.155Z</time>
      </trkpt>
      <trkpt lat="41.773675" lon="2.200352">
        <ele>914.470765</ele>
        <time>2020-08-09T07:07:59.152Z</time>
      </trkpt>
      <trkpt lat="41.773566" lon="2.200399">
        <ele>913.585735</ele>
        <time>2020-08-09T07:08:02.163Z</time>
      </trkpt>
      <trkpt lat="41.773468" lon="2.200457">
        <ele>912.757716</ele>
        <time>2020-08-09T07:08:06.167Z</time>
      </trkpt>
      <trkpt lat="41.773460" lon="2.200586">
        <ele>912.011504</ele>
        <time>2020-08-09T07:08:11.161Z</time>
      </trkpt>
      <trkpt lat="41.773490" lon="2.200720">
        <ele>911.204980</ele>
        <time>2020-08-09T07:08:14.158Z</time>
      </trkpt>
      <trkpt lat="41.773505" lon="2.200866">
        <ele>910.355386</ele>
        <time>2020-08-09T07:08:18.178Z</time>
      </trkpt>
      <trkpt lat="41.773410" lon="2.201076">
        <ele>908.939495</ele>
        <time>2020-08-09T07:08:50.171Z</time>
      </trkpt>
      <trkpt lat="41.773380" lon="2.201259">
        <ele>907.859369</ele>
        <time>2020-08-09T07:09:45.168Z</time>
      </trkpt>
      <trkpt lat="41.773393" lon="2.201420">
        <ele>906.925828</ele>
        <time>2020-08-09T07:09:51.158Z</time>
      </trkpt>
      <trkpt lat="41.773391" lon="2.201541">
        <ele>906.228128</ele>
        <time>2020-08-09T07:09:53.163Z</time>
      </trkpt>
      <trkpt lat="41.773415" lon="2.201679">
        <ele>905.411255</ele>
        <time>2020-08-09T07:09:55.166Z</time>
      </trkpt>
      <trkpt lat="41.773390" lon="2.201817">
        <ele>904.662240</ele>
        <time>2020-08-09T07:09:57.156Z</time>
      </trkpt>
      <trkpt lat="41.773337" lon="2.201936">
        <ele>903.934614</ele>
        <time>2020-08-09T07:09:59.149Z</time>
      </trkpt>
      <trkpt lat="41.773212" lon="2.202003">
        <ele>902.987036</ele>
        <time>2020-08-09T07:10:02.150Z</time>
      </trkpt>
      <trkpt lat="41.773094" lon="2.201942">
        <ele>902.096835</ele>
        <time>2020-08-09T07:10:05.158Z</time>
      </trkpt>
      <trkpt lat="41.772979" lon="2.201849">
        <ele>901.151513</ele>
        <time>2020-08-09T07:10:08.181Z</time>
      </trkpt>
      <trkpt lat="41.772902" lon="2.201768">
        <ele>900.462611</ele>
        <time>2020-08-09T07:10:10.146Z</time>
      </trkpt>
      <trkpt lat="41.772829" lon="2.201670">
        <ele>899.735479</ele>
        <time>2020-08-09T07:10:12.153Z</time>
      </trkpt>
      <trkpt lat="41.772777" lon="2.201556">
        <ele>899.033955</ele>
        <time>2020-08-09T07:10:14.148Z</time>
      </trkpt>
      <trkpt lat="41.772754" lon="2.201417">
        <ele>898.286505</ele>
        <time>2020-08-09T07:10:16.146Z</time>
      </trkpt>
      <trkpt lat="41.772730" lon="2.201279">
        <ele>897.542612</ele>
        <time>2020-08-09T07:10:18.155Z</time>
      </trkpt>
      <trkpt lat="41.772678" lon="2.201148">
        <ele>896.763560</ele>
        <time>2020-08-09T07:10:20.166Z</time>
      </trkpt>
      <trkpt lat="41.772607" lon="2.201050">
        <ele>896.046307</ele>
        <time>2020-08-09T07:10:22.153Z</time>
      </trkpt>
      <trkpt lat="41.772523" lon="2.200975">
        <ele>895.335931</ele>
        <time>2020-08-09T07:10:24.172Z</time>
      </trkpt>
      <trkpt lat="41.772417" lon="2.200929">
        <ele>894.551686</ele>
        <time>2020-08-09T07:10:26.160Z</time>
      </trkpt>
      <trkpt lat="41.772291" lon="2.200924">
        <ele>893.664376</ele>
        <time>2020-08-09T07:10:28.168Z</time>
      </trkpt>
      <trkpt lat="41.772159" lon="2.200884">
        <ele>892.711787</ele>
        <time>2020-08-09T07:10:30.160Z</time>
      </trkpt>
      <trkpt lat="41.772030" lon="2.200797">
        <ele>891.089466</ele>
        <time>2020-08-09T07:10:32.170Z</time>
      </trkpt>
      <trkpt lat="41.771895" lon="2.200687">
        <ele>889.314348</ele>
        <time>2020-08-09T07:10:34.159Z</time>
      </trkpt>
      <trkpt lat="41.771794" lon="2.200572">
        <ele>887.825427</ele>
        <time>2020-08-09T07:10:36.158Z</time>
      </trkpt>
      <trkpt lat="41.771696" lon="2.200468">
        <ele>886.421035</ele>
        <time>2020-08-09T07:10:38.152Z</time>
      </trkpt>
      <trkpt lat="41.771588" lon="2.200376">
        <ele>884.983245</ele>
        <time>2020-08-09T07:10:40.159Z</time>
      </trkpt>
      <trkpt lat="41.771463" lon="2.200335">
        <ele>883.537218</ele>
        <time>2020-08-09T07:10:42.146Z</time>
      </trkpt>
      <trkpt lat="41.771336" lon="2.200341">
        <ele>882.109248</ele>
        <time>2020-08-09T07:10:44.147Z</time>
      </trkpt>
      <trkpt lat="41.771200" lon="2.200385">
        <ele>880.537173</ele>
        <time>2020-08-09T07:10:46.149Z</time>
      </trkpt>
      <trkpt lat="41.771065" lon="2.200398">
        <ele>879.016286</ele>
        <time>2020-08-09T07:10:48.157Z</time>
      </trkpt>
      <trkpt lat="41.770956" lon="2.200423">
        <ele>877.773675</ele>
        <time>2020-08-09T07:10:50.167Z</time>
      </trkpt>
      <trkpt lat="41.770885" lon="2.200530">
        <ele>876.573410</ele>
        <time>2020-08-09T07:10:53.157Z</time>
      </trkpt>
      <trkpt lat="41.770945" lon="2.200658">
        <ele>875.306409</ele>
        <time>2020-08-09T07:10:56.166Z</time>
      </trkpt>
      <trkpt lat="41.771067" lon="2.200627">
        <ele>873.911108</ele>
        <time>2020-08-09T07:10:59.146Z</time>
      </trkpt>
      <trkpt lat="41.771153" lon="2.200587">
        <ele>872.888244</ele>
        <time>2020-08-09T07:11:03.158Z</time>
      </trkpt>
      <trkpt lat="41.771262" lon="2.200650">
        <ele>871.213400</ele>
        <time>2020-08-09T07:11:06.160Z</time>
      </trkpt>
      <trkpt lat="41.771357" lon="2.200770">
        <ele>869.217855</ele>
        <time>2020-08-09T07:11:08.159Z</time>
      </trkpt>
      <trkpt lat="41.771462" lon="2.200923">
        <ele>866.846955</ele>
        <time>2020-08-09T07:11:10.150Z</time>
      </trkpt>
      <trkpt lat="41.771559" lon="2.201087">
        <ele>864.460158</ele>
        <time>2020-08-09T07:11:12.153Z</time>
      </trkpt>
      <trkpt lat="41.771660" lon="2.201260">
        <ele>861.954902</ele>
        <time>2020-08-09T07:11:14.164Z</time>
      </trkpt>
      <trkpt lat="41.771731" lon="2.201453">
        <ele>859.500954</ele>
        <time>2020-08-09T07:11:16.156Z</time>
      </trkpt>
      <trkpt lat="41.771807" lon="2.201606">
        <ele>857.404748</ele>
        <time>2020-08-09T07:11:18.151Z</time>
      </trkpt>
      <trkpt lat="41.771863" lon="2.201767">
        <ele>855.379026</ele>
        <time>2020-08-09T07:11:20.149Z</time>
      </trkpt>
      <trkpt lat="41.771889" lon="2.201948">
        <ele>853.277154</ele>
        <time>2020-08-09T07:11:22.139Z</time>
      </trkpt>
      <trkpt lat="41.771920" lon="2.202140">
        <ele>851.037067</ele>
        <time>2020-08-09T07:11:24.149Z</time>
      </trkpt>
      <trkpt lat="41.771989" lon="2.202328">
        <ele>848.647787</ele>
        <time>2020-08-09T07:11:26.150Z</time>
      </trkpt>
      <trkpt lat="41.772042" lon="2.202482">
        <ele>846.713780</ele>
        <time>2020-08-09T07:11:28.151Z</time>
      </trkpt>
      <trkpt lat="41.772120" lon="2.202604">
        <ele>844.916062</ele>
        <time>2020-08-09T07:11:30.152Z</time>
      </trkpt>
      <trkpt lat="41.772185" lon="2.202701">
        <ele>843.864302</ele>
        <time>2020-08-09T07:11:32.147Z</time>
      </trkpt>
      <trkpt lat="41.772298" lon="2.202738">
        <ele>842.606353</ele>
        <time>2020-08-09T07:11:34.158Z</time>
      </trkpt>
      <trkpt lat="41.772403" lon="2.202755">
        <ele>841.462582</ele>
        <time>2020-08-09T07:11:36.149Z</time>
      </trkpt>
      <trkpt lat="41.772527" lon="2.202772">
        <ele>840.114591</ele>
        <time>2020-08-09T07:11:38.144Z</time>
      </trkpt>
      <trkpt lat="41.772660" lon="2.202802">
        <ele>838.656052</ele>
        <time>2020-08-09T07:11:40.169Z</time>
      </trkpt>
      <trkpt lat="41.772786" lon="2.202838">
        <ele>837.262833</ele>
        <time>2020-08-09T07:11:42.166Z</time>
      </trkpt>
      <trkpt lat="41.772929" lon="2.202917">
        <ele>835.590241</ele>
        <time>2020-08-09T07:11:44.162Z</time>
      </trkpt>
      <trkpt lat="41.773055" lon="2.203007">
        <ele>834.046331</ele>
        <time>2020-08-09T07:11:46.133Z</time>
      </trkpt>
      <trkpt lat="41.773198" lon="2.203050">
        <ele>832.461446</ele>
        <time>2020-08-09T07:11:48.166Z</time>
      </trkpt>
      <trkpt lat="41.773339" lon="2.203090">
        <ele>830.902846</ele>
        <time>2020-08-09T07:11:50.153Z</time>
      </trkpt>
      <trkpt lat="41.773448" lon="2.203181">
        <ele>829.514251</ele>
        <time>2020-08-09T07:11:52.157Z</time>
      </trkpt>
      <trkpt lat="41.773529" lon="2.203340">
        <ele>827.961243</ele>
        <time>2020-08-09T07:11:54.149Z</time>
      </trkpt>
      <trkpt lat="41.773626" lon="2.203496">
        <ele>826.323122</ele>
        <time>2020-08-09T07:11:56.157Z</time>
      </trkpt>
      <trkpt lat="41.773722" lon="2.203625">
        <ele>824.807724</ele>
        <time>2020-08-09T07:11:58.174Z</time>
      </trkpt>
      <trkpt lat="41.773824" lon="2.203756">
        <ele>823.180078</ele>
        <time>2020-08-09T07:12:00.171Z</time>
      </trkpt>
      <trkpt lat="41.773955" lon="2.203877">
        <ele>821.346929</ele>
        <time>2020-08-09T07:12:02.173Z</time>
      </trkpt>
      <trkpt lat="41.774101" lon="2.203977">
        <ele>819.457636</ele>
        <time>2020-08-09T07:12:04.195Z</time>
      </trkpt>
      <trkpt lat="41.774260" lon="2.204026">
        <ele>817.577555</ele>
        <time>2020-08-09T07:12:06.159Z</time>
      </trkpt>
      <trkpt lat="41.774406" lon="2.204088">
        <ele>815.812695</ele>
        <time>2020-08-09T07:12:08.158Z</time>
      </trkpt>
      <trkpt lat="41.774540" lon="2.204192">
        <ele>814.028466</ele>
        <time>2020-08-09T07:12:10.165Z</time>
      </trkpt>
      <trkpt lat="41.774671" lon="2.204336">
        <ele>812.076392</ele>
        <time>2020-08-09T07:12:12.159Z</time>
      </trkpt>
      <trkpt lat="41.774771" lon="2.204515">
        <ele>810.154260</ele>
        <time>2020-08-09T07:12:14.169Z</time>
      </trkpt>
      <trkpt lat="41.774853" lon="2.204688">
        <ele>808.392575</ele>
        <time>2020-08-09T07:12:16.166Z</time>
      </trkpt>
      <trkpt lat="41.774940" lon="2.204832">
        <ele>806.799859</ele>
        <time>2020-08-09T07:12:18.173Z</time>
      </trkpt>
      <trkpt lat="41.775084" lon="2.204929">
        <ele>804.942784</ele>
        <time>2020-08-09T07:12:20.174Z</time>
      </trkpt>
      <trkpt lat="41.775237" lon="2.205018">
        <ele>802.599548</ele>
        <time>2020-08-09T07:12:22.159Z</time>
      </trkpt>
      <trkpt lat="41.775395" lon="2.205113">
        <ele>800.137032</ele>
        <time>2020-08-09T07:12:24.167Z</time>
      </trkpt>
      <trkpt lat="41.775534" lon="2.205218">
        <ele>797.868184</ele>
        <time>2020-08-09T07:12:26.156Z</time>
      </trkpt>
      <trkpt lat="41.775632" lon="2.205360">
        <ele>795.816256</ele>
        <time>2020-08-09T07:12:28.155Z</time>
      </trkpt>
      <trkpt lat="41.775703" lon="2.205490">
        <ele>794.107331</ele>
        <time>2020-08-09T07:12:30.155Z</time>
      </trkpt>
      <trkpt lat="41.775789" lon="2.205559">
        <ele>792.682088</ele>
        <time>2020-08-09T07:12:32.173Z</time>
      </trkpt>
      <trkpt lat="41.775893" lon="2.205517">
        <ele>791.137454</ele>
        <time>2020-08-09T07:12:34.155Z</time>
      </trkpt>
      <trkpt lat="41.775979" lon="2.205389">
        <ele>789.310254</ele>
        <time>2020-08-09T07:12:36.176Z</time>
      </trkpt>
      <trkpt lat="41.776045" lon="2.205264">
        <ele>787.685922</ele>
        <time>2020-08-09T07:12:38.200Z</time>
      </trkpt>
      <trkpt lat="41.776154" lon="2.205151">
        <ele>785.726558</ele>
        <time>2020-08-09T07:12:40.172Z</time>
      </trkpt>
      <trkpt lat="41.776246" lon="2.205059">
        <ele>784.094438</ele>
        <time>2020-08-09T07:12:42.167Z</time>
      </trkpt>
      <trkpt lat="41.776371" lon="2.205023">
        <ele>782.276239</ele>
        <time>2020-08-09T07:12:44.157Z</time>
      </trkpt>
      <trkpt lat="41.776510" lon="2.205003">
        <ele>780.288133</ele>
        <time>2020-08-09T07:12:46.156Z</time>
      </trkpt>
      <trkpt lat="41.776654" lon="2.204982">
        <ele>778.278472</ele>
        <time>2020-08-09T07:12:48.157Z</time>
      </trkpt>
      <trkpt lat="41.776755" lon="2.204980">
        <ele>776.913219</ele>
        <time>2020-08-09T07:12:50.169Z</time>
      </trkpt>
      <trkpt lat="41.776863" lon="2.204964">
        <ele>775.444623</ele>
        <time>2020-08-09T07:13:01.152Z</time>
      </trkpt>
      <trkpt lat="41.776973" lon="2.204860">
        <ele>773.625486</ele>
        <time>2020-08-09T07:13:04.148Z</time>
      </trkpt>
      <trkpt lat="41.777065" lon="2.204789">
        <ele>772.190798</ele>
        <time>2020-08-09T07:13:06.159Z</time>
      </trkpt>
      <trkpt lat="41.777200" lon="2.204841">
        <ele>770.292369</ele>
        <time>2020-08-09T07:13:09.161Z</time>
      </trkpt>
      <trkpt lat="41.777308" lon="2.204956">
        <ele>768.428412</ele>
        <time>2020-08-09T07:13:11.149Z</time>
      </trkpt>
      <trkpt lat="41.777410" lon="2.205105">
        <ele>766.389772</ele>
        <time>2020-08-09T07:13:13.149Z</time>
      </trkpt>
      <trkpt lat="41.777526" lon="2.205242">
        <ele>764.300533</ele>
        <time>2020-08-09T07:13:15.149Z</time>
      </trkpt>
      <trkpt lat="41.777637" lon="2.205404">
        <ele>762.083109</ele>
        <time>2020-08-09T07:13:17.163Z</time>
      </trkpt>
      <trkpt lat="41.777716" lon="2.205557">
        <ele>760.207406</ele>
        <time>2020-08-09T07:13:19.161Z</time>
      </trkpt>
      <trkpt lat="41.777729" lon="2.205764">
        <ele>758.113613</ele>
        <time>2020-08-09T07:13:22.163Z</time>
      </trkpt>
      <trkpt lat="41.777714" lon="2.205957">
        <ele>756.157778</ele>
        <time>2020-08-09T07:13:24.152Z</time>
      </trkpt>
      <trkpt lat="41.777717" lon="2.206176">
        <ele>754.072171</ele>
        <time>2020-08-09T07:13:26.156Z</time>
      </trkpt>
      <trkpt lat="41.777706" lon="2.206408">
        <ele>752.020592</ele>
        <time>2020-08-09T07:13:28.157Z</time>
      </trkpt>
      <trkpt lat="41.777678" lon="2.206611">
        <ele>750.198691</ele>
        <time>2020-08-09T07:13:30.156Z</time>
      </trkpt>
      <trkpt lat="41.777647" lon="2.206726">
        <ele>749.119522</ele>
        <time>2020-08-09T07:13:31.158Z</time>
      </trkpt>
      <trkpt lat="41.777597" lon="2.206862">
        <ele>747.781364</ele>
        <time>2020-08-09T07:13:32.148Z</time>
      </trkpt>
      <trkpt lat="41.777536" lon="2.207059">
        <ele>745.898882</ele>
        <time>2020-08-09T07:13:34.152Z</time>
      </trkpt>
      <trkpt lat="41.777497" lon="2.207198">
        <ele>744.588225</ele>
        <time>2020-08-09T07:13:36.158Z</time>
      </trkpt>
      <trkpt lat="41.777418" lon="2.207283">
        <ele>743.389576</ele>
        <time>2020-08-09T07:13:39.155Z</time>
      </trkpt>
      <trkpt lat="41.777357" lon="2.207377">
        <ele>742.289888</ele>
        <time>2020-08-09T07:13:43.162Z</time>
      </trkpt>
      <trkpt lat="41.777262" lon="2.207457">
        <ele>740.962333</ele>
        <time>2020-08-09T07:13:46.163Z</time>
      </trkpt>
      <trkpt lat="41.777152" lon="2.207561">
        <ele>739.369537</ele>
        <time>2020-08-09T07:13:49.156Z</time>
      </trkpt>
      <trkpt lat="41.777040" lon="2.207659">
        <ele>737.786886</ele>
        <time>2020-08-09T07:13:51.137Z</time>
      </trkpt>
      <trkpt lat="41.776935" lon="2.207812">
        <ele>735.951875</ele>
        <time>2020-08-09T07:13:53.153Z</time>
      </trkpt>
      <trkpt lat="41.776858" lon="2.207882">
        <ele>734.850971</ele>
        <time>2020-08-09T07:13:54.160Z</time>
      </trkpt>
      <trkpt lat="41.776762" lon="2.208018">
        <ele>733.227677</ele>
        <time>2020-08-09T07:13:56.161Z</time>
      </trkpt>
      <trkpt lat="41.776675" lon="2.208209">
        <ele>731.382010</ele>
        <time>2020-08-09T07:13:58.163Z</time>
      </trkpt>
      <trkpt lat="41.776602" lon="2.208390">
        <ele>729.685073</ele>
        <time>2020-08-09T07:14:00.153Z</time>
      </trkpt>
      <trkpt lat="41.776567" lon="2.208547">
        <ele>728.333746</ele>
        <time>2020-08-09T07:14:02.158Z</time>
      </trkpt>
      <trkpt lat="41.776531" lon="2.208697">
        <ele>727.034276</ele>
        <time>2020-08-09T07:14:04.167Z</time>
      </trkpt>
      <trkpt lat="41.776509" lon="2.208825">
        <ele>725.951039</ele>
        <time>2020-08-09T07:14:06.155Z</time>
      </trkpt>
      <trkpt lat="41.776482" lon="2.208957">
        <ele>724.822284</ele>
        <time>2020-08-09T07:14:08.155Z</time>
      </trkpt>
      <trkpt lat="41.776464" lon="2.209075">
        <ele>723.829035</ele>
        <time>2020-08-09T07:14:10.158Z</time>
      </trkpt>
      <trkpt lat="41.776398" lon="2.209186">
        <ele>722.658320</ele>
        <time>2020-08-09T07:14:12.157Z</time>
      </trkpt>
      <trkpt lat="41.776309" lon="2.209260">
        <ele>721.500302</ele>
        <time>2020-08-09T07:14:14.145Z</time>
      </trkpt>
      <trkpt lat="41.776214" lon="2.209341">
        <ele>720.255395</ele>
        <time>2020-08-09T07:14:16.163Z</time>
      </trkpt>
      <trkpt lat="41.776122" lon="2.209435">
        <ele>718.976367</ele>
        <time>2020-08-09T07:14:18.151Z</time>
      </trkpt>
      <trkpt lat="41.776029" lon="2.209543">
        <ele>717.615904</ele>
        <time>2020-08-09T07:14:20.149Z</time>
      </trkpt>
      <trkpt lat="41.775949" lon="2.209653">
        <ele>716.348820</ele>
        <time>2020-08-09T07:14:22.156Z</time>
      </trkpt>
      <trkpt lat="41.775899" lon="2.209797">
        <ele>715.038891</ele>
        <time>2020-08-09T07:14:24.153Z</time>
      </trkpt>
      <trkpt lat="41.775873" lon="2.209987">
        <ele>713.486780</ele>
        <time>2020-08-09T07:14:26.147Z</time>
      </trkpt>
      <trkpt lat="41.775889" lon="2.210187">
        <ele>712.046561</ele>
        <time>2020-08-09T07:14:28.160Z</time>
      </trkpt>
      <trkpt lat="41.775901" lon="2.210388">
        <ele>710.602793</ele>
        <time>2020-08-09T07:14:30.168Z</time>
      </trkpt>
      <trkpt lat="41.775927" lon="2.210584">
        <ele>709.177402</ele>
        <time>2020-08-09T07:14:32.158Z</time>
      </trkpt>
      <trkpt lat="41.775947" lon="2.210782">
        <ele>707.746774</ele>
        <time>2020-08-09T07:14:34.161Z</time>
      </trkpt>
      <trkpt lat="41.775959" lon="2.210961">
        <ele>706.459964</ele>
        <time>2020-08-09T07:14:36.165Z</time>
      </trkpt>
      <trkpt lat="41.775973" lon="2.211116">
        <ele>705.342053</ele>
        <time>2020-08-09T07:14:38.161Z</time>
      </trkpt>
      <trkpt lat="41.775974" lon="2.211254">
        <ele>704.353925</ele>
        <time>2020-08-09T07:14:40.166Z</time>
      </trkpt>
      <trkpt lat="41.775970" lon="2.211390">
        <ele>703.379407</ele>
        <time>2020-08-09T07:14:42.152Z</time>
      </trkpt>
      <trkpt lat="41.775968" lon="2.211515">
        <ele>702.484200</ele>
        <time>2020-08-09T07:14:44.169Z</time>
      </trkpt>
      <trkpt lat="41.775982" lon="2.211673">
        <ele>701.344961</ele>
        <time>2020-08-09T07:14:47.142Z</time>
      </trkpt>
      <trkpt lat="41.775908" lon="2.211754">
        <ele>700.427830</ele>
        <time>2020-08-09T07:14:50.161Z</time>
      </trkpt>
      <trkpt lat="41.775814" lon="2.211709">
        <ele>699.469545</ele>
        <time>2020-08-09T07:14:53.159Z</time>
      </trkpt>
      <trkpt lat="41.775747" lon="2.211627">
        <ele>698.598622</ele>
        <time>2020-08-09T07:14:55.153Z</time>
      </trkpt>
      <trkpt lat="41.775660" lon="2.211542">
        <ele>697.565131</ele>
        <time>2020-08-09T07:14:57.168Z</time>
      </trkpt>
      <trkpt lat="41.775561" lon="2.211446">
        <ele>696.471486</ele>
        <time>2020-08-09T07:14:59.149Z</time>
      </trkpt>
      <trkpt lat="41.775447" lon="2.211378">
        <ele>696.269321</ele>
        <time>2020-08-09T07:15:01.162Z</time>
      </trkpt>
      <trkpt lat="41.775327" lon="2.211289">
        <ele>696.047126</ele>
        <time>2020-08-09T07:15:03.154Z</time>
      </trkpt>
      <trkpt lat="41.775225" lon="2.211191">
        <ele>695.843811</ele>
        <time>2020-08-09T07:15:05.149Z</time>
      </trkpt>
      <trkpt lat="41.775136" lon="2.211091">
        <ele>695.655671</ele>
        <time>2020-08-09T07:15:07.156Z</time>
      </trkpt>
      <trkpt lat="41.775064" lon="2.210971">
        <ele>695.469564</ele>
        <time>2020-08-09T07:15:09.160Z</time>
      </trkpt>
      <trkpt lat="41.774976" lon="2.210886">
        <ele>695.293837</ele>
        <time>2020-08-09T07:15:12.154Z</time>
      </trkpt>
      <trkpt lat="41.774922" lon="2.210746">
        <ele>695.103379</ele>
        <time>2020-08-09T07:15:17.155Z</time>
      </trkpt>
      <trkpt lat="41.774891" lon="2.210611">
        <ele>694.932692</ele>
        <time>2020-08-09T07:15:20.154Z</time>
      </trkpt>
      <trkpt lat="41.774837" lon="2.210497">
        <ele>694.769501</ele>
        <time>2020-08-09T07:15:23.156Z</time>
      </trkpt>
      <trkpt lat="41.774751" lon="2.210400">
        <ele>694.587414</ele>
        <time>2020-08-09T07:15:26.144Z</time>
      </trkpt>
      <trkpt lat="41.774639" lon="2.210344">
        <ele>694.393735</ele>
        <time>2020-08-09T07:15:29.149Z</time>
      </trkpt>
      <trkpt lat="41.774516" lon="2.210359">
        <ele>694.193617</ele>
        <time>2020-08-09T07:15:32.149Z</time>
      </trkpt>
      <trkpt lat="41.774408" lon="2.210409">
        <ele>694.008489</ele>
        <time>2020-08-09T07:15:35.167Z</time>
      </trkpt>
      <trkpt lat="41.774312" lon="2.210460">
        <ele>693.841177</ele>
        <time>2020-08-09T07:15:39.165Z</time>
      </trkpt>
      <trkpt lat="41.774311" lon="2.210584">
        <ele>693.691330</ele>
        <time>2020-08-09T07:15:59.151Z</time>
      </trkpt>
      <trkpt lat="41.774283" lon="2.210713">
        <ele>693.640588</ele>
        <time>2020-08-09T07:16:04.160Z</time>
      </trkpt>
      <trkpt lat="41.774269" lon="2.210836">
        <ele>693.869137</ele>
        <time>2020-08-09T07:16:07.162Z</time>
      </trkpt>
      <trkpt lat="41.774256" lon="2.210959">
        <ele>694.097328</ele>
        <time>2020-08-09T07:16:10.169Z</time>
      </trkpt>
      <trkpt lat="41.774255" lon="2.211083">
        <ele>694.325111</ele>
        <time>2020-08-09T07:16:13.162Z</time>
      </trkpt>
      <trkpt lat="41.774237" lon="2.211236">
        <ele>694.609625</ele>
        <time>2020-08-09T07:16:16.152Z</time>
      </trkpt>
      <trkpt lat="41.774205" lon="2.211386">
        <ele>694.896205</ele>
        <time>2020-08-09T07:16:19.150Z</time>
      </trkpt>
      <trkpt lat="41.774170" lon="2.211527">
        <ele>695.169171</ele>
        <time>2020-08-09T07:16:22.156Z</time>
      </trkpt>
      <trkpt lat="41.774161" lon="2.211668">
        <ele>695.429115</ele>
        <time>2020-08-09T07:16:25.161Z</time>
      </trkpt>
      <trkpt lat="41.774163" lon="2.211829">
        <ele>695.724890</ele>
        <time>2020-08-09T07:16:28.164Z</time>
      </trkpt>
      <trkpt lat="41.774167" lon="2.211989">
        <ele>696.018952</ele>
        <time>2020-08-09T07:16:31.157Z</time>
      </trkpt>
      <trkpt lat="41.774205" lon="2.212134">
        <ele>696.301262</ele>
        <time>2020-08-09T07:16:34.159Z</time>
      </trkpt>
      <trkpt lat="41.774281" lon="2.212246">
        <ele>696.579405</ele>
        <time>2020-08-09T07:16:37.153Z</time>
      </trkpt>
      <trkpt lat="41.774355" lon="2.212334">
        <ele>696.823020</ele>
        <time>2020-08-09T07:16:40.147Z</time>
      </trkpt>
      <trkpt lat="41.774425" lon="2.212441">
        <ele>697.084467</ele>
        <time>2020-08-09T07:16:43.152Z</time>
      </trkpt>
      <trkpt lat="41.774486" lon="2.212548">
        <ele>697.331858</ele>
        <time>2020-08-09T07:16:46.144Z</time>
      </trkpt>
      <trkpt lat="41.774528" lon="2.212670">
        <ele>697.578678</ele>
        <time>2020-08-09T07:16:50.165Z</time>
      </trkpt>
      <trkpt lat="41.774581" lon="2.212783">
        <ele>697.823878</ele>
        <time>2020-08-09T07:17:08.156Z</time>
      </trkpt>
      <trkpt lat="41.774603" lon="2.212932">
        <ele>697.861383</ele>
        <time>2020-08-09T07:17:13.157Z</time>
      </trkpt>
      <trkpt lat="41.774603" lon="2.213055">
        <ele>697.539130</ele>
        <time>2020-08-09T07:17:16.138Z</time>
      </trkpt>
      <trkpt lat="41.774575" lon="2.213179">
        <ele>697.199691</ele>
        <time>2020-08-09T07:17:19.148Z</time>
      </trkpt>
      <trkpt lat="41.774510" lon="2.213306">
        <ele>696.796138</ele>
        <time>2020-08-09T07:17:22.138Z</time>
      </trkpt>
      <trkpt lat="41.774400" lon="2.213396">
        <ele>696.343442</ele>
        <time>2020-08-09T07:17:25.155Z</time>
      </trkpt>
      <trkpt lat="41.774490" lon="2.213306">
        <ele>695.949022</ele>
        <time>2020-08-09T07:17:42.175Z</time>
      </trkpt>
      <trkpt lat="41.774559" lon="2.213204">
        <ele>695.588226</ele>
        <time>2020-08-09T07:17:46.165Z</time>
      </trkpt>
      <trkpt lat="41.774597" lon="2.213054">
        <ele>695.173179</ele>
        <time>2020-08-09T07:17:50.164Z</time>
      </trkpt>
      <trkpt lat="41.774598" lon="2.212931">
        <ele>694.850906</ele>
        <time>2020-08-09T07:17:53.172Z</time>
      </trkpt>
      <trkpt lat="41.774576" lon="2.212804">
        <ele>694.509315</ele>
        <time>2020-08-09T07:17:56.167Z</time>
      </trkpt>
      <trkpt lat="41.774523" lon="2.212701">
        <ele>694.181459</ele>
        <time>2020-08-09T07:18:00.170Z</time>
      </trkpt>
      <trkpt lat="41.774493" lon="2.212580">
        <ele>693.847385</ele>
        <time>2020-08-09T07:18:05.166Z</time>
      </trkpt>
      <trkpt lat="41.774432" lon="2.212477">
        <ele>693.502791</ele>
        <time>2020-08-09T07:18:08.137Z</time>
      </trkpt>
      <trkpt lat="41.774372" lon="2.212379">
        <ele>693.170596</ele>
        <time>2020-08-09T07:18:11.154Z</time>
      </trkpt>
      <trkpt lat="41.774307" lon="2.212271">
        <ele>692.806993</ele>
        <time>2020-08-09T07:18:14.154Z</time>
      </trkpt>
      <trkpt lat="41.774243" lon="2.212161">
        <ele>692.441468</ele>
        <time>2020-08-09T07:18:17.167Z</time>
      </trkpt>
      <trkpt lat="41.774193" lon="2.212046">
        <ele>692.092709</ele>
        <time>2020-08-09T07:18:20.172Z</time>
      </trkpt>
      <trkpt lat="41.774169" lon="2.211889">
        <ele>691.704415</ele>
        <time>2020-08-09T07:18:23.160Z</time>
      </trkpt>
      <trkpt lat="41.774181" lon="2.211723">
        <ele>692.440691</ele>
        <time>2020-08-09T07:18:26.155Z</time>
      </trkpt>
      <trkpt lat="41.774173" lon="2.211592">
        <ele>693.020953</ele>
        <time>2020-08-09T07:18:29.152Z</time>
      </trkpt>
      <trkpt lat="41.774079" lon="2.211624">
        <ele>693.595049</ele>
        <time>2020-08-09T07:18:33.173Z</time>
      </trkpt>
      <trkpt lat="41.773995" lon="2.211732">
        <ele>694.283949</ele>
        <time>2020-08-09T07:18:36.158Z</time>
      </trkpt>
      <trkpt lat="41.773901" lon="2.211804">
        <ele>694.924779</ele>
        <time>2020-08-09T07:18:39.159Z</time>
      </trkpt>
      <trkpt lat="41.773816" lon="2.211847">
        <ele>695.462565</ele>
        <time>2020-08-09T07:18:42.147Z</time>
      </trkpt>
      <trkpt lat="41.773722" lon="2.211883">
        <ele>696.041260</ele>
        <time>2020-08-09T07:18:45.165Z</time>
      </trkpt>
      <trkpt lat="41.773632" lon="2.211923">
        <ele>696.602528</ele>
        <time>2020-08-09T07:18:48.159Z</time>
      </trkpt>
      <trkpt lat="41.773538" lon="2.211961">
        <ele>697.183710</ele>
        <time>2020-08-09T07:18:51.139Z</time>
      </trkpt>
      <trkpt lat="41.773445" lon="2.211989">
        <ele>697.747941</ele>
        <time>2020-08-09T07:18:54.152Z</time>
      </trkpt>
      <trkpt lat="41.773354" lon="2.212023">
        <ele>698.307147</ele>
        <time>2020-08-09T07:18:57.157Z</time>
      </trkpt>
      <trkpt lat="41.773261" lon="2.212052">
        <ele>698.872361</ele>
        <time>2020-08-09T07:19:00.171Z</time>
      </trkpt>
      <trkpt lat="41.773165" lon="2.212085">
        <ele>699.459021</ele>
        <time>2020-08-09T07:19:03.140Z</time>
      </trkpt>
      <trkpt lat="41.773069" lon="2.212111">
        <ele>700.038780</ele>
        <time>2020-08-09T07:19:06.160Z</time>
      </trkpt>
      <trkpt lat="41.772977" lon="2.212132">
        <ele>700.591219</ele>
        <time>2020-08-09T07:19:09.154Z</time>
      </trkpt>
      <trkpt lat="41.772883" lon="2.212146">
        <ele>701.151084</ele>
        <time>2020-08-09T07:19:12.152Z</time>
      </trkpt>
      <trkpt lat="41.772783" lon="2.212156">
        <ele>701.744689</ele>
        <time>2020-08-09T07:19:15.137Z</time>
      </trkpt>
      <trkpt lat="41.772680" lon="2.212176">
        <ele>702.321711</ele>
        <time>2020-08-09T07:19:18.152Z</time>
      </trkpt>
      <trkpt lat="41.772582" lon="2.212197">
        <ele>702.115692</ele>
        <time>2020-08-09T07:19:21.158Z</time>
      </trkpt>
      <trkpt lat="41.772486" lon="2.212205">
        <ele>701.916021</ele>
        <time>2020-08-09T07:19:24.151Z</time>
      </trkpt>
      <trkpt lat="41.772394" lon="2.212213">
        <ele>701.724637</ele>
        <time>2020-08-09T07:19:27.138Z</time>
      </trkpt>
      <trkpt lat="41.772295" lon="2.212220">
        <ele>701.518838</ele>
        <time>2020-08-09T07:19:30.157Z</time>
      </trkpt>
      <trkpt lat="41.772194" lon="2.212234">
        <ele>701.308055</ele>
        <time>2020-08-09T07:19:33.157Z</time>
      </trkpt>
      <trkpt lat="41.772113" lon="2.212326">
        <ele>701.087688</ele>
        <time>2020-08-09T07:19:36.156Z</time>
      </trkpt>
      <trkpt lat="41.772085" lon="2.212483">
        <ele>700.837767</ele>
        <time>2020-08-09T07:19:38.162Z</time>
      </trkpt>
      <trkpt lat="41.772101" lon="2.212659">
        <ele>700.563266</ele>
        <time>2020-08-09T07:19:40.158Z</time>
      </trkpt>
      <trkpt lat="41.772179" lon="2.212843">
        <ele>700.235594</ele>
        <time>2020-08-09T07:19:42.154Z</time>
      </trkpt>
      <trkpt lat="41.772295" lon="2.213019">
        <ele>699.871954</ele>
        <time>2020-08-09T07:19:44.154Z</time>
      </trkpt>
      <trkpt lat="41.772356" lon="2.213112">
        <ele>699.680210</ele>
        <time>2020-08-09T07:19:45.166Z</time>
      </trkpt>
      <trkpt lat="41.772449" lon="2.213188">
        <ele>699.454121</ele>
        <time>2020-08-09T07:19:46.158Z</time>
      </trkpt>
      <trkpt lat="41.772520" lon="2.213279">
        <ele>699.250228</ele>
        <time>2020-08-09T07:19:47.155Z</time>
      </trkpt>
      <trkpt lat="41.772596" lon="2.213355">
        <ele>699.053415</ele>
        <time>2020-08-09T07:19:48.168Z</time>
      </trkpt>
      <trkpt lat="41.772719" lon="2.213453">
        <ele>698.756403</ele>
        <time>2020-08-09T07:19:50.162Z</time>
      </trkpt>
      <trkpt lat="41.772843" lon="2.213470">
        <ele>698.281200</ele>
        <time>2020-08-09T07:19:52.152Z</time>
      </trkpt>
      <trkpt lat="41.772929" lon="2.213521">
        <ele>697.665157</ele>
        <time>2020-08-09T07:19:54.152Z</time>
      </trkpt>
      <trkpt lat="41.773028" lon="2.213639">
        <ele>696.797391</ele>
        <time>2020-08-09T07:19:56.155Z</time>
      </trkpt>
      <trkpt lat="41.773113" lon="2.213739">
        <ele>696.056588</ele>
        <time>2020-08-09T07:19:58.173Z</time>
      </trkpt>
      <trkpt lat="41.773160" lon="2.213929">
        <ele>695.078557</ele>
        <time>2020-08-09T07:20:00.160Z</time>
      </trkpt>
      <trkpt lat="41.773158" lon="2.214131">
        <ele>694.091542</ele>
        <time>2020-08-09T07:20:02.154Z</time>
      </trkpt>
      <trkpt lat="41.773116" lon="2.214311">
        <ele>693.170063</ele>
        <time>2020-08-09T07:20:04.150Z</time>
      </trkpt>
      <trkpt lat="41.773077" lon="2.214486">
        <ele>692.277693</ele>
        <time>2020-08-09T07:20:06.162Z</time>
      </trkpt>
      <trkpt lat="41.773042" lon="2.214652">
        <ele>691.434863</ele>
        <time>2020-08-09T07:20:08.160Z</time>
      </trkpt>
      <trkpt lat="41.773041" lon="2.214820">
        <ele>690.614024</ele>
        <time>2020-08-09T07:20:10.157Z</time>
      </trkpt>
      <trkpt lat="41.773077" lon="2.214989">
        <ele>689.755304</ele>
        <time>2020-08-09T07:20:12.147Z</time>
      </trkpt>
      <trkpt lat="41.773160" lon="2.215144">
        <ele>688.823017</ele>
        <time>2020-08-09T07:20:14.153Z</time>
      </trkpt>
      <trkpt lat="41.773261" lon="2.215259">
        <ele>687.954976</ele>
        <time>2020-08-09T07:20:16.149Z</time>
      </trkpt>
      <trkpt lat="41.773370" lon="2.215349">
        <ele>687.116370</ele>
        <time>2020-08-09T07:20:18.150Z</time>
      </trkpt>
      <trkpt lat="41.773483" lon="2.215431">
        <ele>686.308351</ele>
        <time>2020-08-09T07:20:20.177Z</time>
      </trkpt>
      <trkpt lat="41.773593" lon="2.215517">
        <ele>685.526242</ele>
        <time>2020-08-09T07:20:22.157Z</time>
      </trkpt>
      <trkpt lat="41.773704" lon="2.215608">
        <ele>684.727115</ele>
        <time>2020-08-09T07:20:24.141Z</time>
      </trkpt>
      <trkpt lat="41.773813" lon="2.215691">
        <ele>683.957185</ele>
        <time>2020-08-09T07:20:26.154Z</time>
      </trkpt>
      <trkpt lat="41.773927" lon="2.215785">
        <ele>683.135167</ele>
        <time>2020-08-09T07:20:28.170Z</time>
      </trkpt>
      <trkpt lat="41.774040" lon="2.215891">
        <ele>682.288108</ele>
        <time>2020-08-09T07:20:30.153Z</time>
      </trkpt>
      <trkpt lat="41.774151" lon="2.216024">
        <ele>681.373772</ele>
        <time>2020-08-09T07:20:32.147Z</time>
      </trkpt>
      <trkpt lat="41.774244" lon="2.216178">
        <ele>680.466059</ele>
        <time>2020-08-09T07:20:34.145Z</time>
      </trkpt>
      <trkpt lat="41.774298" lon="2.216382">
        <ele>679.474470</ele>
        <time>2020-08-09T07:20:36.159Z</time>
      </trkpt>
      <trkpt lat="41.774344" lon="2.216600">
        <ele>678.436668</ele>
        <time>2020-08-09T07:20:38.151Z</time>
      </trkpt>
      <trkpt lat="41.774312" lon="2.216790">
        <ele>677.544410</ele>
        <time>2020-08-09T07:20:40.154Z</time>
      </trkpt>
      <trkpt lat="41.774219" lon="2.216932">
        <ele>676.678726</ele>
        <time>2020-08-09T07:20:42.158Z</time>
      </trkpt>
      <trkpt lat="41.774067" lon="2.216954">
        <ele>675.747139</ele>
        <time>2020-08-09T07:20:44.132Z</time>
      </trkpt>
      <trkpt lat="41.773920" lon="2.216895">
        <ele>675.060821</ele>
        <time>2020-08-09T07:20:46.157Z</time>
      </trkpt>
      <trkpt lat="41.773771" lon="2.216821">
        <ele>674.350135</ele>
        <time>2020-08-09T07:20:48.147Z</time>
      </trkpt>
      <trkpt lat="41.773629" lon="2.216734">
        <ele>673.651843</ele>
        <time>2020-08-09T07:20:50.160Z</time>
      </trkpt>
      <trkpt lat="41.773494" lon="2.216660">
        <ele>672.999514</ele>
        <time>2020-08-09T07:20:52.151Z</time>
      </trkpt>
      <trkpt lat="41.773359" lon="2.216672">
        <ele>672.394367</ele>
        <time>2020-08-09T07:20:54.159Z</time>
      </trkpt>
      <trkpt lat="41.773281" lon="2.216790">
        <ele>671.868394</ele>
        <time>2020-08-09T07:20:56.148Z</time>
      </trkpt>
      <trkpt lat="41.773274" lon="2.216976">
        <ele>671.247160</ele>
        <time>2020-08-09T07:20:58.147Z</time>
      </trkpt>
      <trkpt lat="41.773256" lon="2.217168">
        <ele>670.601661</ele>
        <time>2020-08-09T07:21:00.156Z</time>
      </trkpt>
      <trkpt lat="41.773218" lon="2.217378">
        <ele>669.880833</ele>
        <time>2020-08-09T07:21:02.156Z</time>
      </trkpt>
      <trkpt lat="41.773157" lon="2.217583">
        <ele>669.144588</ele>
        <time>2020-08-09T07:21:04.159Z</time>
      </trkpt>
      <trkpt lat="41.773082" lon="2.217779">
        <ele>668.409748</ele>
        <time>2020-08-09T07:21:06.127Z</time>
      </trkpt>
      <trkpt lat="41.773012" lon="2.217969">
        <ele>667.686962</ele>
        <time>2020-08-09T07:21:08.179Z</time>
      </trkpt>
      <trkpt lat="41.773016" lon="2.218155">
        <ele>666.557740</ele>
        <time>2020-08-09T07:21:10.152Z</time>
      </trkpt>
      <trkpt lat="41.773084" lon="2.218309">
        <ele>665.471662</ele>
        <time>2020-08-09T07:21:12.155Z</time>
      </trkpt>
      <trkpt lat="41.773163" lon="2.218454">
        <ele>664.381925</ele>
        <time>2020-08-09T07:21:14.160Z</time>
      </trkpt>
      <trkpt lat="41.773167" lon="2.218600">
        <ele>663.495319</ele>
        <time>2020-08-09T07:21:16.148Z</time>
      </trkpt>
      <trkpt lat="41.773070" lon="2.218663">
        <ele>662.618301</ele>
        <time>2020-08-09T07:21:18.154Z</time>
      </trkpt>
      <trkpt lat="41.772965" lon="2.218595">
        <ele>661.669470</ele>
        <time>2020-08-09T07:21:20.154Z</time>
      </trkpt>
      <trkpt lat="41.772839" lon="2.218523">
        <ele>660.554974</ele>
        <time>2020-08-09T07:21:22.163Z</time>
      </trkpt>
      <trkpt lat="41.772723" lon="2.218500">
        <ele>659.600806</ele>
        <time>2020-08-09T07:21:24.139Z</time>
      </trkpt>
      <trkpt lat="41.772633" lon="2.218588">
        <ele>658.694431</ele>
        <time>2020-08-09T07:21:26.150Z</time>
      </trkpt>
      <trkpt lat="41.772624" lon="2.218733">
        <ele>657.811442</ele>
        <time>2020-08-09T07:21:28.152Z</time>
      </trkpt>
      <trkpt lat="41.772647" lon="2.218903">
        <ele>656.762942</ele>
        <time>2020-08-09T07:21:30.151Z</time>
      </trkpt>
      <trkpt lat="41.772736" lon="2.219082">
        <ele>655.457388</ele>
        <time>2020-08-09T07:21:32.154Z</time>
      </trkpt>
      <trkpt lat="41.772835" lon="2.219245">
        <ele>654.181683</ele>
        <time>2020-08-09T07:21:34.159Z</time>
      </trkpt>
      <trkpt lat="41.772906" lon="2.219426">
        <ele>653.137182</ele>
        <time>2020-08-09T07:21:36.165Z</time>
      </trkpt>
      <trkpt lat="41.772986" lon="2.219593">
        <ele>653.555730</ele>
        <time>2020-08-09T07:21:38.168Z</time>
      </trkpt>
      <trkpt lat="41.773045" lon="2.219769">
        <ele>653.962635</ele>
        <time>2020-08-09T07:21:40.167Z</time>
      </trkpt>
      <trkpt lat="41.773096" lon="2.219937">
        <ele>654.345125</ele>
        <time>2020-08-09T07:21:42.161Z</time>
      </trkpt>
      <trkpt lat="41.773130" lon="2.220082">
        <ele>654.665647</ele>
        <time>2020-08-09T07:21:44.151Z</time>
      </trkpt>
      <trkpt lat="41.773142" lon="2.220228">
        <ele>654.975385</ele>
        <time>2020-08-09T07:21:46.171Z</time>
      </trkpt>
      <trkpt lat="41.773143" lon="2.220354">
        <ele>655.241099</ele>
        <time>2020-08-09T07:21:48.151Z</time>
      </trkpt>
      <trkpt lat="41.773056" lon="2.220447">
        <ele>655.555697</ele>
        <time>2020-08-09T07:21:51.155Z</time>
      </trkpt>
      <trkpt lat="41.772942" lon="2.220416">
        <ele>655.884595</ele>
        <time>2020-08-09T07:21:54.156Z</time>
      </trkpt>
      <trkpt lat="41.772815" lon="2.220354">
        <ele>656.266749</ele>
        <time>2020-08-09T07:21:57.152Z</time>
      </trkpt>
      <trkpt lat="41.772724" lon="2.220301">
        <ele>656.547277</ele>
        <time>2020-08-09T07:21:59.148Z</time>
      </trkpt>
      <trkpt lat="41.772605" lon="2.220218">
        <ele>656.926550</ele>
        <time>2020-08-09T07:22:02.152Z</time>
      </trkpt>
      <trkpt lat="41.772506" lon="2.220186">
        <ele>657.214492</ele>
        <time>2020-08-09T07:22:04.180Z</time>
      </trkpt>
      <trkpt lat="41.772411" lon="2.220168">
        <ele>657.485774</ele>
        <time>2020-08-09T07:22:06.169Z</time>
      </trkpt>
      <trkpt lat="41.772317" lon="2.220163">
        <ele>657.751769</ele>
        <time>2020-08-09T07:22:08.166Z</time>
      </trkpt>
      <trkpt lat="41.772217" lon="2.220174">
        <ele>658.035470</ele>
        <time>2020-08-09T07:22:10.168Z</time>
      </trkpt>
      <trkpt lat="41.772116" lon="2.220187">
        <ele>658.385740</ele>
        <time>2020-08-09T07:22:12.146Z</time>
      </trkpt>
      <trkpt lat="41.772016" lon="2.220209">
        <ele>658.793183</ele>
        <time>2020-08-09T07:22:14.149Z</time>
      </trkpt>
      <trkpt lat="41.771915" lon="2.220248">
        <ele>659.215774</ele>
        <time>2020-08-09T07:22:16.169Z</time>
      </trkpt>
      <trkpt lat="41.771787" lon="2.220294">
        <ele>659.748583</ele>
        <time>2020-08-09T07:22:19.154Z</time>
      </trkpt>
      <trkpt lat="41.771688" lon="2.220327">
        <ele>660.158745</ele>
        <time>2020-08-09T07:22:21.171Z</time>
      </trkpt>
      <trkpt lat="41.771565" lon="2.220361">
        <ele>660.663687</ele>
        <time>2020-08-09T07:22:24.161Z</time>
      </trkpt>
      <trkpt lat="41.771479" lon="2.220397">
        <ele>661.025923</ele>
        <time>2020-08-09T07:22:26.149Z</time>
      </trkpt>
      <trkpt lat="41.771387" lon="2.220418">
        <ele>661.401146</ele>
        <time>2020-08-09T07:22:29.160Z</time>
      </trkpt>
      <trkpt lat="41.771266" lon="2.220446">
        <ele>661.894839</ele>
        <time>2020-08-09T07:22:33.145Z</time>
      </trkpt>
      <trkpt lat="41.771145" lon="2.220489">
        <ele>662.398137</ele>
        <time>2020-08-09T07:22:36.161Z</time>
      </trkpt>
      <trkpt lat="41.771055" lon="2.220511">
        <ele>662.765961</ele>
        <time>2020-08-09T07:22:39.156Z</time>
      </trkpt>
      <trkpt lat="41.770943" lon="2.220564">
        <ele>663.243498</ele>
        <time>2020-08-09T07:22:43.150Z</time>
      </trkpt>
      <trkpt lat="41.770849" lon="2.220578">
        <ele>663.623765</ele>
        <time>2020-08-09T07:22:46.169Z</time>
      </trkpt>
      <trkpt lat="41.770745" lon="2.220624">
        <ele>664.064078</ele>
        <time>2020-08-09T07:22:50.141Z</time>
      </trkpt>
      <trkpt lat="41.770636" lon="2.220661">
        <ele>664.516157</ele>
        <time>2020-08-09T07:22:54.167Z</time>
      </trkpt>
      <trkpt lat="41.770520" lon="2.220682">
        <ele>664.986787</ele>
        <time>2020-08-09T07:22:58.155Z</time>
      </trkpt>
      <trkpt lat="41.770430" lon="2.220699">
        <ele>665.352220</ele>
        <time>2020-08-09T07:23:01.168Z</time>
      </trkpt>
      <trkpt lat="41.770316" lon="2.220715">
        <ele>666.049614</ele>
        <time>2020-08-09T07:23:05.163Z</time>
      </trkpt>
      <trkpt lat="41.770204" lon="2.220725">
        <ele>666.761822</ele>
        <time>2020-08-09T07:23:09.155Z</time>
      </trkpt>
      <trkpt lat="41.770095" lon="2.220727">
        <ele>667.453485</ele>
        <time>2020-08-09T07:23:13.148Z</time>
      </trkpt>
      <trkpt lat="41.769981" lon="2.220742">
        <ele>668.180284</ele>
        <time>2020-08-09T07:23:17.157Z</time>
      </trkpt>
      <trkpt lat="41.769873" lon="2.220745">
        <ele>668.865685</ele>
        <time>2020-08-09T07:23:21.136Z</time>
      </trkpt>
      <trkpt lat="41.769757" lon="2.220747">
        <ele>669.601759</ele>
        <time>2020-08-09T07:23:25.157Z</time>
      </trkpt>
      <trkpt lat="41.769659" lon="2.220769">
        <ele>670.232219</ele>
        <time>2020-08-09T07:23:29.169Z</time>
      </trkpt>
      <trkpt lat="41.769558" lon="2.220788">
        <ele>670.879336</ele>
        <time>2020-08-09T07:23:33.170Z</time>
      </trkpt>
      <trkpt lat="41.769445" lon="2.220785">
        <ele>671.596455</ele>
        <time>2020-08-09T07:23:37.153Z</time>
      </trkpt>
      <trkpt lat="41.769327" lon="2.220777">
        <ele>672.346115</ele>
        <time>2020-08-09T07:23:41.202Z</time>
      </trkpt>
      <trkpt lat="41.769211" lon="2.220755">
        <ele>673.089455</ele>
        <time>2020-08-09T07:23:45.172Z</time>
      </trkpt>
      <trkpt lat="41.769094" lon="2.220764">
        <ele>673.833034</ele>
        <time>2020-08-09T07:23:49.159Z</time>
      </trkpt>
      <trkpt lat="41.768980" lon="2.220787">
        <ele>674.564501</ele>
        <time>2020-08-09T07:23:53.166Z</time>
      </trkpt>
      <trkpt lat="41.768870" lon="2.220826">
        <ele>675.286435</ele>
        <time>2020-08-09T07:23:57.176Z</time>
      </trkpt>
      <trkpt lat="41.768775" lon="2.220897">
        <ele>675.976524</ele>
        <time>2020-08-09T07:24:01.167Z</time>
      </trkpt>
      <trkpt lat="41.768691" lon="2.220986">
        <ele>676.655826</ele>
        <time>2020-08-09T07:24:05.156Z</time>
      </trkpt>
      <trkpt lat="41.768621" lon="2.221095">
        <ele>677.351775</ele>
        <time>2020-08-09T07:24:09.176Z</time>
      </trkpt>
      <trkpt lat="41.768546" lon="2.221203">
        <ele>678.070585</ele>
        <time>2020-08-09T07:24:13.157Z</time>
      </trkpt>
      <trkpt lat="41.768471" lon="2.221312">
        <ele>678.792969</ele>
        <time>2020-08-09T07:24:17.166Z</time>
      </trkpt>
      <trkpt lat="41.768386" lon="2.221415">
        <ele>679.541236</ele>
        <time>2020-08-09T07:24:21.163Z</time>
      </trkpt>
      <trkpt lat="41.768311" lon="2.221488">
        <ele>680.146525</ele>
        <time>2020-08-09T07:24:24.168Z</time>
      </trkpt>
      <trkpt lat="41.768240" lon="2.221563">
        <ele>680.736855</ele>
        <time>2020-08-09T07:24:27.168Z</time>
      </trkpt>
      <trkpt lat="41.768165" lon="2.221676">
        <ele>681.473680</ele>
        <time>2020-08-09T07:24:31.174Z</time>
      </trkpt>
      <trkpt lat="41.768095" lon="2.221789">
        <ele>682.189213</ele>
        <time>2020-08-09T07:24:35.169Z</time>
      </trkpt>
      <trkpt lat="41.768029" lon="2.221915">
        <ele>682.939218</ele>
        <time>2020-08-09T07:24:39.162Z</time>
      </trkpt>
      <trkpt lat="41.767972" lon="2.222041">
        <ele>683.657055</ele>
        <time>2020-08-09T07:24:43.168Z</time>
      </trkpt>
      <trkpt lat="41.767912" lon="2.222170">
        <ele>684.397605</ele>
        <time>2020-08-09T07:24:47.173Z</time>
      </trkpt>
      <trkpt lat="41.767850" lon="2.222281">
        <ele>685.073117</ele>
        <time>2020-08-09T07:24:51.154Z</time>
      </trkpt>
      <trkpt lat="41.767763" lon="2.222376">
        <ele>685.805917</ele>
        <time>2020-08-09T07:24:55.176Z</time>
      </trkpt>
      <trkpt lat="41.767714" lon="2.222488">
        <ele>686.438420</ele>
        <time>2020-08-09T07:24:59.162Z</time>
      </trkpt>
      <trkpt lat="41.767647" lon="2.222595">
        <ele>687.118964</ele>
        <time>2020-08-09T07:25:03.159Z</time>
      </trkpt>
      <trkpt lat="41.767571" lon="2.222710">
        <ele>687.867414</ele>
        <time>2020-08-09T07:25:07.154Z</time>
      </trkpt>
      <trkpt lat="41.767500" lon="2.222826">
        <ele>688.609502</ele>
        <time>2020-08-09T07:25:11.159Z</time>
      </trkpt>
      <trkpt lat="41.767420" lon="2.222936">
        <ele>689.594336</ele>
        <time>2020-08-09T07:25:15.165Z</time>
      </trkpt>
      <trkpt lat="41.767336" lon="2.223027">
        <ele>690.522469</ele>
        <time>2020-08-09T07:25:19.169Z</time>
      </trkpt>
      <trkpt lat="41.767275" lon="2.223124">
        <ele>691.335765</ele>
        <time>2020-08-09T07:25:23.166Z</time>
      </trkpt>
      <trkpt lat="41.767197" lon="2.223204">
        <ele>692.179773</ele>
        <time>2020-08-09T07:25:27.161Z</time>
      </trkpt>
      <trkpt lat="41.767141" lon="2.223301">
        <ele>692.966058</ele>
        <time>2020-08-09T07:25:31.147Z</time>
      </trkpt>
      <trkpt lat="41.767059" lon="2.223367">
        <ele>693.788027</ele>
        <time>2020-08-09T07:25:34.158Z</time>
      </trkpt>
      <trkpt lat="41.766966" lon="2.223437">
        <ele>694.704636</ele>
        <time>2020-08-09T07:25:38.159Z</time>
      </trkpt>
      <trkpt lat="41.766874" lon="2.223501">
        <ele>695.595407</ele>
        <time>2020-08-09T07:25:42.160Z</time>
      </trkpt>
      <trkpt lat="41.766791" lon="2.223563">
        <ele>696.411976</ele>
        <time>2020-08-09T07:25:46.169Z</time>
      </trkpt>
      <trkpt lat="41.766708" lon="2.223615">
        <ele>697.199340</ele>
        <time>2020-08-09T07:25:50.154Z</time>
      </trkpt>
      <trkpt lat="41.766615" lon="2.223651">
        <ele>698.031256</ele>
        <time>2020-08-09T07:25:54.151Z</time>
      </trkpt>
      <trkpt lat="41.766529" lon="2.223713">
        <ele>698.870443</ele>
        <time>2020-08-09T07:25:58.178Z</time>
      </trkpt>
      <trkpt lat="41.766437" lon="2.223777">
        <ele>699.761215</ele>
        <time>2020-08-09T07:26:02.164Z</time>
      </trkpt>
      <trkpt lat="41.766350" lon="2.223855">
        <ele>700.660690</ele>
        <time>2020-08-09T07:26:06.171Z</time>
      </trkpt>
      <trkpt lat="41.766291" lon="2.223953">
        <ele>701.468000</ele>
        <time>2020-08-09T07:26:10.170Z</time>
      </trkpt>
      <trkpt lat="41.766248" lon="2.224071">
        <ele>702.309854</ele>
        <time>2020-08-09T07:26:14.148Z</time>
      </trkpt>
      <trkpt lat="41.766237" lon="2.224206">
        <ele>703.180382</ele>
        <time>2020-08-09T07:26:19.157Z</time>
      </trkpt>
      <trkpt lat="41.766126" lon="2.224397">
        <ele>704.696976</ele>
        <time>2020-08-09T07:26:53.171Z</time>
      </trkpt>
      <trkpt lat="41.766031" lon="2.224479">
        <ele>705.619500</ele>
        <time>2020-08-09T07:26:58.162Z</time>
      </trkpt>
      <trkpt lat="41.765930" lon="2.224531">
        <ele>706.502877</ele>
        <time>2020-08-09T07:27:02.145Z</time>
      </trkpt>
      <trkpt lat="41.765826" lon="2.224547">
        <ele>707.357608</ele>
        <time>2020-08-09T07:27:06.161Z</time>
      </trkpt>
      <trkpt lat="41.765720" lon="2.224525">
        <ele>708.233404</ele>
        <time>2020-08-09T07:27:10.154Z</time>
      </trkpt>
      <trkpt lat="41.765612" lon="2.224500">
        <ele>709.128269</ele>
        <time>2020-08-09T07:27:14.158Z</time>
      </trkpt>
      <trkpt lat="41.765511" lon="2.224480">
        <ele>709.961878</ele>
        <time>2020-08-09T07:27:18.160Z</time>
      </trkpt>
      <trkpt lat="41.765421" lon="2.224493">
        <ele>710.700979</ele>
        <time>2020-08-09T07:27:23.159Z</time>
      </trkpt>
      <trkpt lat="41.765414" lon="2.224613">
        <ele>711.434020</ele>
        <time>2020-08-09T07:27:27.154Z</time>
      </trkpt>
      <trkpt lat="41.765411" lon="2.224739">
        <ele>712.201761</ele>
        <time>2020-08-09T07:27:32.146Z</time>
      </trkpt>
      <trkpt lat="41.765496" lon="2.224784">
        <ele>712.947934</ele>
        <time>2020-08-09T07:27:36.162Z</time>
      </trkpt>
      <trkpt lat="41.765567" lon="2.224868">
        <ele>713.721088</ele>
        <time>2020-08-09T07:27:42.145Z</time>
      </trkpt>
      <trkpt lat="41.765664" lon="2.224914">
        <ele>714.561176</ele>
        <time>2020-08-09T07:27:49.155Z</time>
      </trkpt>
      <trkpt lat="41.765759" lon="2.224960">
        <ele>715.385887</ele>
        <time>2020-08-09T07:27:55.150Z</time>
      </trkpt>
      <trkpt lat="41.765831" lon="2.225039">
        <ele>716.145539</ele>
        <time>2020-08-09T07:28:01.148Z</time>
      </trkpt>
      <trkpt lat="41.765883" lon="2.225147">
        <ele>716.928398</ele>
        <time>2020-08-09T07:28:07.144Z</time>
      </trkpt>
      <trkpt lat="41.765867" lon="2.225274">
        <ele>717.712788</ele>
        <time>2020-08-09T07:28:13.147Z</time>
      </trkpt>
      <trkpt lat="41.765806" lon="2.225374">
        <ele>718.499524</ele>
        <time>2020-08-09T07:28:19.166Z</time>
      </trkpt>
      <trkpt lat="41.765726" lon="2.225439">
        <ele>719.305570</ele>
        <time>2020-08-09T07:28:25.168Z</time>
      </trkpt>
      <trkpt lat="41.765660" lon="2.225529">
        <ele>720.132622</ele>
        <time>2020-08-09T07:28:31.155Z</time>
      </trkpt>
      <trkpt lat="41.765559" lon="2.225568">
        <ele>721.056014</ele>
        <time>2020-08-09T07:28:38.175Z</time>
      </trkpt>
      <trkpt lat="41.765457" lon="2.225551">
        <ele>721.959021</ele>
        <time>2020-08-09T07:28:44.168Z</time>
      </trkpt>
      <trkpt lat="41.765368" lon="2.225513">
        <ele>722.779612</ele>
        <time>2020-08-09T07:28:49.168Z</time>
      </trkpt>
      <trkpt lat="41.765268" lon="2.225476">
        <ele>723.690992</ele>
        <time>2020-08-09T07:28:55.165Z</time>
      </trkpt>
      <trkpt lat="41.765182" lon="2.225519">
        <ele>724.497366</ele>
        <time>2020-08-09T07:29:01.170Z</time>
      </trkpt>
      <trkpt lat="41.765104" lon="2.225582">
        <ele>725.297372</ele>
        <time>2020-08-09T07:29:07.159Z</time>
      </trkpt>
      <trkpt lat="41.765019" lon="2.225665">
        <ele>726.221201</ele>
        <time>2020-08-09T07:29:13.156Z</time>
      </trkpt>
      <trkpt lat="41.764930" lon="2.225727">
        <ele>727.102352</ele>
        <time>2020-08-09T07:29:20.153Z</time>
      </trkpt>
      <trkpt lat="41.764844" lon="2.225779">
        <ele>727.931179</ele>
        <time>2020-08-09T07:29:26.166Z</time>
      </trkpt>
      <trkpt lat="41.764764" lon="2.225836">
        <ele>728.727096</ele>
        <time>2020-08-09T07:29:31.135Z</time>
      </trkpt>
      <trkpt lat="41.764691" lon="2.225908">
        <ele>729.523281</ele>
        <time>2020-08-09T07:29:35.163Z</time>
      </trkpt>
      <trkpt lat="41.764604" lon="2.226008">
        <ele>730.530059</ele>
        <time>2020-08-09T07:29:40.153Z</time>
      </trkpt>
      <trkpt lat="41.764531" lon="2.226091">
        <ele>731.370967</ele>
        <time>2020-08-09T07:29:44.158Z</time>
      </trkpt>
      <trkpt lat="41.764464" lon="2.226175">
        <ele>732.176860</ele>
        <time>2020-08-09T07:29:47.160Z</time>
      </trkpt>
      <trkpt lat="41.764394" lon="2.226267">
        <ele>733.038049</ele>
        <time>2020-08-09T07:29:50.167Z</time>
      </trkpt>
      <trkpt lat="41.764319" lon="2.226347">
        <ele>733.880056</ele>
        <time>2020-08-09T07:29:53.167Z</time>
      </trkpt>
      <trkpt lat="41.764241" lon="2.226425">
        <ele>734.672843</ele>
        <time>2020-08-09T07:29:56.179Z</time>
      </trkpt>
      <trkpt lat="41.764163" lon="2.226520">
        <ele>735.344325</ele>
        <time>2020-08-09T07:29:59.149Z</time>
      </trkpt>
      <trkpt lat="41.764112" lon="2.226635">
        <ele>735.980207</ele>
        <time>2020-08-09T07:30:02.135Z</time>
      </trkpt>
      <trkpt lat="41.764094" lon="2.226760">
        <ele>736.585278</ele>
        <time>2020-08-09T07:30:05.153Z</time>
      </trkpt>
      <trkpt lat="41.764064" lon="2.226889">
        <ele>737.227499</ele>
        <time>2020-08-09T07:30:10.158Z</time>
      </trkpt>
      <trkpt lat="41.763979" lon="2.226974">
        <ele>737.903187</ele>
        <time>2020-08-09T07:30:15.168Z</time>
      </trkpt>
      <trkpt lat="41.763898" lon="2.227061">
        <ele>738.564525</ele>
        <time>2020-08-09T07:30:19.167Z</time>
      </trkpt>
      <trkpt lat="41.763815" lon="2.227146">
        <ele>739.230042</ele>
        <time>2020-08-09T07:30:23.158Z</time>
      </trkpt>
      <trkpt lat="41.763731" lon="2.227229">
        <ele>739.894952</ele>
        <time>2020-08-09T07:30:27.169Z</time>
      </trkpt>
      <trkpt lat="41.763656" lon="2.227333">
        <ele>740.582493</ele>
        <time>2020-08-09T07:30:31.132Z</time>
      </trkpt>
      <trkpt lat="41.763600" lon="2.227445">
        <ele>741.223344</ele>
        <time>2020-08-09T07:30:35.174Z</time>
      </trkpt>
      <trkpt lat="41.763542" lon="2.227547">
        <ele>741.832939</ele>
        <time>2020-08-09T07:30:39.146Z</time>
      </trkpt>
      <trkpt lat="41.763477" lon="2.227663">
        <ele>742.522510</ele>
        <time>2020-08-09T07:30:44.171Z</time>
      </trkpt>
      <trkpt lat="41.763417" lon="2.227780">
        <ele>743.197340</ele>
        <time>2020-08-09T07:30:49.154Z</time>
      </trkpt>
      <trkpt lat="41.763363" lon="2.227901">
        <ele>743.867512</ele>
        <time>2020-08-09T07:30:55.167Z</time>
      </trkpt>
      <trkpt lat="41.763343" lon="2.228020">
        <ele>744.447281</ele>
        <time>2020-08-09T07:31:00.170Z</time>
      </trkpt>
      <trkpt lat="41.763344" lon="2.228163">
        <ele>745.126970</ele>
        <time>2020-08-09T07:31:05.167Z</time>
      </trkpt>
      <trkpt lat="41.763316" lon="2.228290">
        <ele>745.756399</ele>
        <time>2020-08-09T07:31:10.140Z</time>
      </trkpt>
      <trkpt lat="41.763258" lon="2.228402">
        <ele>746.644937</ele>
        <time>2020-08-09T07:31:14.148Z</time>
      </trkpt>
      <trkpt lat="41.763203" lon="2.228521">
        <ele>747.678451</ele>
        <time>2020-08-09T07:31:18.156Z</time>
      </trkpt>
      <trkpt lat="41.763154" lon="2.228643">
        <ele>748.701402</ele>
        <time>2020-08-09T07:31:23.154Z</time>
      </trkpt>
      <trkpt lat="41.763085" lon="2.228743">
        <ele>749.707100</ele>
        <time>2020-08-09T07:31:28.141Z</time>
      </trkpt>
      <trkpt lat="41.763041" lon="2.228874">
        <ele>750.767753</ele>
        <time>2020-08-09T07:31:34.150Z</time>
      </trkpt>
      <trkpt lat="41.763012" lon="2.229008">
        <ele>751.797825</ele>
        <time>2020-08-09T07:31:39.173Z</time>
      </trkpt>
      <trkpt lat="41.763004" lon="2.229138">
        <ele>752.760829</ele>
        <time>2020-08-09T07:31:45.138Z</time>
      </trkpt>
      <trkpt lat="41.762984" lon="2.229279">
        <ele>753.820436</ele>
        <time>2020-08-09T07:31:52.151Z</time>
      </trkpt>
      <trkpt lat="41.762938" lon="2.229401">
        <ele>754.829652</ele>
        <time>2020-08-09T07:31:57.163Z</time>
      </trkpt>
      <trkpt lat="41.762848" lon="2.229477">
        <ele>755.882410</ele>
        <time>2020-08-09T07:32:02.177Z</time>
      </trkpt>
      <trkpt lat="41.762745" lon="2.229512">
        <ele>756.934095</ele>
        <time>2020-08-09T07:32:06.195Z</time>
      </trkpt>
      <trkpt lat="41.762657" lon="2.229590">
        <ele>757.978229</ele>
        <time>2020-08-09T07:32:11.132Z</time>
      </trkpt>
      <trkpt lat="41.762551" lon="2.229634">
        <ele>759.076507</ele>
        <time>2020-08-09T07:32:16.158Z</time>
      </trkpt>
      <trkpt lat="41.762450" lon="2.229679">
        <ele>760.129919</ele>
        <time>2020-08-09T07:32:21.153Z</time>
      </trkpt>
      <trkpt lat="41.762367" lon="2.229766">
        <ele>761.172704</ele>
        <time>2020-08-09T07:32:26.159Z</time>
      </trkpt>
      <trkpt lat="41.762272" lon="2.229832">
        <ele>762.231724</ele>
        <time>2020-08-09T07:32:31.159Z</time>
      </trkpt>
      <trkpt lat="41.762186" lon="2.229902">
        <ele>763.227513</ele>
        <time>2020-08-09T07:32:36.148Z</time>
      </trkpt>
      <trkpt lat="41.762078" lon="2.229896">
        <ele>763.724069</ele>
        <time>2020-08-09T07:33:00.161Z</time>
      </trkpt>
      <trkpt lat="41.761989" lon="2.229941">
        <ele>763.638330</ele>
        <time>2020-08-09T07:33:03.163Z</time>
      </trkpt>
      <trkpt lat="41.761888" lon="2.230018">
        <ele>763.533599</ele>
        <time>2020-08-09T07:33:06.170Z</time>
      </trkpt>
      <trkpt lat="41.761809" lon="2.230082">
        <ele>763.450398</ele>
        <time>2020-08-09T07:33:08.152Z</time>
      </trkpt>
      <trkpt lat="41.761685" lon="2.230164">
        <ele>763.325768</ele>
        <time>2020-08-09T07:33:11.149Z</time>
      </trkpt>
      <trkpt lat="41.761555" lon="2.230237">
        <ele>763.198723</ele>
        <time>2020-08-09T07:33:14.169Z</time>
      </trkpt>
      <trkpt lat="41.761457" lon="2.230296">
        <ele>763.101889</ele>
        <time>2020-08-09T07:33:16.155Z</time>
      </trkpt>
      <trkpt lat="41.761361" lon="2.230356">
        <ele>763.006414</ele>
        <time>2020-08-09T07:33:18.161Z</time>
      </trkpt>
      <trkpt lat="41.761266" lon="2.230419">
        <ele>762.910879</ele>
        <time>2020-08-09T07:33:20.161Z</time>
      </trkpt>
      <trkpt lat="41.761175" lon="2.230484">
        <ele>762.817936</ele>
        <time>2020-08-09T07:33:22.158Z</time>
      </trkpt>
      <trkpt lat="41.761072" lon="2.230542">
        <ele>762.717236</ele>
        <time>2020-08-09T07:33:24.166Z</time>
      </trkpt>
      <trkpt lat="41.760955" lon="2.230574">
        <ele>762.609601</ele>
        <time>2020-08-09T07:33:26.145Z</time>
      </trkpt>
      <trkpt lat="41.760838" lon="2.230563">
        <ele>762.503880</ele>
        <time>2020-08-09T07:33:28.161Z</time>
      </trkpt>
      <trkpt lat="41.760725" lon="2.230547">
        <ele>762.401457</ele>
        <time>2020-08-09T07:33:30.162Z</time>
      </trkpt>
      <trkpt lat="41.760610" lon="2.230580">
        <ele>762.295450</ele>
        <time>2020-08-09T07:33:33.171Z</time>
      </trkpt>
      <trkpt lat="41.760507" lon="2.230626">
        <ele>762.197591</ele>
        <time>2020-08-09T07:33:36.163Z</time>
      </trkpt>
      <trkpt lat="41.760393" lon="2.230684">
        <ele>762.213798</ele>
        <time>2020-08-09T07:33:39.141Z</time>
      </trkpt>
      <trkpt lat="41.760280" lon="2.230747">
        <ele>762.324421</ele>
        <time>2020-08-09T07:33:42.168Z</time>
      </trkpt>
      <trkpt lat="41.760163" lon="2.230779">
        <ele>762.432357</ele>
        <time>2020-08-09T07:33:45.159Z</time>
      </trkpt>
      <trkpt lat="41.760044" lon="2.230796">
        <ele>762.540532</ele>
        <time>2020-08-09T07:33:48.170Z</time>
      </trkpt>
      <trkpt lat="41.759942" lon="2.230833">
        <ele>762.636047</ele>
        <time>2020-08-09T07:33:51.148Z</time>
      </trkpt>
      <trkpt lat="41.759852" lon="2.230889">
        <ele>762.725734</ele>
        <time>2020-08-09T07:33:54.154Z</time>
      </trkpt>
      <trkpt lat="41.759764" lon="2.230929">
        <ele>762.809727</ele>
        <time>2020-08-09T07:33:57.163Z</time>
      </trkpt>
      <trkpt lat="41.759673" lon="2.230960">
        <ele>762.894597</ele>
        <time>2020-08-09T07:34:01.169Z</time>
      </trkpt>
      <trkpt lat="41.759575" lon="2.230931">
        <ele>762.985313</ele>
        <time>2020-08-09T07:34:04.146Z</time>
      </trkpt>
      <trkpt lat="41.759473" lon="2.230921">
        <ele>763.077758</ele>
        <time>2020-08-09T07:34:07.167Z</time>
      </trkpt>
      <trkpt lat="41.759371" lon="2.230895">
        <ele>763.171609</ele>
        <time>2020-08-09T07:34:10.174Z</time>
      </trkpt>
      <trkpt lat="41.759263" lon="2.230900">
        <ele>763.269290</ele>
        <time>2020-08-09T07:34:13.169Z</time>
      </trkpt>
      <trkpt lat="41.759161" lon="2.230894">
        <ele>763.361578</ele>
        <time>2020-08-09T07:34:16.176Z</time>
      </trkpt>
      <trkpt lat="41.759057" lon="2.230906">
        <ele>763.455932</ele>
        <time>2020-08-09T07:34:19.166Z</time>
      </trkpt>
      <trkpt lat="41.758956" lon="2.230934">
        <ele>763.549159</ele>
        <time>2020-08-09T07:34:22.156Z</time>
      </trkpt>
      <trkpt lat="41.758879" lon="2.231022">
        <ele>763.640620</ele>
        <time>2020-08-09T07:34:25.148Z</time>
      </trkpt>
      <trkpt lat="41.758799" lon="2.231108">
        <ele>763.733312</ele>
        <time>2020-08-09T07:34:28.156Z</time>
      </trkpt>
      <trkpt lat="41.758699" lon="2.231167">
        <ele>763.836504</ele>
        <time>2020-08-09T07:34:31.162Z</time>
      </trkpt>
      <trkpt lat="41.758600" lon="2.231237">
        <ele>763.945744</ele>
        <time>2020-08-09T07:34:34.161Z</time>
      </trkpt>
      <trkpt lat="41.758510" lon="2.231246">
        <ele>764.033828</ele>
        <time>2020-08-09T07:34:38.155Z</time>
      </trkpt>
      <trkpt lat="41.758417" lon="2.231270">
        <ele>764.126262</ele>
        <time>2020-08-09T07:34:42.167Z</time>
      </trkpt>
      <trkpt lat="41.758335" lon="2.231341">
        <ele>764.221536</ele>
        <time>2020-08-09T07:34:46.159Z</time>
      </trkpt>
      <trkpt lat="41.758248" lon="2.231400">
        <ele>764.316694</ele>
        <time>2020-08-09T07:34:50.151Z</time>
      </trkpt>
      <trkpt lat="41.758139" lon="2.231368">
        <ele>764.425599</ele>
        <time>2020-08-09T07:34:55.161Z</time>
      </trkpt>
      <trkpt lat="41.758042" lon="2.231351">
        <ele>764.521076</ele>
        <time>2020-08-09T07:34:59.147Z</time>
      </trkpt>
      <trkpt lat="41.757933" lon="2.231316">
        <ele>764.630469</ele>
        <time>2020-08-09T07:35:03.164Z</time>
      </trkpt>
      <trkpt lat="41.757826" lon="2.231274">
        <ele>764.739285</ele>
        <time>2020-08-09T07:35:07.153Z</time>
      </trkpt>
      <trkpt lat="41.757715" lon="2.231253">
        <ele>764.848694</ele>
        <time>2020-08-09T07:35:11.154Z</time>
      </trkpt>
      <trkpt lat="41.757611" lon="2.231246">
        <ele>764.950325</ele>
        <time>2020-08-09T07:35:15.152Z</time>
      </trkpt>
      <trkpt lat="41.757504" lon="2.231219">
        <ele>765.056591</ele>
        <time>2020-08-09T07:35:19.174Z</time>
      </trkpt>
      <trkpt lat="41.757406" lon="2.231212">
        <ele>765.152374</ele>
        <time>2020-08-09T07:35:23.158Z</time>
      </trkpt>
      <trkpt lat="41.757296" lon="2.231215">
        <ele>765.259756</ele>
        <time>2020-08-09T07:35:27.152Z</time>
      </trkpt>
      <trkpt lat="41.757204" lon="2.231224">
        <ele>765.349786</ele>
        <time>2020-08-09T07:35:30.161Z</time>
      </trkpt>
      <trkpt lat="41.757110" lon="2.231268">
        <ele>765.446962</ele>
        <time>2020-08-09T07:35:34.166Z</time>
      </trkpt>
      <trkpt lat="41.757018" lon="2.231352">
        <ele>765.566575</ele>
        <time>2020-08-09T07:35:39.152Z</time>
      </trkpt>
      <trkpt lat="41.756937" lon="2.231430">
        <ele>765.709041</ele>
        <time>2020-08-09T07:35:43.159Z</time>
      </trkpt>
      <trkpt lat="41.756841" lon="2.231508">
        <ele>765.869396</ele>
        <time>2020-08-09T07:35:48.169Z</time>
      </trkpt>
      <trkpt lat="41.756752" lon="2.231568">
        <ele>766.011702</ele>
        <time>2020-08-09T07:35:52.160Z</time>
      </trkpt>
      <trkpt lat="41.756662" lon="2.231611">
        <ele>766.148186</ele>
        <time>2020-08-09T07:35:56.142Z</time>
      </trkpt>
      <trkpt lat="41.756557" lon="2.231652">
        <ele>766.304410</ele>
        <time>2020-08-09T07:36:01.158Z</time>
      </trkpt>
      <trkpt lat="41.756474" lon="2.231721">
        <ele>766.443921</ele>
        <time>2020-08-09T07:36:07.156Z</time>
      </trkpt>
      <trkpt lat="41.756387" lon="2.231684">
        <ele>766.574303</ele>
        <time>2020-08-09T07:36:26.171Z</time>
      </trkpt>
      <trkpt lat="41.756488" lon="2.231818">
        <ele>766.777293</ele>
        <time>2020-08-09T07:37:21.173Z</time>
      </trkpt>
      <trkpt lat="41.756558" lon="2.231925">
        <ele>766.928948</ele>
        <time>2020-08-09T07:37:25.168Z</time>
      </trkpt>
      <trkpt lat="41.756628" lon="2.232045">
        <ele>767.091276</ele>
        <time>2020-08-09T07:37:29.125Z</time>
      </trkpt>
      <trkpt lat="41.756670" lon="2.232164">
        <ele>767.231560</ele>
        <time>2020-08-09T07:37:32.146Z</time>
      </trkpt>
      <trkpt lat="41.756726" lon="2.232267">
        <ele>767.367376</ele>
        <time>2020-08-09T07:37:35.148Z</time>
      </trkpt>
      <trkpt lat="41.756792" lon="2.232366">
        <ele>767.508860</ele>
        <time>2020-08-09T07:37:38.157Z</time>
      </trkpt>
      <trkpt lat="41.756855" lon="2.232496">
        <ele>767.674055</ele>
        <time>2020-08-09T07:37:41.154Z</time>
      </trkpt>
      <trkpt lat="41.756855" lon="2.232630">
        <ele>767.816846</ele>
        <time>2020-08-09T07:37:43.161Z</time>
      </trkpt>
      <trkpt lat="41.756817" lon="2.232753">
        <ele>767.958712</ele>
        <time>2020-08-09T07:37:45.170Z</time>
      </trkpt>
      <trkpt lat="41.756784" lon="2.232878">
        <ele>768.100008</ele>
        <time>2020-08-09T07:37:47.148Z</time>
      </trkpt>
      <trkpt lat="41.756759" lon="2.233047">
        <ele>766.578834</ele>
        <time>2020-08-09T07:37:49.161Z</time>
      </trkpt>
      <trkpt lat="41.756725" lon="2.233184">
        <ele>765.294374</ele>
        <time>2020-08-09T07:37:51.154Z</time>
      </trkpt>
      <trkpt lat="41.756689" lon="2.233310">
        <ele>764.094045</ele>
        <time>2020-08-09T07:37:53.164Z</time>
      </trkpt>
      <trkpt lat="41.756799" lon="2.233317">
        <ele>762.780755</ele>
        <time>2020-08-09T07:37:58.164Z</time>
      </trkpt>
      <trkpt lat="41.756865" lon="2.233205">
        <ele>761.511002</ele>
        <time>2020-08-09T07:38:00.164Z</time>
      </trkpt>
      <trkpt lat="41.756938" lon="2.233060">
        <ele>759.954771</ele>
        <time>2020-08-09T07:38:02.172Z</time>
      </trkpt>
      <trkpt lat="41.757011" lon="2.232918">
        <ele>758.420590</ele>
        <time>2020-08-09T07:38:04.170Z</time>
      </trkpt>
      <trkpt lat="41.757077" lon="2.232829">
        <ele>757.304171</ele>
        <time>2020-08-09T07:38:05.149Z</time>
      </trkpt>
      <trkpt lat="41.757162" lon="2.232669">
        <ele>755.556725</ele>
        <time>2020-08-09T07:38:07.157Z</time>
      </trkpt>
      <trkpt lat="41.757263" lon="2.232539">
        <ele>753.886912</ele>
        <time>2020-08-09T07:38:09.160Z</time>
      </trkpt>
      <trkpt lat="41.757411" lon="2.232454">
        <ele>751.966765</ele>
        <time>2020-08-09T07:38:11.158Z</time>
      </trkpt>
      <trkpt lat="41.757501" lon="2.232407">
        <ele>750.814897</ele>
        <time>2020-08-09T07:38:12.161Z</time>
      </trkpt>
      <trkpt lat="41.757652" lon="2.232332">
        <ele>748.894504</ele>
        <time>2020-08-09T07:38:14.170Z</time>
      </trkpt>
      <trkpt lat="41.757744" lon="2.232284">
        <ele>747.717184</ele>
        <time>2020-08-09T07:38:15.166Z</time>
      </trkpt>
      <trkpt lat="41.757888" lon="2.232225">
        <ele>745.783494</ele>
        <time>2020-08-09T07:38:17.169Z</time>
      </trkpt>
      <trkpt lat="41.757972" lon="2.232180">
        <ele>744.500780</ele>
        <time>2020-08-09T07:38:18.167Z</time>
      </trkpt>
      <trkpt lat="41.758100" lon="2.232059">
        <ele>742.279838</ele>
        <time>2020-08-09T07:38:20.153Z</time>
      </trkpt>
      <trkpt lat="41.758219" lon="2.231921">
        <ele>740.048642</ele>
        <time>2020-08-09T07:38:22.153Z</time>
      </trkpt>
      <trkpt lat="41.758314" lon="2.231859">
        <ele>738.550378</ele>
        <time>2020-08-09T07:38:24.170Z</time>
      </trkpt>
      <trkpt lat="41.758465" lon="2.231879">
        <ele>736.398763</ele>
        <time>2020-08-09T07:38:26.164Z</time>
      </trkpt>
      <trkpt lat="41.758578" lon="2.231906">
        <ele>734.771163</ele>
        <time>2020-08-09T07:38:28.143Z</time>
      </trkpt>
      <trkpt lat="41.758707" lon="2.231886">
        <ele>732.929743</ele>
        <time>2020-08-09T07:38:30.161Z</time>
      </trkpt>
      <trkpt lat="41.758775" lon="2.231736">
        <ele>731.073069</ele>
        <time>2020-08-09T07:38:32.160Z</time>
      </trkpt>
      <trkpt lat="41.758839" lon="2.231579">
        <ele>729.180581</ele>
        <time>2020-08-09T07:38:34.167Z</time>
      </trkpt>
      <trkpt lat="41.758931" lon="2.231454">
        <ele>727.323129</ele>
        <time>2020-08-09T07:38:36.165Z</time>
      </trkpt>
      <trkpt lat="41.759038" lon="2.231391">
        <ele>725.665970</ele>
        <time>2020-08-09T07:38:38.162Z</time>
      </trkpt>
      <trkpt lat="41.759159" lon="2.231366">
        <ele>723.929924</ele>
        <time>2020-08-09T07:38:40.157Z</time>
      </trkpt>
      <trkpt lat="41.759291" lon="2.231382">
        <ele>722.050521</ele>
        <time>2020-08-09T07:38:42.155Z</time>
      </trkpt>
      <trkpt lat="41.759434" lon="2.231399">
        <ele>719.952247</ele>
        <time>2020-08-09T07:38:44.159Z</time>
      </trkpt>
      <trkpt lat="41.759537" lon="2.231437">
        <ele>718.353651</ele>
        <time>2020-08-09T07:38:47.157Z</time>
      </trkpt>
      <trkpt lat="41.759576" lon="2.231547">
        <ele>716.994156</ele>
        <time>2020-08-09T07:38:51.139Z</time>
      </trkpt>
      <trkpt lat="41.759458" lon="2.231558">
        <ele>715.224137</ele>
        <time>2020-08-09T07:38:57.156Z</time>
      </trkpt>
      <trkpt lat="41.759377" lon="2.231611">
        <ele>713.875378</ele>
        <time>2020-08-09T07:38:59.159Z</time>
      </trkpt>
      <trkpt lat="41.759274" lon="2.231711">
        <ele>711.972333</ele>
        <time>2020-08-09T07:39:01.161Z</time>
      </trkpt>
      <trkpt lat="41.759173" lon="2.231728">
        <ele>710.449101</ele>
        <time>2020-08-09T07:39:03.155Z</time>
      </trkpt>
      <trkpt lat="41.759068" lon="2.231911">
        <ele>707.871996</ele>
        <time>2020-08-09T07:39:05.162Z</time>
      </trkpt>
      <trkpt lat="41.758942" lon="2.232038">
        <ele>705.513041</ele>
        <time>2020-08-09T07:39:07.161Z</time>
      </trkpt>
      <trkpt lat="41.758799" lon="2.232168">
        <ele>702.927555</ele>
        <time>2020-08-09T07:39:09.145Z</time>
      </trkpt>
      <trkpt lat="41.758720" lon="2.232225">
        <ele>701.585047</ele>
        <time>2020-08-09T07:39:10.170Z</time>
      </trkpt>
      <trkpt lat="41.758581" lon="2.232379">
        <ele>698.886630</ele>
        <time>2020-08-09T07:39:12.155Z</time>
      </trkpt>
      <trkpt lat="41.758464" lon="2.232550">
        <ele>696.296502</ele>
        <time>2020-08-09T07:39:14.162Z</time>
      </trkpt>
      <trkpt lat="41.758408" lon="2.232656">
        <ele>694.846587</ele>
        <time>2020-08-09T07:39:15.161Z</time>
      </trkpt>
      <trkpt lat="41.758344" lon="2.232743">
        <ele>693.671947</ele>
        <time>2020-08-09T07:39:16.155Z</time>
      </trkpt>
      <trkpt lat="41.758276" lon="2.232825">
        <ele>692.649206</ele>
        <time>2020-08-09T07:39:17.158Z</time>
      </trkpt>
      <trkpt lat="41.758150" lon="2.232962">
        <ele>690.835108</ele>
        <time>2020-08-09T07:39:19.165Z</time>
      </trkpt>
      <trkpt lat="41.758051" lon="2.233087">
        <ele>689.314378</ele>
        <time>2020-08-09T07:39:21.167Z</time>
      </trkpt>
      <trkpt lat="41.757997" lon="2.233192">
        <ele>688.250567</ele>
        <time>2020-08-09T07:39:23.153Z</time>
      </trkpt>
      <trkpt lat="41.758096" lon="2.233159">
        <ele>687.109847</ele>
        <time>2020-08-09T07:39:26.158Z</time>
      </trkpt>
      <trkpt lat="41.758221" lon="2.233120">
        <ele>685.674750</ele>
        <time>2020-08-09T07:39:28.176Z</time>
      </trkpt>
      <trkpt lat="41.758309" lon="2.233055">
        <ele>684.551257</ele>
        <time>2020-08-09T07:39:29.156Z</time>
      </trkpt>
      <trkpt lat="41.758391" lon="2.232998">
        <ele>683.518400</ele>
        <time>2020-08-09T07:39:30.153Z</time>
      </trkpt>
      <trkpt lat="41.758482" lon="2.232956">
        <ele>682.442226</ele>
        <time>2020-08-09T07:39:31.153Z</time>
      </trkpt>
      <trkpt lat="41.758642" lon="2.232866">
        <ele>680.502001</ele>
        <time>2020-08-09T07:39:33.155Z</time>
      </trkpt>
      <trkpt lat="41.758735" lon="2.232833">
        <ele>679.426269</ele>
        <time>2020-08-09T07:39:34.169Z</time>
      </trkpt>
      <trkpt lat="41.758831" lon="2.232790">
        <ele>678.294469</ele>
        <time>2020-08-09T07:39:35.165Z</time>
      </trkpt>
      <trkpt lat="41.758997" lon="2.232752">
        <ele>676.411402</ele>
        <time>2020-08-09T07:39:37.169Z</time>
      </trkpt>
      <trkpt lat="41.759107" lon="2.232752">
        <ele>675.181390</ele>
        <time>2020-08-09T07:39:38.163Z</time>
      </trkpt>
      <trkpt lat="41.759205" lon="2.232725">
        <ele>674.008588</ele>
        <time>2020-08-09T07:39:39.152Z</time>
      </trkpt>
      <trkpt lat="41.759334" lon="2.232674">
        <ele>671.069077</ele>
        <time>2020-08-09T07:39:41.160Z</time>
      </trkpt>
      <trkpt lat="41.759466" lon="2.232620">
        <ele>668.052706</ele>
        <time>2020-08-09T07:39:43.166Z</time>
      </trkpt>
      <trkpt lat="41.759595" lon="2.232638">
        <ele>665.218015</ele>
        <time>2020-08-09T07:39:45.172Z</time>
      </trkpt>
      <trkpt lat="41.759749" lon="2.232696">
        <ele>661.721841</ele>
        <time>2020-08-09T07:39:47.152Z</time>
      </trkpt>
      <trkpt lat="41.759841" lon="2.232724">
        <ele>659.659896</ele>
        <time>2020-08-09T07:39:48.170Z</time>
      </trkpt>
      <trkpt lat="41.760005" lon="2.232739">
        <ele>656.067133</ele>
        <time>2020-08-09T07:39:50.163Z</time>
      </trkpt>
      <trkpt lat="41.760128" lon="2.232706">
        <ele>653.325503</ele>
        <time>2020-08-09T07:39:52.166Z</time>
      </trkpt>
      <trkpt lat="41.760244" lon="2.232623">
        <ele>650.451655</ele>
        <time>2020-08-09T07:39:54.150Z</time>
      </trkpt>
      <trkpt lat="41.760373" lon="2.232596">
        <ele>647.598039</ele>
        <time>2020-08-09T07:39:56.170Z</time>
      </trkpt>
      <trkpt lat="41.760506" lon="2.232655">
        <ele>644.536139</ele>
        <time>2020-08-09T07:39:58.161Z</time>
      </trkpt>
      <trkpt lat="41.760593" lon="2.232811">
        <ele>641.360579</ele>
        <time>2020-08-09T07:40:00.173Z</time>
      </trkpt>
      <trkpt lat="41.760635" lon="2.233041">
        <ele>637.500084</ele>
        <time>2020-08-09T07:40:02.165Z</time>
      </trkpt>
      <trkpt lat="41.760693" lon="2.233287">
        <ele>633.754935</ele>
        <time>2020-08-09T07:40:04.153Z</time>
      </trkpt>
      <trkpt lat="41.760737" lon="2.233403">
        <ele>632.279470</ele>
        <time>2020-08-09T07:40:05.169Z</time>
      </trkpt>
      <trkpt lat="41.760777" lon="2.233534">
        <ele>630.674591</ele>
        <time>2020-08-09T07:40:06.163Z</time>
      </trkpt>
      <trkpt lat="41.760832" lon="2.233656">
        <ele>629.058377</ele>
        <time>2020-08-09T07:40:07.166Z</time>
      </trkpt>
      <trkpt lat="41.760886" lon="2.233767">
        <ele>627.555880</ele>
        <time>2020-08-09T07:40:08.172Z</time>
      </trkpt>
      <trkpt lat="41.760938" lon="2.233889">
        <ele>625.962776</ele>
        <time>2020-08-09T07:40:09.144Z</time>
      </trkpt>
      <trkpt lat="41.760970" lon="2.234027">
        <ele>624.324299</ele>
        <time>2020-08-09T07:40:10.154Z</time>
      </trkpt>
      <trkpt lat="41.761014" lon="2.234161">
        <ele>622.664347</ele>
        <time>2020-08-09T07:40:11.171Z</time>
      </trkpt>
      <trkpt lat="41.761045" lon="2.234299">
        <ele>621.030320</ele>
        <time>2020-08-09T07:40:12.152Z</time>
      </trkpt>
      <trkpt lat="41.761076" lon="2.234440">
        <ele>619.363696</ele>
        <time>2020-08-09T07:40:13.181Z</time>
      </trkpt>
      <trkpt lat="41.761114" lon="2.234559">
        <ele>617.896066</ele>
        <time>2020-08-09T07:40:14.154Z</time>
      </trkpt>
      <trkpt lat="41.761159" lon="2.234778">
        <ele>615.320606</ele>
        <time>2020-08-09T07:40:16.170Z</time>
      </trkpt>
      <trkpt lat="41.761202" lon="2.234991">
        <ele>612.818778</ele>
        <time>2020-08-09T07:40:18.157Z</time>
      </trkpt>
      <trkpt lat="41.761221" lon="2.235116">
        <ele>611.372432</ele>
        <time>2020-08-09T07:40:19.164Z</time>
      </trkpt>
      <trkpt lat="41.761266" lon="2.235339">
        <ele>608.753225</ele>
        <time>2020-08-09T07:40:21.161Z</time>
      </trkpt>
      <trkpt lat="41.761286" lon="2.235481">
        <ele>607.178577</ele>
        <time>2020-08-09T07:40:23.172Z</time>
      </trkpt>
      <trkpt lat="41.761293" lon="2.235616">
        <ele>605.920466</ele>
        <time>2020-08-09T07:40:38.135Z</time>
      </trkpt>
      <trkpt lat="41.761321" lon="2.235767">
        <ele>604.473906</ele>
        <time>2020-08-09T07:40:42.156Z</time>
      </trkpt>
      <trkpt lat="41.761330" lon="2.235923">
        <ele>603.019258</ele>
        <time>2020-08-09T07:40:45.158Z</time>
      </trkpt>
      <trkpt lat="41.761337" lon="2.236060">
        <ele>601.742598</ele>
        <time>2020-08-09T07:40:47.160Z</time>
      </trkpt>
      <trkpt lat="41.761347" lon="2.236181">
        <ele>600.610790</ele>
        <time>2020-08-09T07:40:49.157Z</time>
      </trkpt>
      <trkpt lat="41.761357" lon="2.236336">
        <ele>599.164391</ele>
        <time>2020-08-09T07:40:51.160Z</time>
      </trkpt>
      <trkpt lat="41.761386" lon="2.236492">
        <ele>597.669714</ele>
        <time>2020-08-09T07:40:53.149Z</time>
      </trkpt>
      <trkpt lat="41.761373" lon="2.236657">
        <ele>596.127194</ele>
        <time>2020-08-09T07:40:55.156Z</time>
      </trkpt>
      <trkpt lat="41.761354" lon="2.236831">
        <ele>594.492292</ele>
        <time>2020-08-09T07:40:57.165Z</time>
      </trkpt>
      <trkpt lat="41.761356" lon="2.236999">
        <ele>592.930215</ele>
        <time>2020-08-09T07:40:59.154Z</time>
      </trkpt>
      <trkpt lat="41.761357" lon="2.237197">
        <ele>591.089387</ele>
        <time>2020-08-09T07:41:01.152Z</time>
      </trkpt>
      <trkpt lat="41.761378" lon="2.237357">
        <ele>589.579032</ele>
        <time>2020-08-09T07:41:03.164Z</time>
      </trkpt>
      <trkpt lat="41.761404" lon="2.237554">
        <ele>587.719097</ele>
        <time>2020-08-09T07:41:05.158Z</time>
      </trkpt>
      <trkpt lat="41.761425" lon="2.237756">
        <ele>585.822974</ele>
        <time>2020-08-09T07:41:07.161Z</time>
      </trkpt>
      <trkpt lat="41.761440" lon="2.237938">
        <ele>583.914303</ele>
        <time>2020-08-09T07:41:09.169Z</time>
      </trkpt>
      <trkpt lat="41.761480" lon="2.238113">
        <ele>581.835490</ele>
        <time>2020-08-09T07:41:11.169Z</time>
      </trkpt>
      <trkpt lat="41.761568" lon="2.238279">
        <ele>579.522485</ele>
        <time>2020-08-09T07:41:13.143Z</time>
      </trkpt>
      <trkpt lat="41.761666" lon="2.238392">
        <ele>577.554302</ele>
        <time>2020-08-09T07:41:15.157Z</time>
      </trkpt>
      <trkpt lat="41.761755" lon="2.238549">
        <ele>575.314656</ele>
        <time>2020-08-09T07:41:17.163Z</time>
      </trkpt>
      <trkpt lat="41.761857" lon="2.238717">
        <ele>572.854407</ele>
        <time>2020-08-09T07:41:19.152Z</time>
      </trkpt>
      <trkpt lat="41.761928" lon="2.238800">
        <ele>571.420059</ele>
        <time>2020-08-09T07:41:20.136Z</time>
      </trkpt>
      <trkpt lat="41.762030" lon="2.238953">
        <ele>569.089459</ele>
        <time>2020-08-09T07:41:22.144Z</time>
      </trkpt>
      <trkpt lat="41.762063" lon="2.239129">
        <ele>567.028343</ele>
        <time>2020-08-09T07:41:24.145Z</time>
      </trkpt>
      <trkpt lat="41.762020" lon="2.239327">
        <ele>564.686173</ele>
        <time>2020-08-09T07:41:26.158Z</time>
      </trkpt>
      <trkpt lat="41.761941" lon="2.239520">
        <ele>562.185807</ele>
        <time>2020-08-09T07:41:28.167Z</time>
      </trkpt>
      <trkpt lat="41.761883" lon="2.239621">
        <ele>560.738124</ele>
        <time>2020-08-09T07:41:29.153Z</time>
      </trkpt>
      <trkpt lat="41.761828" lon="2.239733">
        <ele>559.215157</ele>
        <time>2020-08-09T07:41:30.153Z</time>
      </trkpt>
      <trkpt lat="41.761787" lon="2.239850">
        <ele>557.746982</ele>
        <time>2020-08-09T07:41:31.165Z</time>
      </trkpt>
      <trkpt lat="41.761738" lon="2.239977">
        <ele>557.193497</ele>
        <time>2020-08-09T07:41:32.160Z</time>
      </trkpt>
      <trkpt lat="41.761689" lon="2.240099">
        <ele>556.712401</ele>
        <time>2020-08-09T07:41:33.158Z</time>
      </trkpt>
      <trkpt lat="41.761633" lon="2.240223">
        <ele>556.209102</ele>
        <time>2020-08-09T07:41:34.149Z</time>
      </trkpt>
      <trkpt lat="41.761586" lon="2.240343">
        <ele>555.738508</ele>
        <time>2020-08-09T07:41:35.139Z</time>
      </trkpt>
      <trkpt lat="41.761543" lon="2.240458">
        <ele>555.291860</ele>
        <time>2020-08-09T07:41:36.141Z</time>
      </trkpt>
      <trkpt lat="41.761482" lon="2.240568">
        <ele>554.815948</ele>
        <time>2020-08-09T07:41:37.151Z</time>
      </trkpt>
      <trkpt lat="41.761428" lon="2.240679">
        <ele>554.355823</ele>
        <time>2020-08-09T07:41:38.162Z</time>
      </trkpt>
      <trkpt lat="41.761359" lon="2.240779">
        <ele>553.882844</ele>
        <time>2020-08-09T07:41:39.165Z</time>
      </trkpt>
      <trkpt lat="41.761306" lon="2.240878">
        <ele>553.459739</ele>
        <time>2020-08-09T07:41:40.128Z</time>
      </trkpt>
      <trkpt lat="41.761245" lon="2.240979">
        <ele>553.008519</ele>
        <time>2020-08-09T07:41:41.146Z</time>
      </trkpt>
      <trkpt lat="41.761184" lon="2.241080">
        <ele>552.557298</ele>
        <time>2020-08-09T07:41:42.135Z</time>
      </trkpt>
      <trkpt lat="41.761102" lon="2.241299">
        <ele>551.706485</ele>
        <time>2020-08-09T07:41:44.152Z</time>
      </trkpt>
      <trkpt lat="41.761038" lon="2.241397">
        <ele>551.254237</ele>
        <time>2020-08-09T07:41:45.154Z</time>
      </trkpt>
      <trkpt lat="41.760948" lon="2.241602">
        <ele>550.428321</ele>
        <time>2020-08-09T07:41:47.157Z</time>
      </trkpt>
      <trkpt lat="41.760850" lon="2.241798">
        <ele>549.609043</ele>
        <time>2020-08-09T07:41:49.155Z</time>
      </trkpt>
      <trkpt lat="41.760752" lon="2.241975">
        <ele>548.709929</ele>
        <time>2020-08-09T07:41:51.157Z</time>
      </trkpt>
      <trkpt lat="41.760653" lon="2.242142">
        <ele>547.748594</ele>
        <time>2020-08-09T07:41:53.172Z</time>
      </trkpt>
      <trkpt lat="41.760559" lon="2.242316">
        <ele>546.780387</ele>
        <time>2020-08-09T07:41:55.164Z</time>
      </trkpt>
      <trkpt lat="41.760468" lon="2.242474">
        <ele>545.880786</ele>
        <time>2020-08-09T07:41:57.176Z</time>
      </trkpt>
      <trkpt lat="41.760400" lon="2.242641">
        <ele>545.023346</ele>
        <time>2020-08-09T07:41:59.158Z</time>
      </trkpt>
      <trkpt lat="41.760352" lon="2.242815">
        <ele>544.187281</ele>
        <time>2020-08-09T07:42:01.157Z</time>
      </trkpt>
      <trkpt lat="41.760316" lon="2.242966">
        <ele>543.472863</ele>
        <time>2020-08-09T07:42:03.169Z</time>
      </trkpt>
      <trkpt lat="41.760297" lon="2.243094">
        <ele>542.884699</ele>
        <time>2020-08-09T07:42:06.146Z</time>
      </trkpt>
      <trkpt lat="41.760283" lon="2.243217">
        <ele>542.323964</ele>
        <time>2020-08-09T07:42:17.150Z</time>
      </trkpt>
      <trkpt lat="41.760256" lon="2.243355">
        <ele>541.681007</ele>
        <time>2020-08-09T07:42:23.145Z</time>
      </trkpt>
      <trkpt lat="41.760246" lon="2.243502">
        <ele>541.015777</ele>
        <time>2020-08-09T07:42:26.155Z</time>
      </trkpt>
      <trkpt lat="41.760217" lon="2.243630">
        <ele>540.412903</ele>
        <time>2020-08-09T07:42:28.153Z</time>
      </trkpt>
      <trkpt lat="41.760144" lon="2.243715">
        <ele>539.828733</ele>
        <time>2020-08-09T07:42:30.152Z</time>
      </trkpt>
      <trkpt lat="41.760054" lon="2.243788">
        <ele>539.193208</ele>
        <time>2020-08-09T07:42:32.164Z</time>
      </trkpt>
      <trkpt lat="41.759934" lon="2.243861">
        <ele>538.408384</ele>
        <time>2020-08-09T07:42:35.135Z</time>
      </trkpt>
      <trkpt lat="41.759844" lon="2.243880">
        <ele>538.074083</ele>
        <time>2020-08-09T07:42:37.157Z</time>
      </trkpt>
      <trkpt lat="41.759757" lon="2.243918">
        <ele>537.738344</ele>
        <time>2020-08-09T07:42:39.167Z</time>
      </trkpt>
      <trkpt lat="41.759629" lon="2.243974">
        <ele>537.244304</ele>
        <time>2020-08-09T07:42:42.170Z</time>
      </trkpt>
      <trkpt lat="41.759499" lon="2.244012">
        <ele>536.756096</ele>
        <time>2020-08-09T07:42:45.153Z</time>
      </trkpt>
      <trkpt lat="41.759371" lon="2.244024">
        <ele>536.285286</ele>
        <time>2020-08-09T07:42:47.158Z</time>
      </trkpt>
      <trkpt lat="41.759238" lon="2.244053">
        <ele>535.790865</ele>
        <time>2020-08-09T07:42:49.168Z</time>
      </trkpt>
      <trkpt lat="41.759068" lon="2.244086">
        <ele>535.160590</ele>
        <time>2020-08-09T07:42:51.164Z</time>
      </trkpt>
      <trkpt lat="41.758919" lon="2.244083">
        <ele>534.613812</ele>
        <time>2020-08-09T07:42:53.165Z</time>
      </trkpt>
      <trkpt lat="41.758761" lon="2.244062">
        <ele>534.031231</ele>
        <time>2020-08-09T07:42:55.150Z</time>
      </trkpt>
      <trkpt lat="41.758634" lon="2.244049">
        <ele>533.563882</ele>
        <time>2020-08-09T07:42:57.154Z</time>
      </trkpt>
      <trkpt lat="41.758493" lon="2.244069">
        <ele>533.043631</ele>
        <time>2020-08-09T07:42:59.153Z</time>
      </trkpt>
      <trkpt lat="41.758378" lon="2.244173">
        <ele>532.534630</ele>
        <time>2020-08-09T07:43:01.153Z</time>
      </trkpt>
      <trkpt lat="41.758288" lon="2.244312">
        <ele>532.030844</ele>
        <time>2020-08-09T07:43:03.147Z</time>
      </trkpt>
      <trkpt lat="41.758248" lon="2.244475">
        <ele>531.333027</ele>
        <time>2020-08-09T07:43:05.176Z</time>
      </trkpt>
      <trkpt lat="41.758263" lon="2.244656">
        <ele>530.405541</ele>
        <time>2020-08-09T07:43:07.151Z</time>
      </trkpt>
      <trkpt lat="41.758321" lon="2.244817">
        <ele>529.494976</ele>
        <time>2020-08-09T07:43:09.158Z</time>
      </trkpt>
      <trkpt lat="41.758423" lon="2.244919">
        <ele>528.626181</ele>
        <time>2020-08-09T07:43:11.152Z</time>
      </trkpt>
      <trkpt lat="41.758527" lon="2.244950">
        <ele>527.898802</ele>
        <time>2020-08-09T07:43:13.175Z</time>
      </trkpt>
      <trkpt lat="41.758629" lon="2.244931">
        <ele>527.195727</ele>
        <time>2020-08-09T07:43:15.159Z</time>
      </trkpt>
      <trkpt lat="41.758712" lon="2.244879">
        <ele>526.570233</ele>
        <time>2020-08-09T07:43:17.149Z</time>
      </trkpt>
      <trkpt lat="41.758843" lon="2.244794">
        <ele>525.576601</ele>
        <time>2020-08-09T07:43:19.170Z</time>
      </trkpt>
      <trkpt lat="41.758966" lon="2.244751">
        <ele>524.708760</ele>
        <time>2020-08-09T07:43:21.156Z</time>
      </trkpt>
      <trkpt lat="41.759087" lon="2.244743">
        <ele>523.881653</ele>
        <time>2020-08-09T07:43:23.156Z</time>
      </trkpt>
      <trkpt lat="41.759237" lon="2.244746">
        <ele>522.857445</ele>
        <time>2020-08-09T07:43:25.144Z</time>
      </trkpt>
      <trkpt lat="41.759387" lon="2.244758">
        <ele>521.831530</ele>
        <time>2020-08-09T07:43:27.143Z</time>
      </trkpt>
      <trkpt lat="41.759517" lon="2.244830">
        <ele>520.871219</ele>
        <time>2020-08-09T07:43:29.154Z</time>
      </trkpt>
      <trkpt lat="41.759642" lon="2.244935">
        <ele>519.864114</ele>
        <time>2020-08-09T07:43:31.153Z</time>
      </trkpt>
      <trkpt lat="41.759747" lon="2.245023">
        <ele>518.834622</ele>
        <time>2020-08-09T07:43:33.157Z</time>
      </trkpt>
      <trkpt lat="41.759811" lon="2.245112">
        <ele>517.985451</ele>
        <time>2020-08-09T07:43:35.183Z</time>
      </trkpt>
      <trkpt lat="41.759885" lon="2.245231">
        <ele>516.921238</ele>
        <time>2020-08-09T07:43:37.135Z</time>
      </trkpt>
      <trkpt lat="41.759965" lon="2.245345">
        <ele>515.846095</ele>
        <time>2020-08-09T07:43:39.129Z</time>
      </trkpt>
      <trkpt lat="41.760085" lon="2.245458">
        <ele>514.495682</ele>
        <time>2020-08-09T07:43:41.162Z</time>
      </trkpt>
      <trkpt lat="41.760195" lon="2.245576">
        <ele>513.198349</ele>
        <time>2020-08-09T07:43:43.148Z</time>
      </trkpt>
      <trkpt lat="41.760284" lon="2.245716">
        <ele>511.934818</ele>
        <time>2020-08-09T07:43:45.156Z</time>
      </trkpt>
      <trkpt lat="41.760381" lon="2.245853">
        <ele>510.637327</ele>
        <time>2020-08-09T07:43:47.158Z</time>
      </trkpt>
      <trkpt lat="41.760469" lon="2.245983">
        <ele>509.431467</ele>
        <time>2020-08-09T07:43:49.166Z</time>
      </trkpt>
      <trkpt lat="41.760530" lon="2.246127">
        <ele>508.293948</ele>
        <time>2020-08-09T07:43:51.158Z</time>
      </trkpt>
      <trkpt lat="41.760616" lon="2.246221">
        <ele>507.272139</ele>
        <time>2020-08-09T07:43:53.166Z</time>
      </trkpt>
      <trkpt lat="41.760641" lon="2.246364">
        <ele>506.263247</ele>
        <time>2020-08-09T07:43:56.157Z</time>
      </trkpt>
      <trkpt lat="41.760527" lon="2.246417">
        <ele>505.152124</ele>
        <time>2020-08-09T07:43:58.155Z</time>
      </trkpt>
      <trkpt lat="41.760393" lon="2.246363">
        <ele>503.863618</ele>
        <time>2020-08-09T07:44:01.141Z</time>
      </trkpt>
      <trkpt lat="41.760279" lon="2.246271">
        <ele>503.053085</ele>
        <time>2020-08-09T07:44:04.160Z</time>
      </trkpt>
      <trkpt lat="41.760175" lon="2.246160">
        <ele>503.300741</ele>
        <time>2020-08-09T07:44:07.168Z</time>
      </trkpt>
      <trkpt lat="41.760110" lon="2.246074">
        <ele>503.470878</ele>
        <time>2020-08-09T07:44:09.161Z</time>
      </trkpt>
      <trkpt lat="41.760039" lon="2.245986">
        <ele>503.651020</ele>
        <time>2020-08-09T07:44:11.164Z</time>
      </trkpt>
      <trkpt lat="41.759946" lon="2.245872">
        <ele>503.885788</ele>
        <time>2020-08-09T07:44:14.135Z</time>
      </trkpt>
      <trkpt lat="41.759839" lon="2.245780">
        <ele>504.122604</ele>
        <time>2020-08-09T07:44:17.156Z</time>
      </trkpt>
      <trkpt lat="41.759760" lon="2.245705">
        <ele>504.302948</ele>
        <time>2020-08-09T07:44:19.135Z</time>
      </trkpt>
      <trkpt lat="41.759665" lon="2.245592">
        <ele>504.539555</ele>
        <time>2020-08-09T07:44:22.159Z</time>
      </trkpt>
      <trkpt lat="41.759567" lon="2.245504">
        <ele>504.759300</ele>
        <time>2020-08-09T07:44:25.160Z</time>
      </trkpt>
      <trkpt lat="41.759474" lon="2.245463">
        <ele>504.941686</ele>
        <time>2020-08-09T07:44:27.159Z</time>
      </trkpt>
      <trkpt lat="41.759361" lon="2.245417">
        <ele>505.161695</ele>
        <time>2020-08-09T07:44:30.144Z</time>
      </trkpt>
      <trkpt lat="41.759260" lon="2.245400">
        <ele>505.351333</ele>
        <time>2020-08-09T07:44:33.144Z</time>
      </trkpt>
      <trkpt lat="41.759167" lon="2.245397">
        <ele>505.524641</ele>
        <time>2020-08-09T07:44:36.154Z</time>
      </trkpt>
      <trkpt lat="41.759053" lon="2.245408">
        <ele>505.737571</ele>
        <time>2020-08-09T07:44:40.160Z</time>
      </trkpt>
      <trkpt lat="41.758964" lon="2.245442">
        <ele>505.909977</ele>
        <time>2020-08-09T07:44:44.158Z</time>
      </trkpt>
      <trkpt lat="41.758861" lon="2.245455">
        <ele>506.102713</ele>
        <time>2020-08-09T07:44:49.168Z</time>
      </trkpt>
      <trkpt lat="41.758722" lon="2.245484">
        <ele>506.182873</ele>
        <time>2020-08-09T07:48:10.172Z</time>
      </trkpt>
      <trkpt lat="41.758628" lon="2.245516">
        <ele>505.291294</ele>
        <time>2020-08-09T07:48:13.168Z</time>
      </trkpt>
      <trkpt lat="41.758540" lon="2.245568">
        <ele>504.407195</ele>
        <time>2020-08-09T07:48:15.156Z</time>
      </trkpt>
      <trkpt lat="41.758433" lon="2.245602">
        <ele>503.396277</ele>
        <time>2020-08-09T07:48:17.158Z</time>
      </trkpt>
      <trkpt lat="41.758319" lon="2.245621">
        <ele>502.340196</ele>
        <time>2020-08-09T07:48:19.156Z</time>
      </trkpt>
      <trkpt lat="41.758224" lon="2.245742">
        <ele>501.135510</ele>
        <time>2020-08-09T07:48:22.155Z</time>
      </trkpt>
      <trkpt lat="41.758179" lon="2.245881">
        <ele>500.096391</ele>
        <time>2020-08-09T07:48:24.157Z</time>
      </trkpt>
      <trkpt lat="41.758140" lon="2.246023">
        <ele>499.058692</ele>
        <time>2020-08-09T07:48:26.162Z</time>
      </trkpt>
      <trkpt lat="41.758106" lon="2.246173">
        <ele>497.983596</ele>
        <time>2020-08-09T07:48:29.167Z</time>
      </trkpt>
      <trkpt lat="41.758078" lon="2.246315">
        <ele>496.976355</ele>
        <time>2020-08-09T07:48:32.156Z</time>
      </trkpt>
      <trkpt lat="41.758046" lon="2.246448">
        <ele>496.018010</ele>
        <time>2020-08-09T07:48:36.160Z</time>
      </trkpt>
      <trkpt lat="41.757968" lon="2.246518">
        <ele>495.155098</ele>
        <time>2020-08-09T07:48:52.148Z</time>
      </trkpt>
      <trkpt lat="41.757865" lon="2.246507">
        <ele>494.205209</ele>
        <time>2020-08-09T07:48:58.137Z</time>
      </trkpt>
      <trkpt lat="41.757758" lon="2.246508">
        <ele>493.221524</ele>
        <time>2020-08-09T07:49:02.147Z</time>
      </trkpt>
      <trkpt lat="41.757663" lon="2.246483">
        <ele>492.331511</ele>
        <time>2020-08-09T07:49:05.151Z</time>
      </trkpt>
      <trkpt lat="41.757573" lon="2.246466">
        <ele>491.495959</ele>
        <time>2020-08-09T07:49:08.158Z</time>
      </trkpt>
      <trkpt lat="41.757470" lon="2.246469">
        <ele>490.548847</ele>
        <time>2020-08-09T07:49:11.170Z</time>
      </trkpt>
      <trkpt lat="41.757354" lon="2.246458">
        <ele>489.551230</ele>
        <time>2020-08-09T07:49:15.156Z</time>
      </trkpt>
      <trkpt lat="41.757256" lon="2.246474">
        <ele>488.846767</ele>
        <time>2020-08-09T07:49:22.155Z</time>
      </trkpt>
      <trkpt lat="41.757197" lon="2.246580">
        <ele>488.142769</ele>
        <time>2020-08-09T07:49:26.136Z</time>
      </trkpt>
      <trkpt lat="41.757178" lon="2.246744">
        <ele>487.259327</ele>
        <time>2020-08-09T07:49:29.159Z</time>
      </trkpt>
      <trkpt lat="41.757123" lon="2.246864">
        <ele>486.509630</ele>
        <time>2020-08-09T07:49:31.153Z</time>
      </trkpt>
      <trkpt lat="41.757076" lon="2.246993">
        <ele>485.745433</ele>
        <time>2020-08-09T07:49:33.160Z</time>
      </trkpt>
      <trkpt lat="41.757033" lon="2.247119">
        <ele>485.007877</ele>
        <time>2020-08-09T07:49:35.157Z</time>
      </trkpt>
      <trkpt lat="41.756980" lon="2.247232">
        <ele>484.297359</ele>
        <time>2020-08-09T07:49:38.164Z</time>
      </trkpt>
      <trkpt lat="41.756920" lon="2.247348">
        <ele>483.545975</ele>
        <time>2020-08-09T07:49:42.164Z</time>
      </trkpt>
      <trkpt lat="41.756850" lon="2.247428">
        <ele>482.889590</ele>
        <time>2020-08-09T07:49:45.135Z</time>
      </trkpt>
      <trkpt lat="41.756750" lon="2.247509">
        <ele>482.055872</ele>
        <time>2020-08-09T07:49:48.166Z</time>
      </trkpt>
      <trkpt lat="41.756645" lon="2.247581">
        <ele>481.214291</ele>
        <time>2020-08-09T07:49:51.156Z</time>
      </trkpt>
      <trkpt lat="41.756524" lon="2.247669">
        <ele>480.231990</ele>
        <time>2020-08-09T07:49:54.160Z</time>
      </trkpt>
      <trkpt lat="41.756441" lon="2.247718">
        <ele>479.584837</ele>
        <time>2020-08-09T07:49:56.136Z</time>
      </trkpt>
      <trkpt lat="41.756331" lon="2.247807">
        <ele>478.668021</ele>
        <time>2020-08-09T07:49:59.149Z</time>
      </trkpt>
      <trkpt lat="41.756229" lon="2.247881">
        <ele>477.840426</ele>
        <time>2020-08-09T07:50:02.150Z</time>
      </trkpt>
      <trkpt lat="41.756133" lon="2.247905">
        <ele>477.143589</ele>
        <time>2020-08-09T07:50:05.155Z</time>
      </trkpt>
      <trkpt lat="41.756026" lon="2.247901">
        <ele>476.388354</ele>
        <time>2020-08-09T07:50:08.164Z</time>
      </trkpt>
      <trkpt lat="41.755935" lon="2.247875">
        <ele>475.734164</ele>
        <time>2020-08-09T07:50:11.167Z</time>
      </trkpt>
      <trkpt lat="41.755841" lon="2.247874">
        <ele>475.073231</ele>
        <time>2020-08-09T07:50:14.152Z</time>
      </trkpt>
      <trkpt lat="41.755699" lon="2.247893">
        <ele>474.069871</ele>
        <time>2020-08-09T07:50:17.163Z</time>
      </trkpt>
      <trkpt lat="41.755605" lon="2.247922">
        <ele>473.391681</ele>
        <time>2020-08-09T07:50:19.160Z</time>
      </trkpt>
      <trkpt lat="41.755510" lon="2.247949">
        <ele>472.708891</ele>
        <time>2020-08-09T07:50:21.173Z</time>
      </trkpt>
      <trkpt lat="41.755380" lon="2.247929">
        <ele>471.788864</ele>
        <time>2020-08-09T07:50:24.148Z</time>
      </trkpt>
      <trkpt lat="41.755283" lon="2.247812">
        <ele>470.871407</ele>
        <time>2020-08-09T07:50:27.152Z</time>
      </trkpt>
      <trkpt lat="41.755209" lon="2.247713">
        <ele>470.136330</ele>
        <time>2020-08-09T07:50:29.149Z</time>
      </trkpt>
      <trkpt lat="41.755142" lon="2.247577">
        <ele>469.281488</ele>
        <time>2020-08-09T07:50:31.166Z</time>
      </trkpt>
      <trkpt lat="41.755066" lon="2.247418">
        <ele>468.291013</ele>
        <time>2020-08-09T07:50:33.152Z</time>
      </trkpt>
      <trkpt lat="41.754985" lon="2.247276">
        <ele>467.353423</ele>
        <time>2020-08-09T07:50:35.159Z</time>
      </trkpt>
      <trkpt lat="41.754896" lon="2.247137">
        <ele>466.392634</ele>
        <time>2020-08-09T07:50:37.162Z</time>
      </trkpt>
      <trkpt lat="41.754813" lon="2.247002">
        <ele>465.475057</ele>
        <time>2020-08-09T07:50:39.143Z</time>
      </trkpt>
      <trkpt lat="41.754749" lon="2.246869">
        <ele>464.644917</ele>
        <time>2020-08-09T07:50:41.158Z</time>
      </trkpt>
      <trkpt lat="41.754679" lon="2.246745">
        <ele>464.455604</ele>
        <time>2020-08-09T07:50:43.153Z</time>
      </trkpt>
      <trkpt lat="41.754609" lon="2.246618">
        <ele>464.688220</ele>
        <time>2020-08-09T07:50:45.148Z</time>
      </trkpt>
      <trkpt lat="41.754567" lon="2.246446">
        <ele>464.954831</ele>
        <time>2020-08-09T07:50:47.145Z</time>
      </trkpt>
      <trkpt lat="41.754551" lon="2.246264">
        <ele>465.224799</ele>
        <time>2020-08-09T07:50:49.162Z</time>
      </trkpt>
      <trkpt lat="41.754504" lon="2.246091">
        <ele>465.496028</ele>
        <time>2020-08-09T07:50:51.173Z</time>
      </trkpt>
      <trkpt lat="41.754425" lon="2.245942">
        <ele>465.765318</ele>
        <time>2020-08-09T07:50:53.165Z</time>
      </trkpt>
      <trkpt lat="41.754326" lon="2.245803">
        <ele>466.048424</ele>
        <time>2020-08-09T07:50:55.160Z</time>
      </trkpt>
      <trkpt lat="41.754213" lon="2.245673">
        <ele>466.342481</ele>
        <time>2020-08-09T07:50:57.173Z</time>
      </trkpt>
      <trkpt lat="41.754114" lon="2.245550">
        <ele>466.609037</ele>
        <time>2020-08-09T07:50:59.160Z</time>
      </trkpt>
      <trkpt lat="41.754041" lon="2.245441">
        <ele>466.824825</ele>
        <time>2020-08-09T07:51:01.139Z</time>
      </trkpt>
      <trkpt lat="41.753974" lon="2.245360">
        <ele>467.002993</ele>
        <time>2020-08-09T07:51:03.157Z</time>
      </trkpt>
      <trkpt lat="41.753932" lon="2.245223">
        <ele>467.221193</ele>
        <time>2020-08-09T07:51:08.164Z</time>
      </trkpt>
      <trkpt lat="41.753909" lon="2.245088">
        <ele>467.425191</ele>
        <time>2020-08-09T07:51:13.148Z</time>
      </trkpt>
      <trkpt lat="41.753899" lon="2.244950">
        <ele>467.629445</ele>
        <time>2020-08-09T07:51:18.169Z</time>
      </trkpt>
      <trkpt lat="41.753894" lon="2.244814">
        <ele>467.830038</ele>
        <time>2020-08-09T07:51:23.163Z</time>
      </trkpt>
      <trkpt lat="41.753873" lon="2.244682">
        <ele>468.966452</ele>
        <time>2020-08-09T07:51:29.157Z</time>
      </trkpt>
      <trkpt lat="41.753883" lon="2.244559">
        <ele>470.225015</ele>
        <time>2020-08-09T07:51:34.150Z</time>
      </trkpt>
      <trkpt lat="41.753855" lon="2.244436">
        <ele>471.533125</ele>
        <time>2020-08-09T07:51:40.160Z</time>
      </trkpt>
      <trkpt lat="41.753815" lon="2.244316">
        <ele>472.870074</ele>
        <time>2020-08-09T07:51:46.145Z</time>
      </trkpt>
      <trkpt lat="41.753801" lon="2.244195">
        <ele>474.115602</ele>
        <time>2020-08-09T07:51:51.155Z</time>
      </trkpt>
      <trkpt lat="41.753791" lon="2.244069">
        <ele>475.404508</ele>
        <time>2020-08-09T07:51:56.156Z</time>
      </trkpt>
      <trkpt lat="41.753768" lon="2.243953">
        <ele>476.625426</ele>
        <time>2020-08-09T07:52:00.160Z</time>
      </trkpt>
      <trkpt lat="41.753744" lon="2.243818">
        <ele>478.037102</ele>
        <time>2020-08-09T07:52:05.143Z</time>
      </trkpt>
      <trkpt lat="41.753724" lon="2.243694">
        <ele>479.327575</ele>
        <time>2020-08-09T07:52:11.161Z</time>
      </trkpt>
      <trkpt lat="41.753701" lon="2.243571">
        <ele>480.617439</ele>
        <time>2020-08-09T07:52:17.162Z</time>
      </trkpt>
      <trkpt lat="41.753703" lon="2.243449">
        <ele>481.858726</ele>
        <time>2020-08-09T07:52:23.155Z</time>
      </trkpt>
      <trkpt lat="41.753686" lon="2.243327">
        <ele>483.121176</ele>
        <time>2020-08-09T07:52:30.151Z</time>
      </trkpt>
      <trkpt lat="41.753603" lon="2.243232">
        <ele>484.609331</ele>
        <time>2020-08-09T07:52:37.137Z</time>
      </trkpt>
      <trkpt lat="41.753523" lon="2.243150">
        <ele>485.982506</ele>
        <time>2020-08-09T07:52:42.137Z</time>
      </trkpt>
      <trkpt lat="41.753452" lon="2.243054">
        <ele>487.357568</ele>
        <time>2020-08-09T07:52:47.149Z</time>
      </trkpt>
      <trkpt lat="41.753406" lon="2.242941">
        <ele>488.667005</ele>
        <time>2020-08-09T07:52:51.166Z</time>
      </trkpt>
      <trkpt lat="41.753374" lon="2.242821">
        <ele>489.963293</ele>
        <time>2020-08-09T07:52:54.157Z</time>
      </trkpt>
      <trkpt lat="41.753346" lon="2.242695">
        <ele>491.300629</ele>
        <time>2020-08-09T07:52:57.155Z</time>
      </trkpt>
      <trkpt lat="41.753308" lon="2.242569">
        <ele>492.251705</ele>
        <time>2020-08-09T07:52:59.151Z</time>
      </trkpt>
      <trkpt lat="41.753265" lon="2.242447">
        <ele>491.569874</ele>
        <time>2020-08-09T07:53:01.152Z</time>
      </trkpt>
      <trkpt lat="41.753198" lon="2.242313">
        <ele>490.754727</ele>
        <time>2020-08-09T07:53:03.154Z</time>
      </trkpt>
      <trkpt lat="41.753105" lon="2.242148">
        <ele>489.709733</ele>
        <time>2020-08-09T07:53:05.153Z</time>
      </trkpt>
      <trkpt lat="41.752997" lon="2.241993">
        <ele>488.637989</ele>
        <time>2020-08-09T07:53:07.155Z</time>
      </trkpt>
      <trkpt lat="41.752913" lon="2.241801">
        <ele>487.513240</ele>
        <time>2020-08-09T07:53:09.160Z</time>
      </trkpt>
      <trkpt lat="41.752842" lon="2.241611">
        <ele>486.439413</ele>
        <time>2020-08-09T07:53:11.155Z</time>
      </trkpt>
      <trkpt lat="41.752734" lon="2.241446">
        <ele>485.330200</ele>
        <time>2020-08-09T07:53:13.156Z</time>
      </trkpt>
      <trkpt lat="41.752620" lon="2.241431">
        <ele>484.554304</ele>
        <time>2020-08-09T07:53:15.137Z</time>
      </trkpt>
      <trkpt lat="41.752571" lon="2.241532">
        <ele>483.945496</ele>
        <time>2020-08-09T07:53:20.150Z</time>
      </trkpt>
      <trkpt lat="41.752547" lon="2.241671">
        <ele>483.224527</ele>
        <time>2020-08-09T07:53:24.143Z</time>
      </trkpt>
      <trkpt lat="41.752567" lon="2.241793">
        <ele>482.593321</ele>
        <time>2020-08-09T07:53:29.155Z</time>
      </trkpt>
      <trkpt lat="41.752588" lon="2.241931">
        <ele>481.881612</ele>
        <time>2020-08-09T07:53:34.141Z</time>
      </trkpt>
      <trkpt lat="41.752569" lon="2.242071">
        <ele>481.162546</ele>
        <time>2020-08-09T07:53:39.149Z</time>
      </trkpt>
      <trkpt lat="41.752566" lon="2.242197">
        <ele>480.525511</ele>
        <time>2020-08-09T07:53:43.172Z</time>
      </trkpt>
      <trkpt lat="41.752536" lon="2.242323">
        <ele>481.033979</ele>
        <time>2020-08-09T07:53:47.155Z</time>
      </trkpt>
      <trkpt lat="41.752468" lon="2.242444">
        <ele>482.809610</ele>
        <time>2020-08-09T07:53:51.169Z</time>
      </trkpt>
      <trkpt lat="41.752404" lon="2.242555">
        <ele>484.453934</ele>
        <time>2020-08-09T07:53:56.147Z</time>
      </trkpt>
      <trkpt lat="41.752391" lon="2.242701">
        <ele>486.177366</ele>
        <time>2020-08-09T07:54:01.150Z</time>
      </trkpt>
      <trkpt lat="41.752371" lon="2.242828">
        <ele>487.698754</ele>
        <time>2020-08-09T07:54:05.159Z</time>
      </trkpt>
      <trkpt lat="41.752324" lon="2.242964">
        <ele>489.455558</ele>
        <time>2020-08-09T07:54:10.153Z</time>
      </trkpt>
      <trkpt lat="41.752277" lon="2.243071">
        <ele>490.910965</ele>
        <time>2020-08-09T07:54:15.140Z</time>
      </trkpt>
      <trkpt lat="41.752218" lon="2.243170">
        <ele>492.396156</ele>
        <time>2020-08-09T07:54:20.149Z</time>
      </trkpt>
      <trkpt lat="41.752170" lon="2.243275">
        <ele>493.839559</ele>
        <time>2020-08-09T07:54:25.154Z</time>
      </trkpt>
      <trkpt lat="41.752132" lon="2.243395">
        <ele>495.367566</ele>
        <time>2020-08-09T07:54:31.144Z</time>
      </trkpt>
      <trkpt lat="41.752102" lon="2.243525">
        <ele>496.962555</ele>
        <time>2020-08-09T07:54:38.140Z</time>
      </trkpt>
      <trkpt lat="41.752041" lon="2.243615">
        <ele>498.387808</ele>
        <time>2020-08-09T07:54:43.144Z</time>
      </trkpt>
      <trkpt lat="41.751968" lon="2.243723">
        <ele>500.096001</ele>
        <time>2020-08-09T07:54:49.152Z</time>
      </trkpt>
      <trkpt lat="41.751924" lon="2.243832">
        <ele>501.548650</ele>
        <time>2020-08-09T07:54:55.165Z</time>
      </trkpt>
      <trkpt lat="41.751879" lon="2.243957">
        <ele>503.175469</ele>
        <time>2020-08-09T07:55:05.165Z</time>
      </trkpt>
      <trkpt lat="41.751895" lon="2.244084">
        <ele>504.685141</ele>
        <time>2020-08-09T07:55:13.156Z</time>
      </trkpt>
      <trkpt lat="41.751856" lon="2.244196">
        <ele>506.133878</ele>
        <time>2020-08-09T07:55:18.164Z</time>
      </trkpt>
      <trkpt lat="41.751869" lon="2.244333">
        <ele>507.752624</ele>
        <time>2020-08-09T07:55:25.155Z</time>
      </trkpt>
      <trkpt lat="41.751850" lon="2.244462">
        <ele>508.464440</ele>
        <time>2020-08-09T07:55:30.180Z</time>
      </trkpt>
      <trkpt lat="41.751818" lon="2.244580">
        <ele>508.453073</ele>
        <time>2020-08-09T07:55:35.155Z</time>
      </trkpt>
      <trkpt lat="41.751775" lon="2.244710">
        <ele>508.440198</ele>
        <time>2020-08-09T07:55:41.197Z</time>
      </trkpt>
      <trkpt lat="41.751730" lon="2.244815">
        <ele>508.429234</ele>
        <time>2020-08-09T07:55:47.156Z</time>
      </trkpt>
      <trkpt lat="41.751661" lon="2.244897">
        <ele>508.418043</ele>
        <time>2020-08-09T07:55:52.167Z</time>
      </trkpt>
      <trkpt lat="41.751571" lon="2.244985">
        <ele>508.404524</ele>
        <time>2020-08-09T07:55:57.156Z</time>
      </trkpt>
      <trkpt lat="41.751494" lon="2.245052">
        <ele>508.393383</ele>
        <time>2020-08-09T07:56:00.165Z</time>
      </trkpt>
      <trkpt lat="41.751437" lon="2.245153">
        <ele>508.381917</ele>
        <time>2020-08-09T07:56:03.172Z</time>
      </trkpt>
      <trkpt lat="41.751392" lon="2.245278">
        <ele>508.369350</ele>
        <time>2020-08-09T07:56:07.155Z</time>
      </trkpt>
      <trkpt lat="41.751375" lon="2.245419">
        <ele>508.356419</ele>
        <time>2020-08-09T07:56:12.162Z</time>
      </trkpt>
      <trkpt lat="41.751369" lon="2.245569">
        <ele>508.342818</ele>
        <time>2020-08-09T07:56:16.157Z</time>
      </trkpt>
      <trkpt lat="41.751376" lon="2.245709">
        <ele>508.330114</ele>
        <time>2020-08-09T07:56:22.169Z</time>
      </trkpt>
      <trkpt lat="41.751388" lon="2.245849">
        <ele>508.317356</ele>
        <time>2020-08-09T07:56:27.158Z</time>
      </trkpt>
      <trkpt lat="41.751411" lon="2.245992">
        <ele>508.304111</ele>
        <time>2020-08-09T07:56:32.165Z</time>
      </trkpt>
      <trkpt lat="41.751412" lon="2.246125">
        <ele>508.292069</ele>
        <time>2020-08-09T07:56:36.171Z</time>
      </trkpt>
      <trkpt lat="41.751422" lon="2.246276">
        <ele>508.278344</ele>
        <time>2020-08-09T07:56:41.137Z</time>
      </trkpt>
      <trkpt lat="41.751434" lon="2.246417">
        <ele>508.265495</ele>
        <time>2020-08-09T07:56:45.153Z</time>
      </trkpt>
      <trkpt lat="41.751411" lon="2.246555">
        <ele>508.252692</ele>
        <time>2020-08-09T07:56:49.159Z</time>
      </trkpt>
      <trkpt lat="41.751394" lon="2.246684">
        <ele>508.011876</ele>
        <time>2020-08-09T07:56:54.127Z</time>
      </trkpt>
      <trkpt lat="41.751367" lon="2.246812">
        <ele>507.763822</ele>
        <time>2020-08-09T07:56:59.164Z</time>
      </trkpt>
      <trkpt lat="41.751315" lon="2.246928">
        <ele>507.511457</ele>
        <time>2020-08-09T07:57:03.154Z</time>
      </trkpt>
      <trkpt lat="41.751240" lon="2.247022">
        <ele>507.254800</ele>
        <time>2020-08-09T07:57:07.158Z</time>
      </trkpt>
      <trkpt lat="41.751151" lon="2.247084">
        <ele>507.004084</ele>
        <time>2020-08-09T07:57:10.141Z</time>
      </trkpt>
      <trkpt lat="41.751061" lon="2.247113">
        <ele>506.772710</ele>
        <time>2020-08-09T07:57:12.146Z</time>
      </trkpt>
      <trkpt lat="41.750957" lon="2.247080">
        <ele>506.505566</ele>
        <time>2020-08-09T07:57:14.157Z</time>
      </trkpt>
      <trkpt lat="41.750836" lon="2.247019">
        <ele>506.182429</ele>
        <time>2020-08-09T07:57:16.145Z</time>
      </trkpt>
      <trkpt lat="41.750682" lon="2.246952">
        <ele>505.777719</ele>
        <time>2020-08-09T07:57:18.157Z</time>
      </trkpt>
      <trkpt lat="41.750597" lon="2.246909">
        <ele>505.550624</ele>
        <time>2020-08-09T07:57:19.163Z</time>
      </trkpt>
      <trkpt lat="41.750509" lon="2.246862">
        <ele>505.313840</ele>
        <time>2020-08-09T07:57:20.152Z</time>
      </trkpt>
      <trkpt lat="41.750418" lon="2.246814">
        <ele>505.069396</ele>
        <time>2020-08-09T07:57:21.159Z</time>
      </trkpt>
      <trkpt lat="41.750325" lon="2.246768">
        <ele>504.821610</ele>
        <time>2020-08-09T07:57:22.165Z</time>
      </trkpt>
      <trkpt lat="41.750231" lon="2.246728">
        <ele>504.575090</ele>
        <time>2020-08-09T07:57:23.164Z</time>
      </trkpt>
      <trkpt lat="41.750131" lon="2.246715">
        <ele>504.323956</ele>
        <time>2020-08-09T07:57:24.154Z</time>
      </trkpt>
      <trkpt lat="41.750034" lon="2.246713">
        <ele>504.081465</ele>
        <time>2020-08-09T07:57:25.145Z</time>
      </trkpt>
      <trkpt lat="41.749939" lon="2.246722">
        <ele>503.843410</ele>
        <time>2020-08-09T07:57:26.147Z</time>
      </trkpt>
      <trkpt lat="41.749843" lon="2.246747">
        <ele>503.884697</ele>
        <time>2020-08-09T07:57:27.152Z</time>
      </trkpt>
      <trkpt lat="41.749753" lon="2.246761">
        <ele>504.068706</ele>
        <time>2020-08-09T07:57:28.149Z</time>
      </trkpt>
      <trkpt lat="41.749661" lon="2.246769">
        <ele>504.255942</ele>
        <time>2020-08-09T07:57:29.154Z</time>
      </trkpt>
      <trkpt lat="41.749485" lon="2.246753">
        <ele>504.614203</ele>
        <time>2020-08-09T07:57:31.144Z</time>
      </trkpt>
      <trkpt lat="41.749328" lon="2.246753">
        <ele>504.933056</ele>
        <time>2020-08-09T07:57:33.156Z</time>
      </trkpt>
      <trkpt lat="41.749196" lon="2.246752">
        <ele>505.201140</ele>
        <time>2020-08-09T07:57:35.153Z</time>
      </trkpt>
      <trkpt lat="41.749092" lon="2.246749">
        <ele>505.412404</ele>
        <time>2020-08-09T07:57:37.161Z</time>
      </trkpt>
      <trkpt lat="41.748998" lon="2.246752">
        <ele>505.603363</ele>
        <time>2020-08-09T07:57:40.144Z</time>
      </trkpt>
      <trkpt lat="41.748883" lon="2.246761">
        <ele>505.837315</ele>
        <time>2020-08-09T07:57:44.160Z</time>
      </trkpt>
      <trkpt lat="41.748773" lon="2.246763">
        <ele>506.060736</ele>
        <time>2020-08-09T07:57:49.154Z</time>
      </trkpt>
      <trkpt lat="41.748664" lon="2.246760">
        <ele>506.282152</ele>
        <time>2020-08-09T07:57:54.149Z</time>
      </trkpt>
      <trkpt lat="41.748569" lon="2.246784">
        <ele>506.478485</ele>
        <time>2020-08-09T07:57:59.154Z</time>
      </trkpt>
      <trkpt lat="41.748598" lon="2.246920">
        <ele>506.692805</ele>
        <time>2020-08-09T07:58:33.164Z</time>
      </trkpt>
      <trkpt lat="41.748665" lon="2.247001">
        <ele>506.876049</ele>
        <time>2020-08-09T07:58:43.161Z</time>
      </trkpt>
      <trkpt lat="41.748782" lon="2.246886">
        <ele>507.170708</ele>
        <time>2020-08-09T07:59:23.171Z</time>
      </trkpt>
      <trkpt lat="41.748816" lon="2.246739">
        <ele>507.403901</ele>
        <time>2020-08-09T07:59:27.171Z</time>
      </trkpt>
      <trkpt lat="41.748933" lon="2.246713">
        <ele>507.696156</ele>
        <time>2020-08-09T07:59:31.159Z</time>
      </trkpt>
      <trkpt lat="41.749058" lon="2.246755">
        <ele>508.015047</ele>
        <time>2020-08-09T07:59:34.174Z</time>
      </trkpt>
      <trkpt lat="41.749162" lon="2.246744">
        <ele>508.273201</ele>
        <time>2020-08-09T07:59:36.161Z</time>
      </trkpt>
      <trkpt lat="41.749286" lon="2.246761">
        <ele>508.581648</ele>
        <time>2020-08-09T07:59:38.151Z</time>
      </trkpt>
      <trkpt lat="41.749414" lon="2.246772">
        <ele>508.899042</ele>
        <time>2020-08-09T07:59:40.155Z</time>
      </trkpt>
      <trkpt lat="41.749540" lon="2.246790">
        <ele>509.212603</ele>
        <time>2020-08-09T07:59:42.166Z</time>
      </trkpt>
      <trkpt lat="41.749655" lon="2.246804">
        <ele>509.498349</ele>
        <time>2020-08-09T07:59:44.129Z</time>
      </trkpt>
      <trkpt lat="41.749757" lon="2.246794">
        <ele>509.751428</ele>
        <time>2020-08-09T07:59:46.151Z</time>
      </trkpt>
      <trkpt lat="41.749848" lon="2.246775">
        <ele>509.979329</ele>
        <time>2020-08-09T07:59:48.161Z</time>
      </trkpt>
      <trkpt lat="41.749972" lon="2.246741">
        <ele>510.292529</ele>
        <time>2020-08-09T07:59:51.135Z</time>
      </trkpt>
      <trkpt lat="41.750087" lon="2.246720">
        <ele>510.579732</ele>
        <time>2020-08-09T07:59:54.153Z</time>
      </trkpt>
      <trkpt lat="41.750190" lon="2.246724">
        <ele>510.834719</ele>
        <time>2020-08-09T07:59:57.158Z</time>
      </trkpt>
      <trkpt lat="41.750290" lon="2.246751">
        <ele>511.087146</ele>
        <time>2020-08-09T08:00:00.155Z</time>
      </trkpt>
      <trkpt lat="41.750377" lon="2.246787">
        <ele>511.312458</ele>
        <time>2020-08-09T08:00:03.144Z</time>
      </trkpt>
      <trkpt lat="41.750484" lon="2.246837">
        <ele>511.592865</ele>
        <time>2020-08-09T08:00:07.154Z</time>
      </trkpt>
      <trkpt lat="41.750574" lon="2.246897">
        <ele>511.841602</ele>
        <time>2020-08-09T08:00:11.160Z</time>
      </trkpt>
      <trkpt lat="41.750662" lon="2.246943">
        <ele>512.709031</ele>
        <time>2020-08-09T08:00:15.152Z</time>
      </trkpt>
      <trkpt lat="41.750759" lon="2.246993">
        <ele>513.724211</ele>
        <time>2020-08-09T08:00:20.150Z</time>
      </trkpt>
      <trkpt lat="41.750848" lon="2.247047">
        <ele>514.678516</ele>
        <time>2020-08-09T08:00:25.165Z</time>
      </trkpt>
      <trkpt lat="41.750936" lon="2.247075">
        <ele>515.562019</ele>
        <time>2020-08-09T08:00:30.149Z</time>
      </trkpt>
      <trkpt lat="41.751043" lon="2.247107">
        <ele>516.632933</ele>
        <time>2020-08-09T08:00:36.149Z</time>
      </trkpt>
      <trkpt lat="41.751142" lon="2.247099">
        <ele>517.601756</ele>
        <time>2020-08-09T08:00:41.150Z</time>
      </trkpt>
      <trkpt lat="41.751120" lon="2.246973">
        <ele>518.544810</ele>
        <time>2020-08-09T08:00:48.140Z</time>
      </trkpt>
      <trkpt lat="41.751045" lon="2.246898">
        <ele>519.458858</ele>
        <time>2020-08-09T08:00:54.134Z</time>
      </trkpt>
      <trkpt lat="41.750997" lon="2.246780">
        <ele>520.438322</ele>
        <time>2020-08-09T08:01:02.153Z</time>
      </trkpt>
      <trkpt lat="41.750931" lon="2.246695">
        <ele>521.332398</ele>
        <time>2020-08-09T08:01:08.160Z</time>
      </trkpt>
      <trkpt lat="41.750882" lon="2.246592">
        <ele>522.222650</ele>
        <time>2020-08-09T08:01:14.146Z</time>
      </trkpt>
      <trkpt lat="41.750749" lon="2.246420">
        <ele>524.027949</ele>
        <time>2020-08-09T08:01:47.147Z</time>
      </trkpt>
      <trkpt lat="41.750698" lon="2.246317">
        <ele>524.928858</ele>
        <time>2020-08-09T08:01:52.189Z</time>
      </trkpt>
      <trkpt lat="41.750646" lon="2.246218">
        <ele>525.811214</ele>
        <time>2020-08-09T08:01:56.164Z</time>
      </trkpt>
      <trkpt lat="41.750550" lon="2.246125">
        <ele>526.968257</ele>
        <time>2020-08-09T08:02:00.135Z</time>
      </trkpt>
      <trkpt lat="41.750467" lon="2.246035">
        <ele>528.011114</ele>
        <time>2020-08-09T08:02:04.152Z</time>
      </trkpt>
      <trkpt lat="41.750378" lon="2.245961">
        <ele>529.034179</ele>
        <time>2020-08-09T08:02:09.162Z</time>
      </trkpt>
      <trkpt lat="41.750286" lon="2.245879">
        <ele>530.052697</ele>
        <time>2020-08-09T08:02:14.163Z</time>
      </trkpt>
      <trkpt lat="41.750211" lon="2.245807">
        <ele>530.873763</ele>
        <time>2020-08-09T08:02:18.133Z</time>
      </trkpt>
      <trkpt lat="41.750110" lon="2.245739">
        <ele>531.879717</ele>
        <time>2020-08-09T08:02:23.162Z</time>
      </trkpt>
      <trkpt lat="41.750020" lon="2.245683">
        <ele>532.762841</ele>
        <time>2020-08-09T08:02:28.154Z</time>
      </trkpt>
      <trkpt lat="41.749930" lon="2.245626">
        <ele>533.648782</ele>
        <time>2020-08-09T08:02:35.168Z</time>
      </trkpt>
      <trkpt lat="41.749836" lon="2.245588">
        <ele>534.522629</ele>
        <time>2020-08-09T08:02:42.169Z</time>
      </trkpt>
      <trkpt lat="41.749754" lon="2.245512">
        <ele>535.409934</ele>
        <time>2020-08-09T08:02:48.179Z</time>
      </trkpt>
      <trkpt lat="41.749669" lon="2.245457">
        <ele>536.249995</ele>
        <time>2020-08-09T08:02:53.157Z</time>
      </trkpt>
      <trkpt lat="41.749557" lon="2.245481">
        <ele>537.259483</ele>
        <time>2020-08-09T08:02:58.160Z</time>
      </trkpt>
      <trkpt lat="41.749454" lon="2.245483">
        <ele>538.176306</ele>
        <time>2020-08-09T08:03:03.205Z</time>
      </trkpt>
      <trkpt lat="41.749362" lon="2.245470">
        <ele>538.999668</ele>
        <time>2020-08-09T08:03:08.163Z</time>
      </trkpt>
      <trkpt lat="41.749271" lon="2.245427">
        <ele>539.858447</ele>
        <time>2020-08-09T08:03:14.157Z</time>
      </trkpt>
      <trkpt lat="41.749186" lon="2.245354">
        <ele>540.756942</ele>
        <time>2020-08-09T08:03:21.146Z</time>
      </trkpt>
      <trkpt lat="41.749116" lon="2.245274">
        <ele>541.575686</ele>
        <time>2020-08-09T08:03:27.169Z</time>
      </trkpt>
      <trkpt lat="41.749058" lon="2.245174">
        <ele>542.416757</ele>
        <time>2020-08-09T08:03:33.152Z</time>
      </trkpt>
      <trkpt lat="41.748982" lon="2.245100">
        <ele>543.252816</ele>
        <time>2020-08-09T08:03:40.158Z</time>
      </trkpt>
      <trkpt lat="41.748892" lon="2.245035">
        <ele>544.162722</ele>
        <time>2020-08-09T08:03:47.153Z</time>
      </trkpt>
      <trkpt lat="41.748792" lon="2.244978">
        <ele>545.129884</ele>
        <time>2020-08-09T08:03:54.163Z</time>
      </trkpt>
      <trkpt lat="41.748703" lon="2.244905">
        <ele>545.270102</ele>
        <time>2020-08-09T08:04:00.158Z</time>
      </trkpt>
      <trkpt lat="41.748642" lon="2.244811">
        <ele>545.045375</ele>
        <time>2020-08-09T08:04:04.174Z</time>
      </trkpt>
      <trkpt lat="41.748579" lon="2.244717">
        <ele>544.817444</ele>
        <time>2020-08-09T08:04:08.151Z</time>
      </trkpt>
      <trkpt lat="41.748503" lon="2.244611">
        <ele>544.552257</ele>
        <time>2020-08-09T08:04:12.160Z</time>
      </trkpt>
      <trkpt lat="41.748415" lon="2.244508">
        <ele>544.269788</ele>
        <time>2020-08-09T08:04:15.164Z</time>
      </trkpt>
      <trkpt lat="41.748311" lon="2.244394">
        <ele>543.944959</ele>
        <time>2020-08-09T08:04:18.167Z</time>
      </trkpt>
      <trkpt lat="41.748195" lon="2.244307">
        <ele>543.623575</ele>
        <time>2020-08-09T08:04:21.154Z</time>
      </trkpt>
      <trkpt lat="41.748104" lon="2.244195">
        <ele>543.324871</ele>
        <time>2020-08-09T08:04:24.156Z</time>
      </trkpt>
      <trkpt lat="41.748010" lon="2.244093">
        <ele>543.032457</ele>
        <time>2020-08-09T08:04:27.150Z</time>
      </trkpt>
      <trkpt lat="41.747925" lon="2.244002">
        <ele>542.769436</ele>
        <time>2020-08-09T08:04:30.151Z</time>
      </trkpt>
      <trkpt lat="41.747831" lon="2.243917">
        <ele>542.495280</ele>
        <time>2020-08-09T08:04:33.152Z</time>
      </trkpt>
      <trkpt lat="41.747751" lon="2.243861">
        <ele>542.277068</ele>
        <time>2020-08-09T08:04:36.155Z</time>
      </trkpt>
      <trkpt lat="41.747681" lon="2.243755">
        <ele>542.021716</ele>
        <time>2020-08-09T08:04:40.155Z</time>
      </trkpt>
      <trkpt lat="41.747566" lon="2.243710">
        <ele>541.732065</ele>
        <time>2020-08-09T08:04:42.147Z</time>
      </trkpt>
      <trkpt lat="41.747441" lon="2.243691">
        <ele>541.427906</ele>
        <time>2020-08-09T08:04:45.146Z</time>
      </trkpt>
      <trkpt lat="41.747317" lon="2.243658">
        <ele>541.122249</ele>
        <time>2020-08-09T08:04:48.140Z</time>
      </trkpt>
      <trkpt lat="41.747196" lon="2.243653">
        <ele>541.994487</ele>
        <time>2020-08-09T08:04:51.154Z</time>
      </trkpt>
      <trkpt lat="41.747089" lon="2.243632">
        <ele>542.903340</ele>
        <time>2020-08-09T08:04:55.152Z</time>
      </trkpt>
      <trkpt lat="41.746988" lon="2.243605">
        <ele>543.768896</ele>
        <time>2020-08-09T08:05:01.149Z</time>
      </trkpt>
      <trkpt lat="41.746895" lon="2.243549">
        <ele>544.625753</ele>
        <time>2020-08-09T08:05:07.156Z</time>
      </trkpt>
      <trkpt lat="41.746792" lon="2.243517">
        <ele>545.514350</ele>
        <time>2020-08-09T08:05:13.157Z</time>
      </trkpt>
      <trkpt lat="41.746697" lon="2.243485">
        <ele>546.337590</ele>
        <time>2020-08-09T08:05:19.136Z</time>
      </trkpt>
      <trkpt lat="41.746597" lon="2.243483">
        <ele>547.178116</ele>
        <time>2020-08-09T08:05:25.143Z</time>
      </trkpt>
      <trkpt lat="41.746500" lon="2.243476">
        <ele>547.994517</ele>
        <time>2020-08-09T08:05:31.152Z</time>
      </trkpt>
      <trkpt lat="41.746403" lon="2.243427">
        <ele>548.865716</ele>
        <time>2020-08-09T08:05:37.147Z</time>
      </trkpt>
      <trkpt lat="41.746303" lon="2.243382">
        <ele>549.752253</ele>
        <time>2020-08-09T08:05:44.162Z</time>
      </trkpt>
      <trkpt lat="41.746214" lon="2.243310">
        <ele>550.625930</ele>
        <time>2020-08-09T08:05:50.156Z</time>
      </trkpt>
      <trkpt lat="41.746144" lon="2.243233">
        <ele>551.386997</ele>
        <time>2020-08-09T08:05:54.155Z</time>
      </trkpt>
      <trkpt lat="41.746073" lon="2.243116">
        <ele>552.332670</ele>
        <time>2020-08-09T08:05:58.156Z</time>
      </trkpt>
      <trkpt lat="41.746012" lon="2.242981">
        <ele>553.322325</ele>
        <time>2020-08-09T08:06:01.162Z</time>
      </trkpt>
      <trkpt lat="41.745957" lon="2.242870">
        <ele>554.157859</ele>
        <time>2020-08-09T08:06:05.147Z</time>
      </trkpt>
      <trkpt lat="41.745881" lon="2.242758">
        <ele>555.107172</ele>
        <time>2020-08-09T08:06:10.154Z</time>
      </trkpt>
      <trkpt lat="41.745820" lon="2.242642">
        <ele>555.997063</ele>
        <time>2020-08-09T08:06:16.157Z</time>
      </trkpt>
      <trkpt lat="41.745778" lon="2.242535">
        <ele>556.585759</ele>
        <time>2020-08-09T08:06:22.158Z</time>
      </trkpt>
      <trkpt lat="41.745741" lon="2.242413">
        <ele>557.156681</ele>
        <time>2020-08-09T08:06:29.149Z</time>
      </trkpt>
      <trkpt lat="41.745678" lon="2.242319">
        <ele>557.704462</ele>
        <time>2020-08-09T08:06:35.157Z</time>
      </trkpt>
      <trkpt lat="41.745607" lon="2.242240">
        <ele>558.240640</ele>
        <time>2020-08-09T08:06:40.144Z</time>
      </trkpt>
      <trkpt lat="41.745512" lon="2.242192">
        <ele>558.830554</ele>
        <time>2020-08-09T08:06:46.131Z</time>
      </trkpt>
      <trkpt lat="41.745405" lon="2.242231">
        <ele>559.474853</ele>
        <time>2020-08-09T08:07:16.137Z</time>
      </trkpt>
      <trkpt lat="41.745313" lon="2.242216">
        <ele>560.013356</ele>
        <time>2020-08-09T08:07:21.155Z</time>
      </trkpt>
      <trkpt lat="41.745220" lon="2.242252">
        <ele>560.575815</ele>
        <time>2020-08-09T08:07:26.173Z</time>
      </trkpt>
      <trkpt lat="41.745128" lon="2.242277">
        <ele>561.121254</ele>
        <time>2020-08-09T08:07:31.151Z</time>
      </trkpt>
      <trkpt lat="41.745026" lon="2.242295">
        <ele>561.719037</ele>
        <time>2020-08-09T08:07:37.154Z</time>
      </trkpt>
      <trkpt lat="41.744928" lon="2.242289">
        <ele>562.289055</ele>
        <time>2020-08-09T08:07:42.146Z</time>
      </trkpt>
      <trkpt lat="41.744817" lon="2.242258">
        <ele>562.947870</ele>
        <time>2020-08-09T08:07:47.155Z</time>
      </trkpt>
      <trkpt lat="41.744716" lon="2.242200">
        <ele>563.586326</ele>
        <time>2020-08-09T08:07:52.154Z</time>
      </trkpt>
      <trkpt lat="41.744624" lon="2.242138">
        <ele>564.184661</ele>
        <time>2020-08-09T08:07:58.158Z</time>
      </trkpt>
      <trkpt lat="41.744561" lon="2.242042">
        <ele>564.738928</ele>
        <time>2020-08-09T08:08:04.136Z</time>
      </trkpt>
      <trkpt lat="41.744491" lon="2.241948">
        <ele>565.314691</ele>
        <time>2020-08-09T08:08:10.152Z</time>
      </trkpt>
      <trkpt lat="41.744392" lon="2.241930">
        <ele>565.895195</ele>
        <time>2020-08-09T08:08:16.143Z</time>
      </trkpt>
      <trkpt lat="41.744293" lon="2.241898">
        <ele>566.486923</ele>
        <time>2020-08-09T08:08:21.158Z</time>
      </trkpt>
      <trkpt lat="41.744184" lon="2.241878">
        <ele>566.544699</ele>
        <time>2020-08-09T08:08:26.168Z</time>
      </trkpt>
      <trkpt lat="41.744091" lon="2.241885">
        <ele>566.414932</ele>
        <time>2020-08-09T08:08:30.148Z</time>
      </trkpt>
      <trkpt lat="41.743989" lon="2.241903">
        <ele>566.271604</ele>
        <time>2020-08-09T08:08:34.149Z</time>
      </trkpt>
      <trkpt lat="41.743891" lon="2.241927">
        <ele>566.132815</ele>
        <time>2020-08-09T08:08:37.148Z</time>
      </trkpt>
      <trkpt lat="41.743777" lon="2.242003">
        <ele>565.955433</ele>
        <time>2020-08-09T08:08:40.153Z</time>
      </trkpt>
      <trkpt lat="41.743660" lon="2.242032">
        <ele>565.789671</ele>
        <time>2020-08-09T08:08:43.156Z</time>
      </trkpt>
      <trkpt lat="41.743564" lon="2.241998">
        <ele>565.651337</ele>
        <time>2020-08-09T08:08:46.149Z</time>
      </trkpt>
      <trkpt lat="41.743449" lon="2.241930">
        <ele>565.476225</ele>
        <time>2020-08-09T08:08:49.159Z</time>
      </trkpt>
      <trkpt lat="41.743353" lon="2.241869">
        <ele>565.328213</ele>
        <time>2020-08-09T08:08:52.158Z</time>
      </trkpt>
      <trkpt lat="41.743284" lon="2.241790">
        <ele>565.201786</ele>
        <time>2020-08-09T08:08:55.147Z</time>
      </trkpt>
      <trkpt lat="41.743242" lon="2.241665">
        <ele>565.059284</ele>
        <time>2020-08-09T08:08:59.170Z</time>
      </trkpt>
      <trkpt lat="41.743303" lon="2.241768">
        <ele>564.922591</ele>
        <time>2020-08-09T08:09:20.143Z</time>
      </trkpt>
      <trkpt lat="41.743357" lon="2.241889">
        <ele>564.776032</ele>
        <time>2020-08-09T08:09:24.158Z</time>
      </trkpt>
      <trkpt lat="41.743435" lon="2.241950">
        <ele>564.650220</ele>
        <time>2020-08-09T08:09:27.151Z</time>
      </trkpt>
      <trkpt lat="41.743504" lon="2.242045">
        <ele>564.512408</ele>
        <time>2020-08-09T08:09:31.150Z</time>
      </trkpt>
      <trkpt lat="41.743554" lon="2.242154">
        <ele>564.379406</ele>
        <time>2020-08-09T08:09:57.134Z</time>
      </trkpt>
      <trkpt lat="41.743619" lon="2.242242">
        <ele>564.250691</ele>
        <time>2020-08-09T08:10:04.159Z</time>
      </trkpt>
      <trkpt lat="41.743552" lon="2.242325">
        <ele>564.069050</ele>
        <time>2020-08-09T08:10:13.162Z</time>
      </trkpt>
      <trkpt lat="41.743453" lon="2.242278">
        <ele>563.635615</ele>
        <time>2020-08-09T08:10:25.157Z</time>
      </trkpt>
      <trkpt lat="41.743363" lon="2.242173">
        <ele>563.143189</ele>
        <time>2020-08-09T08:10:29.153Z</time>
      </trkpt>
      <trkpt lat="41.743281" lon="2.242057">
        <ele>562.651153</ele>
        <time>2020-08-09T08:10:32.167Z</time>
      </trkpt>
      <trkpt lat="41.743195" lon="2.241980">
        <ele>562.224331</ele>
        <time>2020-08-09T08:10:35.155Z</time>
      </trkpt>
      <trkpt lat="41.743073" lon="2.241959">
        <ele>561.716718</ele>
        <time>2020-08-09T08:10:38.170Z</time>
      </trkpt>
      <trkpt lat="41.743050" lon="2.242090">
        <ele>561.302325</ele>
        <time>2020-08-09T08:10:43.127Z</time>
      </trkpt>
      <trkpt lat="41.743071" lon="2.242238">
        <ele>560.838434</ele>
        <time>2020-08-09T08:10:48.160Z</time>
      </trkpt>
      <trkpt lat="41.743070" lon="2.242360">
        <ele>560.462748</ele>
        <time>2020-08-09T08:10:51.153Z</time>
      </trkpt>
      <trkpt lat="41.743036" lon="2.242482">
        <ele>560.061736</ele>
        <time>2020-08-09T08:11:14.141Z</time>
      </trkpt>
      <trkpt lat="41.743025" lon="2.242603">
        <ele>559.686396</ele>
        <time>2020-08-09T08:11:21.157Z</time>
      </trkpt>
      <trkpt lat="41.742985" lon="2.242721">
        <ele>559.287308</ele>
        <time>2020-08-09T08:11:31.148Z</time>
      </trkpt>
      <trkpt lat="41.742955" lon="2.242859">
        <ele>558.844708</ele>
        <time>2020-08-09T08:11:36.145Z</time>
      </trkpt>
      <trkpt lat="41.742946" lon="2.242990">
        <ele>558.439625</ele>
        <time>2020-08-09T08:11:40.168Z</time>
      </trkpt>
      <trkpt lat="41.742929" lon="2.243108">
        <ele>558.069566</ele>
        <time>2020-08-09T08:11:44.151Z</time>
      </trkpt>
      <trkpt lat="41.742911" lon="2.243246">
        <ele>557.638190</ele>
        <time>2020-08-09T08:11:48.131Z</time>
      </trkpt>
      <trkpt lat="41.742894" lon="2.243380">
        <ele>557.219653</ele>
        <time>2020-08-09T08:11:53.149Z</time>
      </trkpt>
      <trkpt lat="41.742912" lon="2.243501">
        <ele>556.839735</ele>
        <time>2020-08-09T08:11:58.135Z</time>
      </trkpt>
      <trkpt lat="41.742879" lon="2.243645">
        <ele>556.903014</ele>
        <time>2020-08-09T08:12:03.141Z</time>
      </trkpt>
      <trkpt lat="41.742814" lon="2.243744">
        <ele>557.103773</ele>
        <time>2020-08-09T08:12:07.152Z</time>
      </trkpt>
      <trkpt lat="41.742743" lon="2.243874">
        <ele>557.349037</ele>
        <time>2020-08-09T08:12:11.154Z</time>
      </trkpt>
      <trkpt lat="41.742683" lon="2.244016">
        <ele>557.597472</ele>
        <time>2020-08-09T08:12:15.137Z</time>
      </trkpt>
      <trkpt lat="41.742629" lon="2.244132">
        <ele>557.805621</ele>
        <time>2020-08-09T08:12:18.157Z</time>
      </trkpt>
      <trkpt lat="41.742561" lon="2.244245">
        <ele>558.026629</ele>
        <time>2020-08-09T08:12:21.133Z</time>
      </trkpt>
      <trkpt lat="41.742493" lon="2.244350">
        <ele>558.238294</ele>
        <time>2020-08-09T08:12:24.154Z</time>
      </trkpt>
      <trkpt lat="41.742407" lon="2.244465">
        <ele>558.486167</ele>
        <time>2020-08-09T08:12:28.158Z</time>
      </trkpt>
      <trkpt lat="41.742326" lon="2.244537">
        <ele>558.684481</ele>
        <time>2020-08-09T08:12:31.151Z</time>
      </trkpt>
      <trkpt lat="41.742229" lon="2.244633">
        <ele>558.930509</ele>
        <time>2020-08-09T08:12:35.141Z</time>
      </trkpt>
      <trkpt lat="41.742136" lon="2.244729">
        <ele>559.170021</ele>
        <time>2020-08-09T08:12:38.137Z</time>
      </trkpt>
      <trkpt lat="41.742119" lon="2.244854">
        <ele>559.363457</ele>
        <time>2020-08-09T08:12:41.149Z</time>
      </trkpt>
      <trkpt lat="41.742214" lon="2.244951">
        <ele>559.607134</ele>
        <time>2020-08-09T08:12:44.149Z</time>
      </trkpt>
      <trkpt lat="41.742305" lon="2.244973">
        <ele>559.795802</ele>
        <time>2020-08-09T08:12:46.155Z</time>
      </trkpt>
      <trkpt lat="41.742403" lon="2.244993">
        <ele>559.998062</ele>
        <time>2020-08-09T08:12:49.153Z</time>
      </trkpt>
      <trkpt lat="41.742495" lon="2.245087">
        <ele>560.234102</ele>
        <time>2020-08-09T08:12:53.152Z</time>
      </trkpt>
      <trkpt lat="41.742571" lon="2.245171">
        <ele>560.313374</ele>
        <time>2020-08-09T08:12:56.148Z</time>
      </trkpt>
      <trkpt lat="41.742683" lon="2.245151">
        <ele>559.777604</ele>
        <time>2020-08-09T08:13:00.161Z</time>
      </trkpt>
      <trkpt lat="41.742787" lon="2.245051">
        <ele>559.170672</ele>
        <time>2020-08-09T08:13:04.162Z</time>
      </trkpt>
      <trkpt lat="41.742901" lon="2.245060">
        <ele>558.629175</ele>
        <time>2020-08-09T08:13:06.158Z</time>
      </trkpt>
      <trkpt lat="41.742997" lon="2.245089">
        <ele>558.162547</ele>
        <time>2020-08-09T08:13:08.150Z</time>
      </trkpt>
      <trkpt lat="41.743125" lon="2.245104">
        <ele>557.553286</ele>
        <time>2020-08-09T08:13:11.149Z</time>
      </trkpt>
      <trkpt lat="41.743237" lon="2.245136">
        <ele>557.010276</ele>
        <time>2020-08-09T08:13:14.153Z</time>
      </trkpt>
      <trkpt lat="41.743340" lon="2.245171">
        <ele>556.506421</ele>
        <time>2020-08-09T08:13:16.147Z</time>
      </trkpt>
      <trkpt lat="41.743444" lon="2.245267">
        <ele>555.907631</ele>
        <time>2020-08-09T08:13:19.159Z</time>
      </trkpt>
      <trkpt lat="41.743545" lon="2.245360">
        <ele>555.326577</ele>
        <time>2020-08-09T08:13:21.156Z</time>
      </trkpt>
      <trkpt lat="41.743628" lon="2.245452">
        <ele>554.815852</ele>
        <time>2020-08-09T08:13:23.159Z</time>
      </trkpt>
      <trkpt lat="41.743714" lon="2.245554">
        <ele>554.271313</ele>
        <time>2020-08-09T08:13:27.154Z</time>
      </trkpt>
      <trkpt lat="41.743728" lon="2.245678">
        <ele>553.827611</ele>
        <time>2020-08-09T08:13:31.154Z</time>
      </trkpt>
      <trkpt lat="41.743752" lon="2.245811">
        <ele>553.343495</ele>
        <time>2020-08-09T08:13:55.151Z</time>
      </trkpt>
      <trkpt lat="41.743838" lon="2.245855">
        <ele>552.907001</ele>
        <time>2020-08-09T08:14:05.148Z</time>
      </trkpt>
      <trkpt lat="41.743939" lon="2.245923">
        <ele>552.371053</ele>
        <time>2020-08-09T08:14:09.156Z</time>
      </trkpt>
      <trkpt lat="41.744005" lon="2.246009">
        <ele>551.934569</ele>
        <time>2020-08-09T08:14:13.153Z</time>
      </trkpt>
      <trkpt lat="41.744071" lon="2.246124">
        <ele>552.641237</ele>
        <time>2020-08-09T08:14:18.137Z</time>
      </trkpt>
      <trkpt lat="41.744085" lon="2.246263">
        <ele>553.494866</ele>
        <time>2020-08-09T08:14:24.151Z</time>
      </trkpt>
      <trkpt lat="41.744130" lon="2.246383">
        <ele>554.312239</ele>
        <time>2020-08-09T08:14:32.143Z</time>
      </trkpt>
      <trkpt lat="41.744165" lon="2.246509">
        <ele>555.130495</ele>
        <time>2020-08-09T08:14:38.154Z</time>
      </trkpt>
      <trkpt lat="41.744222" lon="2.246611">
        <ele>555.906076</ele>
        <time>2020-08-09T08:14:44.131Z</time>
      </trkpt>
      <trkpt lat="41.744260" lon="2.246738">
        <ele>556.738832</ele>
        <time>2020-08-09T08:14:50.164Z</time>
      </trkpt>
      <trkpt lat="41.744219" lon="2.246604">
        <ele>557.620264</ele>
        <time>2020-08-09T08:15:22.146Z</time>
      </trkpt>
      <trkpt lat="41.744189" lon="2.246475">
        <ele>558.442610</ele>
        <time>2020-08-09T08:15:26.156Z</time>
      </trkpt>
      <trkpt lat="41.744146" lon="2.246320">
        <ele>559.449036</ele>
        <time>2020-08-09T08:15:30.152Z</time>
      </trkpt>
      <trkpt lat="41.744113" lon="2.246172">
        <ele>560.389126</ele>
        <time>2020-08-09T08:15:33.151Z</time>
      </trkpt>
      <trkpt lat="41.744044" lon="2.246045">
        <ele>561.345252</ele>
        <time>2020-08-09T08:15:36.152Z</time>
      </trkpt>
      <trkpt lat="41.743960" lon="2.245922">
        <ele>562.360059</ele>
        <time>2020-08-09T08:15:39.152Z</time>
      </trkpt>
      <trkpt lat="41.743869" lon="2.245895">
        <ele>563.120301</ele>
        <time>2020-08-09T08:15:41.155Z</time>
      </trkpt>
      <trkpt lat="41.743809" lon="2.245802">
        <ele>563.868551</ele>
        <time>2020-08-09T08:15:47.141Z</time>
      </trkpt>
      <trkpt lat="41.743809" lon="2.245666">
        <ele>564.696252</ele>
        <time>2020-08-09T08:16:02.156Z</time>
      </trkpt>
      <trkpt lat="41.743749" lon="2.245563">
        <ele>565.491537</ele>
        <time>2020-08-09T08:16:14.156Z</time>
      </trkpt>
      <trkpt lat="41.743678" lon="2.245471">
        <ele>566.297082</ele>
        <time>2020-08-09T08:16:24.184Z</time>
      </trkpt>
      <trkpt lat="41.743587" lon="2.245404">
        <ele>566.979956</ele>
        <time>2020-08-09T08:16:31.156Z</time>
      </trkpt>
      <trkpt lat="41.743506" lon="2.245321">
        <ele>567.585421</ele>
        <time>2020-08-09T08:16:40.148Z</time>
      </trkpt>
      <trkpt lat="41.743417" lon="2.245287">
        <ele>568.134968</ele>
        <time>2020-08-09T08:16:47.153Z</time>
      </trkpt>
      <trkpt lat="41.743331" lon="2.245247">
        <ele>568.675528</ele>
        <time>2020-08-09T08:16:54.154Z</time>
      </trkpt>
      <trkpt lat="41.743237" lon="2.245197">
        <ele>569.276070</ele>
        <time>2020-08-09T08:17:02.164Z</time>
      </trkpt>
      <trkpt lat="41.743143" lon="2.245161">
        <ele>569.856599</ele>
        <time>2020-08-09T08:17:12.176Z</time>
      </trkpt>
      <trkpt lat="41.743038" lon="2.245159">
        <ele>570.480169</ele>
        <time>2020-08-09T08:17:32.165Z</time>
      </trkpt>
      <trkpt lat="41.742956" lon="2.245106">
        <ele>571.020765</ele>
        <time>2020-08-09T08:17:37.157Z</time>
      </trkpt>
      <trkpt lat="41.742867" lon="2.245089">
        <ele>571.554602</ele>
        <time>2020-08-09T08:17:41.165Z</time>
      </trkpt>
      <trkpt lat="41.742761" lon="2.245129">
        <ele>572.208521</ele>
        <time>2020-08-09T08:17:48.151Z</time>
      </trkpt>
      <trkpt lat="41.742698" lon="2.245222">
        <ele>572.765068</ele>
        <time>2020-08-09T08:17:54.150Z</time>
      </trkpt>
      <trkpt lat="41.742615" lon="2.245279">
        <ele>573.318873</ele>
        <time>2020-08-09T08:17:58.141Z</time>
      </trkpt>
      <trkpt lat="41.742537" lon="2.245214">
        <ele>573.864285</ele>
        <time>2020-08-09T08:18:02.153Z</time>
      </trkpt>
      <trkpt lat="41.742495" lon="2.245107">
        <ele>574.399973</ele>
        <time>2020-08-09T08:18:06.149Z</time>
      </trkpt>
      <trkpt lat="41.742419" lon="2.245033">
        <ele>574.957802</ele>
        <time>2020-08-09T08:18:12.165Z</time>
      </trkpt>
      <trkpt lat="41.742314" lon="2.244976">
        <ele>575.630515</ele>
        <time>2020-08-09T08:18:17.153Z</time>
      </trkpt>
      <trkpt lat="41.742224" lon="2.244906">
        <ele>576.248427</ele>
        <time>2020-08-09T08:18:22.167Z</time>
      </trkpt>
      <trkpt lat="41.742224" lon="2.244768">
        <ele>576.859869</ele>
        <time>2020-08-09T08:18:28.152Z</time>
      </trkpt>
      <trkpt lat="41.742301" lon="2.244691">
        <ele>577.622271</ele>
        <time>2020-08-09T08:18:34.150Z</time>
      </trkpt>
      <trkpt lat="41.742200" lon="2.244697">
        <ele>578.774446</ele>
        <time>2020-08-09T08:18:41.142Z</time>
      </trkpt>
      <trkpt lat="41.742112" lon="2.244755">
        <ele>579.892049</ele>
        <time>2020-08-09T08:18:46.149Z</time>
      </trkpt>
      <trkpt lat="41.742100" lon="2.244882">
        <ele>580.980615</ele>
        <time>2020-08-09T08:18:50.150Z</time>
      </trkpt>
      <trkpt lat="41.742150" lon="2.244988">
        <ele>582.046993</ele>
        <time>2020-08-09T08:18:56.129Z</time>
      </trkpt>
      <trkpt lat="41.742207" lon="2.245101">
        <ele>583.206861</ele>
        <time>2020-08-09T08:19:03.145Z</time>
      </trkpt>
      <trkpt lat="41.742249" lon="2.245228">
        <ele>584.388121</ele>
        <time>2020-08-09T08:19:09.131Z</time>
      </trkpt>
      <trkpt lat="41.742299" lon="2.245352">
        <ele>585.586670</ele>
        <time>2020-08-09T08:19:14.154Z</time>
      </trkpt>
      <trkpt lat="41.742346" lon="2.245458">
        <ele>586.635175</ele>
        <time>2020-08-09T08:19:19.169Z</time>
      </trkpt>
      <trkpt lat="41.742392" lon="2.245570">
        <ele>587.722310</ele>
        <time>2020-08-09T08:19:26.150Z</time>
      </trkpt>
      <trkpt lat="41.742422" lon="2.245692">
        <ele>588.814615</ele>
        <time>2020-08-09T08:19:34.154Z</time>
      </trkpt>
      <trkpt lat="41.742398" lon="2.245810">
        <ele>589.854631</ele>
        <time>2020-08-09T08:19:40.158Z</time>
      </trkpt>
      <trkpt lat="41.742384" lon="2.245936">
        <ele>590.937879</ele>
        <time>2020-08-09T08:19:47.156Z</time>
      </trkpt>
      <trkpt lat="41.742388" lon="2.246058">
        <ele>591.976299</ele>
        <time>2020-08-09T08:19:55.164Z</time>
      </trkpt>
      <trkpt lat="41.742446" lon="2.246152">
        <ele>593.013523</ele>
        <time>2020-08-09T08:20:02.172Z</time>
      </trkpt>
      <trkpt lat="41.742512" lon="2.246242">
        <ele>594.086580</ele>
        <time>2020-08-09T08:20:10.151Z</time>
      </trkpt>
      <trkpt lat="41.742592" lon="2.246310">
        <ele>595.166202</ele>
        <time>2020-08-09T08:20:19.155Z</time>
      </trkpt>
      <trkpt lat="41.742659" lon="2.246392">
        <ele>596.200237</ele>
        <time>2020-08-09T08:20:26.155Z</time>
      </trkpt>
      <trkpt lat="41.742718" lon="2.246497">
        <ele>597.317960</ele>
        <time>2020-08-09T08:20:35.148Z</time>
      </trkpt>
      <trkpt lat="41.742769" lon="2.246597">
        <ele>598.478320</ele>
        <time>2020-08-09T08:20:43.166Z</time>
      </trkpt>
      <trkpt lat="41.742808" lon="2.246712">
        <ele>599.775394</ele>
        <time>2020-08-09T08:20:51.153Z</time>
      </trkpt>
      <trkpt lat="41.742902" lon="2.246914">
        <ele>602.219868</ele>
        <time>2020-08-09T08:22:02.155Z</time>
      </trkpt>
      <trkpt lat="41.742914" lon="2.247048">
        <ele>603.605661</ele>
        <time>2020-08-09T08:22:09.122Z</time>
      </trkpt>
      <trkpt lat="41.742944" lon="2.247177">
        <ele>604.993086</ele>
        <time>2020-08-09T08:22:16.150Z</time>
      </trkpt>
      <trkpt lat="41.742963" lon="2.247306">
        <ele>606.343223</ele>
        <time>2020-08-09T08:22:23.131Z</time>
      </trkpt>
      <trkpt lat="41.742964" lon="2.247430">
        <ele>607.616535</ele>
        <time>2020-08-09T08:22:30.152Z</time>
      </trkpt>
      <trkpt lat="41.742981" lon="2.247558">
        <ele>608.951502</ele>
        <time>2020-08-09T08:22:38.167Z</time>
      </trkpt>
      <trkpt lat="41.742978" lon="2.247689">
        <ele>610.297248</ele>
        <time>2020-08-09T08:22:45.131Z</time>
      </trkpt>
      <trkpt lat="41.743030" lon="2.247791">
        <ele>611.565714</ele>
        <time>2020-08-09T08:22:50.151Z</time>
      </trkpt>
      <trkpt lat="41.743103" lon="2.247866">
        <ele>612.831520</ele>
        <time>2020-08-09T08:22:57.149Z</time>
      </trkpt>
      <trkpt lat="41.743192" lon="2.247921">
        <ele>614.180228</ele>
        <time>2020-08-09T08:23:03.154Z</time>
      </trkpt>
      <trkpt lat="41.743279" lon="2.247972">
        <ele>615.486999</ele>
        <time>2020-08-09T08:23:11.143Z</time>
      </trkpt>
      <trkpt lat="41.743346" lon="2.248070">
        <ele>616.851804</ele>
        <time>2020-08-09T08:23:19.136Z</time>
      </trkpt>
      <trkpt lat="41.743341" lon="2.248204">
        <ele>618.229433</ele>
        <time>2020-08-09T08:23:27.147Z</time>
      </trkpt>
      <trkpt lat="41.743323" lon="2.248327">
        <ele>619.516457</ele>
        <time>2020-08-09T08:23:35.151Z</time>
      </trkpt>
      <trkpt lat="41.743242" lon="2.248390">
        <ele>620.805248</ele>
        <time>2020-08-09T08:23:44.144Z</time>
      </trkpt>
      <trkpt lat="41.743146" lon="2.248425">
        <ele>622.174366</ele>
        <time>2020-08-09T08:23:53.155Z</time>
      </trkpt>
      <trkpt lat="41.743061" lon="2.248484">
        <ele>623.431098</ele>
        <time>2020-08-09T08:24:04.148Z</time>
      </trkpt>
      <trkpt lat="41.743085" lon="2.248605">
        <ele>624.640319</ele>
        <time>2020-08-09T08:24:26.155Z</time>
      </trkpt>
      <trkpt lat="41.743139" lon="2.248704">
        <ele>625.824722</ele>
        <time>2020-08-09T08:24:52.154Z</time>
      </trkpt>
      <trkpt lat="41.743097" lon="2.248812">
        <ele>627.000974</ele>
        <time>2020-08-09T08:25:43.152Z</time>
      </trkpt>
      <trkpt lat="41.743024" lon="2.248899">
        <ele>628.265456</ele>
        <time>2020-08-09T08:25:53.164Z</time>
      </trkpt>
      <trkpt lat="41.742956" lon="2.248983">
        <ele>629.462510</ele>
        <time>2020-08-09T08:26:03.154Z</time>
      </trkpt>
      <trkpt lat="41.742831" lon="2.249164">
        <ele>631.844513</ele>
        <time>2020-08-09T08:28:04.171Z</time>
      </trkpt>
      <trkpt lat="41.742680" lon="2.249256">
        <ele>633.991572</ele>
        <time>2020-08-09T08:29:43.154Z</time>
      </trkpt>
      <trkpt lat="41.742600" lon="2.249328">
        <ele>635.238927</ele>
        <time>2020-08-09T08:29:51.156Z</time>
      </trkpt>
      <trkpt lat="41.742528" lon="2.249421">
        <ele>636.533289</ele>
        <time>2020-08-09T08:30:00.151Z</time>
      </trkpt>
      <trkpt lat="41.742439" lon="2.249483">
        <ele>637.831652</ele>
        <time>2020-08-09T08:30:08.180Z</time>
      </trkpt>
      <trkpt lat="41.742353" lon="2.249535">
        <ele>639.052899</ele>
        <time>2020-08-09T08:30:15.152Z</time>
      </trkpt>
      <trkpt lat="41.742288" lon="2.249638">
        <ele>640.355791</ele>
        <time>2020-08-09T08:30:22.159Z</time>
      </trkpt>
      <trkpt lat="41.742230" lon="2.249737">
        <ele>641.571480</ele>
        <time>2020-08-09T08:30:29.151Z</time>
      </trkpt>
      <trkpt lat="41.742152" lon="2.249801">
        <ele>642.755315</ele>
        <time>2020-08-09T08:30:36.149Z</time>
      </trkpt>
      <trkpt lat="41.742066" lon="2.249854">
        <ele>643.980565</ele>
        <time>2020-08-09T08:30:43.155Z</time>
      </trkpt>
      <trkpt lat="41.741978" lon="2.249903">
        <ele>645.214052</ele>
        <time>2020-08-09T08:30:51.153Z</time>
      </trkpt>
      <trkpt lat="41.741903" lon="2.249973">
        <ele>646.350374</ele>
        <time>2020-08-09T08:30:58.154Z</time>
      </trkpt>
      <trkpt lat="41.741869" lon="2.250102">
        <ele>647.575788</ele>
        <time>2020-08-09T08:31:31.164Z</time>
      </trkpt>
      <trkpt lat="41.741834" lon="2.250235">
        <ele>648.838984</ele>
        <time>2020-08-09T08:31:37.153Z</time>
      </trkpt>
      <trkpt lat="41.741799" lon="2.250360">
        <ele>650.034842</ele>
        <time>2020-08-09T08:31:43.158Z</time>
      </trkpt>
      <trkpt lat="41.741748" lon="2.250476">
        <ele>651.240805</ele>
        <time>2020-08-09T08:31:49.162Z</time>
      </trkpt>
      <trkpt lat="41.741672" lon="2.250568">
        <ele>652.470185</ele>
        <time>2020-08-09T08:31:55.172Z</time>
      </trkpt>
      <trkpt lat="41.741595" lon="2.250640">
        <ele>653.597250</ele>
        <time>2020-08-09T08:32:01.151Z</time>
      </trkpt>
      <trkpt lat="41.741513" lon="2.250693">
        <ele>654.690089</ele>
        <time>2020-08-09T08:32:06.158Z</time>
      </trkpt>
      <trkpt lat="41.741431" lon="2.250752">
        <ele>655.807322</ele>
        <time>2020-08-09T08:32:13.140Z</time>
      </trkpt>
      <trkpt lat="41.741340" lon="2.250790">
        <ele>656.951503</ele>
        <time>2020-08-09T08:32:20.123Z</time>
      </trkpt>
      <trkpt lat="41.741249" lon="2.250789">
        <ele>658.043923</ele>
        <time>2020-08-09T08:32:27.130Z</time>
      </trkpt>
      <trkpt lat="41.741169" lon="2.250723">
        <ele>659.171630</ele>
        <time>2020-08-09T08:32:36.144Z</time>
      </trkpt>
      <trkpt lat="41.741212" lon="2.250611">
        <ele>660.299830</ele>
        <time>2020-08-09T08:32:43.146Z</time>
      </trkpt>
      <trkpt lat="41.741280" lon="2.250522">
        <ele>661.440801</ele>
        <time>2020-08-09T08:32:51.150Z</time>
      </trkpt>
      <trkpt lat="41.741351" lon="2.250432">
        <ele>662.613944</ele>
        <time>2020-08-09T08:32:59.133Z</time>
      </trkpt>
      <trkpt lat="41.741374" lon="2.250303">
        <ele>663.801931</ele>
        <time>2020-08-09T08:33:08.144Z</time>
      </trkpt>
      <trkpt lat="41.741363" lon="2.250156">
        <ele>665.125219</ele>
        <time>2020-08-09T08:33:12.137Z</time>
      </trkpt>
      <trkpt lat="41.741321" lon="2.250003">
        <ele>666.585447</ele>
        <time>2020-08-09T08:33:15.146Z</time>
      </trkpt>
      <trkpt lat="41.741280" lon="2.249890">
        <ele>667.558183</ele>
        <time>2020-08-09T08:33:19.152Z</time>
      </trkpt>
      <trkpt lat="41.741247" lon="2.249776">
        <ele>668.196104</ele>
        <time>2020-08-09T08:33:45.146Z</time>
      </trkpt>
      <trkpt lat="41.741229" lon="2.249643">
        <ele>668.901281</ele>
        <time>2020-08-09T08:33:52.171Z</time>
      </trkpt>
      <trkpt lat="41.741228" lon="2.249500">
        <ele>669.647339</ele>
        <time>2020-08-09T08:33:58.147Z</time>
      </trkpt>
      <trkpt lat="41.741244" lon="2.249375">
        <ele>670.308985</ele>
        <time>2020-08-09T08:34:03.149Z</time>
      </trkpt>
      <trkpt lat="41.741239" lon="2.249227">
        <ele>671.081886</ele>
        <time>2020-08-09T08:34:08.155Z</time>
      </trkpt>
      <trkpt lat="41.741220" lon="2.249086">
        <ele>671.829377</ele>
        <time>2020-08-09T08:34:13.127Z</time>
      </trkpt>
      <trkpt lat="41.741194" lon="2.248967">
        <ele>672.476263</ele>
        <time>2020-08-09T08:34:17.154Z</time>
      </trkpt>
      <trkpt lat="41.741168" lon="2.248826">
        <ele>673.233985</ele>
        <time>2020-08-09T08:34:21.161Z</time>
      </trkpt>
      <trkpt lat="41.741126" lon="2.248708">
        <ele>673.916040</ele>
        <time>2020-08-09T08:34:23.148Z</time>
      </trkpt>
      <trkpt lat="41.741069" lon="2.248573">
        <ele>674.725269</ele>
        <time>2020-08-09T08:34:25.168Z</time>
      </trkpt>
      <trkpt lat="41.741001" lon="2.248460">
        <ele>675.482616</ele>
        <time>2020-08-09T08:34:27.162Z</time>
      </trkpt>
      <trkpt lat="41.740927" lon="2.248337">
        <ele>676.306908</ele>
        <time>2020-08-09T08:34:29.151Z</time>
      </trkpt>
      <trkpt lat="41.740871" lon="2.248232">
        <ele>676.980235</ele>
        <time>2020-08-09T08:34:31.148Z</time>
      </trkpt>
      <trkpt lat="41.740807" lon="2.248113">
        <ele>677.745514</ele>
        <time>2020-08-09T08:34:35.167Z</time>
      </trkpt>
      <trkpt lat="41.740735" lon="2.248024">
        <ele>678.430353</ele>
        <time>2020-08-09T08:34:42.195Z</time>
      </trkpt>
      <trkpt lat="41.740694" lon="2.247915">
        <ele>679.067175</ele>
        <time>2020-08-09T08:34:49.156Z</time>
      </trkpt>
      <trkpt lat="41.740604" lon="2.247873">
        <ele>679.733490</ele>
        <time>2020-08-09T08:34:57.160Z</time>
      </trkpt>
      <trkpt lat="41.740516" lon="2.247829">
        <ele>680.531877</ele>
        <time>2020-08-09T08:35:06.152Z</time>
      </trkpt>
      <trkpt lat="41.740431" lon="2.247765">
        <ele>681.419315</ele>
        <time>2020-08-09T08:35:21.161Z</time>
      </trkpt>
      <trkpt lat="41.740353" lon="2.247688">
        <ele>682.301114</ele>
        <time>2020-08-09T08:35:31.152Z</time>
      </trkpt>
      <trkpt lat="41.740275" lon="2.247605">
        <ele>683.207675</ele>
        <time>2020-08-09T08:35:48.152Z</time>
      </trkpt>
      <trkpt lat="41.740202" lon="2.247523">
        <ele>684.074676</ele>
        <time>2020-08-09T08:35:53.162Z</time>
      </trkpt>
      <trkpt lat="41.740134" lon="2.247435">
        <ele>684.935102</ele>
        <time>2020-08-09T08:35:59.155Z</time>
      </trkpt>
      <trkpt lat="41.740068" lon="2.247338">
        <ele>685.826693</ele>
        <time>2020-08-09T08:36:06.129Z</time>
      </trkpt>
      <trkpt lat="41.740000" lon="2.247224">
        <ele>686.817958</ele>
        <time>2020-08-09T08:36:12.136Z</time>
      </trkpt>
      <trkpt lat="41.739930" lon="2.247126">
        <ele>687.739372</ele>
        <time>2020-08-09T08:36:15.149Z</time>
      </trkpt>
      <trkpt lat="41.739799" lon="2.247042">
        <ele>689.061230</ele>
        <time>2020-08-09T08:36:18.147Z</time>
      </trkpt>
      <trkpt lat="41.739688" lon="2.246945">
        <ele>690.267403</ele>
        <time>2020-08-09T08:36:20.144Z</time>
      </trkpt>
      <trkpt lat="41.739610" lon="2.246848">
        <ele>691.235963</ele>
        <time>2020-08-09T08:36:22.147Z</time>
      </trkpt>
      <trkpt lat="41.739546" lon="2.246747">
        <ele>692.135927</ele>
        <time>2020-08-09T08:36:24.150Z</time>
      </trkpt>
      <trkpt lat="41.739482" lon="2.246626">
        <ele>693.143278</ele>
        <time>2020-08-09T08:36:26.149Z</time>
      </trkpt>
      <trkpt lat="41.739441" lon="2.246508">
        <ele>694.027356</ele>
        <time>2020-08-09T08:36:28.156Z</time>
      </trkpt>
      <trkpt lat="41.739415" lon="2.246389">
        <ele>694.869533</ele>
        <time>2020-08-09T08:36:32.152Z</time>
      </trkpt>
      <trkpt lat="41.739400" lon="2.246257">
        <ele>695.776407</ele>
        <time>2020-08-09T08:36:40.138Z</time>
      </trkpt>
      <trkpt lat="41.739376" lon="2.246127">
        <ele>696.928366</ele>
        <time>2020-08-09T08:36:47.151Z</time>
      </trkpt>
      <trkpt lat="41.739361" lon="2.245992">
        <ele>698.426544</ele>
        <time>2020-08-09T08:36:55.135Z</time>
      </trkpt>
      <trkpt lat="41.739312" lon="2.245883">
        <ele>699.823345</ele>
        <time>2020-08-09T08:37:08.140Z</time>
      </trkpt>
      <trkpt lat="41.739273" lon="2.245773">
        <ele>701.160137</ele>
        <time>2020-08-09T08:37:21.151Z</time>
      </trkpt>
      <trkpt lat="41.739237" lon="2.245661">
        <ele>702.498727</ele>
        <time>2020-08-09T08:37:36.152Z</time>
      </trkpt>
      <trkpt lat="41.739163" lon="2.245578">
        <ele>703.918236</ele>
        <time>2020-08-09T08:37:50.156Z</time>
      </trkpt>
      <trkpt lat="41.739105" lon="2.245485">
        <ele>705.248664</ele>
        <time>2020-08-09T08:38:02.151Z</time>
      </trkpt>
      <trkpt lat="41.739052" lon="2.245385">
        <ele>706.595036</ele>
        <time>2020-08-09T08:38:14.158Z</time>
      </trkpt>
      <trkpt lat="41.738997" lon="2.245279">
        <ele>708.012210</ele>
        <time>2020-08-09T08:38:25.155Z</time>
      </trkpt>
      <trkpt lat="41.738988" lon="2.245139">
        <ele>709.554634</ele>
        <time>2020-08-09T08:38:40.156Z</time>
      </trkpt>
      <trkpt lat="41.738987" lon="2.245007">
        <ele>711.003627</ele>
        <time>2020-08-09T08:38:47.156Z</time>
      </trkpt>
      <trkpt lat="41.738991" lon="2.244870">
        <ele>712.508579</ele>
        <time>2020-08-09T08:38:54.151Z</time>
      </trkpt>
      <trkpt lat="41.738997" lon="2.244747">
        <ele>713.861589</ele>
        <time>2020-08-09T08:39:01.147Z</time>
      </trkpt>
      <trkpt lat="41.739008" lon="2.244613">
        <ele>715.341334</ele>
        <time>2020-08-09T08:39:08.154Z</time>
      </trkpt>
      <trkpt lat="41.739011" lon="2.244486">
        <ele>716.736067</ele>
        <time>2020-08-09T08:39:15.154Z</time>
      </trkpt>
      <trkpt lat="41.738975" lon="2.244362">
        <ele>718.196565</ele>
        <time>2020-08-09T08:39:23.153Z</time>
      </trkpt>
      <trkpt lat="41.738925" lon="2.244257">
        <ele>719.563809</ele>
        <time>2020-08-09T08:39:30.148Z</time>
      </trkpt>
      <trkpt lat="41.738868" lon="2.244160">
        <ele>720.919069</ele>
        <time>2020-08-09T08:39:38.123Z</time>
      </trkpt>
      <trkpt lat="41.738862" lon="2.244033">
        <ele>722.315898</ele>
        <time>2020-08-09T08:39:48.154Z</time>
      </trkpt>
      <trkpt lat="41.738826" lon="2.243921">
        <ele>722.911425</ele>
        <time>2020-08-09T08:40:08.135Z</time>
      </trkpt>
      <trkpt lat="41.738742" lon="2.243981">
        <ele>723.159715</ele>
        <time>2020-08-09T08:40:25.127Z</time>
      </trkpt>
      <trkpt lat="41.738731" lon="2.244105">
        <ele>723.402768</ele>
        <time>2020-08-09T08:40:35.133Z</time>
      </trkpt>
      <trkpt lat="41.738683" lon="2.244208">
        <ele>723.639132</ele>
        <time>2020-08-09T08:40:44.154Z</time>
      </trkpt>
      <trkpt lat="41.738588" lon="2.244200">
        <ele>723.887424</ele>
        <time>2020-08-09T08:40:53.136Z</time>
      </trkpt>
      <trkpt lat="41.738495" lon="2.244177">
        <ele>724.134106</ele>
        <time>2020-08-09T08:41:04.128Z</time>
      </trkpt>
      <trkpt lat="41.738397" lon="2.244130">
        <ele>724.405611</ele>
        <time>2020-08-09T08:41:09.137Z</time>
      </trkpt>
      <trkpt lat="41.738289" lon="2.244114">
        <ele>724.689040</ele>
        <time>2020-08-09T08:41:14.128Z</time>
      </trkpt>
      <trkpt lat="41.738177" lon="2.244102">
        <ele>724.982118</ele>
        <time>2020-08-09T08:41:18.151Z</time>
      </trkpt>
      <trkpt lat="41.738080" lon="2.244111">
        <ele>725.235744</ele>
        <time>2020-08-09T08:41:22.133Z</time>
      </trkpt>
      <trkpt lat="41.737986" lon="2.244108">
        <ele>725.481008</ele>
        <time>2020-08-09T08:41:26.131Z</time>
      </trkpt>
      <trkpt lat="41.737895" lon="2.244104">
        <ele>725.718505</ele>
        <time>2020-08-09T08:41:29.151Z</time>
      </trkpt>
      <trkpt lat="41.737782" lon="2.244120">
        <ele>726.014901</ele>
        <time>2020-08-09T08:41:33.151Z</time>
      </trkpt>
      <trkpt lat="41.737676" lon="2.244140">
        <ele>726.294124</ele>
        <time>2020-08-09T08:41:37.166Z</time>
      </trkpt>
      <trkpt lat="41.737585" lon="2.244150">
        <ele>726.532289</ele>
        <time>2020-08-09T08:41:41.148Z</time>
      </trkpt>
      <trkpt lat="41.737493" lon="2.244102">
        <ele>726.789813</ele>
        <time>2020-08-09T08:41:45.152Z</time>
      </trkpt>
      <trkpt lat="41.737434" lon="2.243997">
        <ele>727.045653</ele>
        <time>2020-08-09T08:41:49.154Z</time>
      </trkpt>
      <trkpt lat="41.737370" lon="2.243865">
        <ele>727.352055</ele>
        <time>2020-08-09T08:41:53.158Z</time>
      </trkpt>
      <trkpt lat="41.737318" lon="2.243753">
        <ele>727.648369</ele>
        <time>2020-08-09T08:41:56.149Z</time>
      </trkpt>
      <trkpt lat="41.737253" lon="2.243653">
        <ele>727.968070</ele>
        <time>2020-08-09T08:41:59.155Z</time>
      </trkpt>
      <trkpt lat="41.737190" lon="2.243565">
        <ele>728.262054</ele>
        <time>2020-08-09T08:42:02.155Z</time>
      </trkpt>
      <trkpt lat="41.737098" lon="2.243468">
        <ele>728.640227</ele>
        <time>2020-08-09T08:42:06.147Z</time>
      </trkpt>
      <trkpt lat="41.737015" lon="2.243370">
        <ele>728.997593</ele>
        <time>2020-08-09T08:42:09.157Z</time>
      </trkpt>
      <trkpt lat="41.736952" lon="2.243260">
        <ele>729.331871</ele>
        <time>2020-08-09T08:42:12.151Z</time>
      </trkpt>
      <trkpt lat="41.736872" lon="2.243180">
        <ele>729.654342</ele>
        <time>2020-08-09T08:42:15.161Z</time>
      </trkpt>
      <trkpt lat="41.736776" lon="2.243088">
        <ele>730.035619</ele>
        <time>2020-08-09T08:42:18.155Z</time>
      </trkpt>
      <trkpt lat="41.736696" lon="2.243016">
        <ele>730.346941</ele>
        <time>2020-08-09T08:42:20.155Z</time>
      </trkpt>
      <trkpt lat="41.736609" lon="2.242939">
        <ele>730.683766</ele>
        <time>2020-08-09T08:42:22.135Z</time>
      </trkpt>
      <trkpt lat="41.736538" lon="2.242822">
        <ele>731.047311</ele>
        <time>2020-08-09T08:42:24.156Z</time>
      </trkpt>
      <trkpt lat="41.736488" lon="2.242695">
        <ele>731.393468</ele>
        <time>2020-08-09T08:42:26.144Z</time>
      </trkpt>
      <trkpt lat="41.736432" lon="2.242593">
        <ele>731.698743</ele>
        <time>2020-08-09T08:42:28.148Z</time>
      </trkpt>
      <trkpt lat="41.736340" lon="2.242482">
        <ele>732.098667</ele>
        <time>2020-08-09T08:42:31.139Z</time>
      </trkpt>
      <trkpt lat="41.736250" lon="2.242401">
        <ele>732.448905</ele>
        <time>2020-08-09T08:42:33.152Z</time>
      </trkpt>
      <trkpt lat="41.736165" lon="2.242347">
        <ele>732.752798</ele>
        <time>2020-08-09T08:42:35.149Z</time>
      </trkpt>
      <trkpt lat="41.736074" lon="2.242300">
        <ele>733.067860</ele>
        <time>2020-08-09T08:42:37.156Z</time>
      </trkpt>
      <trkpt lat="41.735973" lon="2.242262">
        <ele>733.311437</ele>
        <time>2020-08-09T08:42:39.152Z</time>
      </trkpt>
      <trkpt lat="41.735869" lon="2.242235">
        <ele>733.440665</ele>
        <time>2020-08-09T08:42:41.154Z</time>
      </trkpt>
      <trkpt lat="41.735776" lon="2.242230">
        <ele>733.554207</ele>
        <time>2020-08-09T08:42:43.160Z</time>
      </trkpt>
      <trkpt lat="41.735655" lon="2.242272">
        <ele>733.706686</ele>
        <time>2020-08-09T08:42:46.151Z</time>
      </trkpt>
      <trkpt lat="41.735556" lon="2.242296">
        <ele>733.829416</ele>
        <time>2020-08-09T08:42:51.155Z</time>
      </trkpt>
      <trkpt lat="41.735468" lon="2.242270">
        <ele>733.939345</ele>
        <time>2020-08-09T08:42:56.157Z</time>
      </trkpt>
      <trkpt lat="41.735377" lon="2.242256">
        <ele>734.051085</ele>
        <time>2020-08-09T08:43:01.129Z</time>
      </trkpt>
      <trkpt lat="41.735281" lon="2.242249">
        <ele>734.168368</ele>
        <time>2020-08-09T08:43:07.133Z</time>
      </trkpt>
      <trkpt lat="41.735188" lon="2.242268">
        <ele>734.283130</ele>
        <time>2020-08-09T08:43:12.149Z</time>
      </trkpt>
      <trkpt lat="41.735077" lon="2.242301">
        <ele>734.421830</ele>
        <time>2020-08-09T08:43:17.157Z</time>
      </trkpt>
      <trkpt lat="41.734965" lon="2.242359">
        <ele>734.568306</ele>
        <time>2020-08-09T08:43:21.178Z</time>
      </trkpt>
      <trkpt lat="41.734881" lon="2.242428">
        <ele>734.688497</ele>
        <time>2020-08-09T08:43:24.150Z</time>
      </trkpt>
      <trkpt lat="41.734796" lon="2.242487">
        <ele>734.805272</ele>
        <time>2020-08-09T08:43:27.159Z</time>
      </trkpt>
      <trkpt lat="41.734703" lon="2.242514">
        <ele>734.921355</ele>
        <time>2020-08-09T08:43:30.157Z</time>
      </trkpt>
      <trkpt lat="41.734593" lon="2.242521">
        <ele>735.055695</ele>
        <time>2020-08-09T08:43:33.174Z</time>
      </trkpt>
      <trkpt lat="41.734487" lon="2.242513">
        <ele>735.185209</ele>
        <time>2020-08-09T08:43:36.148Z</time>
      </trkpt>
      <trkpt lat="41.734393" lon="2.242520">
        <ele>735.300056</ele>
        <time>2020-08-09T08:43:39.158Z</time>
      </trkpt>
      <trkpt lat="41.734289" lon="2.242540">
        <ele>735.428225</ele>
        <time>2020-08-09T08:43:43.149Z</time>
      </trkpt>
      <trkpt lat="41.734195" lon="2.242580">
        <ele>735.429676</ele>
        <time>2020-08-09T08:43:49.152Z</time>
      </trkpt>
      <trkpt lat="41.734096" lon="2.242619">
        <ele>735.407085</ele>
        <time>2020-08-09T08:43:57.152Z</time>
      </trkpt>
      <trkpt lat="41.734007" lon="2.242653">
        <ele>735.386824</ele>
        <time>2020-08-09T08:44:03.156Z</time>
      </trkpt>
      <trkpt lat="41.733914" lon="2.242678">
        <ele>735.366059</ele>
        <time>2020-08-09T08:44:10.163Z</time>
      </trkpt>
      <trkpt lat="41.733817" lon="2.242708">
        <ele>735.344265</ele>
        <time>2020-08-09T08:44:16.154Z</time>
      </trkpt>
      <trkpt lat="41.733709" lon="2.242709">
        <ele>735.320620</ele>
        <time>2020-08-09T08:44:22.159Z</time>
      </trkpt>
      <trkpt lat="41.733618" lon="2.242709">
        <ele>735.300698</ele>
        <time>2020-08-09T08:44:29.131Z</time>
      </trkpt>
      <trkpt lat="41.733524" lon="2.242712">
        <ele>735.280113</ele>
        <time>2020-08-09T08:44:36.147Z</time>
      </trkpt>
      <trkpt lat="41.733428" lon="2.242722">
        <ele>735.259032</ele>
        <time>2020-08-09T08:44:43.148Z</time>
      </trkpt>
      <trkpt lat="41.733331" lon="2.242762">
        <ele>735.236814</ele>
        <time>2020-08-09T08:44:50.144Z</time>
      </trkpt>
      <trkpt lat="41.733248" lon="2.242847">
        <ele>735.213944</ele>
        <time>2020-08-09T08:44:56.137Z</time>
      </trkpt>
      <trkpt lat="41.733168" lon="2.242924">
        <ele>735.192380</ele>
        <time>2020-08-09T08:45:03.133Z</time>
      </trkpt>
      <trkpt lat="41.733100" lon="2.243019">
        <ele>735.170874</ele>
        <time>2020-08-09T08:45:09.142Z</time>
      </trkpt>
      <trkpt lat="41.733055" lon="2.243147">
        <ele>735.147758</ele>
        <time>2020-08-09T08:45:13.151Z</time>
      </trkpt>
      <trkpt lat="41.732994" lon="2.243290">
        <ele>735.120848</ele>
        <time>2020-08-09T08:45:17.152Z</time>
      </trkpt>
      <trkpt lat="41.732955" lon="2.243461">
        <ele>735.091635</ele>
        <time>2020-08-09T08:45:20.159Z</time>
      </trkpt>
      <trkpt lat="41.732953" lon="2.243586">
        <ele>735.071208</ele>
        <time>2020-08-09T08:45:22.153Z</time>
      </trkpt>
      <trkpt lat="41.732914" lon="2.243753">
        <ele>734.282361</ele>
        <time>2020-08-09T08:45:25.154Z</time>
      </trkpt>
      <trkpt lat="41.732830" lon="2.243877">
        <ele>732.425726</ele>
        <time>2020-08-09T08:45:28.152Z</time>
      </trkpt>
      <trkpt lat="41.732719" lon="2.243948">
        <ele>730.598479</ele>
        <time>2020-08-09T08:45:31.149Z</time>
      </trkpt>
      <trkpt lat="41.732599" lon="2.244009">
        <ele>728.691798</ele>
        <time>2020-08-09T08:45:34.132Z</time>
      </trkpt>
      <trkpt lat="41.732480" lon="2.244085">
        <ele>726.733415</ele>
        <time>2020-08-09T08:45:37.150Z</time>
      </trkpt>
      <trkpt lat="41.732382" lon="2.244167">
        <ele>725.017009</ele>
        <time>2020-08-09T08:45:39.151Z</time>
      </trkpt>
      <trkpt lat="41.732269" lon="2.244249">
        <ele>723.107932</ele>
        <time>2020-08-09T08:45:41.151Z</time>
      </trkpt>
      <trkpt lat="41.732154" lon="2.244319">
        <ele>721.231493</ele>
        <time>2020-08-09T08:45:43.160Z</time>
      </trkpt>
      <trkpt lat="41.732046" lon="2.244432">
        <ele>719.195885</ele>
        <time>2020-08-09T08:45:45.148Z</time>
      </trkpt>
      <trkpt lat="41.731957" lon="2.244554">
        <ele>717.304436</ele>
        <time>2020-08-09T08:45:47.154Z</time>
      </trkpt>
      <trkpt lat="41.731877" lon="2.244667">
        <ele>715.577606</ele>
        <time>2020-08-09T08:45:49.149Z</time>
      </trkpt>
      <trkpt lat="41.731801" lon="2.244788">
        <ele>713.824233</ele>
        <time>2020-08-09T08:45:51.147Z</time>
      </trkpt>
      <trkpt lat="41.731696" lon="2.244915">
        <ele>711.722882</ele>
        <time>2020-08-09T08:45:53.136Z</time>
      </trkpt>
      <trkpt lat="41.731620" lon="2.245023">
        <ele>710.077155</ele>
        <time>2020-08-09T08:45:55.146Z</time>
      </trkpt>
      <trkpt lat="41.731554" lon="2.245144">
        <ele>708.415548</ele>
        <time>2020-08-09T08:45:57.142Z</time>
      </trkpt>
      <trkpt lat="41.731502" lon="2.245244">
        <ele>706.486792</ele>
        <time>2020-08-09T08:45:59.149Z</time>
      </trkpt>
      <trkpt lat="41.731474" lon="2.245370">
        <ele>704.366004</ele>
        <time>2020-08-09T08:46:01.158Z</time>
      </trkpt>
      <trkpt lat="41.731451" lon="2.245490">
        <ele>702.367382</ele>
        <time>2020-08-09T08:46:04.158Z</time>
      </trkpt>
      <trkpt lat="41.731374" lon="2.245425">
        <ele>700.400181</ele>
        <time>2020-08-09T08:46:24.152Z</time>
      </trkpt>
      <trkpt lat="41.731233" lon="2.245399">
        <ele>697.323561</ele>
        <time>2020-08-09T08:46:58.148Z</time>
      </trkpt>
      <trkpt lat="41.731135" lon="2.245412">
        <ele>695.194811</ele>
        <time>2020-08-09T08:47:09.124Z</time>
      </trkpt>
      <trkpt lat="41.731035" lon="2.245438">
        <ele>692.992867</ele>
        <time>2020-08-09T08:47:22.152Z</time>
      </trkpt>
      <trkpt lat="41.730938" lon="2.245429">
        <ele>690.891067</ele>
        <time>2020-08-09T08:47:30.151Z</time>
      </trkpt>
      <trkpt lat="41.730854" lon="2.245477">
        <ele>688.917089</ele>
        <time>2020-08-09T08:47:50.161Z</time>
      </trkpt>
      <trkpt lat="41.730762" lon="2.245452">
        <ele>686.887910</ele>
        <time>2020-08-09T08:48:05.154Z</time>
      </trkpt>
      <trkpt lat="41.730725" lon="2.245339">
        <ele>684.897273</ele>
        <time>2020-08-09T08:48:16.147Z</time>
      </trkpt>
      <trkpt lat="41.730654" lon="2.245254">
        <ele>682.839196</ele>
        <time>2020-08-09T08:48:39.153Z</time>
      </trkpt>
      <trkpt lat="41.730506" lon="2.245261">
        <ele>679.637993</ele>
        <time>2020-08-09T08:49:18.146Z</time>
      </trkpt>
      <trkpt lat="41.730460" lon="2.245375">
        <ele>677.547352</ele>
        <time>2020-08-09T08:49:24.170Z</time>
      </trkpt>
      <trkpt lat="41.730370" lon="2.245433">
        <ele>675.388584</ele>
        <time>2020-08-09T08:49:31.152Z</time>
      </trkpt>
      <trkpt lat="41.730268" lon="2.245431">
        <ele>673.183488</ele>
        <time>2020-08-09T08:49:35.154Z</time>
      </trkpt>
      <trkpt lat="41.730182" lon="2.245394">
        <ele>671.231015</ele>
        <time>2020-08-09T08:49:39.151Z</time>
      </trkpt>
      <trkpt lat="41.730081" lon="2.245377">
        <ele>669.210812</ele>
        <time>2020-08-09T08:49:43.153Z</time>
      </trkpt>
      <trkpt lat="41.729994" lon="2.245334">
        <ele>668.060729</ele>
        <time>2020-08-09T08:49:48.146Z</time>
      </trkpt>
      <trkpt lat="41.730014" lon="2.245211">
        <ele>666.895545</ele>
        <time>2020-08-09T08:49:53.159Z</time>
      </trkpt>
      <trkpt lat="41.730038" lon="2.245088">
        <ele>665.718802</ele>
        <time>2020-08-09T08:49:56.162Z</time>
      </trkpt>
      <trkpt lat="41.730027" lon="2.244953">
        <ele>664.461831</ele>
        <time>2020-08-09T08:49:59.154Z</time>
      </trkpt>
      <trkpt lat="41.730024" lon="2.244802">
        <ele>663.063697</ele>
        <time>2020-08-09T08:50:02.153Z</time>
      </trkpt>
      <trkpt lat="41.730040" lon="2.244624">
        <ele>661.404242</ele>
        <time>2020-08-09T08:50:05.153Z</time>
      </trkpt>
      <trkpt lat="41.730080" lon="2.244441">
        <ele>659.639259</ele>
        <time>2020-08-09T08:50:08.153Z</time>
      </trkpt>
      <trkpt lat="41.730109" lon="2.244312">
        <ele>658.392255</ele>
        <time>2020-08-09T08:50:10.148Z</time>
      </trkpt>
      <trkpt lat="41.730159" lon="2.244195">
        <ele>657.144333</ele>
        <time>2020-08-09T08:50:12.146Z</time>
      </trkpt>
      <trkpt lat="41.730201" lon="2.244009">
        <ele>655.345662</ele>
        <time>2020-08-09T08:50:15.148Z</time>
      </trkpt>
      <trkpt lat="41.730225" lon="2.243869">
        <ele>654.016093</ele>
        <time>2020-08-09T08:50:17.162Z</time>
      </trkpt>
      <trkpt lat="41.730193" lon="2.243729">
        <ele>652.660857</ele>
        <time>2020-08-09T08:50:19.150Z</time>
      </trkpt>
      <trkpt lat="41.730074" lon="2.243676">
        <ele>651.105563</ele>
        <time>2020-08-09T08:50:21.151Z</time>
      </trkpt>
      <trkpt lat="41.729940" lon="2.243619">
        <ele>649.361891</ele>
        <time>2020-08-09T08:50:23.151Z</time>
      </trkpt>
      <trkpt lat="41.729780" lon="2.243574">
        <ele>647.334243</ele>
        <time>2020-08-09T08:50:25.144Z</time>
      </trkpt>
      <trkpt lat="41.729622" lon="2.243534">
        <ele>645.735779</ele>
        <time>2020-08-09T08:50:27.143Z</time>
      </trkpt>
      <trkpt lat="41.729494" lon="2.243431">
        <ele>644.289905</ele>
        <time>2020-08-09T08:50:29.140Z</time>
      </trkpt>
      <trkpt lat="41.729406" lon="2.243298">
        <ele>643.005340</ele>
        <time>2020-08-09T08:50:31.150Z</time>
      </trkpt>
      <trkpt lat="41.729355" lon="2.243168">
        <ele>641.943925</ele>
        <time>2020-08-09T08:50:34.152Z</time>
      </trkpt>
      <trkpt lat="41.729333" lon="2.243008">
        <ele>640.768136</ele>
        <time>2020-08-09T08:50:46.157Z</time>
      </trkpt>
      <trkpt lat="41.729313" lon="2.242886">
        <ele>639.865415</ele>
        <time>2020-08-09T08:50:58.151Z</time>
      </trkpt>
      <trkpt lat="41.729292" lon="2.242750">
        <ele>638.861719</ele>
        <time>2020-08-09T08:51:01.147Z</time>
      </trkpt>
      <trkpt lat="41.729271" lon="2.242630">
        <ele>637.970949</ele>
        <time>2020-08-09T08:51:03.145Z</time>
      </trkpt>
      <trkpt lat="41.729288" lon="2.242460">
        <ele>636.731370</ele>
        <time>2020-08-09T08:51:06.149Z</time>
      </trkpt>
      <trkpt lat="41.729347" lon="2.242357">
        <ele>635.792995</ele>
        <time>2020-08-09T08:51:08.145Z</time>
      </trkpt>
      <trkpt lat="41.729418" lon="2.242280">
        <ele>634.908459</ele>
        <time>2020-08-09T08:51:10.146Z</time>
      </trkpt>
      <trkpt lat="41.729500" lon="2.242202">
        <ele>633.934639</ele>
        <time>2020-08-09T08:51:12.147Z</time>
      </trkpt>
      <trkpt lat="41.729590" lon="2.242115">
        <ele>632.859966</ele>
        <time>2020-08-09T08:51:14.151Z</time>
      </trkpt>
      <trkpt lat="41.729673" lon="2.241986">
        <ele>631.629037</ele>
        <time>2020-08-09T08:51:16.149Z</time>
      </trkpt>
      <trkpt lat="41.729755" lon="2.241880">
        <ele>630.525675</ele>
        <time>2020-08-09T08:51:18.155Z</time>
      </trkpt>
      <trkpt lat="41.729836" lon="2.241752">
        <ele>629.494933</ele>
        <time>2020-08-09T08:51:20.159Z</time>
      </trkpt>
      <trkpt lat="41.729856" lon="2.241550">
        <ele>628.668518</ele>
        <time>2020-08-09T08:51:22.151Z</time>
      </trkpt>
      <trkpt lat="41.729835" lon="2.241371">
        <ele>627.933645</ele>
        <time>2020-08-09T08:51:24.148Z</time>
      </trkpt>
      <trkpt lat="41.729768" lon="2.241223">
        <ele>627.231612</ele>
        <time>2020-08-09T08:51:26.152Z</time>
      </trkpt>
      <trkpt lat="41.729704" lon="2.241056">
        <ele>626.470240</ele>
        <time>2020-08-09T08:51:28.154Z</time>
      </trkpt>
      <trkpt lat="41.729680" lon="2.240866">
        <ele>625.688709</ele>
        <time>2020-08-09T08:51:30.146Z</time>
      </trkpt>
      <trkpt lat="41.729673" lon="2.240711">
        <ele>625.058935</ele>
        <time>2020-08-09T08:51:32.147Z</time>
      </trkpt>
      <trkpt lat="41.729604" lon="2.240621">
        <ele>624.535643</ele>
        <time>2020-08-09T08:51:34.151Z</time>
      </trkpt>
      <trkpt lat="41.729513" lon="2.240674">
        <ele>623.996421</ele>
        <time>2020-08-09T08:51:42.156Z</time>
      </trkpt>
      <trkpt lat="41.729410" lon="2.240746">
        <ele>623.365091</ele>
        <time>2020-08-09T08:51:48.143Z</time>
      </trkpt>
      <trkpt lat="41.729359" lon="2.240866">
        <ele>622.805028</ele>
        <time>2020-08-09T08:51:51.158Z</time>
      </trkpt>
      <trkpt lat="41.729318" lon="2.240981">
        <ele>622.288140</ele>
        <time>2020-08-09T08:51:54.154Z</time>
      </trkpt>
      <trkpt lat="41.729254" lon="2.241078">
        <ele>621.763042</ele>
        <time>2020-08-09T08:51:57.143Z</time>
      </trkpt>
      <trkpt lat="41.729177" lon="2.241178">
        <ele>621.180305</ele>
        <time>2020-08-09T08:54:10.153Z</time>
      </trkpt>
      <trkpt lat="41.729045" lon="2.241236">
        <ele>620.425385</ele>
        <time>2020-08-09T08:54:53.154Z</time>
      </trkpt>
      <trkpt lat="41.728955" lon="2.241292">
        <ele>619.950905</ele>
        <time>2020-08-09T08:54:58.148Z</time>
      </trkpt>
      <trkpt lat="41.728857" lon="2.241317">
        <ele>619.931450</ele>
        <time>2020-08-09T08:55:02.145Z</time>
      </trkpt>
      <trkpt lat="41.728729" lon="2.241313">
        <ele>619.906481</ele>
        <time>2020-08-09T08:55:05.145Z</time>
      </trkpt>
      <trkpt lat="41.728628" lon="2.241354">
        <ele>619.885901</ele>
        <time>2020-08-09T08:55:07.155Z</time>
      </trkpt>
      <trkpt lat="41.728546" lon="2.241414">
        <ele>619.867681</ele>
        <time>2020-08-09T08:55:09.142Z</time>
      </trkpt>
      <trkpt lat="41.728451" lon="2.241452">
        <ele>619.848346</ele>
        <time>2020-08-09T08:55:13.163Z</time>
      </trkpt>
      <trkpt lat="41.728353" lon="2.241494">
        <ele>619.828281</ele>
        <time>2020-08-09T08:55:16.150Z</time>
      </trkpt>
      <trkpt lat="41.728222" lon="2.241484">
        <ele>619.802692</ele>
        <time>2020-08-09T08:55:19.160Z</time>
      </trkpt>
      <trkpt lat="41.728119" lon="2.241418">
        <ele>619.780427</ele>
        <time>2020-08-09T08:55:21.164Z</time>
      </trkpt>
      <trkpt lat="41.728027" lon="2.241308">
        <ele>619.756381</ele>
        <time>2020-08-09T08:55:23.129Z</time>
      </trkpt>
      <trkpt lat="41.727946" lon="2.241224">
        <ele>619.736406</ele>
        <time>2020-08-09T08:55:25.157Z</time>
      </trkpt>
      <trkpt lat="41.727685" lon="2.241116">
        <ele>619.683135</ele>
        <time>2020-08-09T08:55:56.164Z</time>
      </trkpt>
      <trkpt lat="41.727587" lon="2.241086">
        <ele>619.663531</ele>
        <time>2020-08-09T08:55:58.156Z</time>
      </trkpt>
      <trkpt lat="41.727485" lon="2.241061">
        <ele>619.643310</ele>
        <time>2020-08-09T08:56:00.166Z</time>
      </trkpt>
      <trkpt lat="41.727374" lon="2.241030">
        <ele>619.621198</ele>
        <time>2020-08-09T08:56:02.170Z</time>
      </trkpt>
      <trkpt lat="41.727286" lon="2.241096">
        <ele>619.640450</ele>
        <time>2020-08-09T08:56:05.134Z</time>
      </trkpt>
      <trkpt lat="41.727273" lon="2.241228">
        <ele>620.359537</ele>
        <time>2020-08-09T08:56:10.144Z</time>
      </trkpt>
      <trkpt lat="41.727311" lon="2.241352">
        <ele>621.083497</ele>
        <time>2020-08-09T08:56:17.149Z</time>
      </trkpt>
      <trkpt lat="41.727345" lon="2.241478">
        <ele>621.807113</ele>
        <time>2020-08-09T08:56:40.158Z</time>
      </trkpt>
      <trkpt lat="41.727393" lon="2.241598">
        <ele>622.542425</ele>
        <time>2020-08-09T08:56:48.137Z</time>
      </trkpt>
      <trkpt lat="41.727450" lon="2.241693">
        <ele>623.200749</ele>
        <time>2020-08-09T08:56:55.151Z</time>
      </trkpt>
      <trkpt lat="41.727456" lon="2.241819">
        <ele>623.882633</ele>
        <time>2020-08-09T08:57:03.150Z</time>
      </trkpt>
      <trkpt lat="41.727399" lon="2.241914">
        <ele>624.540957</ele>
        <time>2020-08-09T08:57:16.132Z</time>
      </trkpt>
      <trkpt lat="41.727377" lon="2.242036">
        <ele>625.218815</ele>
        <time>2020-08-09T08:57:27.150Z</time>
      </trkpt>
      <trkpt lat="41.727390" lon="2.242159">
        <ele>625.889742</ele>
        <time>2020-08-09T08:57:37.152Z</time>
      </trkpt>
      <trkpt lat="41.727393" lon="2.242281">
        <ele>626.548997</ele>
        <time>2020-08-09T08:57:47.153Z</time>
      </trkpt>
      <trkpt lat="41.727387" lon="2.242407">
        <ele>627.230882</ele>
        <time>2020-08-09T08:57:55.146Z</time>
      </trkpt>
      <trkpt lat="41.727363" lon="2.242525">
        <ele>627.891418</ele>
        <time>2020-08-09T08:58:03.148Z</time>
      </trkpt>
      <trkpt lat="41.727297" lon="2.242614">
        <ele>628.569032</ele>
        <time>2020-08-09T08:58:10.145Z</time>
      </trkpt>
      <trkpt lat="41.727213" lon="2.242680">
        <ele>629.273707</ele>
        <time>2020-08-09T08:58:17.135Z</time>
      </trkpt>
      <trkpt lat="41.727139" lon="2.242765">
        <ele>629.979052</ele>
        <time>2020-08-09T08:58:25.155Z</time>
      </trkpt>
      <trkpt lat="41.727104" lon="2.242887">
        <ele>630.684956</ele>
        <time>2020-08-09T08:58:33.148Z</time>
      </trkpt>
      <trkpt lat="41.727091" lon="2.243019">
        <ele>631.404046</ele>
        <time>2020-08-09T08:58:45.149Z</time>
      </trkpt>
      <trkpt lat="41.727042" lon="2.243130">
        <ele>632.100555</ele>
        <time>2020-08-09T08:58:55.146Z</time>
      </trkpt>
      <trkpt lat="41.726970" lon="2.243204">
        <ele>632.736390</ele>
        <time>2020-08-09T08:59:03.154Z</time>
      </trkpt>
      <trkpt lat="41.726892" lon="2.243268">
        <ele>633.298846</ele>
        <time>2020-08-09T08:59:23.138Z</time>
      </trkpt>
      <trkpt lat="41.726798" lon="2.243341">
        <ele>633.966978</ele>
        <time>2020-08-09T08:59:28.145Z</time>
      </trkpt>
      <trkpt lat="41.726711" lon="2.243385">
        <ele>634.538831</ele>
        <time>2020-08-09T08:59:32.145Z</time>
      </trkpt>
      <trkpt lat="41.726630" lon="2.243461">
        <ele>635.146930</ele>
        <time>2020-08-09T08:59:36.143Z</time>
      </trkpt>
      <trkpt lat="41.726561" lon="2.243562">
        <ele>635.775359</ele>
        <time>2020-08-09T08:59:40.143Z</time>
      </trkpt>
      <trkpt lat="41.726494" lon="2.243651">
        <ele>636.355540</ele>
        <time>2020-08-09T08:59:44.143Z</time>
      </trkpt>
      <trkpt lat="41.726423" lon="2.243742">
        <ele>636.959749</ele>
        <time>2020-08-09T08:59:48.140Z</time>
      </trkpt>
      <trkpt lat="41.726344" lon="2.243818">
        <ele>637.557816</ele>
        <time>2020-08-09T08:59:52.151Z</time>
      </trkpt>
      <trkpt lat="41.726245" lon="2.243866">
        <ele>638.205254</ele>
        <time>2020-08-09T08:59:57.135Z</time>
      </trkpt>
      <trkpt lat="41.726135" lon="2.243867">
        <ele>638.881719</ele>
        <time>2020-08-09T09:00:02.146Z</time>
      </trkpt>
      <trkpt lat="41.726036" lon="2.243879">
        <ele>639.493010</ele>
        <time>2020-08-09T09:00:06.146Z</time>
      </trkpt>
      <trkpt lat="41.725929" lon="2.243855">
        <ele>640.160167</ele>
        <time>2020-08-09T09:00:10.141Z</time>
      </trkpt>
      <trkpt lat="41.725828" lon="2.243806">
        <ele>640.820732</ele>
        <time>2020-08-09T09:00:14.128Z</time>
      </trkpt>
      <trkpt lat="41.725752" lon="2.243712">
        <ele>641.456782</ele>
        <time>2020-08-09T09:00:18.160Z</time>
      </trkpt>
      <trkpt lat="41.725701" lon="2.243600">
        <ele>642.058944</ele>
        <time>2020-08-09T09:00:23.162Z</time>
      </trkpt>
      <trkpt lat="41.725652" lon="2.243484">
        <ele>642.670702</ele>
        <time>2020-08-09T09:00:28.156Z</time>
      </trkpt>
      <trkpt lat="41.725566" lon="2.243395">
        <ele>643.338945</ele>
        <time>2020-08-09T09:00:34.152Z</time>
      </trkpt>
      <trkpt lat="41.725457" lon="2.243355">
        <ele>643.366047</ele>
        <time>2020-08-09T09:00:39.150Z</time>
      </trkpt>
      <trkpt lat="41.725356" lon="2.243343">
        <ele>642.814932</ele>
        <time>2020-08-09T09:00:43.152Z</time>
      </trkpt>
      <trkpt lat="41.725251" lon="2.243329">
        <ele>642.241411</ele>
        <time>2020-08-09T09:00:47.148Z</time>
      </trkpt>
      <trkpt lat="41.725160" lon="2.243288">
        <ele>641.719587</ele>
        <time>2020-08-09T09:00:51.151Z</time>
      </trkpt>
      <trkpt lat="41.725061" lon="2.243222">
        <ele>641.118568</ele>
        <time>2020-08-09T09:00:55.147Z</time>
      </trkpt>
      <trkpt lat="41.724972" lon="2.243197">
        <ele>640.624314</ele>
        <time>2020-08-09T09:00:58.140Z</time>
      </trkpt>
      <trkpt lat="41.724867" lon="2.243180">
        <ele>640.049460</ele>
        <time>2020-08-09T09:01:01.149Z</time>
      </trkpt>
      <trkpt lat="41.724733" lon="2.243150">
        <ele>639.311038</ele>
        <time>2020-08-09T09:01:04.146Z</time>
      </trkpt>
      <trkpt lat="41.724639" lon="2.243102">
        <ele>638.764276</ele>
        <time>2020-08-09T09:01:06.145Z</time>
      </trkpt>
      <trkpt lat="41.724550" lon="2.243021">
        <ele>638.179492</ele>
        <time>2020-08-09T09:01:08.144Z</time>
      </trkpt>
      <trkpt lat="41.724477" lon="2.242889">
        <ele>637.513037</ele>
        <time>2020-08-09T09:01:10.146Z</time>
      </trkpt>
      <trkpt lat="41.724407" lon="2.242754">
        <ele>636.846201</ele>
        <time>2020-08-09T09:01:12.145Z</time>
      </trkpt>
      <trkpt lat="41.724336" lon="2.242673">
        <ele>636.339356</ele>
        <time>2020-08-09T09:01:17.146Z</time>
      </trkpt>
      <trkpt lat="41.724245" lon="2.242687">
        <ele>635.841498</ele>
        <time>2020-08-09T09:01:22.153Z</time>
      </trkpt>
      <trkpt lat="41.724143" lon="2.242713">
        <ele>635.277157</ele>
        <time>2020-08-09T09:01:26.126Z</time>
      </trkpt>
      <trkpt lat="41.724040" lon="2.242620">
        <ele>634.602070</ele>
        <time>2020-08-09T09:01:30.134Z</time>
      </trkpt>
      <trkpt lat="41.723994" lon="2.242484">
        <ele>633.996355</ele>
        <time>2020-08-09T09:01:33.152Z</time>
      </trkpt>
      <trkpt lat="41.723949" lon="2.242356">
        <ele>633.649849</ele>
        <time>2020-08-09T09:01:35.147Z</time>
      </trkpt>
      <trkpt lat="41.723865" lon="2.242185">
        <ele>633.212182</ele>
        <time>2020-08-09T09:01:37.150Z</time>
      </trkpt>
      <trkpt lat="41.723796" lon="2.241971">
        <ele>632.713793</ele>
        <time>2020-08-09T09:01:39.147Z</time>
      </trkpt>
      <trkpt lat="41.723755" lon="2.241814">
        <ele>632.358182</ele>
        <time>2020-08-09T09:01:41.125Z</time>
      </trkpt>
      <trkpt lat="41.723677" lon="2.241720">
        <ele>632.057667</ele>
        <time>2020-08-09T09:01:44.138Z</time>
      </trkpt>
      <trkpt lat="41.723581" lon="2.241723">
        <ele>631.782600</ele>
        <time>2020-08-09T09:01:49.151Z</time>
      </trkpt>
      <trkpt lat="41.723499" lon="2.241806">
        <ele>631.488217</ele>
        <time>2020-08-09T09:01:55.147Z</time>
      </trkpt>
      <trkpt lat="41.723414" lon="2.241856">
        <ele>631.222302</ele>
        <time>2020-08-09T09:02:00.148Z</time>
      </trkpt>
      <trkpt lat="41.723318" lon="2.241892">
        <ele>630.936742</ele>
        <time>2020-08-09T09:02:04.149Z</time>
      </trkpt>
      <trkpt lat="41.723222" lon="2.241921">
        <ele>630.654848</ele>
        <time>2020-08-09T09:02:08.150Z</time>
      </trkpt>
      <trkpt lat="41.723121" lon="2.241917">
        <ele>630.365407</ele>
        <time>2020-08-09T09:02:12.147Z</time>
      </trkpt>
      <trkpt lat="41.723011" lon="2.241904">
        <ele>630.049089</ele>
        <time>2020-08-09T09:02:16.143Z</time>
      </trkpt>
      <trkpt lat="41.722891" lon="2.241879">
        <ele>629.701219</ele>
        <time>2020-08-09T09:02:20.142Z</time>
      </trkpt>
      <trkpt lat="41.722788" lon="2.241849">
        <ele>629.399285</ele>
        <time>2020-08-09T09:02:23.142Z</time>
      </trkpt>
      <trkpt lat="41.722706" lon="2.241743">
        <ele>629.072892</ele>
        <time>2020-08-09T09:02:26.145Z</time>
      </trkpt>
      <trkpt lat="41.722684" lon="2.241624">
        <ele>628.810783</ele>
        <time>2020-08-09T09:02:28.147Z</time>
      </trkpt>
      <trkpt lat="41.722685" lon="2.241497">
        <ele>629.040226</ele>
        <time>2020-08-09T09:02:30.156Z</time>
      </trkpt>
      <trkpt lat="41.722685" lon="2.241367">
        <ele>629.419538</ele>
        <time>2020-08-09T09:02:32.155Z</time>
      </trkpt>
      <trkpt lat="41.722626" lon="2.241245">
        <ele>629.843699</ele>
        <time>2020-08-09T09:02:35.147Z</time>
      </trkpt>
      <trkpt lat="41.722534" lon="2.241249">
        <ele>630.203542</ele>
        <time>2020-08-09T09:02:39.136Z</time>
      </trkpt>
      <trkpt lat="41.722527" lon="2.241387">
        <ele>630.607126</ele>
        <time>2020-08-09T09:02:42.146Z</time>
      </trkpt>
      <trkpt lat="41.722500" lon="2.241512">
        <ele>630.986816</ele>
        <time>2020-08-09T09:02:46.156Z</time>
      </trkpt>
      <trkpt lat="41.722413" lon="2.241613">
        <ele>631.436838</ele>
        <time>2020-08-09T09:02:49.132Z</time>
      </trkpt>
      <trkpt lat="41.722316" lon="2.241663">
        <ele>631.843134</ele>
        <time>2020-08-09T09:02:51.129Z</time>
      </trkpt>
      <trkpt lat="41.722257" lon="2.241780">
        <ele>632.255130</ele>
        <time>2020-08-09T09:02:54.139Z</time>
      </trkpt>
      <trkpt lat="41.722297" lon="2.241910">
        <ele>632.665412</ele>
        <time>2020-08-09T09:02:58.148Z</time>
      </trkpt>
      <trkpt lat="41.722351" lon="2.242030">
        <ele>633.074263</ele>
        <time>2020-08-09T09:03:04.127Z</time>
      </trkpt>
      <trkpt lat="41.722388" lon="2.242145">
        <ele>633.439658</ele>
        <time>2020-08-09T09:03:10.142Z</time>
      </trkpt>
      <trkpt lat="41.722452" lon="2.242244">
        <ele>633.821807</ele>
        <time>2020-08-09T09:03:16.137Z</time>
      </trkpt>
      <trkpt lat="41.722504" lon="2.242350">
        <ele>634.191917</ele>
        <time>2020-08-09T09:03:22.153Z</time>
      </trkpt>
      <trkpt lat="41.722549" lon="2.242472">
        <ele>634.588984</ele>
        <time>2020-08-09T09:03:28.151Z</time>
      </trkpt>
      <trkpt lat="41.722593" lon="2.242602">
        <ele>635.005476</ele>
        <time>2020-08-09T09:03:34.153Z</time>
      </trkpt>
      <trkpt lat="41.722613" lon="2.242734">
        <ele>635.398480</ele>
        <time>2020-08-09T09:03:38.153Z</time>
      </trkpt>
      <trkpt lat="41.722633" lon="2.242855">
        <ele>635.760086</ele>
        <time>2020-08-09T09:03:42.151Z</time>
      </trkpt>
      <trkpt lat="41.722659" lon="2.242973">
        <ele>636.190225</ele>
        <time>2020-08-09T09:03:46.161Z</time>
      </trkpt>
      <trkpt lat="41.722691" lon="2.243087">
        <ele>636.620722</ele>
        <time>2020-08-09T09:03:50.152Z</time>
      </trkpt>
      <trkpt lat="41.722752" lon="2.243178">
        <ele>637.053048</ele>
        <time>2020-08-09T09:03:54.161Z</time>
      </trkpt>
      <trkpt lat="41.722814" lon="2.243278">
        <ele>637.512548</ele>
        <time>2020-08-09T09:03:58.154Z</time>
      </trkpt>
      <trkpt lat="41.722863" lon="2.243398">
        <ele>637.996024</ele>
        <time>2020-08-09T09:04:02.150Z</time>
      </trkpt>
      <trkpt lat="41.722881" lon="2.243517">
        <ele>638.425189</ele>
        <time>2020-08-09T09:04:05.127Z</time>
      </trkpt>
      <trkpt lat="41.722902" lon="2.243672">
        <ele>638.982001</ele>
        <time>2020-08-09T09:04:09.158Z</time>
      </trkpt>
      <trkpt lat="41.722940" lon="2.243801">
        <ele>639.472188</ele>
        <time>2020-08-09T09:04:12.152Z</time>
      </trkpt>
      <trkpt lat="41.722990" lon="2.243942">
        <ele>640.023952</ele>
        <time>2020-08-09T09:04:15.157Z</time>
      </trkpt>
      <trkpt lat="41.723056" lon="2.244054">
        <ele>640.528337</ele>
        <time>2020-08-09T09:04:18.159Z</time>
      </trkpt>
      <trkpt lat="41.723113" lon="2.244163">
        <ele>640.998757</ele>
        <time>2020-08-09T09:04:21.172Z</time>
      </trkpt>
      <trkpt lat="41.723155" lon="2.244280">
        <ele>641.457646</ele>
        <time>2020-08-09T09:04:24.150Z</time>
      </trkpt>
      <trkpt lat="41.723197" lon="2.244400">
        <ele>641.926112</ele>
        <time>2020-08-09T09:04:28.153Z</time>
      </trkpt>
      <trkpt lat="41.723279" lon="2.244480">
        <ele>642.406479</ele>
        <time>2020-08-09T09:04:33.151Z</time>
      </trkpt>
      <trkpt lat="41.723350" lon="2.244588">
        <ele>642.915175</ele>
        <time>2020-08-09T09:04:38.151Z</time>
      </trkpt>
      <trkpt lat="41.723408" lon="2.244714">
        <ele>643.438417</ele>
        <time>2020-08-09T09:04:43.125Z</time>
      </trkpt>
      <trkpt lat="41.723464" lon="2.244842">
        <ele>643.962835</ele>
        <time>2020-08-09T09:04:48.156Z</time>
      </trkpt>
      <trkpt lat="41.723515" lon="2.244957">
        <ele>644.524647</ele>
        <time>2020-08-09T09:04:53.155Z</time>
      </trkpt>
      <trkpt lat="41.723530" lon="2.245076">
        <ele>645.231659</ele>
        <time>2020-08-09T09:04:58.150Z</time>
      </trkpt>
      <trkpt lat="41.723542" lon="2.245216">
        <ele>646.057213</ele>
        <time>2020-08-09T09:05:04.128Z</time>
      </trkpt>
      <trkpt lat="41.723539" lon="2.245340">
        <ele>646.784026</ele>
        <time>2020-08-09T09:05:10.145Z</time>
      </trkpt>
      <trkpt lat="41.723521" lon="2.245471">
        <ele>647.564361</ele>
        <time>2020-08-09T09:05:18.160Z</time>
      </trkpt>
      <trkpt lat="41.723521" lon="2.245608">
        <ele>648.366951</ele>
        <time>2020-08-09T09:05:25.154Z</time>
      </trkpt>
      <trkpt lat="41.723556" lon="2.245722">
        <ele>649.089094</ele>
        <time>2020-08-09T09:05:31.145Z</time>
      </trkpt>
      <trkpt lat="41.723582" lon="2.245852">
        <ele>649.877543</ele>
        <time>2020-08-09T09:05:38.162Z</time>
      </trkpt>
      <trkpt lat="41.723667" lon="2.245922">
        <ele>650.660672</ele>
        <time>2020-08-09T09:05:44.157Z</time>
      </trkpt>
      <trkpt lat="41.723756" lon="2.245990">
        <ele>651.464847</ele>
        <time>2020-08-09T09:05:49.146Z</time>
      </trkpt>
      <trkpt lat="41.723848" lon="2.246046">
        <ele>652.257994</ele>
        <time>2020-08-09T09:05:54.123Z</time>
      </trkpt>
      <trkpt lat="41.723949" lon="2.246087">
        <ele>653.086344</ele>
        <time>2020-08-09T09:05:59.147Z</time>
      </trkpt>
      <trkpt lat="41.724031" lon="2.246178">
        <ele>653.922081</ele>
        <time>2020-08-09T09:06:04.148Z</time>
      </trkpt>
      <trkpt lat="41.724100" lon="2.246276">
        <ele>654.711335</ele>
        <time>2020-08-09T09:06:09.147Z</time>
      </trkpt>
      <trkpt lat="41.724143" lon="2.246386">
        <ele>655.438780</ele>
        <time>2020-08-09T09:06:13.148Z</time>
      </trkpt>
      <trkpt lat="41.724172" lon="2.246513">
        <ele>656.216821</ele>
        <time>2020-08-09T09:06:18.154Z</time>
      </trkpt>
      <trkpt lat="41.724213" lon="2.246626">
        <ele>656.952881</ele>
        <time>2020-08-09T09:06:24.147Z</time>
      </trkpt>
      <trkpt lat="41.724264" lon="2.246734">
        <ele>657.701575</ele>
        <time>2020-08-09T09:06:30.150Z</time>
      </trkpt>
      <trkpt lat="41.724316" lon="2.246855">
        <ele>658.553350</ele>
        <time>2020-08-09T09:06:37.160Z</time>
      </trkpt>
      <trkpt lat="41.724327" lon="2.246979">
        <ele>659.528666</ele>
        <time>2020-08-09T09:06:43.151Z</time>
      </trkpt>
      <trkpt lat="41.724315" lon="2.247103">
        <ele>660.505272</ele>
        <time>2020-08-09T09:06:49.218Z</time>
      </trkpt>
      <trkpt lat="41.724280" lon="2.247222">
        <ele>661.504284</ele>
        <time>2020-08-09T09:06:55.166Z</time>
      </trkpt>
      <trkpt lat="41.724251" lon="2.247340">
        <ele>662.474601</ele>
        <time>2020-08-09T09:07:02.155Z</time>
      </trkpt>
      <trkpt lat="41.724203" lon="2.247460">
        <ele>663.537978</ele>
        <time>2020-08-09T09:07:10.161Z</time>
      </trkpt>
      <trkpt lat="41.724142" lon="2.247551">
        <ele>664.493314</ele>
        <time>2020-08-09T09:07:17.153Z</time>
      </trkpt>
      <trkpt lat="41.724067" lon="2.247625">
        <ele>665.468027</ele>
        <time>2020-08-09T09:07:23.164Z</time>
      </trkpt>
      <trkpt lat="41.723980" lon="2.247693">
        <ele>666.522059</ele>
        <time>2020-08-09T09:07:30.147Z</time>
      </trkpt>
      <trkpt lat="41.723888" lon="2.247751">
        <ele>667.586075</ele>
        <time>2020-08-09T09:07:37.152Z</time>
      </trkpt>
      <trkpt lat="41.723806" lon="2.247810">
        <ele>668.560097</ele>
        <time>2020-08-09T09:07:43.150Z</time>
      </trkpt>
      <trkpt lat="41.723719" lon="2.247851">
        <ele>669.525212</ele>
        <time>2020-08-09T09:07:48.130Z</time>
      </trkpt>
      <trkpt lat="41.723610" lon="2.247886">
        <ele>670.698178</ele>
        <time>2020-08-09T09:07:53.151Z</time>
      </trkpt>
      <trkpt lat="41.723515" lon="2.247957">
        <ele>671.836543</ele>
        <time>2020-08-09T09:07:58.152Z</time>
      </trkpt>
      <trkpt lat="41.723454" lon="2.248059">
        <ele>672.857421</ele>
        <time>2020-08-09T09:08:04.155Z</time>
      </trkpt>
      <trkpt lat="41.723404" lon="2.248166">
        <ele>673.843439</ele>
        <time>2020-08-09T09:08:19.155Z</time>
      </trkpt>
      <trkpt lat="41.723349" lon="2.248271">
        <ele>674.845366</ele>
        <time>2020-08-09T09:08:31.148Z</time>
      </trkpt>
      <trkpt lat="41.723282" lon="2.248359">
        <ele>675.827215</ele>
        <time>2020-08-09T09:08:40.160Z</time>
      </trkpt>
      <trkpt lat="41.723220" lon="2.248451">
        <ele>676.795366</ele>
        <time>2020-08-09T09:08:48.164Z</time>
      </trkpt>
      <trkpt lat="41.723147" lon="2.248526">
        <ele>677.469711</ele>
        <time>2020-08-09T09:08:58.150Z</time>
      </trkpt>
      <trkpt lat="41.723079" lon="2.248613">
        <ele>677.905451</ele>
        <time>2020-08-09T09:09:09.145Z</time>
      </trkpt>
      <trkpt lat="41.722979" lon="2.248639">
        <ele>678.377532</ele>
        <time>2020-08-09T09:09:46.119Z</time>
      </trkpt>
      <trkpt lat="41.722889" lon="2.248594">
        <ele>678.822722</ele>
        <time>2020-08-09T09:09:52.124Z</time>
      </trkpt>
      <trkpt lat="41.722794" lon="2.248607">
        <ele>679.265276</ele>
        <time>2020-08-09T09:09:58.136Z</time>
      </trkpt>
      <trkpt lat="41.722696" lon="2.248652">
        <ele>679.745376</ele>
        <time>2020-08-09T09:10:04.134Z</time>
      </trkpt>
      <trkpt lat="41.722613" lon="2.248712">
        <ele>680.182445</ele>
        <time>2020-08-09T09:10:10.143Z</time>
      </trkpt>
      <trkpt lat="41.722545" lon="2.248791">
        <ele>680.599555</ele>
        <time>2020-08-09T09:10:16.144Z</time>
      </trkpt>
      <trkpt lat="41.722471" lon="2.248861">
        <ele>681.019360</ele>
        <time>2020-08-09T09:10:21.143Z</time>
      </trkpt>
      <trkpt lat="41.722356" lon="2.248897">
        <ele>681.566665</ele>
        <time>2020-08-09T09:11:05.165Z</time>
      </trkpt>
      <trkpt lat="41.722468" lon="2.248869">
        <ele>682.094672</ele>
        <time>2020-08-09T09:12:03.150Z</time>
      </trkpt>
      <trkpt lat="41.722553" lon="2.248778">
        <ele>682.598906</ele>
        <time>2020-08-09T09:12:08.154Z</time>
      </trkpt>
      <trkpt lat="41.722547" lon="2.248638">
        <ele>683.083960</ele>
        <time>2020-08-09T09:12:22.152Z</time>
      </trkpt>
      <trkpt lat="41.722458" lon="2.248557">
        <ele>683.582579</ele>
        <time>2020-08-09T09:12:28.162Z</time>
      </trkpt>
      <trkpt lat="41.722362" lon="2.248513">
        <ele>684.052789</ele>
        <time>2020-08-09T09:12:34.150Z</time>
      </trkpt>
      <trkpt lat="41.722264" lon="2.248554">
        <ele>684.528584</ele>
        <time>2020-08-09T09:12:41.149Z</time>
      </trkpt>
      <trkpt lat="41.722186" lon="2.248643">
        <ele>685.003389</ele>
        <time>2020-08-09T09:12:48.147Z</time>
      </trkpt>
      <trkpt lat="41.722105" lon="2.248735">
        <ele>685.495508</ele>
        <time>2020-08-09T09:12:54.157Z</time>
      </trkpt>
      <trkpt lat="41.722043" lon="2.248834">
        <ele>685.395554</ele>
        <time>2020-08-09T09:12:59.153Z</time>
      </trkpt>
      <trkpt lat="41.721956" lon="2.248910">
        <ele>685.158421</ele>
        <time>2020-08-09T09:13:05.150Z</time>
      </trkpt>
      <trkpt lat="41.721861" lon="2.248956">
        <ele>684.927785</ele>
        <time>2020-08-09T09:13:11.141Z</time>
      </trkpt>
      <trkpt lat="41.721954" lon="2.248899">
        <ele>684.694283</ele>
        <time>2020-08-09T09:13:36.162Z</time>
      </trkpt>
      <trkpt lat="41.722041" lon="2.248839">
        <ele>684.470872</ele>
        <time>2020-08-09T09:13:39.152Z</time>
      </trkpt>
      <trkpt lat="41.722114" lon="2.248737">
        <ele>684.230051</ele>
        <time>2020-08-09T09:13:42.145Z</time>
      </trkpt>
      <trkpt lat="41.722197" lon="2.248638">
        <ele>683.976327</ele>
        <time>2020-08-09T09:13:46.146Z</time>
      </trkpt>
      <trkpt lat="41.722284" lon="2.248552">
        <ele>683.729474</ele>
        <time>2020-08-09T09:13:50.153Z</time>
      </trkpt>
      <trkpt lat="41.722377" lon="2.248516">
        <ele>683.508450</ele>
        <time>2020-08-09T09:13:54.125Z</time>
      </trkpt>
      <trkpt lat="41.722481" lon="2.248551">
        <ele>683.263620</ele>
        <time>2020-08-09T09:13:57.151Z</time>
      </trkpt>
      <trkpt lat="41.722569" lon="2.248615">
        <ele>683.035005</ele>
        <time>2020-08-09T09:14:00.150Z</time>
      </trkpt>
      <trkpt lat="41.722668" lon="2.248645">
        <ele>682.803257</ele>
        <time>2020-08-09T09:14:04.148Z</time>
      </trkpt>
      <trkpt lat="41.722772" lon="2.248605">
        <ele>682.556213</ele>
        <time>2020-08-09T09:14:08.149Z</time>
      </trkpt>
      <trkpt lat="41.722863" lon="2.248589">
        <ele>682.346660</ele>
        <time>2020-08-09T09:14:11.149Z</time>
      </trkpt>
      <trkpt lat="41.722958" lon="2.248612">
        <ele>682.126242</ele>
        <time>2020-08-09T09:14:14.147Z</time>
      </trkpt>
      <trkpt lat="41.723049" lon="2.248619">
        <ele>681.918127</ele>
        <time>2020-08-09T09:14:17.153Z</time>
      </trkpt>
      <trkpt lat="41.723130" lon="2.248536">
        <ele>681.685300</ele>
        <time>2020-08-09T09:14:22.141Z</time>
      </trkpt>
      <trkpt lat="41.723045" lon="2.248593">
        <ele>681.466475</ele>
        <time>2020-08-09T09:15:01.147Z</time>
      </trkpt>
      <trkpt lat="41.723049" lon="2.248460">
        <ele>680.877836</ele>
        <time>2020-08-09T09:15:15.135Z</time>
      </trkpt>
      <trkpt lat="41.723060" lon="2.248326">
        <ele>680.281679</ele>
        <time>2020-08-09T09:15:23.141Z</time>
      </trkpt>
      <trkpt lat="41.723089" lon="2.248208">
        <ele>679.732291</ele>
        <time>2020-08-09T09:15:31.147Z</time>
      </trkpt>
      <trkpt lat="41.723123" lon="2.248096">
        <ele>679.197597</ele>
        <time>2020-08-09T09:15:39.155Z</time>
      </trkpt>
      <trkpt lat="41.723092" lon="2.248228">
        <ele>678.585643</ele>
        <time>2020-08-09T09:16:44.158Z</time>
      </trkpt>
      <trkpt lat="41.723067" lon="2.248368">
        <ele>677.949053</ele>
        <time>2020-08-09T09:16:49.156Z</time>
      </trkpt>
      <trkpt lat="41.723033" lon="2.248495">
        <ele>677.352389</ele>
        <time>2020-08-09T09:16:55.160Z</time>
      </trkpt>
      <trkpt lat="41.723104" lon="2.248570">
        <ele>676.816690</ele>
        <time>2020-08-09T09:17:01.147Z</time>
      </trkpt>
      <trkpt lat="41.723166" lon="2.248477">
        <ele>676.265246</ele>
        <time>2020-08-09T09:17:04.154Z</time>
      </trkpt>
      <trkpt lat="41.723254" lon="2.248377">
        <ele>675.581562</ele>
        <time>2020-08-09T09:17:07.155Z</time>
      </trkpt>
      <trkpt lat="41.723313" lon="2.248274">
        <ele>675.007387</ele>
        <time>2020-08-09T09:17:10.151Z</time>
      </trkpt>
      <trkpt lat="41.723386" lon="2.248182">
        <ele>674.413583</ele>
        <time>2020-08-09T09:17:14.151Z</time>
      </trkpt>
      <trkpt lat="41.723442" lon="2.248080">
        <ele>673.853623</ele>
        <time>2020-08-09T09:17:23.157Z</time>
      </trkpt>
      <trkpt lat="41.723490" lon="2.247969">
        <ele>673.286318</ele>
        <time>2020-08-09T09:17:27.152Z</time>
      </trkpt>
      <trkpt lat="41.723581" lon="2.247906">
        <ele>672.679415</ele>
        <time>2020-08-09T09:17:31.137Z</time>
      </trkpt>
      <trkpt lat="41.723677" lon="2.247872">
        <ele>672.091076</ele>
        <time>2020-08-09T09:17:34.160Z</time>
      </trkpt>
      <trkpt lat="41.723772" lon="2.247836">
        <ele>671.506118</ele>
        <time>2020-08-09T09:17:37.155Z</time>
      </trkpt>
      <trkpt lat="41.723856" lon="2.247772">
        <ele>670.933572</ele>
        <time>2020-08-09T09:17:41.146Z</time>
      </trkpt>
      <trkpt lat="41.723764" lon="2.247705">
        <ele>670.185486</ele>
        <time>2020-08-09T09:18:08.154Z</time>
      </trkpt>
      <trkpt lat="41.723682" lon="2.247645">
        <ele>669.490345</ele>
        <time>2020-08-09T09:18:25.129Z</time>
      </trkpt>
      <trkpt lat="41.723661" lon="2.247524">
        <ele>668.800499</ele>
        <time>2020-08-09T09:18:56.148Z</time>
      </trkpt>
      <trkpt lat="41.723703" lon="2.247635">
        <ele>668.109427</ele>
        <time>2020-08-09T09:20:16.166Z</time>
      </trkpt>
      <trkpt lat="41.723800" lon="2.247676">
        <ele>667.352673</ele>
        <time>2020-08-09T09:20:33.147Z</time>
      </trkpt>
      <trkpt lat="41.723903" lon="2.247654">
        <ele>666.576662</ele>
        <time>2020-08-09T09:20:43.147Z</time>
      </trkpt>
      <trkpt lat="41.723992" lon="2.247622">
        <ele>665.891061</ele>
        <time>2020-08-09T09:20:47.140Z</time>
      </trkpt>
      <trkpt lat="41.724091" lon="2.247582">
        <ele>665.121725</ele>
        <time>2020-08-09T09:20:51.139Z</time>
      </trkpt>
      <trkpt lat="41.724173" lon="2.247503">
        <ele>664.370288</ele>
        <time>2020-08-09T09:20:54.158Z</time>
      </trkpt>
      <trkpt lat="41.724238" lon="2.247371">
        <ele>663.492130</ele>
        <time>2020-08-09T09:20:57.144Z</time>
      </trkpt>
      <trkpt lat="41.724271" lon="2.247246">
        <ele>662.755862</ele>
        <time>2020-08-09T09:21:00.132Z</time>
      </trkpt>
      <trkpt lat="41.724305" lon="2.247097">
        <ele>661.890660</ele>
        <time>2020-08-09T09:21:04.146Z</time>
      </trkpt>
      <trkpt lat="41.724299" lon="2.246941">
        <ele>661.023244</ele>
        <time>2020-08-09T09:21:07.149Z</time>
      </trkpt>
      <trkpt lat="41.724259" lon="2.246814">
        <ele>660.257790</ele>
        <time>2020-08-09T09:21:09.153Z</time>
      </trkpt>
      <trkpt lat="41.724213" lon="2.246693">
        <ele>659.503735</ele>
        <time>2020-08-09T09:21:11.152Z</time>
      </trkpt>
      <trkpt lat="41.724149" lon="2.246541">
        <ele>658.534629</ele>
        <time>2020-08-09T09:21:14.182Z</time>
      </trkpt>
      <trkpt lat="41.724119" lon="2.246427">
        <ele>657.863389</ele>
        <time>2020-08-09T09:21:16.155Z</time>
      </trkpt>
      <trkpt lat="41.724083" lon="2.246292">
        <ele>656.937226</ele>
        <time>2020-08-09T09:21:18.150Z</time>
      </trkpt>
      <trkpt lat="41.724028" lon="2.246183">
        <ele>655.944700</ele>
        <time>2020-08-09T09:21:20.150Z</time>
      </trkpt>
      <trkpt lat="41.723944" lon="2.246099">
        <ele>654.885302</ele>
        <time>2020-08-09T09:21:22.159Z</time>
      </trkpt>
      <trkpt lat="41.723852" lon="2.246057">
        <ele>653.902949</ele>
        <time>2020-08-09T09:21:24.154Z</time>
      </trkpt>
      <trkpt lat="41.723760" lon="2.246028">
        <ele>652.947705</ele>
        <time>2020-08-09T09:21:26.146Z</time>
      </trkpt>
      <trkpt lat="41.723667" lon="2.245978">
        <ele>651.934888</ele>
        <time>2020-08-09T09:21:28.148Z</time>
      </trkpt>
      <trkpt lat="41.723581" lon="2.245909">
        <ele>650.921743</ele>
        <time>2020-08-09T09:21:30.134Z</time>
      </trkpt>
      <trkpt lat="41.723522" lon="2.245818">
        <ele>650.012437</ele>
        <time>2020-08-09T09:21:32.149Z</time>
      </trkpt>
      <trkpt lat="41.723508" lon="2.245665">
        <ele>648.849622</ele>
        <time>2020-08-09T09:21:36.153Z</time>
      </trkpt>
      <trkpt lat="41.723488" lon="2.245544">
        <ele>647.914728</ele>
        <time>2020-08-09T09:21:39.154Z</time>
      </trkpt>
      <trkpt lat="41.723498" lon="2.245418">
        <ele>646.958873</ele>
        <time>2020-08-09T09:21:42.151Z</time>
      </trkpt>
      <trkpt lat="41.723505" lon="2.245285">
        <ele>645.953080</ele>
        <time>2020-08-09T09:21:45.148Z</time>
      </trkpt>
      <trkpt lat="41.723505" lon="2.245135">
        <ele>644.821537</ele>
        <time>2020-08-09T09:21:48.153Z</time>
      </trkpt>
      <trkpt lat="41.723397" lon="2.244725">
        <ele>641.541678</ele>
        <time>2020-08-09T09:21:50.148Z</time>
      </trkpt>
      <trkpt lat="41.723329" lon="2.244599">
        <ele>640.368730</ele>
        <time>2020-08-09T09:21:52.147Z</time>
      </trkpt>
      <trkpt lat="41.723257" lon="2.244480">
        <ele>639.229829</ele>
        <time>2020-08-09T09:21:54.175Z</time>
      </trkpt>
      <trkpt lat="41.723169" lon="2.244362">
        <ele>638.524974</ele>
        <time>2020-08-09T09:21:57.145Z</time>
      </trkpt>
      <trkpt lat="41.723102" lon="2.244241">
        <ele>637.888347</ele>
        <time>2020-08-09T09:22:01.148Z</time>
      </trkpt>
      <trkpt lat="41.723030" lon="2.244021">
        <ele>636.873292</ele>
        <time>2020-08-09T09:23:00.150Z</time>
      </trkpt>
      <trkpt lat="41.722972" lon="2.243917">
        <ele>636.324711</ele>
        <time>2020-08-09T09:23:04.139Z</time>
      </trkpt>
      <trkpt lat="41.722930" lon="2.243790">
        <ele>635.737750</ele>
        <time>2020-08-09T09:23:08.158Z</time>
      </trkpt>
      <trkpt lat="41.722895" lon="2.243649">
        <ele>635.109864</ele>
        <time>2020-08-09T09:23:12.129Z</time>
      </trkpt>
      <trkpt lat="41.722871" lon="2.243531">
        <ele>634.593070</ele>
        <time>2020-08-09T09:23:15.149Z</time>
      </trkpt>
      <trkpt lat="41.722855" lon="2.243407">
        <ele>634.061332</ele>
        <time>2020-08-09T09:23:18.146Z</time>
      </trkpt>
      <trkpt lat="41.722822" lon="2.243293">
        <ele>633.544661</ele>
        <time>2020-08-09T09:23:21.147Z</time>
      </trkpt>
      <trkpt lat="41.722744" lon="2.243175">
        <ele>632.878615</ele>
        <time>2020-08-09T09:23:24.153Z</time>
      </trkpt>
      <trkpt lat="41.722663" lon="2.243035">
        <ele>632.130115</ele>
        <time>2020-08-09T09:23:27.137Z</time>
      </trkpt>
      <trkpt lat="41.722634" lon="2.242899">
        <ele>631.532448</ele>
        <time>2020-08-09T09:23:29.147Z</time>
      </trkpt>
      <trkpt lat="41.722610" lon="2.242770">
        <ele>630.970674</ele>
        <time>2020-08-09T09:23:31.132Z</time>
      </trkpt>
      <trkpt lat="41.722589" lon="2.242641">
        <ele>630.412763</ele>
        <time>2020-08-09T09:23:33.148Z</time>
      </trkpt>
      <trkpt lat="41.722539" lon="2.242486">
        <ele>629.699250</ele>
        <time>2020-08-09T09:23:36.147Z</time>
      </trkpt>
      <trkpt lat="41.722484" lon="2.242337">
        <ele>629.104697</ele>
        <time>2020-08-09T09:23:39.147Z</time>
      </trkpt>
      <trkpt lat="41.722437" lon="2.242234">
        <ele>629.365361</ele>
        <time>2020-08-09T09:23:41.141Z</time>
      </trkpt>
      <trkpt lat="41.722377" lon="2.242085">
        <ele>629.730915</ele>
        <time>2020-08-09T09:23:44.159Z</time>
      </trkpt>
      <trkpt lat="41.722314" lon="2.241935">
        <ele>630.102549</ele>
        <time>2020-08-09T09:23:47.161Z</time>
      </trkpt>
      <trkpt lat="41.722268" lon="2.241795">
        <ele>630.432828</ele>
        <time>2020-08-09T09:23:50.147Z</time>
      </trkpt>
      <trkpt lat="41.722315" lon="2.241668">
        <ele>630.738901</ele>
        <time>2020-08-09T09:23:55.144Z</time>
      </trkpt>
      <trkpt lat="41.722404" lon="2.241619">
        <ele>631.017258</ele>
        <time>2020-08-09T09:24:01.150Z</time>
      </trkpt>
      <trkpt lat="41.722496" lon="2.241555">
        <ele>631.317138</ele>
        <time>2020-08-09T09:24:09.151Z</time>
      </trkpt>
      <trkpt lat="41.722530" lon="2.241433">
        <ele>631.598321</ele>
        <time>2020-08-09T09:24:16.132Z</time>
      </trkpt>
      <trkpt lat="41.722543" lon="2.241302">
        <ele>631.883662</ele>
        <time>2020-08-09T09:24:23.131Z</time>
      </trkpt>
      <trkpt lat="41.722615" lon="2.241217">
        <ele>632.161271</ele>
        <time>2020-08-09T09:24:30.145Z</time>
      </trkpt>
      <trkpt lat="41.722681" lon="2.241331">
        <ele>632.472786</ele>
        <time>2020-08-09T09:24:36.149Z</time>
      </trkpt>
      <trkpt lat="41.722693" lon="2.241480">
        <ele>632.796369</ele>
        <time>2020-08-09T09:24:40.144Z</time>
      </trkpt>
      <trkpt lat="41.722700" lon="2.241619">
        <ele>633.097175</ele>
        <time>2020-08-09T09:24:44.141Z</time>
      </trkpt>
      <trkpt lat="41.722699" lon="2.241756">
        <ele>633.392995</ele>
        <time>2020-08-09T09:24:48.140Z</time>
      </trkpt>
      <trkpt lat="41.722760" lon="2.241854">
        <ele>633.668520</ele>
        <time>2020-08-09T09:24:53.134Z</time>
      </trkpt>
      <trkpt lat="41.722870" lon="2.241882">
        <ele>633.992428</ele>
        <time>2020-08-09T09:24:58.148Z</time>
      </trkpt>
      <trkpt lat="41.722966" lon="2.241898">
        <ele>634.275319</ele>
        <time>2020-08-09T09:25:02.147Z</time>
      </trkpt>
      <trkpt lat="41.723070" lon="2.241909">
        <ele>635.704792</ele>
        <time>2020-08-09T09:25:06.148Z</time>
      </trkpt>
      <trkpt lat="41.723050" lon="2.241778">
        <ele>637.072270</ele>
        <time>2020-08-09T09:25:22.137Z</time>
      </trkpt>
      <trkpt lat="41.723004" lon="2.241667">
        <ele>638.370715</ele>
        <time>2020-08-09T09:25:38.140Z</time>
      </trkpt>
      <trkpt lat="41.722945" lon="2.241572">
        <ele>639.634641</ele>
        <time>2020-08-09T09:25:50.151Z</time>
      </trkpt>
      <trkpt lat="41.722958" lon="2.241442">
        <ele>640.976033</ele>
        <time>2020-08-09T09:26:05.141Z</time>
      </trkpt>
      <trkpt lat="41.722934" lon="2.241247">
        <ele>642.997233</ele>
        <time>2020-08-09T09:26:47.151Z</time>
      </trkpt>
      <trkpt lat="41.722927" lon="2.241127">
        <ele>644.228218</ele>
        <time>2020-08-09T09:26:56.140Z</time>
      </trkpt>
      <trkpt lat="41.722898" lon="2.241004">
        <ele>645.547412</ele>
        <time>2020-08-09T09:27:05.147Z</time>
      </trkpt>
      <trkpt lat="41.722866" lon="2.240886">
        <ele>646.831389</ele>
        <time>2020-08-09T09:27:19.137Z</time>
      </trkpt>
      <trkpt lat="41.722863" lon="2.240765">
        <ele>648.069542</ele>
        <time>2020-08-09T09:27:29.151Z</time>
      </trkpt>
      <trkpt lat="41.722850" lon="2.240639">
        <ele>649.370402</ele>
        <time>2020-08-09T09:27:38.172Z</time>
      </trkpt>
      <trkpt lat="41.722813" lon="2.240529">
        <ele>650.604338</ele>
        <time>2020-08-09T09:27:46.129Z</time>
      </trkpt>
      <trkpt lat="41.722784" lon="2.240399">
        <ele>651.991966</ele>
        <time>2020-08-09T09:27:54.152Z</time>
      </trkpt>
      <trkpt lat="41.722766" lon="2.240272">
        <ele>653.314011</ele>
        <time>2020-08-09T09:28:02.147Z</time>
      </trkpt>
      <trkpt lat="41.722749" lon="2.240143">
        <ele>654.653706</ele>
        <time>2020-08-09T09:28:11.156Z</time>
      </trkpt>
      <trkpt lat="41.722734" lon="2.240018">
        <ele>655.948504</ele>
        <time>2020-08-09T09:28:22.153Z</time>
      </trkpt>
      <trkpt lat="41.722708" lon="2.239853">
        <ele>657.673165</ele>
        <time>2020-08-09T09:33:24.123Z</time>
      </trkpt>
      <trkpt lat="41.722716" lon="2.239732">
        <ele>658.915484</ele>
        <time>2020-08-09T09:33:40.130Z</time>
      </trkpt>
      <trkpt lat="41.722723" lon="2.239611">
        <ele>660.644804</ele>
        <time>2020-08-09T09:33:54.118Z</time>
      </trkpt>
      <trkpt lat="41.722689" lon="2.239496">
        <ele>662.407959</ele>
        <time>2020-08-09T09:34:21.151Z</time>
      </trkpt>
      <trkpt lat="41.722626" lon="2.239405">
        <ele>664.177188</ele>
        <time>2020-08-09T09:34:34.153Z</time>
      </trkpt>
      <trkpt lat="41.722552" lon="2.239323">
        <ele>666.011164</ele>
        <time>2020-08-09T09:34:45.164Z</time>
      </trkpt>
      <trkpt lat="41.722444" lon="2.239275">
        <ele>668.184261</ele>
        <time>2020-08-09T09:35:18.142Z</time>
      </trkpt>
      <trkpt lat="41.722353" lon="2.239249">
        <ele>669.961250</ele>
        <time>2020-08-09T09:35:33.140Z</time>
      </trkpt>
      <trkpt lat="41.722270" lon="2.239315">
        <ele>671.804535</ele>
        <time>2020-08-09T09:36:17.151Z</time>
      </trkpt>
      <trkpt lat="41.722188" lon="2.239370">
        <ele>673.555845</ele>
        <time>2020-08-09T09:36:31.158Z</time>
      </trkpt>
      <trkpt lat="41.722113" lon="2.239439">
        <ele>675.293365</ele>
        <time>2020-08-09T09:36:44.151Z</time>
      </trkpt>
      <trkpt lat="41.722035" lon="2.239568">
        <ele>677.659849</ele>
        <time>2020-08-09T09:37:39.128Z</time>
      </trkpt>
      <trkpt lat="41.721960" lon="2.239648">
        <ele>679.490697</ele>
        <time>2020-08-09T09:38:53.135Z</time>
      </trkpt>
      <trkpt lat="41.721886" lon="2.239784">
        <ele>681.889742</ele>
        <time>2020-08-09T09:40:13.155Z</time>
      </trkpt>
      <trkpt lat="41.721786" lon="2.239859">
        <ele>684.078403</ele>
        <time>2020-08-09T09:40:55.139Z</time>
      </trkpt>
      <trkpt lat="41.721708" lon="2.239934">
        <ele>685.911966</ele>
        <time>2020-08-09T09:41:07.144Z</time>
      </trkpt>
      <trkpt lat="41.721634" lon="2.240016">
        <ele>687.745953</ele>
        <time>2020-08-09T09:41:20.148Z</time>
      </trkpt>
      <trkpt lat="41.721549" lon="2.240071">
        <ele>689.548681</ele>
        <time>2020-08-09T09:41:37.142Z</time>
      </trkpt>
      <trkpt lat="41.721473" lon="2.240148">
        <ele>691.368405</ele>
        <time>2020-08-09T09:41:52.153Z</time>
      </trkpt>
      <trkpt lat="41.721374" lon="2.240138">
        <ele>693.264465</ele>
        <time>2020-08-09T09:42:02.152Z</time>
      </trkpt>
      <trkpt lat="41.721285" lon="2.240095">
        <ele>693.741837</ele>
        <time>2020-08-09T09:42:10.152Z</time>
      </trkpt>
      <trkpt lat="41.721190" lon="2.240070">
        <ele>694.228133</ele>
        <time>2020-08-09T09:42:19.153Z</time>
      </trkpt>
      <trkpt lat="41.721103" lon="2.240005">
        <ele>694.728483</ele>
        <time>2020-08-09T09:42:33.148Z</time>
      </trkpt>
      <trkpt lat="41.721009" lon="2.239961">
        <ele>695.228626</ele>
        <time>2020-08-09T09:42:41.138Z</time>
      </trkpt>
      <trkpt lat="41.720907" lon="2.239947">
        <ele>695.743647</ele>
        <time>2020-08-09T09:42:53.131Z</time>
      </trkpt>
      <trkpt lat="41.720809" lon="2.239992">
        <ele>696.264003</ele>
        <time>2020-08-09T09:42:59.144Z</time>
      </trkpt>
      <trkpt lat="41.720730" lon="2.240061">
        <ele>696.737690</ele>
        <time>2020-08-09T09:43:04.152Z</time>
      </trkpt>
      <trkpt lat="41.720633" lon="2.240073">
        <ele>697.226987</ele>
        <time>2020-08-09T09:43:09.138Z</time>
      </trkpt>
      <trkpt lat="41.720538" lon="2.239995">
        <ele>697.786644</ele>
        <time>2020-08-09T09:43:14.148Z</time>
      </trkpt>
      <trkpt lat="41.720459" lon="2.239882">
        <ele>698.367109</ele>
        <time>2020-08-09T09:43:19.142Z</time>
      </trkpt>
      <trkpt lat="41.720396" lon="2.239781">
        <ele>698.860588</ele>
        <time>2020-08-09T09:43:23.154Z</time>
      </trkpt>
      <trkpt lat="41.720312" lon="2.239721">
        <ele>699.338734</ele>
        <time>2020-08-09T09:43:27.122Z</time>
      </trkpt>
      <trkpt lat="41.720211" lon="2.239693">
        <ele>699.856797</ele>
        <time>2020-08-09T09:43:32.151Z</time>
      </trkpt>
      <trkpt lat="41.720116" lon="2.239733">
        <ele>700.356986</ele>
        <time>2020-08-09T09:43:39.152Z</time>
      </trkpt>
      <trkpt lat="41.720019" lon="2.239728">
        <ele>700.844572</ele>
        <time>2020-08-09T09:44:21.152Z</time>
      </trkpt>
      <trkpt lat="41.719938" lon="2.239807">
        <ele>701.347819</ele>
        <time>2020-08-09T09:44:29.150Z</time>
      </trkpt>
      <trkpt lat="41.719849" lon="2.239848">
        <ele>701.820549</ele>
        <time>2020-08-09T09:44:38.157Z</time>
      </trkpt>
      <trkpt lat="41.719762" lon="2.239913">
        <ele>702.323146</ele>
        <time>2020-08-09T09:44:48.157Z</time>
      </trkpt>
      <trkpt lat="41.719675" lon="2.239949">
        <ele>702.834395</ele>
        <time>2020-08-09T09:44:56.158Z</time>
      </trkpt>
      <trkpt lat="41.719595" lon="2.240027">
        <ele>703.389927</ele>
        <time>2020-08-09T09:45:05.135Z</time>
      </trkpt>
      <trkpt lat="41.719609" lon="2.240155">
        <ele>703.932089</ele>
        <time>2020-08-09T09:45:17.175Z</time>
      </trkpt>
      <trkpt lat="41.719606" lon="2.240288">
        <ele>704.489731</ele>
        <time>2020-08-09T09:45:26.144Z</time>
      </trkpt>
      <trkpt lat="41.719577" lon="2.240418">
        <ele>705.058358</ele>
        <time>2020-08-09T09:45:36.159Z</time>
      </trkpt>
      <trkpt lat="41.719554" lon="2.240541">
        <ele>705.589767</ele>
        <time>2020-08-09T09:45:46.162Z</time>
      </trkpt>
      <trkpt lat="41.719552" lon="2.240663">
        <ele>706.101178</ele>
        <time>2020-08-09T09:45:55.151Z</time>
      </trkpt>
      <trkpt lat="41.719524" lon="2.240784">
        <ele>706.632087</ele>
        <time>2020-08-09T09:46:15.142Z</time>
      </trkpt>
      <trkpt lat="41.719424" lon="2.240781">
        <ele>707.193699</ele>
        <time>2020-08-09T09:46:26.132Z</time>
      </trkpt>
      <trkpt lat="41.719378" lon="2.240670">
        <ele>707.725779</ele>
        <time>2020-08-09T09:46:36.144Z</time>
      </trkpt>
      <trkpt lat="41.719320" lon="2.240506">
        <ele>708.486333</ele>
        <time>2020-08-09T09:47:14.140Z</time>
      </trkpt>
      <trkpt lat="41.719315" lon="2.240385">
        <ele>708.994208</ele>
        <time>2020-08-09T09:47:34.155Z</time>
      </trkpt>
      <trkpt lat="41.719279" lon="2.240262">
        <ele>709.547903</ele>
        <time>2020-08-09T09:48:39.148Z</time>
      </trkpt>
      <trkpt lat="41.719255" lon="2.240127">
        <ele>710.129501</ele>
        <time>2020-08-09T09:48:51.157Z</time>
      </trkpt>
      <trkpt lat="41.719175" lon="2.240039">
        <ele>710.710684</ele>
        <time>2020-08-09T09:48:56.151Z</time>
      </trkpt>
      <trkpt lat="41.719094" lon="2.239960">
        <ele>711.273224</ele>
        <time>2020-08-09T09:49:08.152Z</time>
      </trkpt>
      <trkpt lat="41.719021" lon="2.239875">
        <ele>711.816267</ele>
        <time>2020-08-09T09:49:12.148Z</time>
      </trkpt>
      <trkpt lat="41.718929" lon="2.239825">
        <ele>712.373706</ele>
        <time>2020-08-09T09:49:17.130Z</time>
      </trkpt>
      <trkpt lat="41.718841" lon="2.239766">
        <ele>711.542426</ele>
        <time>2020-08-09T09:49:24.143Z</time>
      </trkpt>
      <trkpt lat="41.718751" lon="2.239783">
        <ele>710.708903</ele>
        <time>2020-08-09T09:49:49.139Z</time>
      </trkpt>
      <trkpt lat="41.718660" lon="2.239778">
        <ele>709.873671</ele>
        <time>2020-08-09T09:50:01.140Z</time>
      </trkpt>
      <trkpt lat="41.718567" lon="2.239781">
        <ele>709.020553</ele>
        <time>2020-08-09T09:50:11.135Z</time>
      </trkpt>
      <trkpt lat="41.718445" lon="2.239769">
        <ele>707.898721</ele>
        <time>2020-08-09T09:50:45.146Z</time>
      </trkpt>
      <trkpt lat="41.718345" lon="2.239784">
        <ele>706.975924</ele>
        <time>2020-08-09T09:51:04.131Z</time>
      </trkpt>
      <trkpt lat="41.718258" lon="2.239820">
        <ele>706.140887</ele>
        <time>2020-08-09T09:51:25.135Z</time>
      </trkpt>
      <trkpt lat="41.718164" lon="2.239880">
        <ele>705.186004</ele>
        <time>2020-08-09T09:51:34.152Z</time>
      </trkpt>
      <trkpt lat="41.718071" lon="2.239893">
        <ele>704.328502</ele>
        <time>2020-08-09T09:51:40.148Z</time>
      </trkpt>
      <trkpt lat="41.717963" lon="2.239897">
        <ele>703.337693</ele>
        <time>2020-08-09T09:51:46.148Z</time>
      </trkpt>
      <trkpt lat="41.717871" lon="2.239848">
        <ele>702.429763</ele>
        <time>2020-08-09T09:51:52.150Z</time>
      </trkpt>
      <trkpt lat="41.717774" lon="2.239805">
        <ele>701.492775</ele>
        <time>2020-08-09T09:52:19.143Z</time>
      </trkpt>
      <trkpt lat="41.717682" lon="2.239771">
        <ele>700.617562</ele>
        <time>2020-08-09T09:52:29.164Z</time>
      </trkpt>
      <trkpt lat="41.717591" lon="2.239758">
        <ele>699.778300</ele>
        <time>2020-08-09T09:52:45.150Z</time>
      </trkpt>
      <trkpt lat="41.717509" lon="2.239705">
        <ele>698.943363</ele>
        <time>2020-08-09T09:53:02.151Z</time>
      </trkpt>
      <trkpt lat="41.717425" lon="2.239655">
        <ele>698.100415</ele>
        <time>2020-08-09T09:53:15.142Z</time>
      </trkpt>
      <trkpt lat="41.717337" lon="2.239685">
        <ele>697.267678</ele>
        <time>2020-08-09T09:53:29.137Z</time>
      </trkpt>
      <trkpt lat="41.717243" lon="2.239657">
        <ele>696.384585</ele>
        <time>2020-08-09T09:53:40.144Z</time>
      </trkpt>
      <trkpt lat="41.717161" lon="2.239605">
        <ele>695.591340</ele>
        <time>2020-08-09T09:53:59.136Z</time>
      </trkpt>
      <trkpt lat="41.717071" lon="2.239563">
        <ele>694.813157</ele>
        <time>2020-08-09T09:54:14.149Z</time>
      </trkpt>
      <trkpt lat="41.716981" lon="2.239518">
        <ele>694.028769</ele>
        <time>2020-08-09T09:54:25.148Z</time>
      </trkpt>
      <trkpt lat="41.716890" lon="2.239564">
        <ele>693.234595</ele>
        <time>2020-08-09T09:54:36.142Z</time>
      </trkpt>
      <trkpt lat="41.716792" lon="2.239574">
        <ele>692.432080</ele>
        <time>2020-08-09T09:54:47.146Z</time>
      </trkpt>
      <trkpt lat="41.716702" lon="2.239586">
        <ele>691.693575</ele>
        <time>2020-08-09T09:54:59.147Z</time>
      </trkpt>
      <trkpt lat="41.716533" lon="2.239607">
        <ele>690.307721</ele>
        <time>2020-08-09T09:55:39.126Z</time>
      </trkpt>
      <trkpt lat="41.716444" lon="2.239634">
        <ele>689.562612</ele>
        <time>2020-08-09T09:55:50.139Z</time>
      </trkpt>
      <trkpt lat="41.716341" lon="2.239652">
        <ele>688.714464</ele>
        <time>2020-08-09T09:56:19.141Z</time>
      </trkpt>
      <trkpt lat="41.716245" lon="2.239662">
        <ele>687.928231</ele>
        <time>2020-08-09T09:56:29.118Z</time>
      </trkpt>
      <trkpt lat="41.716150" lon="2.239644">
        <ele>687.144811</ele>
        <time>2020-08-09T09:56:38.138Z</time>
      </trkpt>
      <trkpt lat="41.716054" lon="2.239546">
        <ele>686.159304</ele>
        <time>2020-08-09T09:57:03.156Z</time>
      </trkpt>
      <trkpt lat="41.715969" lon="2.239486">
        <ele>685.374806</ele>
        <time>2020-08-09T09:57:23.150Z</time>
      </trkpt>
      <trkpt lat="41.715883" lon="2.239422">
        <ele>684.571521</ele>
        <time>2020-08-09T09:57:31.136Z</time>
      </trkpt>
      <trkpt lat="41.715803" lon="2.239342">
        <ele>683.756382</ele>
        <time>2020-08-09T09:57:41.149Z</time>
      </trkpt>
      <trkpt lat="41.715714" lon="2.239314">
        <ele>683.009902</ele>
        <time>2020-08-09T09:57:50.145Z</time>
      </trkpt>
      <trkpt lat="41.715624" lon="2.239293">
        <ele>682.263965</ele>
        <time>2020-08-09T09:58:08.159Z</time>
      </trkpt>
      <trkpt lat="41.715533" lon="2.239309">
        <ele>681.514553</ele>
        <time>2020-08-09T09:58:31.142Z</time>
      </trkpt>
      <trkpt lat="41.715445" lon="2.239342">
        <ele>680.994695</ele>
        <time>2020-08-09T09:58:39.147Z</time>
      </trkpt>
      <trkpt lat="41.715358" lon="2.239375">
        <ele>680.626717</ele>
        <time>2020-08-09T09:58:48.126Z</time>
      </trkpt>
      <trkpt lat="41.715282" lon="2.239439">
        <ele>680.261392</ele>
        <time>2020-08-09T09:59:07.127Z</time>
      </trkpt>
      <trkpt lat="41.715193" lon="2.239484">
        <ele>679.874254</ele>
        <time>2020-08-09T09:59:22.151Z</time>
      </trkpt>
      <trkpt lat="41.715101" lon="2.239518">
        <ele>679.485861</ele>
        <time>2020-08-09T09:59:31.138Z</time>
      </trkpt>
      <trkpt lat="41.715004" lon="2.239489">
        <ele>679.081393</ele>
        <time>2020-08-09T09:59:39.136Z</time>
      </trkpt>
      <trkpt lat="41.714911" lon="2.239469">
        <ele>678.698070</ele>
        <time>2020-08-09T09:59:48.144Z</time>
      </trkpt>
      <trkpt lat="41.714824" lon="2.239502">
        <ele>678.330091</ele>
        <time>2020-08-09T09:59:56.136Z</time>
      </trkpt>
      <trkpt lat="41.714730" lon="2.239479">
        <ele>677.941216</ele>
        <time>2020-08-09T10:00:06.158Z</time>
      </trkpt>
      <trkpt lat="41.714639" lon="2.239463">
        <ele>677.567701</ele>
        <time>2020-08-09T10:00:14.143Z</time>
      </trkpt>
      <trkpt lat="41.714545" lon="2.239467">
        <ele>677.184961</ele>
        <time>2020-08-09T10:00:21.137Z</time>
      </trkpt>
      <trkpt lat="41.714452" lon="2.239467">
        <ele>676.806483</ele>
        <time>2020-08-09T10:00:30.154Z</time>
      </trkpt>
      <trkpt lat="41.714348" lon="2.239529">
        <ele>676.343222</ele>
        <time>2020-08-09T10:11:26.186Z</time>
      </trkpt>
      <trkpt lat="41.714251" lon="2.239562">
        <ele>675.935935</ele>
        <time>2020-08-09T10:11:34.135Z</time>
      </trkpt>
      <trkpt lat="41.714163" lon="2.239599">
        <ele>675.560581</ele>
        <time>2020-08-09T10:11:41.134Z</time>
      </trkpt>
      <trkpt lat="41.714063" lon="2.239631">
        <ele>675.142166</ele>
        <time>2020-08-09T10:11:49.143Z</time>
      </trkpt>
      <trkpt lat="41.713832" lon="2.239843">
        <ele>674.002627</ele>
        <time>2020-08-09T10:12:16.154Z</time>
      </trkpt>
      <trkpt lat="41.713766" lon="2.239936">
        <ele>673.772602</ele>
        <time>2020-08-09T10:12:18.138Z</time>
      </trkpt>
      <trkpt lat="41.713683" lon="2.240064">
        <ele>673.544406</ele>
        <time>2020-08-09T10:12:21.145Z</time>
      </trkpt>
      <trkpt lat="41.713605" lon="2.240206">
        <ele>673.307122</ele>
        <time>2020-08-09T10:12:24.148Z</time>
      </trkpt>
      <trkpt lat="41.713546" lon="2.240303">
        <ele>673.138718</ele>
        <time>2020-08-09T10:12:26.139Z</time>
      </trkpt>
      <trkpt lat="41.713445" lon="2.240387">
        <ele>672.924375</ele>
        <time>2020-08-09T10:12:29.138Z</time>
      </trkpt>
      <trkpt lat="41.713313" lon="2.240390">
        <ele>672.686345</ele>
        <time>2020-08-09T10:12:32.148Z</time>
      </trkpt>
      <trkpt lat="41.713226" lon="2.240355">
        <ele>672.522564</ele>
        <time>2020-08-09T10:12:34.132Z</time>
      </trkpt>
      <trkpt lat="41.713137" lon="2.240287">
        <ele>672.337833</ele>
        <time>2020-08-09T10:12:36.182Z</time>
      </trkpt>
      <trkpt lat="41.713049" lon="2.240203">
        <ele>672.143010</ele>
        <time>2020-08-09T10:12:38.130Z</time>
      </trkpt>
      <trkpt lat="41.712959" lon="2.240104">
        <ele>671.933044</ele>
        <time>2020-08-09T10:12:40.133Z</time>
      </trkpt>
      <trkpt lat="41.712866" lon="2.240026">
        <ele>671.735213</ele>
        <time>2020-08-09T10:12:42.132Z</time>
      </trkpt>
      <trkpt lat="41.712749" lon="2.239995">
        <ele>671.520176</ele>
        <time>2020-08-09T10:12:45.127Z</time>
      </trkpt>
      <trkpt lat="41.712646" lon="2.240066">
        <ele>671.311323</ele>
        <time>2020-08-09T10:12:48.135Z</time>
      </trkpt>
      <trkpt lat="41.712547" lon="2.240163">
        <ele>671.090178</ele>
        <time>2020-08-09T10:12:52.144Z</time>
      </trkpt>
      <trkpt lat="41.712451" lon="2.240223">
        <ele>670.899179</ele>
        <time>2020-08-09T10:12:58.135Z</time>
      </trkpt>
      <trkpt lat="41.712361" lon="2.240212">
        <ele>670.736235</ele>
        <time>2020-08-09T10:13:03.150Z</time>
      </trkpt>
      <trkpt lat="41.712286" lon="2.240123">
        <ele>670.256554</ele>
        <time>2020-08-09T10:13:06.135Z</time>
      </trkpt>
      <trkpt lat="41.712190" lon="2.240024">
        <ele>669.392590</ele>
        <time>2020-08-09T10:13:09.130Z</time>
      </trkpt>
      <trkpt lat="41.712097" lon="2.240016">
        <ele>668.728015</ele>
        <time>2020-08-09T10:13:12.129Z</time>
      </trkpt>
      <trkpt lat="41.711999" lon="2.240028">
        <ele>668.026237</ele>
        <time>2020-08-09T10:13:15.154Z</time>
      </trkpt>
      <trkpt lat="41.711888" lon="2.240075">
        <ele>667.196063</ele>
        <time>2020-08-09T10:13:18.129Z</time>
      </trkpt>
      <trkpt lat="41.711799" lon="2.240142">
        <ele>666.468025</ele>
        <time>2020-08-09T10:13:21.132Z</time>
      </trkpt>
      <trkpt lat="41.711681" lon="2.240140">
        <ele>665.626467</ele>
        <time>2020-08-09T10:13:25.115Z</time>
      </trkpt>
      <trkpt lat="41.711582" lon="2.240075">
        <ele>664.840231</ele>
        <time>2020-08-09T10:13:28.131Z</time>
      </trkpt>
      <trkpt lat="41.711458" lon="2.240070">
        <ele>663.955553</ele>
        <time>2020-08-09T10:13:31.161Z</time>
      </trkpt>
      <trkpt lat="41.711355" lon="2.240080">
        <ele>663.219105</ele>
        <time>2020-08-09T10:13:34.128Z</time>
      </trkpt>
      <trkpt lat="41.711255" lon="2.240159">
        <ele>662.391203</ele>
        <time>2020-08-09T10:13:38.134Z</time>
      </trkpt>
      <trkpt lat="41.711175" lon="2.240266">
        <ele>661.585014</ele>
        <time>2020-08-09T10:13:41.139Z</time>
      </trkpt>
      <trkpt lat="41.711071" lon="2.240380">
        <ele>660.626704</ele>
        <time>2020-08-09T10:13:44.129Z</time>
      </trkpt>
      <trkpt lat="41.710973" lon="2.240441">
        <ele>659.856076</ele>
        <time>2020-08-09T10:13:46.131Z</time>
      </trkpt>
      <trkpt lat="41.710860" lon="2.240497">
        <ele>658.996864</ele>
        <time>2020-08-09T10:13:48.151Z</time>
      </trkpt>
      <trkpt lat="41.710742" lon="2.240572">
        <ele>658.065456</ele>
        <time>2020-08-09T10:13:50.134Z</time>
      </trkpt>
      <trkpt lat="41.710649" lon="2.240658">
        <ele>658.081616</ele>
        <time>2020-08-09T10:13:52.181Z</time>
      </trkpt>
      <trkpt lat="41.710581" lon="2.240744">
        <ele>658.375534</ele>
        <time>2020-08-09T10:13:54.152Z</time>
      </trkpt>
      <trkpt lat="41.710490" lon="2.240859">
        <ele>658.768723</ele>
        <time>2020-08-09T10:13:56.142Z</time>
      </trkpt>
      <trkpt lat="41.710389" lon="2.240952">
        <ele>659.153916</ele>
        <time>2020-08-09T10:13:58.150Z</time>
      </trkpt>
      <trkpt lat="41.710267" lon="2.241015">
        <ele>659.564852</ele>
        <time>2020-08-09T10:14:01.144Z</time>
      </trkpt>
      <trkpt lat="41.710142" lon="2.241066">
        <ele>659.975532</ele>
        <time>2020-08-09T10:14:04.131Z</time>
      </trkpt>
      <trkpt lat="41.710041" lon="2.241076">
        <ele>660.293830</ele>
        <time>2020-08-09T10:14:07.156Z</time>
      </trkpt>
      <trkpt lat="41.709938" lon="2.241077">
        <ele>660.617556</ele>
        <time>2020-08-09T10:14:12.139Z</time>
      </trkpt>
      <trkpt lat="41.709854" lon="2.241127">
        <ele>660.906449</ele>
        <time>2020-08-09T10:14:17.121Z</time>
      </trkpt>
      <trkpt lat="41.709771" lon="2.241200">
        <ele>661.218512</ele>
        <time>2020-08-09T10:14:22.133Z</time>
      </trkpt>
      <trkpt lat="41.709697" lon="2.241293">
        <ele>661.537420</ele>
        <time>2020-08-09T10:14:27.127Z</time>
      </trkpt>
      <trkpt lat="41.709602" lon="2.241348">
        <ele>661.862687</ele>
        <time>2020-08-09T10:14:32.130Z</time>
      </trkpt>
      <trkpt lat="41.709504" lon="2.241392">
        <ele>662.187531</ele>
        <time>2020-08-09T10:14:36.121Z</time>
      </trkpt>
      <trkpt lat="41.709402" lon="2.241419">
        <ele>662.514305</ele>
        <time>2020-08-09T10:14:40.110Z</time>
      </trkpt>
      <trkpt lat="41.709300" lon="2.241423">
        <ele>662.835017</ele>
        <time>2020-08-09T10:14:44.122Z</time>
      </trkpt>
      <trkpt lat="41.709189" lon="2.241415">
        <ele>663.184382</ele>
        <time>2020-08-09T10:14:49.123Z</time>
      </trkpt>
      <trkpt lat="41.709086" lon="2.241463">
        <ele>663.483085</ele>
        <time>2020-08-09T10:14:54.135Z</time>
      </trkpt>
      <trkpt lat="41.709005" lon="2.241528">
        <ele>663.483085</ele>
        <time>2020-08-09T10:14:58.126Z</time>
      </trkpt>
      <trkpt lat="41.708920" lon="2.241567">
        <ele>663.483085</ele>
        <time>2020-08-09T10:15:02.132Z</time>
      </trkpt>
      <trkpt lat="41.708821" lon="2.241604">
        <ele>663.483085</ele>
        <time>2020-08-09T10:15:07.130Z</time>
      </trkpt>
      <trkpt lat="41.708732" lon="2.241643">
        <ele>663.483085</ele>
        <time>2020-08-09T10:15:11.125Z</time>
      </trkpt>
      <trkpt lat="41.708630" lon="2.241679">
        <ele>663.483085</ele>
        <time>2020-08-09T10:15:15.127Z</time>
      </trkpt>
      <trkpt lat="41.708527" lon="2.241698">
        <ele>663.483085</ele>
        <time>2020-08-09T10:15:18.134Z</time>
      </trkpt>
      <trkpt lat="41.708406" lon="2.241698">
        <ele>663.483085</ele>
        <time>2020-08-09T10:15:21.140Z</time>
      </trkpt>
      <trkpt lat="41.708303" lon="2.241683">
        <ele>663.483085</ele>
        <time>2020-08-09T10:15:24.131Z</time>
      </trkpt>
      <trkpt lat="41.708194" lon="2.241720">
        <ele>663.483085</ele>
        <time>2020-08-09T10:15:28.128Z</time>
      </trkpt>
      <trkpt lat="41.708110" lon="2.241769">
        <ele>663.483085</ele>
        <time>2020-08-09T10:15:32.129Z</time>
      </trkpt>
      <trkpt lat="41.708021" lon="2.241814">
        <ele>663.483085</ele>
        <time>2020-08-09T10:15:37.133Z</time>
      </trkpt>
      <trkpt lat="41.707935" lon="2.241867">
        <ele>663.483085</ele>
        <time>2020-08-09T10:15:42.130Z</time>
      </trkpt>
      <trkpt lat="41.707858" lon="2.241937">
        <ele>663.483085</ele>
        <time>2020-08-09T10:15:48.128Z</time>
      </trkpt>
      <trkpt lat="41.707779" lon="2.242023">
        <ele>663.483085</ele>
        <time>2020-08-09T10:15:56.125Z</time>
      </trkpt>
      <trkpt lat="41.707715" lon="2.242134">
        <ele>663.483085</ele>
        <time>2020-08-09T10:16:04.110Z</time>
      </trkpt>
      <trkpt lat="41.707707" lon="2.242265">
        <ele>663.483085</ele>
        <time>2020-08-09T10:16:10.150Z</time>
      </trkpt>
      <trkpt lat="41.707745" lon="2.242389">
        <ele>663.483085</ele>
        <time>2020-08-09T10:16:16.116Z</time>
      </trkpt>
      <trkpt lat="41.707762" lon="2.242522">
        <ele>663.483085</ele>
        <time>2020-08-09T10:16:23.133Z</time>
      </trkpt>
      <trkpt lat="41.707762" lon="2.242644">
        <ele>663.483085</ele>
        <time>2020-08-09T10:16:28.134Z</time>
      </trkpt>
      <trkpt lat="41.707775" lon="2.242764">
        <ele>663.483085</ele>
        <time>2020-08-09T10:16:33.143Z</time>
      </trkpt>
      <trkpt lat="41.707770" lon="2.242899">
        <ele>663.483085</ele>
        <time>2020-08-09T10:16:39.141Z</time>
      </trkpt>
      <trkpt lat="41.707745" lon="2.243018">
        <ele>663.483085</ele>
        <time>2020-08-09T10:16:47.135Z</time>
      </trkpt>
      <trkpt lat="41.707745" lon="2.243141">
        <ele>663.483085</ele>
        <time>2020-08-09T10:16:55.141Z</time>
      </trkpt>
      <trkpt lat="41.707714" lon="2.243191">
        <ele>663.483085</ele>
        <time>2020-08-09T10:36:36.918Z</time>
      </trkpt>
      <trkpt lat="41.707707" lon="2.243208">
        <ele>688.779976</ele>
        <time>2020-08-09T10:37:58.782Z</time>
      </trkpt>
      <trkpt lat="41.707780" lon="2.243301">
        <ele>688.779976</ele>
        <time>2020-08-09T10:44:25.189Z</time>
      </trkpt>
      <trkpt lat="41.707802" lon="2.243419">
        <ele>688.779976</ele>
        <time>2020-08-09T10:44:33.184Z</time>
      </trkpt>
      <trkpt lat="41.707801" lon="2.243542">
        <ele>688.779976</ele>
        <time>2020-08-09T10:44:46.165Z</time>
      </trkpt>
      <trkpt lat="41.707802" lon="2.243672">
        <ele>688.779976</ele>
        <time>2020-08-09T10:44:52.184Z</time>
      </trkpt>
      <trkpt lat="41.707803" lon="2.243793">
        <ele>688.779976</ele>
        <time>2020-08-09T10:44:57.174Z</time>
      </trkpt>
      <trkpt lat="41.707764" lon="2.243905">
        <ele>688.779976</ele>
        <time>2020-08-09T10:45:02.188Z</time>
      </trkpt>
      <trkpt lat="41.707713" lon="2.244022">
        <ele>688.779976</ele>
        <time>2020-08-09T10:45:07.184Z</time>
      </trkpt>
      <trkpt lat="41.707773" lon="2.244112">
        <ele>688.779976</ele>
        <time>2020-08-09T10:45:13.178Z</time>
      </trkpt>
      <trkpt lat="41.707818" lon="2.244228">
        <ele>688.779976</ele>
        <time>2020-08-09T10:45:20.183Z</time>
      </trkpt>
      <trkpt lat="41.707844" lon="2.244349">
        <ele>689.097617</ele>
        <time>2020-08-09T10:45:27.191Z</time>
      </trkpt>
      <trkpt lat="41.707852" lon="2.244471">
        <ele>689.721828</ele>
        <time>2020-08-09T10:45:34.180Z</time>
      </trkpt>
      <trkpt lat="41.707837" lon="2.244604">
        <ele>690.407404</ele>
        <time>2020-08-09T10:45:41.195Z</time>
      </trkpt>
      <trkpt lat="41.707788" lon="2.244723">
        <ele>691.100072</ele>
        <time>2020-08-09T10:45:48.182Z</time>
      </trkpt>
      <trkpt lat="41.707740" lon="2.244831">
        <ele>691.740698</ele>
        <time>2020-08-09T10:45:55.183Z</time>
      </trkpt>
      <trkpt lat="41.707786" lon="2.244934">
        <ele>692.352442</ele>
        <time>2020-08-09T10:46:13.188Z</time>
      </trkpt>
      <trkpt lat="41.707832" lon="2.245047">
        <ele>693.008448</ele>
        <time>2020-08-09T10:46:21.517Z</time>
      </trkpt>
      <trkpt lat="41.707842" lon="2.245175">
        <ele>693.664410</ele>
        <time>2020-08-09T10:46:31.523Z</time>
      </trkpt>
      <trkpt lat="41.707820" lon="2.245299">
        <ele>694.314024</ele>
        <time>2020-08-09T10:46:40.507Z</time>
      </trkpt>
      <trkpt lat="41.707815" lon="2.245421">
        <ele>694.936778</ele>
        <time>2020-08-09T10:46:56.523Z</time>
      </trkpt>
      <trkpt lat="41.707768" lon="2.245529">
        <ele>695.573938</ele>
        <time>2020-08-09T10:47:02.535Z</time>
      </trkpt>
      <trkpt lat="41.707702" lon="2.245620">
        <ele>696.220594</ele>
        <time>2020-08-09T10:47:07.531Z</time>
      </trkpt>
      <trkpt lat="41.707683" lon="2.245741">
        <ele>696.850811</ele>
        <time>2020-08-09T10:47:12.527Z</time>
      </trkpt>
      <trkpt lat="41.707750" lon="2.245850">
        <ele>697.570453</ele>
        <time>2020-08-09T10:47:17.519Z</time>
      </trkpt>
      <trkpt lat="41.707840" lon="2.245940">
        <ele>698.337248</ele>
        <time>2020-08-09T10:47:21.529Z</time>
      </trkpt>
      <trkpt lat="41.707930" lon="2.246020">
        <ele>699.074684</ele>
        <time>2020-08-09T10:47:25.521Z</time>
      </trkpt>
      <trkpt lat="41.707990" lon="2.246156">
        <ele>699.879848</ele>
        <time>2020-08-09T10:47:29.505Z</time>
      </trkpt>
      <trkpt lat="41.708043" lon="2.246268">
        <ele>700.555717</ele>
        <time>2020-08-09T10:47:32.524Z</time>
      </trkpt>
      <trkpt lat="41.708094" lon="2.246384">
        <ele>701.273300</ele>
        <time>2020-08-09T10:47:35.526Z</time>
      </trkpt>
      <trkpt lat="41.708133" lon="2.246505">
        <ele>702.061018</ele>
        <time>2020-08-09T10:47:38.525Z</time>
      </trkpt>
      <trkpt lat="41.708171" lon="2.246634">
        <ele>702.889879</ele>
        <time>2020-08-09T10:47:41.529Z</time>
      </trkpt>
      <trkpt lat="41.708207" lon="2.246760">
        <ele>703.696225</ele>
        <time>2020-08-09T10:47:44.547Z</time>
      </trkpt>
      <trkpt lat="41.708224" lon="2.246915">
        <ele>704.632575</ele>
        <time>2020-08-09T10:47:48.501Z</time>
      </trkpt>
      <trkpt lat="41.708233" lon="2.247062">
        <ele>705.514116</ele>
        <time>2020-08-09T10:47:52.528Z</time>
      </trkpt>
      <trkpt lat="41.708234" lon="2.247193">
        <ele>706.297118</ele>
        <time>2020-08-09T10:47:56.525Z</time>
      </trkpt>
      <trkpt lat="41.708194" lon="2.247321">
        <ele>707.126471</ele>
        <time>2020-08-09T10:48:01.525Z</time>
      </trkpt>
      <trkpt lat="41.708147" lon="2.247433">
        <ele>707.894383</ele>
        <time>2020-08-09T10:48:05.530Z</time>
      </trkpt>
      <trkpt lat="41.708105" lon="2.247547">
        <ele>708.654194</ele>
        <time>2020-08-09T10:48:10.521Z</time>
      </trkpt>
      <trkpt lat="41.708045" lon="2.247648">
        <ele>709.425653</ele>
        <time>2020-08-09T10:48:16.535Z</time>
      </trkpt>
      <trkpt lat="41.707956" lon="2.247709">
        <ele>710.226044</ele>
        <time>2020-08-09T10:48:22.527Z</time>
      </trkpt>
      <trkpt lat="41.707858" lon="2.247737">
        <ele>711.028280</ele>
        <time>2020-08-09T10:48:28.502Z</time>
      </trkpt>
      <trkpt lat="41.707763" lon="2.247786">
        <ele>711.843286</ele>
        <time>2020-08-09T10:48:35.535Z</time>
      </trkpt>
      <trkpt lat="41.707669" lon="2.247817">
        <ele>712.618321</ele>
        <time>2020-08-09T10:48:42.513Z</time>
      </trkpt>
      <trkpt lat="41.707575" lon="2.247867">
        <ele>713.428048</ele>
        <time>2020-08-09T10:48:48.525Z</time>
      </trkpt>
      <trkpt lat="41.707484" lon="2.247918">
        <ele>714.217790</ele>
        <time>2020-08-09T10:48:53.522Z</time>
      </trkpt>
      <trkpt lat="41.707387" lon="2.247928">
        <ele>714.996667</ele>
        <time>2020-08-09T10:48:58.499Z</time>
      </trkpt>
      <trkpt lat="41.707284" lon="2.247916">
        <ele>715.928777</ele>
        <time>2020-08-09T10:49:04.515Z</time>
      </trkpt>
      <trkpt lat="41.707191" lon="2.247904">
        <ele>716.890853</ele>
        <time>2020-08-09T10:49:11.527Z</time>
      </trkpt>
      <trkpt lat="41.707101" lon="2.247878">
        <ele>717.838913</ele>
        <time>2020-08-09T10:49:19.517Z</time>
      </trkpt>
      <trkpt lat="41.707014" lon="2.247847">
        <ele>718.765928</ele>
        <time>2020-08-09T10:49:27.521Z</time>
      </trkpt>
      <trkpt lat="41.706923" lon="2.247820">
        <ele>719.725690</ele>
        <time>2020-08-09T10:49:41.520Z</time>
      </trkpt>
      <trkpt lat="41.706835" lon="2.247778">
        <ele>720.687651</ele>
        <time>2020-08-09T10:49:52.528Z</time>
      </trkpt>
      <trkpt lat="41.706735" lon="2.247771">
        <ele>721.718780</ele>
        <time>2020-08-09T10:50:14.539Z</time>
      </trkpt>
      <trkpt lat="41.706643" lon="2.247807">
        <ele>722.705722</ele>
        <time>2020-08-09T10:50:23.557Z</time>
      </trkpt>
      <trkpt lat="41.706552" lon="2.247858">
        <ele>723.721485</ele>
        <time>2020-08-09T10:50:33.521Z</time>
      </trkpt>
      <trkpt lat="41.706462" lon="2.247888">
        <ele>724.676502</ele>
        <time>2020-08-09T10:50:40.531Z</time>
      </trkpt>
      <trkpt lat="41.706369" lon="2.247909">
        <ele>725.647657</ele>
        <time>2020-08-09T10:50:47.528Z</time>
      </trkpt>
      <trkpt lat="41.706290" lon="2.247987">
        <ele>726.658255</ele>
        <time>2020-08-09T10:50:55.520Z</time>
      </trkpt>
      <trkpt lat="41.706192" lon="2.248014">
        <ele>727.688510</ele>
        <time>2020-08-09T10:51:04.525Z</time>
      </trkpt>
      <trkpt lat="41.706102" lon="2.247961">
        <ele>728.700872</ele>
        <time>2020-08-09T10:51:15.531Z</time>
      </trkpt>
      <trkpt lat="41.706019" lon="2.247903">
        <ele>729.664860</ele>
        <time>2020-08-09T10:51:29.682Z</time>
      </trkpt>
      <trkpt lat="41.705935" lon="2.247837">
        <ele>730.667659</ele>
        <time>2020-08-09T10:51:41.681Z</time>
      </trkpt>
      <trkpt lat="41.705902" lon="2.247722">
        <ele>731.614790</ele>
        <time>2020-08-09T10:51:50.667Z</time>
      </trkpt>
      <trkpt lat="41.705845" lon="2.247608">
        <ele>732.669568</ele>
        <time>2020-08-09T10:51:58.666Z</time>
      </trkpt>
      <trkpt lat="41.705865" lon="2.247488">
        <ele>733.614790</ele>
        <time>2020-08-09T10:52:06.676Z</time>
      </trkpt>
      <trkpt lat="41.705794" lon="2.247409">
        <ele>734.043706</ele>
        <time>2020-08-09T10:52:14.687Z</time>
      </trkpt>
      <trkpt lat="41.705872" lon="2.247485">
        <ele>734.150706</ele>
        <time>2020-08-09T10:52:29.668Z</time>
      </trkpt>
      <trkpt lat="41.705952" lon="2.247544">
        <ele>734.252015</ele>
        <time>2020-08-09T10:52:40.682Z</time>
      </trkpt>
      <trkpt lat="41.705858" lon="2.247528">
        <ele>734.357131</ele>
        <time>2020-08-09T10:53:27.685Z</time>
      </trkpt>
      <trkpt lat="41.705873" lon="2.247649">
        <ele>734.458715</ele>
        <time>2020-08-09T10:53:33.684Z</time>
      </trkpt>
      <trkpt lat="41.705939" lon="2.247735">
        <ele>734.560860</ele>
        <time>2020-08-09T10:53:40.687Z</time>
      </trkpt>
      <trkpt lat="41.706004" lon="2.247821">
        <ele>734.662212</ele>
        <time>2020-08-09T10:53:47.688Z</time>
      </trkpt>
      <trkpt lat="41.706079" lon="2.247888">
        <ele>734.762218</ele>
        <time>2020-08-09T10:53:55.683Z</time>
      </trkpt>
      <trkpt lat="41.706177" lon="2.247860">
        <ele>734.873378</ele>
        <time>2020-08-09T10:54:08.686Z</time>
      </trkpt>
      <trkpt lat="41.706264" lon="2.247809">
        <ele>734.978728</ele>
        <time>2020-08-09T10:54:16.682Z</time>
      </trkpt>
      <trkpt lat="41.706182" lon="2.247872">
        <ele>735.083595</ele>
        <time>2020-08-09T11:02:26.688Z</time>
      </trkpt>
      <trkpt lat="41.706087" lon="2.247872">
        <ele>735.188982</ele>
        <time>2020-08-09T11:02:32.686Z</time>
      </trkpt>
      <trkpt lat="41.705999" lon="2.247844">
        <ele>735.289319</ele>
        <time>2020-08-09T11:02:36.688Z</time>
      </trkpt>
      <trkpt lat="41.705910" lon="2.247772">
        <ele>735.404660</ele>
        <time>2020-08-09T11:02:39.690Z</time>
      </trkpt>
      <trkpt lat="41.705844" lon="2.247683">
        <ele>735.508552</ele>
        <time>2020-08-09T11:02:42.662Z</time>
      </trkpt>
      <trkpt lat="41.705789" lon="2.247578">
        <ele>735.614782</ele>
        <time>2020-08-09T11:02:45.674Z</time>
      </trkpt>
      <trkpt lat="41.705729" lon="2.247444">
        <ele>735.744190</ele>
        <time>2020-08-09T11:02:49.686Z</time>
      </trkpt>
      <trkpt lat="41.705679" lon="2.247339">
        <ele>735.847334</ele>
        <time>2020-08-09T11:02:53.654Z</time>
      </trkpt>
      <trkpt lat="41.705736" lon="2.247456">
        <ele>735.963039</ele>
        <time>2020-08-09T11:03:17.681Z</time>
      </trkpt>
      <trkpt lat="41.705784" lon="2.247561">
        <ele>736.256968</ele>
        <time>2020-08-09T11:03:21.661Z</time>
      </trkpt>
      <trkpt lat="41.705829" lon="2.247687">
        <ele>736.622216</ele>
        <time>2020-08-09T11:03:25.683Z</time>
      </trkpt>
      <trkpt lat="41.705899" lon="2.247784">
        <ele>736.974999</ele>
        <time>2020-08-09T11:03:29.658Z</time>
      </trkpt>
      <trkpt lat="41.705978" lon="2.247852">
        <ele>737.303918</ele>
        <time>2020-08-09T11:03:33.680Z</time>
      </trkpt>
      <trkpt lat="41.706075" lon="2.247885">
        <ele>737.654464</ele>
        <time>2020-08-09T11:03:37.689Z</time>
      </trkpt>
      <trkpt lat="41.706180" lon="2.247870">
        <ele>738.024329</ele>
        <time>2020-08-09T11:03:41.685Z</time>
      </trkpt>
      <trkpt lat="41.706268" lon="2.247840">
        <ele>738.342389</ele>
        <time>2020-08-09T11:03:44.689Z</time>
      </trkpt>
      <trkpt lat="41.706366" lon="2.247799">
        <ele>738.702003</ele>
        <time>2020-08-09T11:03:49.680Z</time>
      </trkpt>
      <trkpt lat="41.706454" lon="2.247718">
        <ele>739.075998</ele>
        <time>2020-08-09T11:03:53.659Z</time>
      </trkpt>
      <trkpt lat="41.706529" lon="2.247649">
        <ele>739.394693</ele>
        <time>2020-08-09T11:03:56.679Z</time>
      </trkpt>
      <trkpt lat="41.706670" lon="2.247475">
        <ele>740.066212</ele>
        <time>2020-08-09T11:05:42.682Z</time>
      </trkpt>
      <trkpt lat="41.706756" lon="2.247378">
        <ele>740.460010</ele>
        <time>2020-08-09T11:05:47.678Z</time>
      </trkpt>
      <trkpt lat="41.706855" lon="2.247328">
        <ele>740.830604</ele>
        <time>2020-08-09T11:05:52.679Z</time>
      </trkpt>
      <trkpt lat="41.706927" lon="2.247228">
        <ele>741.193893</ele>
        <time>2020-08-09T11:05:58.660Z</time>
      </trkpt>
      <trkpt lat="41.706936" lon="2.247103">
        <ele>741.522277</ele>
        <time>2020-08-09T11:06:03.681Z</time>
      </trkpt>
      <trkpt lat="41.706901" lon="2.246965">
        <ele>741.903393</ele>
        <time>2020-08-09T11:06:09.655Z</time>
      </trkpt>
      <trkpt lat="41.706847" lon="2.246842">
        <ele>742.276394</ele>
        <time>2020-08-09T11:06:14.682Z</time>
      </trkpt>
      <trkpt lat="41.706794" lon="2.246733">
        <ele>742.520909</ele>
        <time>2020-08-09T11:06:18.660Z</time>
      </trkpt>
      <trkpt lat="41.706704" lon="2.246648">
        <ele>742.798180</ele>
        <time>2020-08-09T11:06:23.694Z</time>
      </trkpt>
      <trkpt lat="41.706627" lon="2.246581">
        <ele>743.029370</ele>
        <time>2020-08-09T11:06:27.651Z</time>
      </trkpt>
      <trkpt lat="41.706547" lon="2.246492">
        <ele>743.291212</ele>
        <time>2020-08-09T11:06:33.686Z</time>
      </trkpt>
      <trkpt lat="41.706485" lon="2.246382">
        <ele>743.550294</ele>
        <time>2020-08-09T11:06:39.696Z</time>
      </trkpt>
      <trkpt lat="41.706472" lon="2.246252">
        <ele>743.796842</ele>
        <time>2020-08-09T11:06:45.675Z</time>
      </trkpt>
      <trkpt lat="41.706438" lon="2.246131">
        <ele>744.039867</ele>
        <time>2020-08-09T11:06:50.666Z</time>
      </trkpt>
      <trkpt lat="41.706380" lon="2.246030">
        <ele>744.279389</ele>
        <time>2020-08-09T11:06:55.666Z</time>
      </trkpt>
      <trkpt lat="41.706319" lon="2.245930">
        <ele>744.522131</ele>
        <time>2020-08-09T11:07:01.663Z</time>
      </trkpt>
      <trkpt lat="41.706259" lon="2.245808">
        <ele>744.796747</ele>
        <time>2020-08-09T11:07:07.682Z</time>
      </trkpt>
      <trkpt lat="41.706249" lon="2.245672">
        <ele>745.053629</ele>
        <time>2020-08-09T11:07:13.664Z</time>
      </trkpt>
      <trkpt lat="41.706199" lon="2.245566">
        <ele>745.289320</ele>
        <time>2020-08-09T11:07:19.671Z</time>
      </trkpt>
      <trkpt lat="41.706146" lon="2.245459">
        <ele>745.530696</ele>
        <time>2020-08-09T11:07:24.685Z</time>
      </trkpt>
      <trkpt lat="41.706100" lon="2.245345">
        <ele>745.774284</ele>
        <time>2020-08-09T11:07:29.697Z</time>
      </trkpt>
      <trkpt lat="41.706041" lon="2.245223">
        <ele>746.047524</ele>
        <time>2020-08-09T11:07:33.692Z</time>
      </trkpt>
      <trkpt lat="41.705990" lon="2.245079">
        <ele>746.347122</ele>
        <time>2020-08-09T11:07:37.683Z</time>
      </trkpt>
      <trkpt lat="41.705934" lon="2.244954">
        <ele>746.621149</ele>
        <time>2020-08-09T11:07:41.681Z</time>
      </trkpt>
      <trkpt lat="41.705883" lon="2.244831">
        <ele>746.871967</ele>
        <time>2020-08-09T11:07:45.667Z</time>
      </trkpt>
      <trkpt lat="41.705867" lon="2.244710">
        <ele>747.063936</ele>
        <time>2020-08-09T11:07:48.649Z</time>
      </trkpt>
      <trkpt lat="41.705897" lon="2.244566">
        <ele>747.297487</ele>
        <time>2020-08-09T11:07:52.679Z</time>
      </trkpt>
      <trkpt lat="41.705914" lon="2.244424">
        <ele>747.522154</ele>
        <time>2020-08-09T11:07:57.684Z</time>
      </trkpt>
      <trkpt lat="41.705897" lon="2.244264">
        <ele>747.774625</ele>
        <time>2020-08-09T11:08:01.681Z</time>
      </trkpt>
      <trkpt lat="41.705877" lon="2.244142">
        <ele>747.969754</ele>
        <time>2020-08-09T11:08:04.680Z</time>
      </trkpt>
      <trkpt lat="41.705848" lon="2.244021">
        <ele>748.168282</ele>
        <time>2020-08-09T11:08:07.686Z</time>
      </trkpt>
      <trkpt lat="41.705826" lon="2.243884">
        <ele>748.387199</ele>
        <time>2020-08-09T11:08:10.682Z</time>
      </trkpt>
      <trkpt lat="41.705807" lon="2.243751">
        <ele>748.598742</ele>
        <time>2020-08-09T11:08:13.685Z</time>
      </trkpt>
      <trkpt lat="41.705787" lon="2.243617">
        <ele>748.812219</ele>
        <time>2020-08-09T11:08:16.685Z</time>
      </trkpt>
      <trkpt lat="41.705748" lon="2.243483">
        <ele>749.036899</ele>
        <time>2020-08-09T11:08:19.664Z</time>
      </trkpt>
      <trkpt lat="41.705719" lon="2.243321">
        <ele>749.297150</ele>
        <time>2020-08-09T11:08:22.693Z</time>
      </trkpt>
      <trkpt lat="41.705699" lon="2.243194">
        <ele>749.499916</ele>
        <time>2020-08-09T11:08:24.695Z</time>
      </trkpt>
      <trkpt lat="41.705670" lon="2.243034">
        <ele>749.757130</ele>
        <time>2020-08-09T11:08:27.681Z</time>
      </trkpt>
      <trkpt lat="41.705637" lon="2.242892">
        <ele>749.989462</ele>
        <time>2020-08-09T11:08:30.685Z</time>
      </trkpt>
      <trkpt lat="41.705628" lon="2.242735">
        <ele>750.235451</ele>
        <time>2020-08-09T11:08:33.679Z</time>
      </trkpt>
      <trkpt lat="41.705625" lon="2.242615">
        <ele>750.423021</ele>
        <time>2020-08-09T11:08:35.677Z</time>
      </trkpt>
      <trkpt lat="41.705611" lon="2.242460">
        <ele>750.474225</ele>
        <time>2020-08-09T11:08:38.665Z</time>
      </trkpt>
      <trkpt lat="41.705592" lon="2.242299">
        <ele>750.230584</ele>
        <time>2020-08-09T11:08:41.683Z</time>
      </trkpt>
      <trkpt lat="41.705567" lon="2.242148">
        <ele>749.999395</ele>
        <time>2020-08-09T11:08:44.679Z</time>
      </trkpt>
      <trkpt lat="41.705530" lon="2.241995">
        <ele>749.759001</ele>
        <time>2020-08-09T11:08:47.653Z</time>
      </trkpt>
      <trkpt lat="41.705499" lon="2.241841">
        <ele>749.520590</ele>
        <time>2020-08-09T11:08:50.683Z</time>
      </trkpt>
      <trkpt lat="41.705460" lon="2.241693">
        <ele>749.285993</ele>
        <time>2020-08-09T11:08:53.688Z</time>
      </trkpt>
      <trkpt lat="41.705439" lon="2.241570">
        <ele>749.097393</ele>
        <time>2020-08-09T11:08:55.684Z</time>
      </trkpt>
      <trkpt lat="41.705418" lon="2.241438">
        <ele>748.895657</ele>
        <time>2020-08-09T11:08:57.691Z</time>
      </trkpt>
      <trkpt lat="41.705403" lon="2.241293">
        <ele>748.676849</ele>
        <time>2020-08-09T11:08:59.676Z</time>
      </trkpt>
      <trkpt lat="41.705385" lon="2.241153">
        <ele>748.464504</ele>
        <time>2020-08-09T11:09:01.680Z</time>
      </trkpt>
      <trkpt lat="41.705352" lon="2.241021">
        <ele>748.256430</ele>
        <time>2020-08-09T11:09:03.678Z</time>
      </trkpt>
      <trkpt lat="41.705295" lon="2.240891">
        <ele>748.031080</ele>
        <time>2020-08-09T11:09:05.689Z</time>
      </trkpt>
      <trkpt lat="41.705259" lon="2.240760">
        <ele>747.822424</ele>
        <time>2020-08-09T11:09:07.682Z</time>
      </trkpt>
      <trkpt lat="41.705232" lon="2.240615">
        <ele>747.599046</ele>
        <time>2020-08-09T11:09:09.692Z</time>
      </trkpt>
      <trkpt lat="41.705239" lon="2.240490">
        <ele>747.411678</ele>
        <time>2020-08-09T11:09:11.689Z</time>
      </trkpt>
      <trkpt lat="41.705279" lon="2.240364">
        <ele>747.207020</ele>
        <time>2020-08-09T11:09:14.679Z</time>
      </trkpt>
      <trkpt lat="41.705338" lon="2.240273">
        <ele>747.026865</ele>
        <time>2020-08-09T11:09:19.670Z</time>
      </trkpt>
      <trkpt lat="41.705439" lon="2.240218">
        <ele>747.602752</ele>
        <time>2020-08-09T11:09:23.663Z</time>
      </trkpt>
      <trkpt lat="41.705547" lon="2.240242">
        <ele>748.480074</ele>
        <time>2020-08-09T11:09:26.683Z</time>
      </trkpt>
      <trkpt lat="41.705663" lon="2.240278">
        <ele>749.434301</ele>
        <time>2020-08-09T11:09:30.681Z</time>
      </trkpt>
      <trkpt lat="41.705779" lon="2.240259">
        <ele>750.370827</ele>
        <time>2020-08-09T11:09:34.686Z</time>
      </trkpt>
      <trkpt lat="41.705866" lon="2.240208">
        <ele>751.131873</ele>
        <time>2020-08-09T11:09:38.683Z</time>
      </trkpt>
      <trkpt lat="41.705945" lon="2.240128">
        <ele>751.925529</ele>
        <time>2020-08-09T11:09:43.657Z</time>
      </trkpt>
      <trkpt lat="41.706031" lon="2.240077">
        <ele>752.679241</ele>
        <time>2020-08-09T11:09:47.678Z</time>
      </trkpt>
      <trkpt lat="41.706130" lon="2.240018">
        <ele>753.547591</ele>
        <time>2020-08-09T11:09:52.657Z</time>
      </trkpt>
      <trkpt lat="41.706222" lon="2.239943">
        <ele>754.410673</ele>
        <time>2020-08-09T11:09:57.683Z</time>
      </trkpt>
      <trkpt lat="41.706319" lon="2.239882">
        <ele>755.269420</ele>
        <time>2020-08-09T11:10:02.663Z</time>
      </trkpt>
      <trkpt lat="41.706401" lon="2.239811">
        <ele>756.051892</ele>
        <time>2020-08-09T11:10:06.682Z</time>
      </trkpt>
      <trkpt lat="41.706478" lon="2.239748">
        <ele>756.774964</ele>
        <time>2020-08-09T11:10:10.664Z</time>
      </trkpt>
      <trkpt lat="41.706562" lon="2.239660">
        <ele>757.629559</ele>
        <time>2020-08-09T11:10:15.685Z</time>
      </trkpt>
      <trkpt lat="41.706616" lon="2.239547">
        <ele>758.432255</ele>
        <time>2020-08-09T11:10:20.656Z</time>
      </trkpt>
      <trkpt lat="41.706657" lon="2.239435">
        <ele>759.178549</ele>
        <time>2020-08-09T11:10:25.682Z</time>
      </trkpt>
      <trkpt lat="41.706694" lon="2.239325">
        <ele>759.900369</ele>
        <time>2020-08-09T11:10:30.669Z</time>
      </trkpt>
      <trkpt lat="41.706743" lon="2.239206">
        <ele>760.713431</ele>
        <time>2020-08-09T11:10:38.688Z</time>
      </trkpt>
      <trkpt lat="41.706790" lon="2.239102">
        <ele>761.441420</ele>
        <time>2020-08-09T11:10:44.685Z</time>
      </trkpt>
      <trkpt lat="41.706867" lon="2.239029">
        <ele>762.205773</ele>
        <time>2020-08-09T11:10:51.716Z</time>
      </trkpt>
      <trkpt lat="41.706959" lon="2.238995">
        <ele>762.979057</ele>
        <time>2020-08-09T11:10:57.679Z</time>
      </trkpt>
      <trkpt lat="41.707055" lon="2.239006">
        <ele>763.759740</ele>
        <time>2020-08-09T11:11:03.682Z</time>
      </trkpt>
      <trkpt lat="41.707149" lon="2.239029">
        <ele>764.533981</ele>
        <time>2020-08-09T11:11:08.657Z</time>
      </trkpt>
      <trkpt lat="41.707249" lon="2.239031">
        <ele>765.344324</ele>
        <time>2020-08-09T11:11:13.712Z</time>
      </trkpt>
      <trkpt lat="41.707342" lon="2.239011">
        <ele>766.107509</ele>
        <time>2020-08-09T11:11:19.692Z</time>
      </trkpt>
      <trkpt lat="41.707424" lon="2.238953">
        <ele>766.858858</ele>
        <time>2020-08-09T11:11:25.690Z</time>
      </trkpt>
      <trkpt lat="41.707517" lon="2.238933">
        <ele>767.622043</ele>
        <time>2020-08-09T11:11:31.686Z</time>
      </trkpt>
      <trkpt lat="41.707624" lon="2.238937">
        <ele>768.489351</ele>
        <time>2020-08-09T11:11:37.685Z</time>
      </trkpt>
      <trkpt lat="41.707722" lon="2.238909">
        <ele>769.301262</ele>
        <time>2020-08-09T11:11:42.660Z</time>
      </trkpt>
      <trkpt lat="41.707818" lon="2.238855">
        <ele>770.144905</ele>
        <time>2020-08-09T11:11:48.683Z</time>
      </trkpt>
      <trkpt lat="41.707915" lon="2.238821">
        <ele>770.957313</ele>
        <time>2020-08-09T11:11:54.687Z</time>
      </trkpt>
      <trkpt lat="41.708014" lon="2.238785">
        <ele>771.788496</ele>
        <time>2020-08-09T11:12:00.695Z</time>
      </trkpt>
      <trkpt lat="41.708105" lon="2.238743">
        <ele>772.568367</ele>
        <time>2020-08-09T11:12:06.683Z</time>
      </trkpt>
      <trkpt lat="41.708189" lon="2.238695">
        <ele>773.308323</ele>
        <time>2020-08-09T11:12:11.684Z</time>
      </trkpt>
      <trkpt lat="41.708271" lon="2.238638">
        <ele>774.056865</ele>
        <time>2020-08-09T11:12:16.675Z</time>
      </trkpt>
      <trkpt lat="41.708366" lon="2.238583">
        <ele>774.895424</ele>
        <time>2020-08-09T11:12:23.651Z</time>
      </trkpt>
      <trkpt lat="41.708451" lon="2.238517">
        <ele>775.691483</ele>
        <time>2020-08-09T11:12:29.657Z</time>
      </trkpt>
      <trkpt lat="41.708517" lon="2.238431">
        <ele>776.627621</ele>
        <time>2020-08-09T11:12:34.662Z</time>
      </trkpt>
      <trkpt lat="41.708578" lon="2.238329">
        <ele>777.729510</ele>
        <time>2020-08-09T11:12:39.679Z</time>
      </trkpt>
      <trkpt lat="41.708632" lon="2.238212">
        <ele>778.889248</ele>
        <time>2020-08-09T11:12:45.679Z</time>
      </trkpt>
      <trkpt lat="41.708681" lon="2.238100">
        <ele>779.983741</ele>
        <time>2020-08-09T11:12:52.681Z</time>
      </trkpt>
      <trkpt lat="41.708673" lon="2.237981">
        <ele>780.991104</ele>
        <time>2020-08-09T11:12:58.662Z</time>
      </trkpt>
      <trkpt lat="41.708687" lon="2.237823">
        <ele>782.332571</ele>
        <time>2020-08-09T11:13:29.688Z</time>
      </trkpt>
      <trkpt lat="41.708677" lon="2.237692">
        <ele>783.442807</ele>
        <time>2020-08-09T11:13:55.714Z</time>
      </trkpt>
      <trkpt lat="41.708667" lon="2.237563">
        <ele>784.536270</ele>
        <time>2020-08-09T11:14:02.681Z</time>
      </trkpt>
      <trkpt lat="41.708675" lon="2.237425">
        <ele>785.703267</ele>
        <time>2020-08-09T11:14:09.682Z</time>
      </trkpt>
      <trkpt lat="41.708675" lon="2.237300">
        <ele>786.757157</ele>
        <time>2020-08-09T11:14:15.686Z</time>
      </trkpt>
      <trkpt lat="41.708701" lon="2.237163">
        <ele>787.948960</ele>
        <time>2020-08-09T11:14:22.686Z</time>
      </trkpt>
      <trkpt lat="41.708740" lon="2.237053">
        <ele>788.975658</ele>
        <time>2020-08-09T11:14:27.686Z</time>
      </trkpt>
      <trkpt lat="41.708768" lon="2.236938">
        <ele>789.995500</ele>
        <time>2020-08-09T11:14:32.684Z</time>
      </trkpt>
      <trkpt lat="41.708802" lon="2.236815">
        <ele>791.101333</ele>
        <time>2020-08-09T11:14:37.678Z</time>
      </trkpt>
      <trkpt lat="41.708840" lon="2.236697">
        <ele>792.184820</ele>
        <time>2020-08-09T11:14:43.690Z</time>
      </trkpt>
      <trkpt lat="41.708860" lon="2.236573">
        <ele>793.254398</ele>
        <time>2020-08-09T11:14:49.683Z</time>
      </trkpt>
      <trkpt lat="41.708861" lon="2.236449">
        <ele>794.299915</ele>
        <time>2020-08-09T11:14:56.682Z</time>
      </trkpt>
      <trkpt lat="41.708876" lon="2.236326">
        <ele>795.350685</ele>
        <time>2020-08-09T11:15:03.680Z</time>
      </trkpt>
      <trkpt lat="41.708903" lon="2.236199">
        <ele>796.375352</ele>
        <time>2020-08-09T11:15:10.684Z</time>
      </trkpt>
      <trkpt lat="41.708953" lon="2.236087">
        <ele>796.977730</ele>
        <time>2020-08-09T11:15:17.694Z</time>
      </trkpt>
      <trkpt lat="41.708996" lon="2.235980">
        <ele>797.538657</ele>
        <time>2020-08-09T11:15:24.683Z</time>
      </trkpt>
      <trkpt lat="41.708991" lon="2.235855">
        <ele>798.116482</ele>
        <time>2020-08-09T11:15:31.689Z</time>
      </trkpt>
      <trkpt lat="41.708975" lon="2.235727">
        <ele>798.715553</ele>
        <time>2020-08-09T11:15:39.659Z</time>
      </trkpt>
      <trkpt lat="41.708961" lon="2.235608">
        <ele>799.271634</ele>
        <time>2020-08-09T11:15:46.674Z</time>
      </trkpt>
      <trkpt lat="41.708972" lon="2.235483">
        <ele>799.852627</ele>
        <time>2020-08-09T11:15:53.667Z</time>
      </trkpt>
      <trkpt lat="41.708964" lon="2.235351">
        <ele>800.463942</ele>
        <time>2020-08-09T11:16:01.648Z</time>
      </trkpt>
      <trkpt lat="41.709005" lon="2.235231">
        <ele>801.073116</ele>
        <time>2020-08-09T11:16:09.676Z</time>
      </trkpt>
      <trkpt lat="41.709038" lon="2.235102">
        <ele>801.702567</ele>
        <time>2020-08-09T11:16:17.666Z</time>
      </trkpt>
      <trkpt lat="41.709007" lon="2.234985">
        <ele>802.275643</ele>
        <time>2020-08-09T11:16:23.670Z</time>
      </trkpt>
      <trkpt lat="41.708952" lon="2.234876">
        <ele>802.882936</ele>
        <time>2020-08-09T11:16:28.683Z</time>
      </trkpt>
      <trkpt lat="41.708927" lon="2.234755">
        <ele>803.462466</ele>
        <time>2020-08-09T11:16:33.685Z</time>
      </trkpt>
      <trkpt lat="41.708931" lon="2.234627">
        <ele>804.053830</ele>
        <time>2020-08-09T11:16:37.687Z</time>
      </trkpt>
      <trkpt lat="41.708946" lon="2.234496">
        <ele>804.665596</ele>
        <time>2020-08-09T11:16:40.669Z</time>
      </trkpt>
      <trkpt lat="41.708919" lon="2.234346">
        <ele>805.377836</ele>
        <time>2020-08-09T11:16:43.692Z</time>
      </trkpt>
      <trkpt lat="41.708924" lon="2.234171">
        <ele>806.186225</ele>
        <time>2020-08-09T11:16:46.682Z</time>
      </trkpt>
      <trkpt lat="41.708903" lon="2.234015">
        <ele>806.917932</ele>
        <time>2020-08-09T11:16:48.684Z</time>
      </trkpt>
      <trkpt lat="41.708879" lon="2.233875">
        <ele>807.297163</ele>
        <time>2020-08-09T11:16:50.686Z</time>
      </trkpt>
      <trkpt lat="41.708834" lon="2.233752">
        <ele>806.992321</ele>
        <time>2020-08-09T11:16:52.681Z</time>
      </trkpt>
      <trkpt lat="41.708824" lon="2.233631">
        <ele>806.721390</ele>
        <time>2020-08-09T11:16:54.669Z</time>
      </trkpt>
      <trkpt lat="41.708887" lon="2.233495">
        <ele>806.365186</ele>
        <time>2020-08-09T11:16:57.684Z</time>
      </trkpt>
      <trkpt lat="41.708940" lon="2.233332">
        <ele>805.969513</ele>
        <time>2020-08-09T11:17:00.682Z</time>
      </trkpt>
      <trkpt lat="41.708978" lon="2.233198">
        <ele>805.650505</ele>
        <time>2020-08-09T11:17:02.688Z</time>
      </trkpt>
      <trkpt lat="41.709071" lon="2.233109">
        <ele>805.309776</ele>
        <time>2020-08-09T11:17:04.694Z</time>
      </trkpt>
      <trkpt lat="41.709148" lon="2.233029">
        <ele>805.019278</ele>
        <time>2020-08-09T11:17:06.680Z</time>
      </trkpt>
      <trkpt lat="41.709201" lon="2.232912">
        <ele>804.714707</ele>
        <time>2020-08-09T11:17:09.684Z</time>
      </trkpt>
      <trkpt lat="41.709181" lon="2.232787">
        <ele>804.430203</ele>
        <time>2020-08-09T11:17:13.687Z</time>
      </trkpt>
      <trkpt lat="41.709137" lon="2.232661">
        <ele>804.120628</ele>
        <time>2020-08-09T11:17:18.689Z</time>
      </trkpt>
      <trkpt lat="41.709165" lon="2.232507">
        <ele>803.767883</ele>
        <time>2020-08-09T11:17:22.680Z</time>
      </trkpt>
      <trkpt lat="41.709208" lon="2.232389">
        <ele>803.475658</ele>
        <time>2020-08-09T11:17:24.698Z</time>
      </trkpt>
      <trkpt lat="41.709262" lon="2.232250">
        <ele>803.126934</ele>
        <time>2020-08-09T11:17:26.679Z</time>
      </trkpt>
      <trkpt lat="41.709319" lon="2.232133">
        <ele>802.816011</ele>
        <time>2020-08-09T11:17:28.678Z</time>
      </trkpt>
      <trkpt lat="41.709408" lon="2.232027">
        <ele>802.460984</ele>
        <time>2020-08-09T11:17:31.675Z</time>
      </trkpt>
      <trkpt lat="41.709505" lon="2.231979">
        <ele>802.152716</ele>
        <time>2020-08-09T11:17:36.655Z</time>
      </trkpt>
      <trkpt lat="41.709608" lon="2.231969">
        <ele>802.067586</ele>
        <time>2020-08-09T11:17:40.678Z</time>
      </trkpt>
      <trkpt lat="41.709711" lon="2.231949">
        <ele>802.135623</ele>
        <time>2020-08-09T11:17:43.657Z</time>
      </trkpt>
      <trkpt lat="41.709802" lon="2.231866">
        <ele>802.207592</ele>
        <time>2020-08-09T11:17:46.679Z</time>
      </trkpt>
      <trkpt lat="41.709856" lon="2.231742">
        <ele>802.277650</ele>
        <time>2020-08-09T11:17:49.678Z</time>
      </trkpt>
      <trkpt lat="41.709912" lon="2.231619">
        <ele>802.347959</ele>
        <time>2020-08-09T11:17:52.682Z</time>
      </trkpt>
      <trkpt lat="41.709976" lon="2.231519">
        <ele>802.412240</ele>
        <time>2020-08-09T11:17:55.665Z</time>
      </trkpt>
      <trkpt lat="41.710042" lon="2.231426">
        <ele>802.474861</ele>
        <time>2020-08-09T11:17:58.677Z</time>
      </trkpt>
      <trkpt lat="41.710120" lon="2.231362">
        <ele>802.534656</ele>
        <time>2020-08-09T11:18:01.680Z</time>
      </trkpt>
      <trkpt lat="41.710208" lon="2.231307">
        <ele>802.598137</ele>
        <time>2020-08-09T11:18:04.665Z</time>
      </trkpt>
      <trkpt lat="41.710300" lon="2.231275">
        <ele>802.660274</ele>
        <time>2020-08-09T11:18:07.688Z</time>
      </trkpt>
      <trkpt lat="41.710393" lon="2.231225">
        <ele>802.725784</ele>
        <time>2020-08-09T11:18:10.655Z</time>
      </trkpt>
      <trkpt lat="41.710484" lon="2.231186">
        <ele>802.788243</ele>
        <time>2020-08-09T11:18:13.682Z</time>
      </trkpt>
      <trkpt lat="41.710573" lon="2.231131">
        <ele>802.852317</ele>
        <time>2020-08-09T11:18:16.673Z</time>
      </trkpt>
      <trkpt lat="41.710638" lon="2.231038">
        <ele>802.914489</ele>
        <time>2020-08-09T11:18:19.666Z</time>
      </trkpt>
      <trkpt lat="41.710683" lon="2.230924">
        <ele>802.977421</ele>
        <time>2020-08-09T11:18:22.674Z</time>
      </trkpt>
      <trkpt lat="41.710728" lon="2.230789">
        <ele>803.049572</ele>
        <time>2020-08-09T11:18:26.668Z</time>
      </trkpt>
      <trkpt lat="41.710792" lon="2.230700">
        <ele>803.109878</ele>
        <time>2020-08-09T11:18:31.689Z</time>
      </trkpt>
      <trkpt lat="41.710855" lon="2.230611">
        <ele>803.169733</ele>
        <time>2020-08-09T11:18:34.666Z</time>
      </trkpt>
      <trkpt lat="41.710915" lon="2.230493">
        <ele>802.882768</ele>
        <time>2020-08-09T11:18:37.680Z</time>
      </trkpt>
      <trkpt lat="41.710966" lon="2.230378">
        <ele>802.302607</ele>
        <time>2020-08-09T11:18:40.672Z</time>
      </trkpt>
      <trkpt lat="41.711026" lon="2.230240">
        <ele>801.609949</ele>
        <time>2020-08-09T11:18:44.664Z</time>
      </trkpt>
      <trkpt lat="41.711072" lon="2.230129">
        <ele>801.059305</ele>
        <time>2020-08-09T11:18:47.672Z</time>
      </trkpt>
      <trkpt lat="41.711150" lon="2.230017">
        <ele>800.394965</ele>
        <time>2020-08-09T11:18:50.666Z</time>
      </trkpt>
      <trkpt lat="41.711250" lon="2.229947">
        <ele>799.739417</ele>
        <time>2020-08-09T11:18:53.673Z</time>
      </trkpt>
      <trkpt lat="41.711350" lon="2.229910">
        <ele>799.136658</ele>
        <time>2020-08-09T11:18:56.664Z</time>
      </trkpt>
      <trkpt lat="41.711448" lon="2.229861">
        <ele>798.528905</ele>
        <time>2020-08-09T11:18:59.684Z</time>
      </trkpt>
      <trkpt lat="41.711557" lon="2.229821">
        <ele>797.872277</ele>
        <time>2020-08-09T11:19:02.699Z</time>
      </trkpt>
      <trkpt lat="41.711670" lon="2.229827">
        <ele>797.215227</ele>
        <time>2020-08-09T11:19:05.672Z</time>
      </trkpt>
      <trkpt lat="41.711773" lon="2.229862">
        <ele>796.597840</ele>
        <time>2020-08-09T11:19:08.666Z</time>
      </trkpt>
      <trkpt lat="41.711879" lon="2.229905">
        <ele>795.954357</ele>
        <time>2020-08-09T11:19:11.675Z</time>
      </trkpt>
      <trkpt lat="41.712001" lon="2.229963">
        <ele>795.202218</ele>
        <time>2020-08-09T11:19:14.672Z</time>
      </trkpt>
      <trkpt lat="41.712084" lon="2.230011">
        <ele>794.676966</ele>
        <time>2020-08-09T11:19:16.669Z</time>
      </trkpt>
      <trkpt lat="41.712162" lon="2.230100">
        <ele>794.081670</ele>
        <time>2020-08-09T11:19:18.690Z</time>
      </trkpt>
      <trkpt lat="41.712235" lon="2.230193">
        <ele>793.496362</ele>
        <time>2020-08-09T11:19:20.678Z</time>
      </trkpt>
      <trkpt lat="41.712305" lon="2.230285">
        <ele>792.926604</ele>
        <time>2020-08-09T11:19:22.679Z</time>
      </trkpt>
      <trkpt lat="41.712386" lon="2.230391">
        <ele>792.402674</ele>
        <time>2020-08-09T11:19:25.686Z</time>
      </trkpt>
      <trkpt lat="41.712462" lon="2.230476">
        <ele>791.986523</ele>
        <time>2020-08-09T11:19:28.684Z</time>
      </trkpt>
      <trkpt lat="41.712538" lon="2.230565">
        <ele>791.562219</ele>
        <time>2020-08-09T11:19:31.683Z</time>
      </trkpt>
      <trkpt lat="41.712621" lon="2.230656">
        <ele>791.111395</ele>
        <time>2020-08-09T11:19:34.688Z</time>
      </trkpt>
      <trkpt lat="41.712702" lon="2.230713">
        <ele>790.726810</ele>
        <time>2020-08-09T11:19:37.688Z</time>
      </trkpt>
      <trkpt lat="41.712762" lon="2.230822">
        <ele>790.301868</ele>
        <time>2020-08-09T11:19:40.683Z</time>
      </trkpt>
      <trkpt lat="41.712811" lon="2.230944">
        <ele>789.867175</ele>
        <time>2020-08-09T11:19:43.684Z</time>
      </trkpt>
      <trkpt lat="41.712922" lon="2.231204">
        <ele>788.927375</ele>
        <time>2020-08-09T11:21:59.693Z</time>
      </trkpt>
      <trkpt lat="41.712980" lon="2.231309">
        <ele>788.517524</ele>
        <time>2020-08-09T11:22:03.683Z</time>
      </trkpt>
      <trkpt lat="41.713031" lon="2.231450">
        <ele>788.025908</ele>
        <time>2020-08-09T11:22:07.682Z</time>
      </trkpt>
      <trkpt lat="41.713060" lon="2.231568">
        <ele>787.636109</ele>
        <time>2020-08-09T11:22:10.666Z</time>
      </trkpt>
      <trkpt lat="41.713084" lon="2.231717">
        <ele>787.157831</ele>
        <time>2020-08-09T11:22:14.683Z</time>
      </trkpt>
      <trkpt lat="41.713124" lon="2.231827">
        <ele>786.773910</ele>
        <time>2020-08-09T11:22:17.679Z</time>
      </trkpt>
      <trkpt lat="41.713203" lon="2.231923">
        <ele>786.325583</ele>
        <time>2020-08-09T11:22:20.675Z</time>
      </trkpt>
      <trkpt lat="41.713297" lon="2.231902">
        <ele>785.925016</ele>
        <time>2020-08-09T11:22:25.666Z</time>
      </trkpt>
      <trkpt lat="41.713296" lon="2.231779">
        <ele>785.539057</ele>
        <time>2020-08-09T11:22:29.678Z</time>
      </trkpt>
      <trkpt lat="41.713326" lon="2.231622">
        <ele>785.761519</ele>
        <time>2020-08-09T11:22:59.666Z</time>
      </trkpt>
      <trkpt lat="41.713340" lon="2.231473">
        <ele>787.411715</ele>
        <time>2020-08-09T11:23:48.686Z</time>
      </trkpt>
      <trkpt lat="41.713389" lon="2.231367">
        <ele>788.781738</ele>
        <time>2020-08-09T11:24:08.683Z</time>
      </trkpt>
      <trkpt lat="41.713425" lon="2.231183">
        <ele>790.871901</ele>
        <time>2020-08-09T11:27:22.672Z</time>
      </trkpt>
      <trkpt lat="41.713446" lon="2.231059">
        <ele>792.269091</ele>
        <time>2020-08-09T11:27:33.658Z</time>
      </trkpt>
      <trkpt lat="41.713447" lon="2.230939">
        <ele>793.587783</ele>
        <time>2020-08-09T11:27:51.665Z</time>
      </trkpt>
      <trkpt lat="41.713470" lon="2.230818">
        <ele>794.959810</ele>
        <time>2020-08-09T11:28:02.656Z</time>
      </trkpt>
      <trkpt lat="41.713509" lon="2.230708">
        <ele>796.297942</ele>
        <time>2020-08-09T11:28:14.679Z</time>
      </trkpt>
      <trkpt lat="41.713520" lon="2.230576">
        <ele>797.757422</ele>
        <time>2020-08-09T11:28:27.650Z</time>
      </trkpt>
      <trkpt lat="41.713529" lon="2.230449">
        <ele>799.159223</ele>
        <time>2020-08-09T11:28:37.680Z</time>
      </trkpt>
      <trkpt lat="41.713553" lon="2.230292">
        <ele>800.920204</ele>
        <time>2020-08-09T11:29:06.665Z</time>
      </trkpt>
      <trkpt lat="41.713573" lon="2.230173">
        <ele>802.260556</ele>
        <time>2020-08-09T11:29:19.693Z</time>
      </trkpt>
      <trkpt lat="41.713589" lon="2.230052">
        <ele>803.610851</ele>
        <time>2020-08-09T11:29:31.666Z</time>
      </trkpt>
      <trkpt lat="41.713670" lon="2.229892">
        <ele>805.735172</ele>
        <time>2020-08-09T11:29:59.680Z</time>
      </trkpt>
      <trkpt lat="41.713760" lon="2.229858">
        <ele>807.111668</ele>
        <time>2020-08-09T11:30:10.692Z</time>
      </trkpt>
      <trkpt lat="41.713850" lon="2.229844">
        <ele>808.445394</ele>
        <time>2020-08-09T11:30:19.676Z</time>
      </trkpt>
      <trkpt lat="41.713941" lon="2.229815">
        <ele>809.822320</ele>
        <time>2020-08-09T11:30:30.670Z</time>
      </trkpt>
      <trkpt lat="41.714033" lon="2.229805">
        <ele>811.181035</ele>
        <time>2020-08-09T11:30:48.677Z</time>
      </trkpt>
      <trkpt lat="41.714117" lon="2.229859">
        <ele>812.112595</ele>
        <time>2020-08-09T11:31:04.677Z</time>
      </trkpt>
      <trkpt lat="41.714205" lon="2.229882">
        <ele>812.774905</ele>
        <time>2020-08-09T11:31:18.675Z</time>
      </trkpt>
      <trkpt lat="41.714289" lon="2.229826">
        <ele>813.468001</ele>
        <time>2020-08-09T11:31:29.689Z</time>
      </trkpt>
      <trkpt lat="41.714359" lon="2.229731">
        <ele>814.204068</ele>
        <time>2020-08-09T11:31:37.684Z</time>
      </trkpt>
      <trkpt lat="41.714401" lon="2.229621">
        <ele>814.885368</ele>
        <time>2020-08-09T11:31:46.672Z</time>
      </trkpt>
      <trkpt lat="41.714450" lon="2.229513">
        <ele>815.582270</ele>
        <time>2020-08-09T11:31:57.679Z</time>
      </trkpt>
      <trkpt lat="41.714392" lon="2.229410">
        <ele>816.293706</ele>
        <time>2020-08-09T11:32:14.692Z</time>
      </trkpt>
      <trkpt lat="41.714345" lon="2.229306">
        <ele>816.964087</ele>
        <time>2020-08-09T11:32:24.675Z</time>
      </trkpt>
      <trkpt lat="41.714279" lon="2.229209">
        <ele>817.687818</ele>
        <time>2020-08-09T11:32:32.675Z</time>
      </trkpt>
      <trkpt lat="41.714227" lon="2.229090">
        <ele>818.448168</ele>
        <time>2020-08-09T11:32:40.712Z</time>
      </trkpt>
      <trkpt lat="41.714169" lon="2.228993">
        <ele>819.133483</ele>
        <time>2020-08-09T11:32:47.667Z</time>
      </trkpt>
      <trkpt lat="41.714105" lon="2.228902">
        <ele>819.822904</ele>
        <time>2020-08-09T11:32:55.669Z</time>
      </trkpt>
      <trkpt lat="41.714085" lon="2.228783">
        <ele>820.495519</ele>
        <time>2020-08-09T11:33:05.680Z</time>
      </trkpt>
      <trkpt lat="41.714173" lon="2.228739">
        <ele>821.189375</ele>
        <time>2020-08-09T11:35:31.660Z</time>
      </trkpt>
      <trkpt lat="41.714256" lon="2.228807">
        <ele>821.908064</ele>
        <time>2020-08-09T11:35:42.664Z</time>
      </trkpt>
      <trkpt lat="41.714326" lon="2.228910">
        <ele>822.676151</ele>
        <time>2020-08-09T11:35:47.662Z</time>
      </trkpt>
      <trkpt lat="41.714404" lon="2.228988">
        <ele>823.395163</ele>
        <time>2020-08-09T11:35:52.663Z</time>
      </trkpt>
      <trkpt lat="41.714493" lon="2.229070">
        <ele>824.193084</ele>
        <time>2020-08-09T11:35:58.684Z</time>
      </trkpt>
      <trkpt lat="41.714576" lon="2.229155">
        <ele>824.969594</ele>
        <time>2020-08-09T11:36:03.660Z</time>
      </trkpt>
      <trkpt lat="41.714493" lon="2.229050">
        <ele>826.265401</ele>
        <time>2020-08-09T11:44:04.677Z</time>
      </trkpt>
      <trkpt lat="41.714421" lon="2.228973">
        <ele>827.311147</ele>
        <time>2020-08-09T11:44:18.678Z</time>
      </trkpt>
      <trkpt lat="41.714343" lon="2.228889">
        <ele>828.447128</ele>
        <time>2020-08-09T11:44:26.663Z</time>
      </trkpt>
      <trkpt lat="41.714272" lon="2.228798">
        <ele>829.562485</ele>
        <time>2020-08-09T11:44:34.664Z</time>
      </trkpt>
      <trkpt lat="41.714187" lon="2.228739">
        <ele>830.649132</ele>
        <time>2020-08-09T11:44:42.671Z</time>
      </trkpt>
      <trkpt lat="41.714116" lon="2.228664">
        <ele>831.675455</ele>
        <time>2020-08-09T11:44:49.674Z</time>
      </trkpt>
      <trkpt lat="41.714068" lon="2.228547">
        <ele>832.806668</ele>
        <time>2020-08-09T11:44:57.662Z</time>
      </trkpt>
      <trkpt lat="41.714041" lon="2.228428">
        <ele>833.860521</ele>
        <time>2020-08-09T11:45:05.666Z</time>
      </trkpt>
      <trkpt lat="41.714044" lon="2.228556">
        <ele>834.945620</ele>
        <time>2020-08-09T11:45:27.670Z</time>
      </trkpt>
      <trkpt lat="41.714100" lon="2.228659">
        <ele>836.025303</ele>
        <time>2020-08-09T11:45:35.670Z</time>
      </trkpt>
      <trkpt lat="41.714189" lon="2.228649">
        <ele>837.039079</ele>
        <time>2020-08-09T11:45:46.680Z</time>
      </trkpt>
      <trkpt lat="41.714283" lon="2.228654">
        <ele>838.106903</ele>
        <time>2020-08-09T11:46:01.671Z</time>
      </trkpt>
      <trkpt lat="41.714374" lon="2.228682">
        <ele>839.166730</ele>
        <time>2020-08-09T11:46:23.668Z</time>
      </trkpt>
      <trkpt lat="41.714458" lon="2.228728">
        <ele>840.196792</ele>
        <time>2020-08-09T11:46:47.668Z</time>
      </trkpt>
      <trkpt lat="41.714528" lon="2.228813">
        <ele>841.269189</ele>
        <time>2020-08-09T11:47:06.676Z</time>
      </trkpt>
      <trkpt lat="41.714603" lon="2.228893">
        <ele>842.357406</ele>
        <time>2020-08-09T11:47:20.680Z</time>
      </trkpt>
      <trkpt lat="41.714689" lon="2.228952">
        <ele>843.454143</ele>
        <time>2020-08-09T11:47:31.668Z</time>
      </trkpt>
      <trkpt lat="41.714776" lon="2.228920">
        <ele>844.478216</ele>
        <time>2020-08-09T11:47:43.672Z</time>
      </trkpt>
      <trkpt lat="41.714853" lon="2.228843">
        <ele>845.454309</ele>
        <time>2020-08-09T11:48:21.681Z</time>
      </trkpt>
      <trkpt lat="41.714846" lon="2.228719">
        <ele>845.894289</ele>
        <time>2020-08-09T11:48:44.671Z</time>
      </trkpt>
      <trkpt lat="41.714892" lon="2.228606">
        <ele>846.349684</ele>
        <time>2020-08-09T11:48:49.688Z</time>
      </trkpt>
      <trkpt lat="41.714955" lon="2.228514">
        <ele>846.791410</ele>
        <time>2020-08-09T11:49:02.670Z</time>
      </trkpt>
      <trkpt lat="41.715053" lon="2.228449">
        <ele>847.309728</ele>
        <time>2020-08-09T11:49:07.671Z</time>
      </trkpt>
      <trkpt lat="41.715145" lon="2.228441">
        <ele>847.746710</ele>
        <time>2020-08-09T11:49:11.676Z</time>
      </trkpt>
      <trkpt lat="41.715251" lon="2.228441">
        <ele>848.249132</ele>
        <time>2020-08-09T11:49:18.669Z</time>
      </trkpt>
      <trkpt lat="41.715340" lon="2.228400">
        <ele>848.695222</ele>
        <time>2020-08-09T11:49:22.670Z</time>
      </trkpt>
      <trkpt lat="41.715444" lon="2.228382">
        <ele>849.192262</ele>
        <time>2020-08-09T11:49:26.669Z</time>
      </trkpt>
      <trkpt lat="41.715554" lon="2.228502">
        <ele>849.864645</ele>
        <time>2020-08-09T11:51:03.673Z</time>
      </trkpt>
      <trkpt lat="41.715638" lon="2.228586">
        <ele>850.361482</ele>
        <time>2020-08-09T11:51:09.663Z</time>
      </trkpt>
      <trkpt lat="41.715744" lon="2.228636">
        <ele>850.894138</ele>
        <time>2020-08-09T11:51:15.671Z</time>
      </trkpt>
      <trkpt lat="41.715844" lon="2.228668">
        <ele>851.381456</ele>
        <time>2020-08-09T11:51:19.671Z</time>
      </trkpt>
      <trkpt lat="41.715962" lon="2.228665">
        <ele>851.940857</ele>
        <time>2020-08-09T11:51:23.654Z</time>
      </trkpt>
      <trkpt lat="41.716062" lon="2.228678">
        <ele>852.417067</ele>
        <time>2020-08-09T11:51:27.665Z</time>
      </trkpt>
      <trkpt lat="41.716173" lon="2.228717">
        <ele>852.960981</ele>
        <time>2020-08-09T11:51:31.662Z</time>
      </trkpt>
      <trkpt lat="41.716262" lon="2.228733">
        <ele>853.386608</ele>
        <time>2020-08-09T11:51:34.668Z</time>
      </trkpt>
      <trkpt lat="41.716351" lon="2.228756">
        <ele>853.816230</ele>
        <time>2020-08-09T11:51:37.657Z</time>
      </trkpt>
      <trkpt lat="41.716452" lon="2.228780">
        <ele>853.720719</ele>
        <time>2020-08-09T11:51:42.662Z</time>
      </trkpt>
      <trkpt lat="41.716546" lon="2.228836">
        <ele>853.507964</ele>
        <time>2020-08-09T11:51:45.655Z</time>
      </trkpt>
      <trkpt lat="41.716637" lon="2.228868">
        <ele>853.313393</ele>
        <time>2020-08-09T11:51:49.652Z</time>
      </trkpt>
      <trkpt lat="41.716745" lon="2.228881">
        <ele>853.089140</ele>
        <time>2020-08-09T11:51:52.651Z</time>
      </trkpt>
      <trkpt lat="41.716860" lon="2.228892">
        <ele>852.850705</ele>
        <time>2020-08-09T11:51:56.665Z</time>
      </trkpt>
      <trkpt lat="41.716949" lon="2.228926">
        <ele>852.659309</ele>
        <time>2020-08-09T11:51:59.670Z</time>
      </trkpt>
      <trkpt lat="41.717072" lon="2.228963">
        <ele>852.398601</ele>
        <time>2020-08-09T11:52:02.668Z</time>
      </trkpt>
      <trkpt lat="41.717157" lon="2.229001">
        <ele>852.213284</ele>
        <time>2020-08-09T11:52:04.671Z</time>
      </trkpt>
      <trkpt lat="41.717270" lon="2.229034">
        <ele>851.974103</ele>
        <time>2020-08-09T11:52:07.664Z</time>
      </trkpt>
      <trkpt lat="41.717371" lon="2.229055">
        <ele>851.762726</ele>
        <time>2020-08-09T11:52:11.667Z</time>
      </trkpt>
      <trkpt lat="41.717485" lon="2.229099">
        <ele>851.517375</ele>
        <time>2020-08-09T11:52:15.677Z</time>
      </trkpt>
      <trkpt lat="41.717583" lon="2.229115">
        <ele>851.313204</ele>
        <time>2020-08-09T11:52:19.667Z</time>
      </trkpt>
      <trkpt lat="41.717682" lon="2.229093">
        <ele>851.105666</ele>
        <time>2020-08-09T11:52:22.667Z</time>
      </trkpt>
      <trkpt lat="41.717789" lon="2.229115">
        <ele>850.881790</ele>
        <time>2020-08-09T11:52:26.671Z</time>
      </trkpt>
      <trkpt lat="41.717886" lon="2.229149">
        <ele>850.674434</ele>
        <time>2020-08-09T11:52:33.655Z</time>
      </trkpt>
      <trkpt lat="41.717991" lon="2.229184">
        <ele>850.450664</ele>
        <time>2020-08-09T11:52:39.674Z</time>
      </trkpt>
      <trkpt lat="41.718107" lon="2.229207">
        <ele>850.208154</ele>
        <time>2020-08-09T11:52:43.663Z</time>
      </trkpt>
      <trkpt lat="41.718220" lon="2.229208">
        <ele>850.251198</ele>
        <time>2020-08-09T11:52:47.678Z</time>
      </trkpt>
      <trkpt lat="41.718343" lon="2.229226">
        <ele>850.343762</ele>
        <time>2020-08-09T11:52:51.654Z</time>
      </trkpt>
      <trkpt lat="41.718432" lon="2.229250">
        <ele>850.411678</ele>
        <time>2020-08-09T11:52:54.668Z</time>
      </trkpt>
      <trkpt lat="41.718520" lon="2.229287">
        <ele>850.480677</ele>
        <time>2020-08-09T11:52:57.671Z</time>
      </trkpt>
      <trkpt lat="41.718632" lon="2.229342">
        <ele>850.569916</ele>
        <time>2020-08-09T11:53:01.664Z</time>
      </trkpt>
      <trkpt lat="41.718726" lon="2.229414">
        <ele>850.650919</ele>
        <time>2020-08-09T11:53:05.669Z</time>
      </trkpt>
      <trkpt lat="41.718844" lon="2.229441">
        <ele>850.740474</ele>
        <time>2020-08-09T11:53:09.673Z</time>
      </trkpt>
      <trkpt lat="41.718954" lon="2.229451">
        <ele>850.822954</ele>
        <time>2020-08-09T11:53:12.667Z</time>
      </trkpt>
      <trkpt lat="41.719069" lon="2.229478">
        <ele>850.910297</ele>
        <time>2020-08-09T11:53:15.658Z</time>
      </trkpt>
      <trkpt lat="41.719165" lon="2.229527">
        <ele>850.987150</ele>
        <time>2020-08-09T11:53:18.669Z</time>
      </trkpt>
      <trkpt lat="41.719265" lon="2.229597">
        <ele>851.071556</ele>
        <time>2020-08-09T11:53:21.668Z</time>
      </trkpt>
      <trkpt lat="41.719368" lon="2.229670">
        <ele>851.158729</ele>
        <time>2020-08-09T11:53:24.677Z</time>
      </trkpt>
      <trkpt lat="41.719448" lon="2.229775">
        <ele>851.242511</ele>
        <time>2020-08-09T11:53:27.670Z</time>
      </trkpt>
      <trkpt lat="41.719501" lon="2.229884">
        <ele>851.315151</ele>
        <time>2020-08-09T11:53:30.661Z</time>
      </trkpt>
      <trkpt lat="41.719565" lon="2.229998">
        <ele>851.394803</ele>
        <time>2020-08-09T11:53:33.664Z</time>
      </trkpt>
      <trkpt lat="41.719654" lon="2.230080">
        <ele>851.475609</ele>
        <time>2020-08-09T11:53:36.704Z</time>
      </trkpt>
      <trkpt lat="41.719735" lon="2.230180">
        <ele>851.669010</ele>
        <time>2020-08-09T11:53:39.682Z</time>
      </trkpt>
      <trkpt lat="41.719804" lon="2.230272">
        <ele>851.974400</ele>
        <time>2020-08-09T11:53:42.684Z</time>
      </trkpt>
      <trkpt lat="41.719872" lon="2.230374">
        <ele>852.294638</ele>
        <time>2020-08-09T11:53:47.727Z</time>
      </trkpt>
      <trkpt lat="41.719971" lon="2.230352">
        <ele>852.609456</ele>
        <time>2020-08-09T11:53:51.652Z</time>
      </trkpt>
      <trkpt lat="41.720014" lon="2.230243">
        <ele>852.898142</ele>
        <time>2020-08-09T11:53:54.678Z</time>
      </trkpt>
      <trkpt lat="41.720028" lon="2.230101">
        <ele>853.233533</ele>
        <time>2020-08-09T11:53:59.673Z</time>
      </trkpt>
      <trkpt lat="41.720066" lon="2.229969">
        <ele>853.564812</ele>
        <time>2020-08-09T11:54:03.678Z</time>
      </trkpt>
      <trkpt lat="41.720108" lon="2.229860">
        <ele>853.852045</ele>
        <time>2020-08-09T11:54:08.656Z</time>
      </trkpt>
      <trkpt lat="41.720171" lon="2.229765">
        <ele>854.149609</ele>
        <time>2020-08-09T11:54:15.681Z</time>
      </trkpt>
      <trkpt lat="41.720261" lon="2.229720">
        <ele>854.450972</ele>
        <time>2020-08-09T11:54:21.665Z</time>
      </trkpt>
      <trkpt lat="41.720364" lon="2.229722">
        <ele>854.774129</ele>
        <time>2020-08-09T11:54:26.671Z</time>
      </trkpt>
      <trkpt lat="41.720454" lon="2.229780">
        <ele>855.087435</ele>
        <time>2020-08-09T11:54:32.669Z</time>
      </trkpt>
      <trkpt lat="41.720553" lon="2.229831">
        <ele>855.420178</ele>
        <time>2020-08-09T11:54:37.672Z</time>
      </trkpt>
      <trkpt lat="41.720659" lon="2.229833">
        <ele>855.752746</ele>
        <time>2020-08-09T11:54:41.672Z</time>
      </trkpt>
      <trkpt lat="41.720745" lon="2.229774">
        <ele>856.055853</ele>
        <time>2020-08-09T11:54:44.664Z</time>
      </trkpt>
      <trkpt lat="41.720762" lon="2.229642">
        <ele>856.369503</ele>
        <time>2020-08-09T11:54:47.671Z</time>
      </trkpt>
      <trkpt lat="41.720700" lon="2.229531">
        <ele>856.694133</ele>
        <time>2020-08-09T11:54:49.664Z</time>
      </trkpt>
      <trkpt lat="41.720655" lon="2.229422">
        <ele>856.985802</ele>
        <time>2020-08-09T11:54:51.661Z</time>
      </trkpt>
      <trkpt lat="41.720593" lon="2.229274">
        <ele>856.706443</ele>
        <time>2020-08-09T11:54:54.665Z</time>
      </trkpt>
      <trkpt lat="41.720536" lon="2.229139">
        <ele>855.938985</ele>
        <time>2020-08-09T11:54:57.668Z</time>
      </trkpt>
      <trkpt lat="41.720541" lon="2.229016">
        <ele>855.329471</ele>
        <time>2020-08-09T11:55:02.668Z</time>
      </trkpt>
      <trkpt lat="41.720597" lon="2.228915">
        <ele>854.706918</ele>
        <time>2020-08-09T11:55:08.644Z</time>
      </trkpt>
      <trkpt lat="41.720683" lon="2.228874">
        <ele>854.101784</ele>
        <time>2020-08-09T11:55:13.669Z</time>
      </trkpt>
      <trkpt lat="41.720758" lon="2.228949">
        <ele>853.481366</ele>
        <time>2020-08-09T11:55:17.681Z</time>
      </trkpt>
      <trkpt lat="41.720664" lon="2.228891">
        <ele>852.795308</ele>
        <time>2020-08-09T11:55:29.663Z</time>
      </trkpt>
      <trkpt lat="41.720603" lon="2.228767">
        <ele>852.060474</ele>
        <time>2020-08-09T11:55:33.666Z</time>
      </trkpt>
      <trkpt lat="41.720565" lon="2.228651">
        <ele>851.433651</ele>
        <time>2020-08-09T11:55:37.669Z</time>
      </trkpt>
      <trkpt lat="41.720624" lon="2.228559">
        <ele>850.833480</ele>
        <time>2020-08-09T11:55:46.662Z</time>
      </trkpt>
      <trkpt lat="41.720678" lon="2.228417">
        <ele>850.044918</ele>
        <time>2020-08-09T11:55:49.677Z</time>
      </trkpt>
      <trkpt lat="41.720735" lon="2.228314">
        <ele>849.410469</ele>
        <time>2020-08-09T11:55:51.663Z</time>
      </trkpt>
      <trkpt lat="41.720803" lon="2.228194">
        <ele>848.664971</ele>
        <time>2020-08-09T11:55:54.675Z</time>
      </trkpt>
      <trkpt lat="41.720873" lon="2.228051">
        <ele>847.818806</ele>
        <time>2020-08-09T11:55:57.667Z</time>
      </trkpt>
      <trkpt lat="41.720929" lon="2.227915">
        <ele>847.050264</ele>
        <time>2020-08-09T11:56:00.671Z</time>
      </trkpt>
      <trkpt lat="41.721025" lon="2.227827">
        <ele>846.279154</ele>
        <time>2020-08-09T11:56:03.665Z</time>
      </trkpt>
      <trkpt lat="41.721123" lon="2.227796">
        <ele>845.611626</ele>
        <time>2020-08-09T11:56:05.667Z</time>
      </trkpt>
      <trkpt lat="41.721240" lon="2.227760">
        <ele>844.946911</ele>
        <time>2020-08-09T11:56:07.659Z</time>
      </trkpt>
      <trkpt lat="41.721334" lon="2.227713">
        <ele>844.486297</ele>
        <time>2020-08-09T11:56:09.671Z</time>
      </trkpt>
      <trkpt lat="41.721458" lon="2.227699">
        <ele>843.915012</ele>
        <time>2020-08-09T11:56:12.671Z</time>
      </trkpt>
      <trkpt lat="41.721574" lon="2.227701">
        <ele>843.382427</ele>
        <time>2020-08-09T11:56:14.669Z</time>
      </trkpt>
      <trkpt lat="41.721700" lon="2.227711">
        <ele>842.802963</ele>
        <time>2020-08-09T11:56:16.665Z</time>
      </trkpt>
      <trkpt lat="41.721813" lon="2.227735">
        <ele>842.277716</ele>
        <time>2020-08-09T11:56:18.667Z</time>
      </trkpt>
      <trkpt lat="41.721911" lon="2.227673">
        <ele>841.780174</ele>
        <time>2020-08-09T11:56:21.668Z</time>
      </trkpt>
      <trkpt lat="41.721865" lon="2.227541">
        <ele>841.280998</ele>
        <time>2020-08-09T11:56:25.668Z</time>
      </trkpt>
      <trkpt lat="41.721807" lon="2.227418">
        <ele>840.782466</ele>
        <time>2020-08-09T11:56:29.678Z</time>
      </trkpt>
      <trkpt lat="41.721759" lon="2.227304">
        <ele>840.333970</ele>
        <time>2020-08-09T11:56:32.664Z</time>
      </trkpt>
      <trkpt lat="41.721685" lon="2.227185">
        <ele>839.803233</ele>
        <time>2020-08-09T11:56:36.666Z</time>
      </trkpt>
      <trkpt lat="41.721618" lon="2.227096">
        <ele>839.370089</ele>
        <time>2020-08-09T11:56:39.658Z</time>
      </trkpt>
      <trkpt lat="41.721541" lon="2.227006">
        <ele>838.900978</ele>
        <time>2020-08-09T11:56:42.672Z</time>
      </trkpt>
      <trkpt lat="41.721463" lon="2.226927">
        <ele>838.452084</ele>
        <time>2020-08-09T11:56:45.664Z</time>
      </trkpt>
      <trkpt lat="41.721381" lon="2.226848">
        <ele>837.988410</ele>
        <time>2020-08-09T11:56:48.662Z</time>
      </trkpt>
      <trkpt lat="41.721290" lon="2.226763">
        <ele>837.479133</ele>
        <time>2020-08-09T11:56:51.671Z</time>
      </trkpt>
      <trkpt lat="41.721196" lon="2.226679">
        <ele>836.936832</ele>
        <time>2020-08-09T11:56:54.659Z</time>
      </trkpt>
      <trkpt lat="41.721108" lon="2.226594">
        <ele>835.958139</ele>
        <time>2020-08-09T11:56:57.672Z</time>
      </trkpt>
      <trkpt lat="41.721027" lon="2.226522">
        <ele>835.081201</ele>
        <time>2020-08-09T11:56:59.668Z</time>
      </trkpt>
      <trkpt lat="41.720962" lon="2.226430">
        <ele>834.228194</ele>
        <time>2020-08-09T11:57:01.662Z</time>
      </trkpt>
      <trkpt lat="41.720916" lon="2.226312">
        <ele>833.331791</ele>
        <time>2020-08-09T11:57:03.664Z</time>
      </trkpt>
      <trkpt lat="41.720908" lon="2.226175">
        <ele>832.406475</ele>
        <time>2020-08-09T11:57:05.662Z</time>
      </trkpt>
      <trkpt lat="41.720897" lon="2.226032">
        <ele>831.438476</ele>
        <time>2020-08-09T11:57:07.675Z</time>
      </trkpt>
      <trkpt lat="41.720897" lon="2.225869">
        <ele>830.340906</ele>
        <time>2020-08-09T11:57:09.667Z</time>
      </trkpt>
      <trkpt lat="41.720888" lon="2.225717">
        <ele>829.314189</ele>
        <time>2020-08-09T11:57:11.702Z</time>
      </trkpt>
      <trkpt lat="41.720885" lon="2.225561">
        <ele>828.263405</ele>
        <time>2020-08-09T11:57:13.683Z</time>
      </trkpt>
      <trkpt lat="41.720902" lon="2.225386">
        <ele>827.075094</ele>
        <time>2020-08-09T11:57:15.672Z</time>
      </trkpt>
      <trkpt lat="41.720949" lon="2.225219">
        <ele>825.873307</ele>
        <time>2020-08-09T11:57:17.666Z</time>
      </trkpt>
      <trkpt lat="41.720992" lon="2.225057">
        <ele>824.715549</ele>
        <time>2020-08-09T11:57:19.671Z</time>
      </trkpt>
      <trkpt lat="41.721021" lon="2.224888">
        <ele>823.547893</ele>
        <time>2020-08-09T11:57:21.664Z</time>
      </trkpt>
      <trkpt lat="41.721025" lon="2.224760">
        <ele>822.685244</ele>
        <time>2020-08-09T11:57:23.680Z</time>
      </trkpt>
      <trkpt lat="41.721026" lon="2.224625">
        <ele>821.776170</ele>
        <time>2020-08-09T11:57:25.666Z</time>
      </trkpt>
      <trkpt lat="41.721013" lon="2.224490">
        <ele>820.859607</ele>
        <time>2020-08-09T11:57:27.666Z</time>
      </trkpt>
      <trkpt lat="41.720994" lon="2.224342">
        <ele>820.118523</ele>
        <time>2020-08-09T11:57:29.678Z</time>
      </trkpt>
      <trkpt lat="41.720970" lon="2.224219">
        <ele>819.516544</ele>
        <time>2020-08-09T11:57:31.660Z</time>
      </trkpt>
      <trkpt lat="41.720950" lon="2.224080">
        <ele>818.846259</ele>
        <time>2020-08-09T11:57:33.682Z</time>
      </trkpt>
      <trkpt lat="41.720954" lon="2.223895">
        <ele>817.969913</ele>
        <time>2020-08-09T11:57:36.661Z</time>
      </trkpt>
      <trkpt lat="41.720981" lon="2.223761">
        <ele>817.312708</ele>
        <time>2020-08-09T11:57:38.661Z</time>
      </trkpt>
      <trkpt lat="41.721023" lon="2.223637">
        <ele>816.667939</ele>
        <time>2020-08-09T11:57:40.671Z</time>
      </trkpt>
      <trkpt lat="41.721084" lon="2.223531">
        <ele>816.034169</ele>
        <time>2020-08-09T11:57:42.672Z</time>
      </trkpt>
      <trkpt lat="41.721161" lon="2.223445">
        <ele>815.398221</ele>
        <time>2020-08-09T11:57:44.646Z</time>
      </trkpt>
      <trkpt lat="41.721246" lon="2.223367">
        <ele>814.744638</ele>
        <time>2020-08-09T11:57:46.664Z</time>
      </trkpt>
      <trkpt lat="41.721338" lon="2.223266">
        <ele>813.990093</ele>
        <time>2020-08-09T11:57:48.667Z</time>
      </trkpt>
      <trkpt lat="41.721427" lon="2.223186">
        <ele>813.310192</ele>
        <time>2020-08-09T11:57:50.666Z</time>
      </trkpt>
      <trkpt lat="41.721495" lon="2.223082">
        <ele>812.655528</ele>
        <time>2020-08-09T11:58:13.660Z</time>
      </trkpt>
      <trkpt lat="41.721602" lon="2.223020">
        <ele>811.915973</ele>
        <time>2020-08-09T11:58:16.669Z</time>
      </trkpt>
      <trkpt lat="41.721703" lon="2.222964">
        <ele>811.222545</ele>
        <time>2020-08-09T11:58:18.664Z</time>
      </trkpt>
      <trkpt lat="41.721800" lon="2.222899">
        <ele>810.534516</ele>
        <time>2020-08-09T11:58:20.664Z</time>
      </trkpt>
      <trkpt lat="41.721888" lon="2.222825">
        <ele>809.875407</ele>
        <time>2020-08-09T11:58:22.661Z</time>
      </trkpt>
      <trkpt lat="41.721985" lon="2.222776">
        <ele>809.453190</ele>
        <time>2020-08-09T11:58:24.667Z</time>
      </trkpt>
      <trkpt lat="41.722071" lon="2.222728">
        <ele>809.929224</ele>
        <time>2020-08-09T11:58:26.662Z</time>
      </trkpt>
      <trkpt lat="41.722174" lon="2.222704">
        <ele>810.463417</ele>
        <time>2020-08-09T11:58:28.672Z</time>
      </trkpt>
      <trkpt lat="41.722288" lon="2.222705">
        <ele>811.045928</ele>
        <time>2020-08-09T11:58:30.665Z</time>
      </trkpt>
      <trkpt lat="41.722391" lon="2.222708">
        <ele>811.572345</ele>
        <time>2020-08-09T11:58:32.661Z</time>
      </trkpt>
      <trkpt lat="41.722481" lon="2.222719">
        <ele>812.034122</ele>
        <time>2020-08-09T11:58:34.660Z</time>
      </trkpt>
      <trkpt lat="41.722592" lon="2.222749">
        <ele>812.612716</ele>
        <time>2020-08-09T11:58:37.673Z</time>
      </trkpt>
      <trkpt lat="41.722692" lon="2.222811">
        <ele>813.175737</ele>
        <time>2020-08-09T11:58:41.670Z</time>
      </trkpt>
      <trkpt lat="41.722792" lon="2.222874">
        <ele>813.740370</ele>
        <time>2020-08-09T11:58:45.656Z</time>
      </trkpt>
      <trkpt lat="41.722899" lon="2.222935">
        <ele>814.334537</ele>
        <time>2020-08-09T11:58:49.666Z</time>
      </trkpt>
      <trkpt lat="41.722992" lon="2.222995">
        <ele>814.861956</ele>
        <time>2020-08-09T11:58:53.666Z</time>
      </trkpt>
      <trkpt lat="41.723083" lon="2.223035">
        <ele>815.351317</ele>
        <time>2020-08-09T11:58:58.668Z</time>
      </trkpt>
      <trkpt lat="41.723172" lon="2.223102">
        <ele>815.872942</ele>
        <time>2020-08-09T11:59:04.641Z</time>
      </trkpt>
      <trkpt lat="41.723253" lon="2.223168">
        <ele>816.357351</ele>
        <time>2020-08-09T11:59:11.653Z</time>
      </trkpt>
      <trkpt lat="41.723342" lon="2.223246">
        <ele>816.900757</ele>
        <time>2020-08-09T11:59:17.665Z</time>
      </trkpt>
      <trkpt lat="41.723429" lon="2.223303">
        <ele>817.395598</ele>
        <time>2020-08-09T11:59:24.662Z</time>
      </trkpt>
      <trkpt lat="41.723506" lon="2.223369">
        <ele>817.862664</ele>
        <time>2020-08-09T11:59:31.678Z</time>
      </trkpt>
      <trkpt lat="41.723597" lon="2.223430">
        <ele>818.382589</ele>
        <time>2020-08-09T11:59:37.668Z</time>
      </trkpt>
      <trkpt lat="41.723676" lon="2.223519">
        <ele>819.808755</ele>
        <time>2020-08-09T11:59:44.658Z</time>
      </trkpt>
      <trkpt lat="41.723751" lon="2.223612">
        <ele>821.594498</ele>
        <time>2020-08-09T11:59:52.640Z</time>
      </trkpt>
      <trkpt lat="41.723818" lon="2.223715">
        <ele>823.376459</ele>
        <time>2020-08-09T11:59:59.677Z</time>
      </trkpt>
      <trkpt lat="41.723872" lon="2.223821">
        <ele>825.050289</ele>
        <time>2020-08-09T12:00:07.651Z</time>
      </trkpt>
      <trkpt lat="41.723966" lon="2.223780">
        <ele>826.777746</ele>
        <time>2020-08-09T12:00:13.665Z</time>
      </trkpt>
      <trkpt lat="41.724030" lon="2.223687">
        <ele>828.427584</ele>
        <time>2020-08-09T12:00:19.661Z</time>
      </trkpt>
      <trkpt lat="41.724054" lon="2.223609">
        <ele>829.527942</ele>
        <time>2020-08-09T12:00:38.462Z</time>
      </trkpt>
      <trkpt lat="41.724047" lon="2.223183">
        <ele>835.085308</ele>
        <time>2020-08-09T12:01:17.663Z</time>
      </trkpt>
      <trkpt lat="41.724059" lon="2.223061">
        <ele>836.690226</ele>
        <time>2020-08-09T12:01:26.665Z</time>
      </trkpt>
      <trkpt lat="41.724034" lon="2.222943">
        <ele>838.290021</ele>
        <time>2020-08-09T12:01:37.647Z</time>
      </trkpt>
      <trkpt lat="41.724025" lon="2.222811">
        <ele>840.018774</ele>
        <time>2020-08-09T12:01:57.661Z</time>
      </trkpt>
      <trkpt lat="41.723995" lon="2.222696">
        <ele>841.607617</ele>
        <time>2020-08-09T12:02:08.672Z</time>
      </trkpt>
      <trkpt lat="41.723998" lon="2.222571">
        <ele>843.238748</ele>
        <time>2020-08-09T12:02:26.642Z</time>
      </trkpt>
      <trkpt lat="41.723961" lon="2.222363">
        <ele>846.027535</ele>
        <time>2020-08-09T12:03:38.665Z</time>
      </trkpt>
      <trkpt lat="41.723932" lon="2.222247">
        <ele>847.623061</ele>
        <time>2020-08-09T12:03:49.669Z</time>
      </trkpt>
      <trkpt lat="41.723907" lon="2.222128">
        <ele>849.235409</ele>
        <time>2020-08-09T12:04:01.692Z</time>
      </trkpt>
      <trkpt lat="41.723869" lon="2.222019">
        <ele>850.413070</ele>
        <time>2020-08-09T12:04:12.731Z</time>
      </trkpt>
      <trkpt lat="41.723844" lon="2.221898">
        <ele>851.283345</ele>
        <time>2020-08-09T12:04:27.672Z</time>
      </trkpt>
      <trkpt lat="41.723808" lon="2.221785">
        <ele>852.134996</ele>
        <time>2020-08-09T12:04:38.675Z</time>
      </trkpt>
      <trkpt lat="41.723755" lon="2.221680">
        <ele>853.013641</ele>
        <time>2020-08-09T12:04:48.670Z</time>
      </trkpt>
      <trkpt lat="41.723694" lon="2.221575">
        <ele>853.935964</ele>
        <time>2020-08-09T12:04:58.667Z</time>
      </trkpt>
      <trkpt lat="41.723661" lon="2.221450">
        <ele>854.855031</ele>
        <time>2020-08-09T12:05:07.700Z</time>
      </trkpt>
      <trkpt lat="41.723629" lon="2.221336">
        <ele>855.699282</ele>
        <time>2020-08-09T12:05:16.670Z</time>
      </trkpt>
      <trkpt lat="41.723571" lon="2.221234">
        <ele>856.588131</ele>
        <time>2020-08-09T12:05:25.665Z</time>
      </trkpt>
      <trkpt lat="41.723523" lon="2.221127">
        <ele>857.453483</ele>
        <time>2020-08-09T12:05:34.668Z</time>
      </trkpt>
      <trkpt lat="41.723455" lon="2.221035">
        <ele>858.350990</ele>
        <time>2020-08-09T12:05:52.657Z</time>
      </trkpt>
      <trkpt lat="41.723384" lon="2.220940">
        <ele>859.282893</ele>
        <time>2020-08-09T12:06:02.659Z</time>
      </trkpt>
      <trkpt lat="41.723315" lon="2.220852">
        <ele>860.167620</ele>
        <time>2020-08-09T12:06:10.662Z</time>
      </trkpt>
      <trkpt lat="41.723234" lon="2.220790">
        <ele>861.033997</ele>
        <time>2020-08-09T12:06:18.663Z</time>
      </trkpt>
      <trkpt lat="41.723165" lon="2.220709">
        <ele>861.885996</ele>
        <time>2020-08-09T12:06:26.659Z</time>
      </trkpt>
      <trkpt lat="41.723099" lon="2.220623">
        <ele>862.741035</ele>
        <time>2020-08-09T12:06:37.653Z</time>
      </trkpt>
      <trkpt lat="41.723026" lon="2.220545">
        <ele>863.608201</ele>
        <time>2020-08-09T12:06:46.680Z</time>
      </trkpt>
      <trkpt lat="41.722940" lon="2.220472">
        <ele>864.553709</ele>
        <time>2020-08-09T12:06:54.675Z</time>
      </trkpt>
      <trkpt lat="41.722860" lon="2.220390">
        <ele>865.489181</ele>
        <time>2020-08-09T12:07:03.671Z</time>
      </trkpt>
      <trkpt lat="41.722787" lon="2.220315">
        <ele>866.343536</ele>
        <time>2020-08-09T12:07:13.660Z</time>
      </trkpt>
      <trkpt lat="41.722690" lon="2.220173">
        <ele>866.507953</ele>
        <time>2020-08-09T12:07:51.667Z</time>
      </trkpt>
      <trkpt lat="41.722659" lon="2.220053">
        <ele>866.362771</ele>
        <time>2020-08-09T12:07:58.671Z</time>
      </trkpt>
      <trkpt lat="41.722592" lon="2.219950">
        <ele>866.206564</ele>
        <time>2020-08-09T12:08:08.654Z</time>
      </trkpt>
      <trkpt lat="41.722700" lon="2.219959">
        <ele>866.040808</ele>
        <time>2020-08-09T12:08:25.664Z</time>
      </trkpt>
      <trkpt lat="41.722708" lon="2.219821">
        <ele>865.882557</ele>
        <time>2020-08-09T12:08:29.684Z</time>
      </trkpt>
      <trkpt lat="41.722708" lon="2.219685">
        <ele>865.727068</ele>
        <time>2020-08-09T12:08:32.664Z</time>
      </trkpt>
      <trkpt lat="41.722743" lon="2.219531">
        <ele>865.543017</ele>
        <time>2020-08-09T12:08:36.662Z</time>
      </trkpt>
      <trkpt lat="41.722804" lon="2.219397">
        <ele>865.363567</ele>
        <time>2020-08-09T12:08:39.667Z</time>
      </trkpt>
      <trkpt lat="41.722844" lon="2.219289">
        <ele>865.225723</ele>
        <time>2020-08-09T12:08:41.663Z</time>
      </trkpt>
      <trkpt lat="41.722893" lon="2.219140">
        <ele>865.039569</ele>
        <time>2020-08-09T12:08:44.659Z</time>
      </trkpt>
      <trkpt lat="41.722935" lon="2.218974">
        <ele>864.839172</ele>
        <time>2020-08-09T12:08:47.663Z</time>
      </trkpt>
      <trkpt lat="41.722969" lon="2.218855">
        <ele>864.693492</ele>
        <time>2020-08-09T12:08:49.680Z</time>
      </trkpt>
      <trkpt lat="41.722984" lon="2.218730">
        <ele>864.548744</ele>
        <time>2020-08-09T12:08:51.669Z</time>
      </trkpt>
      <trkpt lat="41.722962" lon="2.218590">
        <ele>864.385172</ele>
        <time>2020-08-09T12:08:53.661Z</time>
      </trkpt>
      <trkpt lat="41.722926" lon="2.218461">
        <ele>864.227714</ele>
        <time>2020-08-09T12:08:55.676Z</time>
      </trkpt>
      <trkpt lat="41.722922" lon="2.218337">
        <ele>864.085812</ele>
        <time>2020-08-09T12:09:09.665Z</time>
      </trkpt>
      <trkpt lat="41.722903" lon="2.218188">
        <ele>863.899376</ele>
        <time>2020-08-09T12:09:13.679Z</time>
      </trkpt>
      <trkpt lat="41.722862" lon="2.218064">
        <ele>863.354681</ele>
        <time>2020-08-09T12:09:16.661Z</time>
      </trkpt>
      <trkpt lat="41.722806" lon="2.217926">
        <ele>862.723818</ele>
        <time>2020-08-09T12:09:19.679Z</time>
      </trkpt>
      <trkpt lat="41.722746" lon="2.217835">
        <ele>862.236156</ele>
        <time>2020-08-09T12:09:21.666Z</time>
      </trkpt>
      <trkpt lat="41.722659" lon="2.217696">
        <ele>861.507585</ele>
        <time>2020-08-09T12:09:24.672Z</time>
      </trkpt>
      <trkpt lat="41.722607" lon="2.217585">
        <ele>860.981242</ele>
        <time>2020-08-09T12:09:26.664Z</time>
      </trkpt>
      <trkpt lat="41.722574" lon="2.217452">
        <ele>860.418336</ele>
        <time>2020-08-09T12:09:28.665Z</time>
      </trkpt>
      <trkpt lat="41.722545" lon="2.217325">
        <ele>859.884934</ele>
        <time>2020-08-09T12:09:30.679Z</time>
      </trkpt>
      <trkpt lat="41.722526" lon="2.217198">
        <ele>859.364723</ele>
        <time>2020-08-09T12:09:32.664Z</time>
      </trkpt>
      <trkpt lat="41.722498" lon="2.217014">
        <ele>858.610527</ele>
        <time>2020-08-09T12:09:35.666Z</time>
      </trkpt>
      <trkpt lat="41.722509" lon="2.216881">
        <ele>858.073094</ele>
        <time>2020-08-09T12:09:37.664Z</time>
      </trkpt>
      <trkpt lat="41.722548" lon="2.216745">
        <ele>857.487954</ele>
        <time>2020-08-09T12:09:39.671Z</time>
      </trkpt>
      <trkpt lat="41.722635" lon="2.216618">
        <ele>856.795617</ele>
        <time>2020-08-09T12:09:41.671Z</time>
      </trkpt>
      <trkpt lat="41.722708" lon="2.216484">
        <ele>856.129330</ele>
        <time>2020-08-09T12:09:43.666Z</time>
      </trkpt>
      <trkpt lat="41.722755" lon="2.216322">
        <ele>855.431272</ele>
        <time>2020-08-09T12:09:45.689Z</time>
      </trkpt>
      <trkpt lat="41.722814" lon="2.216159">
        <ele>854.703701</ele>
        <time>2020-08-09T12:09:47.679Z</time>
      </trkpt>
      <trkpt lat="41.722861" lon="2.215982">
        <ele>853.747567</ele>
        <time>2020-08-09T12:09:49.656Z</time>
      </trkpt>
      <trkpt lat="41.722880" lon="2.215789">
        <ele>852.423484</ele>
        <time>2020-08-09T12:09:51.666Z</time>
      </trkpt>
      <trkpt lat="41.722882" lon="2.215605">
        <ele>851.171853</ele>
        <time>2020-08-09T12:09:53.681Z</time>
      </trkpt>
      <trkpt lat="41.722907" lon="2.215415">
        <ele>849.859618</ele>
        <time>2020-08-09T12:09:55.664Z</time>
      </trkpt>
      <trkpt lat="41.722958" lon="2.215267">
        <ele>848.750870</ele>
        <time>2020-08-09T12:09:57.662Z</time>
      </trkpt>
      <trkpt lat="41.723053" lon="2.215165">
        <ele>847.641460</ele>
        <time>2020-08-09T12:09:59.686Z</time>
      </trkpt>
      <trkpt lat="41.723179" lon="2.215110">
        <ele>846.433833</ele>
        <time>2020-08-09T12:10:01.650Z</time>
      </trkpt>
      <trkpt lat="41.723289" lon="2.215045">
        <ele>845.338251</ele>
        <time>2020-08-09T12:10:03.659Z</time>
      </trkpt>
      <trkpt lat="41.723406" lon="2.214951">
        <ele>844.095042</ele>
        <time>2020-08-09T12:10:05.667Z</time>
      </trkpt>
      <trkpt lat="41.723501" lon="2.214813">
        <ele>842.818139</ele>
        <time>2020-08-09T12:10:07.660Z</time>
      </trkpt>
      <trkpt lat="41.723596" lon="2.214662">
        <ele>841.474904</ele>
        <time>2020-08-09T12:10:09.665Z</time>
      </trkpt>
      <trkpt lat="41.723684" lon="2.214497">
        <ele>840.095573</ele>
        <time>2020-08-09T12:10:11.663Z</time>
      </trkpt>
      <trkpt lat="41.723769" lon="2.214334">
        <ele>838.743129</ele>
        <time>2020-08-09T12:10:13.657Z</time>
      </trkpt>
      <trkpt lat="41.723842" lon="2.214163">
        <ele>837.548778</ele>
        <time>2020-08-09T12:10:15.642Z</time>
      </trkpt>
      <trkpt lat="41.723883" lon="2.214049">
        <ele>836.969059</ele>
        <time>2020-08-09T12:10:17.665Z</time>
      </trkpt>
      <trkpt lat="41.723911" lon="2.213919">
        <ele>836.349210</ele>
        <time>2020-08-09T12:10:29.663Z</time>
      </trkpt>
      <trkpt lat="41.723961" lon="2.213791">
        <ele>835.687371</ele>
        <time>2020-08-09T12:10:33.671Z</time>
      </trkpt>
      <trkpt lat="41.724023" lon="2.213648">
        <ele>834.929758</ele>
        <time>2020-08-09T12:10:36.667Z</time>
      </trkpt>
      <trkpt lat="41.724086" lon="2.213507">
        <ele>834.176920</ele>
        <time>2020-08-09T12:10:39.673Z</time>
      </trkpt>
      <trkpt lat="41.724143" lon="2.213367">
        <ele>833.446345</ele>
        <time>2020-08-09T12:10:42.665Z</time>
      </trkpt>
      <trkpt lat="41.724178" lon="2.213256">
        <ele>832.894324</ele>
        <time>2020-08-09T12:10:44.671Z</time>
      </trkpt>
      <trkpt lat="41.724221" lon="2.213149">
        <ele>832.337607</ele>
        <time>2020-08-09T12:10:46.666Z</time>
      </trkpt>
      <trkpt lat="41.724279" lon="2.213046">
        <ele>831.746521</ele>
        <time>2020-08-09T12:10:48.667Z</time>
      </trkpt>
      <trkpt lat="41.724314" lon="2.212925">
        <ele>831.152035</ele>
        <time>2020-08-09T12:10:50.656Z</time>
      </trkpt>
      <trkpt lat="41.724343" lon="2.212772">
        <ele>830.428878</ele>
        <time>2020-08-09T12:10:52.653Z</time>
      </trkpt>
      <trkpt lat="41.724372" lon="2.212608">
        <ele>829.656780</ele>
        <time>2020-08-09T12:10:54.671Z</time>
      </trkpt>
      <trkpt lat="41.724386" lon="2.212435">
        <ele>828.859607</ele>
        <time>2020-08-09T12:10:56.664Z</time>
      </trkpt>
      <trkpt lat="41.724376" lon="2.212243">
        <ele>827.977898</ele>
        <time>2020-08-09T12:10:58.635Z</time>
      </trkpt>
      <trkpt lat="41.724369" lon="2.212059">
        <ele>827.133883</ele>
        <time>2020-08-09T12:11:00.680Z</time>
      </trkpt>
      <trkpt lat="41.724372" lon="2.211881">
        <ele>826.219577</ele>
        <time>2020-08-09T12:11:02.677Z</time>
      </trkpt>
      <trkpt lat="41.724407" lon="2.211697">
        <ele>825.174842</ele>
        <time>2020-08-09T12:11:04.668Z</time>
      </trkpt>
      <trkpt lat="41.724450" lon="2.211532">
        <ele>824.213258</ele>
        <time>2020-08-09T12:11:06.638Z</time>
      </trkpt>
      <trkpt lat="41.724525" lon="2.211346">
        <ele>823.050080</ele>
        <time>2020-08-09T12:11:08.683Z</time>
      </trkpt>
      <trkpt lat="41.724601" lon="2.211173">
        <ele>821.945586</ele>
        <time>2020-08-09T12:11:10.640Z</time>
      </trkpt>
      <trkpt lat="41.724685" lon="2.211023">
        <ele>820.913803</ele>
        <time>2020-08-09T12:11:12.663Z</time>
      </trkpt>
      <trkpt lat="41.724795" lon="2.210875">
        <ele>819.764611</ele>
        <time>2020-08-09T12:11:14.668Z</time>
      </trkpt>
      <trkpt lat="41.724912" lon="2.210735">
        <ele>818.608217</ele>
        <time>2020-08-09T12:11:16.667Z</time>
      </trkpt>
      <trkpt lat="41.725002" lon="2.210597">
        <ele>817.599909</ele>
        <time>2020-08-09T12:11:18.663Z</time>
      </trkpt>
      <trkpt lat="41.725065" lon="2.210417">
        <ele>816.506065</ele>
        <time>2020-08-09T12:11:20.694Z</time>
      </trkpt>
      <trkpt lat="41.725088" lon="2.210219">
        <ele>815.403560</ele>
        <time>2020-08-09T12:11:22.668Z</time>
      </trkpt>
      <trkpt lat="41.725103" lon="2.210010">
        <ele>814.248345</ele>
        <time>2020-08-09T12:11:24.663Z</time>
      </trkpt>
      <trkpt lat="41.725124" lon="2.209795">
        <ele>813.227602</ele>
        <time>2020-08-09T12:11:26.670Z</time>
      </trkpt>
      <trkpt lat="41.725187" lon="2.209582">
        <ele>812.406291</ele>
        <time>2020-08-09T12:11:28.667Z</time>
      </trkpt>
      <trkpt lat="41.725227" lon="2.209468">
        <ele>811.954729</ele>
        <time>2020-08-09T12:11:29.669Z</time>
      </trkpt>
      <trkpt lat="41.725267" lon="2.209360">
        <ele>811.522535</ele>
        <time>2020-08-09T12:11:30.665Z</time>
      </trkpt>
      <trkpt lat="41.725366" lon="2.209170">
        <ele>810.691885</ele>
        <time>2020-08-09T12:11:32.660Z</time>
      </trkpt>
      <trkpt lat="41.725469" lon="2.208968">
        <ele>809.814923</ele>
        <time>2020-08-09T12:11:34.663Z</time>
      </trkpt>
      <trkpt lat="41.725528" lon="2.208861">
        <ele>809.338038</ele>
        <time>2020-08-09T12:11:35.662Z</time>
      </trkpt>
      <trkpt lat="41.725583" lon="2.208765">
        <ele>808.904209</ele>
        <time>2020-08-09T12:11:36.643Z</time>
      </trkpt>
      <trkpt lat="41.725696" lon="2.208607">
        <ele>808.119769</ele>
        <time>2020-08-09T12:11:38.661Z</time>
      </trkpt>
      <trkpt lat="41.725815" lon="2.208434">
        <ele>807.276409</ele>
        <time>2020-08-09T12:11:40.665Z</time>
      </trkpt>
      <trkpt lat="41.725904" lon="2.208246">
        <ele>806.478357</ele>
        <time>2020-08-09T12:11:42.664Z</time>
      </trkpt>
      <trkpt lat="41.725964" lon="2.208054">
        <ele>805.732208</ele>
        <time>2020-08-09T12:11:44.670Z</time>
      </trkpt>
      <trkpt lat="41.726008" lon="2.207904">
        <ele>805.154473</ele>
        <time>2020-08-09T12:11:46.656Z</time>
      </trkpt>
      <trkpt lat="41.726040" lon="2.207749">
        <ele>804.378601</ele>
        <time>2020-08-09T12:11:48.663Z</time>
      </trkpt>
      <trkpt lat="41.726080" lon="2.207618">
        <ele>803.567295</ele>
        <time>2020-08-09T12:11:50.664Z</time>
      </trkpt>
      <trkpt lat="41.726123" lon="2.207491">
        <ele>802.767923</ele>
        <time>2020-08-09T12:11:52.670Z</time>
      </trkpt>
      <trkpt lat="41.726172" lon="2.207359">
        <ele>801.922876</ele>
        <time>2020-08-09T12:11:54.672Z</time>
      </trkpt>
      <trkpt lat="41.726242" lon="2.207193">
        <ele>800.829989</ele>
        <time>2020-08-09T12:11:56.660Z</time>
      </trkpt>
      <trkpt lat="41.726247" lon="2.207006">
        <ele>799.757420</ele>
        <time>2020-08-09T12:11:58.675Z</time>
      </trkpt>
      <trkpt lat="41.726234" lon="2.206789">
        <ele>798.509577</ele>
        <time>2020-08-09T12:12:00.669Z</time>
      </trkpt>
      <trkpt lat="41.726218" lon="2.206591">
        <ele>797.368009</ele>
        <time>2020-08-09T12:12:02.646Z</time>
      </trkpt>
      <trkpt lat="41.726232" lon="2.206387">
        <ele>796.193750</ele>
        <time>2020-08-09T12:12:04.672Z</time>
      </trkpt>
      <trkpt lat="41.726272" lon="2.206188">
        <ele>795.012439</ele>
        <time>2020-08-09T12:12:06.668Z</time>
      </trkpt>
      <trkpt lat="41.726329" lon="2.205985">
        <ele>793.769221</ele>
        <time>2020-08-09T12:12:08.672Z</time>
      </trkpt>
      <trkpt lat="41.726380" lon="2.205812">
        <ele>792.703033</ele>
        <time>2020-08-09T12:12:10.663Z</time>
      </trkpt>
      <trkpt lat="41.726408" lon="2.205626">
        <ele>791.615414</ele>
        <time>2020-08-09T12:12:12.668Z</time>
      </trkpt>
      <trkpt lat="41.726420" lon="2.205390">
        <ele>789.970289</ele>
        <time>2020-08-09T12:12:14.667Z</time>
      </trkpt>
      <trkpt lat="41.726415" lon="2.205180">
        <ele>788.349957</ele>
        <time>2020-08-09T12:12:16.666Z</time>
      </trkpt>
      <trkpt lat="41.726413" lon="2.205005">
        <ele>787.000210</ele>
        <time>2020-08-09T12:12:18.677Z</time>
      </trkpt>
      <trkpt lat="41.726384" lon="2.204854">
        <ele>785.797769</ele>
        <time>2020-08-09T12:12:20.667Z</time>
      </trkpt>
      <trkpt lat="41.726281" lon="2.204711">
        <ele>784.265141</ele>
        <time>2020-08-09T12:12:22.665Z</time>
      </trkpt>
      <trkpt lat="41.726191" lon="2.204541">
        <ele>782.657760</ele>
        <time>2020-08-09T12:12:24.667Z</time>
      </trkpt>
      <trkpt lat="41.726118" lon="2.204389">
        <ele>781.263810</ele>
        <time>2020-08-09T12:12:26.668Z</time>
      </trkpt>
      <trkpt lat="41.726023" lon="2.204194">
        <ele>779.467939</ele>
        <time>2020-08-09T12:12:28.662Z</time>
      </trkpt>
      <trkpt lat="41.725924" lon="2.204024">
        <ele>777.805016</ele>
        <time>2020-08-09T12:12:30.684Z</time>
      </trkpt>
      <trkpt lat="41.725882" lon="2.203839">
        <ele>776.313749</ele>
        <time>2020-08-09T12:12:32.662Z</time>
      </trkpt>
      <trkpt lat="41.725853" lon="2.203653">
        <ele>774.848350</ele>
        <time>2020-08-09T12:12:34.669Z</time>
      </trkpt>
      <trkpt lat="41.725845" lon="2.203445">
        <ele>773.242123</ele>
        <time>2020-08-09T12:12:36.662Z</time>
      </trkpt>
      <trkpt lat="41.725867" lon="2.203253">
        <ele>772.029065</ele>
        <time>2020-08-09T12:12:38.681Z</time>
      </trkpt>
      <trkpt lat="41.725888" lon="2.203120">
        <ele>771.370118</ele>
        <time>2020-08-09T12:12:40.665Z</time>
      </trkpt>
      <trkpt lat="41.725935" lon="2.202984">
        <ele>770.643657</ele>
        <time>2020-08-09T12:12:42.663Z</time>
      </trkpt>
      <trkpt lat="41.726003" lon="2.202830">
        <ele>769.776331</ele>
        <time>2020-08-09T12:12:44.669Z</time>
      </trkpt>
      <trkpt lat="41.726081" lon="2.202666">
        <ele>768.833700</ele>
        <time>2020-08-09T12:12:46.663Z</time>
      </trkpt>
      <trkpt lat="41.726155" lon="2.202499">
        <ele>767.892299</ele>
        <time>2020-08-09T12:12:48.662Z</time>
      </trkpt>
      <trkpt lat="41.726222" lon="2.202362">
        <ele>767.098367</ele>
        <time>2020-08-09T12:12:50.666Z</time>
      </trkpt>
      <trkpt lat="41.726292" lon="2.202183">
        <ele>766.118832</ele>
        <time>2020-08-09T12:12:52.690Z</time>
      </trkpt>
      <trkpt lat="41.726370" lon="2.202004">
        <ele>765.114129</ele>
        <time>2020-08-09T12:12:54.647Z</time>
      </trkpt>
      <trkpt lat="41.726432" lon="2.201816">
        <ele>764.117862</ele>
        <time>2020-08-09T12:12:56.663Z</time>
      </trkpt>
      <trkpt lat="41.726504" lon="2.201631">
        <ele>763.106538</ele>
        <time>2020-08-09T12:12:58.666Z</time>
      </trkpt>
      <trkpt lat="41.726559" lon="2.201402">
        <ele>761.940481</ele>
        <time>2020-08-09T12:13:00.662Z</time>
      </trkpt>
      <trkpt lat="41.726609" lon="2.201177">
        <ele>760.789127</ele>
        <time>2020-08-09T12:13:02.667Z</time>
      </trkpt>
      <trkpt lat="41.726659" lon="2.200948">
        <ele>759.061005</ele>
        <time>2020-08-09T12:13:04.664Z</time>
      </trkpt>
      <trkpt lat="41.726686" lon="2.200828">
        <ele>758.153232</ele>
        <time>2020-08-09T12:13:05.661Z</time>
      </trkpt>
      <trkpt lat="41.726723" lon="2.200710">
        <ele>757.226217</ele>
        <time>2020-08-09T12:13:06.669Z</time>
      </trkpt>
      <trkpt lat="41.726803" lon="2.200505">
        <ele>755.550720</ele>
        <time>2020-08-09T12:13:08.663Z</time>
      </trkpt>
      <trkpt lat="41.726850" lon="2.200401">
        <ele>754.670138</ele>
        <time>2020-08-09T12:13:09.654Z</time>
      </trkpt>
      <trkpt lat="41.726896" lon="2.200294">
        <ele>753.775782</ele>
        <time>2020-08-09T12:13:10.675Z</time>
      </trkpt>
      <trkpt lat="41.726957" lon="2.200182">
        <ele>752.771557</ele>
        <time>2020-08-09T12:13:11.681Z</time>
      </trkpt>
      <trkpt lat="41.727014" lon="2.200049">
        <ele>751.660743</ele>
        <time>2020-08-09T12:13:12.665Z</time>
      </trkpt>
      <trkpt lat="41.727061" lon="2.199943">
        <ele>750.767740</ele>
        <time>2020-08-09T12:13:13.660Z</time>
      </trkpt>
      <trkpt lat="41.727113" lon="2.199821">
        <ele>749.750177</ele>
        <time>2020-08-09T12:13:14.667Z</time>
      </trkpt>
      <trkpt lat="41.727159" lon="2.199704">
        <ele>748.792382</ele>
        <time>2020-08-09T12:13:15.665Z</time>
      </trkpt>
      <trkpt lat="41.727193" lon="2.199583">
        <ele>747.855954</ele>
        <time>2020-08-09T12:13:16.669Z</time>
      </trkpt>
      <trkpt lat="41.727235" lon="2.199468">
        <ele>746.928657</ele>
        <time>2020-08-09T12:13:17.667Z</time>
      </trkpt>
      <trkpt lat="41.727285" lon="2.199360">
        <ele>746.008165</ele>
        <time>2020-08-09T12:13:18.659Z</time>
      </trkpt>
      <trkpt lat="41.727347" lon="2.199245">
        <ele>744.980659</ele>
        <time>2020-08-09T12:13:19.663Z</time>
      </trkpt>
      <trkpt lat="41.727392" lon="2.199128">
        <ele>744.027352</ele>
        <time>2020-08-09T12:13:20.664Z</time>
      </trkpt>
      <trkpt lat="41.727443" lon="2.199017">
        <ele>743.081189</ele>
        <time>2020-08-09T12:13:21.680Z</time>
      </trkpt>
      <trkpt lat="41.727539" lon="2.198810">
        <ele>741.303426</ele>
        <time>2020-08-09T12:13:23.696Z</time>
      </trkpt>
      <trkpt lat="41.727588" lon="2.198707">
        <ele>740.412425</ele>
        <time>2020-08-09T12:13:24.674Z</time>
      </trkpt>
      <trkpt lat="41.727633" lon="2.198593">
        <ele>739.471694</ele>
        <time>2020-08-09T12:13:25.662Z</time>
      </trkpt>
      <trkpt lat="41.727722" lon="2.198394">
        <ele>737.779392</ele>
        <time>2020-08-09T12:13:27.669Z</time>
      </trkpt>
      <trkpt lat="41.727803" lon="2.198207">
        <ele>736.202214</ele>
        <time>2020-08-09T12:13:29.669Z</time>
      </trkpt>
      <trkpt lat="41.727899" lon="2.198009">
        <ele>734.479870</ele>
        <time>2020-08-09T12:13:31.661Z</time>
      </trkpt>
      <trkpt lat="41.728004" lon="2.197847">
        <ele>732.914725</ele>
        <time>2020-08-09T12:13:33.667Z</time>
      </trkpt>
      <trkpt lat="41.728094" lon="2.197692">
        <ele>731.482185</ele>
        <time>2020-08-09T12:13:35.644Z</time>
      </trkpt>
      <trkpt lat="41.728133" lon="2.197570">
        <ele>730.514056</ele>
        <time>2020-08-09T12:13:37.678Z</time>
      </trkpt>
      <trkpt lat="41.728175" lon="2.197408">
        <ele>729.263077</ele>
        <time>2020-08-09T12:13:40.672Z</time>
      </trkpt>
      <trkpt lat="41.728195" lon="2.197270">
        <ele>728.237634</ele>
        <time>2020-08-09T12:13:42.674Z</time>
      </trkpt>
      <trkpt lat="41.728214" lon="2.197112">
        <ele>727.070241</ele>
        <time>2020-08-09T12:13:44.670Z</time>
      </trkpt>
      <trkpt lat="41.728238" lon="2.196962">
        <ele>725.951207</ele>
        <time>2020-08-09T12:13:46.664Z</time>
      </trkpt>
      <trkpt lat="41.728248" lon="2.196796">
        <ele>724.261655</ele>
        <time>2020-08-09T12:13:48.671Z</time>
      </trkpt>
      <trkpt lat="41.728264" lon="2.196623">
        <ele>722.419620</ele>
        <time>2020-08-09T12:13:50.666Z</time>
      </trkpt>
      <trkpt lat="41.728261" lon="2.196452">
        <ele>720.612202</ele>
        <time>2020-08-09T12:13:52.664Z</time>
      </trkpt>
      <trkpt lat="41.728255" lon="2.196291">
        <ele>718.908831</ele>
        <time>2020-08-09T12:13:54.679Z</time>
      </trkpt>
      <trkpt lat="41.728234" lon="2.196161">
        <ele>717.503340</ele>
        <time>2020-08-09T12:13:56.665Z</time>
      </trkpt>
      <trkpt lat="41.728196" lon="2.196031">
        <ele>716.028051</ele>
        <time>2020-08-09T12:13:58.680Z</time>
      </trkpt>
      <trkpt lat="41.728143" lon="2.195900">
        <ele>714.453483</ele>
        <time>2020-08-09T12:14:01.666Z</time>
      </trkpt>
      <trkpt lat="41.728245" lon="2.195884">
        <ele>712.999434</ele>
        <time>2020-08-09T12:14:23.660Z</time>
      </trkpt>
      <trkpt lat="41.728346" lon="2.195991">
        <ele>711.176431</ele>
        <time>2020-08-09T12:14:26.666Z</time>
      </trkpt>
      <trkpt lat="41.728446" lon="2.196109">
        <ele>709.289797</ele>
        <time>2020-08-09T12:14:29.664Z</time>
      </trkpt>
      <trkpt lat="41.728514" lon="2.196236">
        <ele>707.638172</ele>
        <time>2020-08-09T12:14:31.664Z</time>
      </trkpt>
      <trkpt lat="41.728569" lon="2.196381">
        <ele>705.919457</ele>
        <time>2020-08-09T12:14:33.660Z</time>
      </trkpt>
      <trkpt lat="41.728604" lon="2.196525">
        <ele>704.319187</ele>
        <time>2020-08-09T12:14:35.671Z</time>
      </trkpt>
      <trkpt lat="41.728642" lon="2.196674">
        <ele>702.655354</ele>
        <time>2020-08-09T12:14:37.674Z</time>
      </trkpt>
      <trkpt lat="41.728667" lon="2.196854">
        <ele>700.720690</ele>
        <time>2020-08-09T12:14:39.666Z</time>
      </trkpt>
      <trkpt lat="41.728682" lon="2.197070">
        <ele>699.634184</ele>
        <time>2020-08-09T12:14:41.668Z</time>
      </trkpt>
      <trkpt lat="41.728691" lon="2.197299">
        <ele>698.748984</ele>
        <time>2020-08-09T12:14:43.670Z</time>
      </trkpt>
      <trkpt lat="41.728718" lon="2.197513">
        <ele>697.911190</ele>
        <time>2020-08-09T12:14:45.668Z</time>
      </trkpt>
      <trkpt lat="41.728727" lon="2.197695">
        <ele>697.207102</ele>
        <time>2020-08-09T12:14:47.670Z</time>
      </trkpt>
      <trkpt lat="41.728693" lon="2.197882">
        <ele>696.464140</ele>
        <time>2020-08-09T12:14:49.670Z</time>
      </trkpt>
      <trkpt lat="41.728648" lon="2.198049">
        <ele>695.778762</ele>
        <time>2020-08-09T12:14:51.661Z</time>
      </trkpt>
      <trkpt lat="41.728594" lon="2.198213">
        <ele>695.086819</ele>
        <time>2020-08-09T12:14:53.667Z</time>
      </trkpt>
      <trkpt lat="41.728522" lon="2.198402">
        <ele>694.267697</ele>
        <time>2020-08-09T12:14:55.661Z</time>
      </trkpt>
      <trkpt lat="41.728456" lon="2.198605">
        <ele>693.412953</ele>
        <time>2020-08-09T12:14:57.659Z</time>
      </trkpt>
      <trkpt lat="41.728403" lon="2.198807">
        <ele>692.586414</ele>
        <time>2020-08-09T12:14:59.659Z</time>
      </trkpt>
      <trkpt lat="41.728357" lon="2.199007">
        <ele>691.778548</ele>
        <time>2020-08-09T12:15:01.651Z</time>
      </trkpt>
      <trkpt lat="41.728314" lon="2.199224">
        <ele>690.854691</ele>
        <time>2020-08-09T12:15:03.658Z</time>
      </trkpt>
      <trkpt lat="41.728260" lon="2.199441">
        <ele>689.525356</ele>
        <time>2020-08-09T12:15:05.644Z</time>
      </trkpt>
      <trkpt lat="41.728216" lon="2.199661">
        <ele>688.201729</ele>
        <time>2020-08-09T12:15:07.660Z</time>
      </trkpt>
      <trkpt lat="41.728198" lon="2.199783">
        <ele>687.479013</ele>
        <time>2020-08-09T12:15:08.659Z</time>
      </trkpt>
      <trkpt lat="41.728171" lon="2.199983">
        <ele>686.297864</ele>
        <time>2020-08-09T12:15:10.661Z</time>
      </trkpt>
      <trkpt lat="41.728136" lon="2.200156">
        <ele>685.256200</ele>
        <time>2020-08-09T12:15:12.664Z</time>
      </trkpt>
      <trkpt lat="41.728112" lon="2.200295">
        <ele>684.427074</ele>
        <time>2020-08-09T12:15:14.670Z</time>
      </trkpt>
      <trkpt lat="41.728208" lon="2.200215">
        <ele>683.546755</ele>
        <time>2020-08-09T12:15:21.661Z</time>
      </trkpt>
      <trkpt lat="41.728267" lon="2.200102">
        <ele>682.745309</ele>
        <time>2020-08-09T12:15:23.663Z</time>
      </trkpt>
      <trkpt lat="41.728332" lon="2.199989">
        <ele>681.916197</ele>
        <time>2020-08-09T12:15:25.661Z</time>
      </trkpt>
      <trkpt lat="41.728405" lon="2.199849">
        <ele>680.923691</ele>
        <time>2020-08-09T12:15:27.666Z</time>
      </trkpt>
      <trkpt lat="41.728481" lon="2.199690">
        <ele>679.826407</ele>
        <time>2020-08-09T12:15:29.659Z</time>
      </trkpt>
      <trkpt lat="41.728542" lon="2.199521">
        <ele>678.735445</ele>
        <time>2020-08-09T12:15:31.664Z</time>
      </trkpt>
      <trkpt lat="41.728577" lon="2.199348">
        <ele>677.693787</ele>
        <time>2020-08-09T12:15:33.663Z</time>
      </trkpt>
      <trkpt lat="41.728637" lon="2.199187">
        <ele>676.609502</ele>
        <time>2020-08-09T12:15:35.659Z</time>
      </trkpt>
      <trkpt lat="41.728680" lon="2.199034">
        <ele>675.560894</ele>
        <time>2020-08-09T12:15:37.665Z</time>
      </trkpt>
      <trkpt lat="41.728737" lon="2.198867">
        <ele>674.383064</ele>
        <time>2020-08-09T12:15:39.666Z</time>
      </trkpt>
      <trkpt lat="41.728825" lon="2.198736">
        <ele>673.252597</ele>
        <time>2020-08-09T12:15:41.655Z</time>
      </trkpt>
      <trkpt lat="41.728906" lon="2.198602">
        <ele>672.146578</ele>
        <time>2020-08-09T12:15:43.669Z</time>
      </trkpt>
      <trkpt lat="41.729001" lon="2.198493">
        <ele>671.071702</ele>
        <time>2020-08-09T12:15:45.661Z</time>
      </trkpt>
      <trkpt lat="41.729116" lon="2.198369">
        <ele>669.803101</ele>
        <time>2020-08-09T12:15:47.659Z</time>
      </trkpt>
      <trkpt lat="41.729217" lon="2.198226">
        <ele>668.540293</ele>
        <time>2020-08-09T12:15:49.665Z</time>
      </trkpt>
      <trkpt lat="41.729314" lon="2.198102">
        <ele>667.388125</ele>
        <time>2020-08-09T12:15:51.662Z</time>
      </trkpt>
      <trkpt lat="41.729380" lon="2.197940">
        <ele>666.204338</ele>
        <time>2020-08-09T12:15:53.658Z</time>
      </trkpt>
      <trkpt lat="41.729434" lon="2.197756">
        <ele>664.936217</ele>
        <time>2020-08-09T12:15:55.661Z</time>
      </trkpt>
      <trkpt lat="41.729474" lon="2.197584">
        <ele>663.780713</ele>
        <time>2020-08-09T12:15:57.649Z</time>
      </trkpt>
      <trkpt lat="41.729483" lon="2.197407">
        <ele>662.642831</ele>
        <time>2020-08-09T12:15:59.672Z</time>
      </trkpt>
      <trkpt lat="41.729538" lon="2.197218">
        <ele>661.363877</ele>
        <time>2020-08-09T12:16:01.665Z</time>
      </trkpt>
      <trkpt lat="41.729583" lon="2.197053">
        <ele>660.350908</ele>
        <time>2020-08-09T12:16:03.679Z</time>
      </trkpt>
      <trkpt lat="41.729609" lon="2.196864">
        <ele>659.242729</ele>
        <time>2020-08-09T12:16:05.641Z</time>
      </trkpt>
      <trkpt lat="41.729621" lon="2.196644">
        <ele>657.970775</ele>
        <time>2020-08-09T12:16:07.669Z</time>
      </trkpt>
      <trkpt lat="41.729647" lon="2.196498">
        <ele>657.105269</ele>
        <time>2020-08-09T12:16:09.676Z</time>
      </trkpt>
      <trkpt lat="41.729653" lon="2.196333">
        <ele>656.152713</ele>
        <time>2020-08-09T12:16:11.675Z</time>
      </trkpt>
      <trkpt lat="41.729659" lon="2.196169">
        <ele>655.205916</ele>
        <time>2020-08-09T12:16:13.665Z</time>
      </trkpt>
      <trkpt lat="41.729672" lon="2.196048">
        <ele>654.501010</ele>
        <time>2020-08-09T12:16:15.641Z</time>
      </trkpt>
      <trkpt lat="41.729669" lon="2.195927">
        <ele>653.802912</ele>
        <time>2020-08-09T12:16:17.665Z</time>
      </trkpt>
      <trkpt lat="41.729698" lon="2.195812">
        <ele>653.102963</ele>
        <time>2020-08-09T12:16:19.662Z</time>
      </trkpt>
      <trkpt lat="41.729726" lon="2.195637">
        <ele>652.070943</ele>
        <time>2020-08-09T12:16:21.667Z</time>
      </trkpt>
      <trkpt lat="41.729734" lon="2.195473">
        <ele>651.123265</ele>
        <time>2020-08-09T12:16:23.666Z</time>
      </trkpt>
      <trkpt lat="41.729745" lon="2.195264">
        <ele>649.915133</ele>
        <time>2020-08-09T12:16:25.663Z</time>
      </trkpt>
      <trkpt lat="41.729731" lon="2.195143">
        <ele>649.209085</ele>
        <time>2020-08-09T12:16:26.668Z</time>
      </trkpt>
      <trkpt lat="41.729754" lon="2.194941">
        <ele>648.030830</ele>
        <time>2020-08-09T12:16:28.663Z</time>
      </trkpt>
      <trkpt lat="41.729728" lon="2.194753">
        <ele>646.699096</ele>
        <time>2020-08-09T12:16:30.666Z</time>
      </trkpt>
      <trkpt lat="41.729719" lon="2.194570">
        <ele>645.312084</ele>
        <time>2020-08-09T12:16:32.658Z</time>
      </trkpt>
      <trkpt lat="41.729737" lon="2.194411">
        <ele>644.095826</ele>
        <time>2020-08-09T12:16:34.665Z</time>
      </trkpt>
      <trkpt lat="41.729795" lon="2.194252">
        <ele>642.757365</ele>
        <time>2020-08-09T12:16:36.664Z</time>
      </trkpt>
      <trkpt lat="41.729801" lon="2.194097">
        <ele>641.583541</ele>
        <time>2020-08-09T12:16:38.667Z</time>
      </trkpt>
      <trkpt lat="41.729777" lon="2.193940">
        <ele>640.371513</ele>
        <time>2020-08-09T12:16:40.651Z</time>
      </trkpt>
      <trkpt lat="41.729705" lon="2.193814">
        <ele>639.171327</ele>
        <time>2020-08-09T12:16:42.651Z</time>
      </trkpt>
      <trkpt lat="41.729607" lon="2.193717">
        <ele>637.936631</ele>
        <time>2020-08-09T12:16:44.665Z</time>
      </trkpt>
      <trkpt lat="41.729480" lon="2.193638">
        <ele>636.517698</ele>
        <time>2020-08-09T12:16:46.666Z</time>
      </trkpt>
      <trkpt lat="41.729373" lon="2.193563">
        <ele>635.293967</ele>
        <time>2020-08-09T12:16:48.652Z</time>
      </trkpt>
      <trkpt lat="41.729281" lon="2.193489">
        <ele>634.206564</ele>
        <time>2020-08-09T12:16:51.661Z</time>
      </trkpt>
      <trkpt lat="41.729243" lon="2.193365">
        <ele>633.192772</ele>
        <time>2020-08-09T12:16:54.661Z</time>
      </trkpt>
      <trkpt lat="41.729333" lon="2.193286">
        <ele>632.102442</ele>
        <time>2020-08-09T12:16:58.663Z</time>
      </trkpt>
      <trkpt lat="41.729448" lon="2.193332">
        <ele>630.886218</ele>
        <time>2020-08-09T12:17:02.663Z</time>
      </trkpt>
      <trkpt lat="41.729571" lon="2.193412">
        <ele>629.500661</ele>
        <time>2020-08-09T12:17:05.659Z</time>
      </trkpt>
      <trkpt lat="41.729676" lon="2.193490">
        <ele>629.518639</ele>
        <time>2020-08-09T12:17:07.667Z</time>
      </trkpt>
      <trkpt lat="41.729795" lon="2.193535">
        <ele>629.607788</ele>
        <time>2020-08-09T12:17:09.658Z</time>
      </trkpt>
      <trkpt lat="41.729922" lon="2.193509">
        <ele>629.700416</ele>
        <time>2020-08-09T12:17:11.650Z</time>
      </trkpt>
      <trkpt lat="41.730038" lon="2.193389">
        <ele>629.806074</ele>
        <time>2020-08-09T12:17:13.665Z</time>
      </trkpt>
      <trkpt lat="41.730069" lon="2.193258">
        <ele>629.880019</ele>
        <time>2020-08-09T12:17:15.662Z</time>
      </trkpt>
      <trkpt lat="41.730003" lon="2.193121">
        <ele>629.967759</ele>
        <time>2020-08-09T12:17:18.668Z</time>
      </trkpt>
      <trkpt lat="41.729883" lon="2.193114">
        <ele>630.054359</ele>
        <time>2020-08-09T12:17:21.663Z</time>
      </trkpt>
      <trkpt lat="41.729773" lon="2.193089">
        <ele>630.134800</ele>
        <time>2020-08-09T12:17:24.661Z</time>
      </trkpt>
      <trkpt lat="41.729670" lon="2.193037">
        <ele>630.214158</ele>
        <time>2020-08-09T12:17:28.655Z</time>
      </trkpt>
      <trkpt lat="41.729600" lon="2.192928">
        <ele>630.291533</ele>
        <time>2020-08-09T12:17:32.662Z</time>
      </trkpt>
      <trkpt lat="41.729533" lon="2.192832">
        <ele>630.362255</ele>
        <time>2020-08-09T12:17:36.658Z</time>
      </trkpt>
      <trkpt lat="41.729472" lon="2.192737">
        <ele>630.429688</ele>
        <time>2020-08-09T12:17:40.677Z</time>
      </trkpt>
      <trkpt lat="41.729392" lon="2.192644">
        <ele>630.506048</ele>
        <time>2020-08-09T12:17:45.653Z</time>
      </trkpt>
      <trkpt lat="41.729318" lon="2.192552">
        <ele>630.578829</ele>
        <time>2020-08-09T12:17:50.646Z</time>
      </trkpt>
      <trkpt lat="41.729243" lon="2.192483">
        <ele>630.644421</ele>
        <time>2020-08-09T12:17:56.642Z</time>
      </trkpt>
      <trkpt lat="41.729146" lon="2.192383">
        <ele>630.732661</ele>
        <time>2020-08-09T12:22:26.645Z</time>
      </trkpt>
      <trkpt lat="41.729075" lon="2.192301">
        <ele>630.973640</ele>
        <time>2020-08-09T12:22:30.656Z</time>
      </trkpt>
      <trkpt lat="41.729046" lon="2.192165">
        <ele>631.247274</ele>
        <time>2020-08-09T12:22:35.644Z</time>
      </trkpt>
      <trkpt lat="41.729017" lon="2.192026">
        <ele>631.526494</ele>
        <time>2020-08-09T12:22:40.668Z</time>
      </trkpt>
      <trkpt lat="41.728991" lon="2.191900">
        <ele>631.779399</ele>
        <time>2020-08-09T12:22:45.664Z</time>
      </trkpt>
      <trkpt lat="41.728960" lon="2.191784">
        <ele>632.017767</ele>
        <time>2020-08-09T12:22:49.652Z</time>
      </trkpt>
      <trkpt lat="41.728924" lon="2.191643">
        <ele>632.306067</ele>
        <time>2020-08-09T12:22:54.652Z</time>
      </trkpt>
      <trkpt lat="41.728893" lon="2.191519">
        <ele>632.559060</ele>
        <time>2020-08-09T12:22:58.631Z</time>
      </trkpt>
      <trkpt lat="41.728863" lon="2.191376">
        <ele>632.846431</ele>
        <time>2020-08-09T12:23:03.639Z</time>
      </trkpt>
      <trkpt lat="41.728828" lon="2.191255">
        <ele>633.097486</ele>
        <time>2020-08-09T12:23:07.662Z</time>
      </trkpt>
      <trkpt lat="41.728799" lon="2.191118">
        <ele>633.372982</ele>
        <time>2020-08-09T12:23:12.641Z</time>
      </trkpt>
      <trkpt lat="41.728763" lon="2.191003">
        <ele>633.614241</ele>
        <time>2020-08-09T12:23:16.663Z</time>
      </trkpt>
      <trkpt lat="41.728721" lon="2.190895">
        <ele>633.849844</ele>
        <time>2020-08-09T12:23:20.668Z</time>
      </trkpt>
      <trkpt lat="41.728662" lon="2.190796">
        <ele>634.094943</ele>
        <time>2020-08-09T12:23:24.666Z</time>
      </trkpt>
      <trkpt lat="41.728572" lon="2.190723">
        <ele>634.367661</ele>
        <time>2020-08-09T12:23:29.646Z</time>
      </trkpt>
      <trkpt lat="41.728499" lon="2.190650">
        <ele>634.603785</ele>
        <time>2020-08-09T12:23:34.662Z</time>
      </trkpt>
      <trkpt lat="41.728579" lon="2.190571">
        <ele>634.861399</ele>
        <time>2020-08-09T12:23:40.656Z</time>
      </trkpt>
      <trkpt lat="41.728680" lon="2.190654">
        <ele>635.168534</ele>
        <time>2020-08-09T12:23:44.637Z</time>
      </trkpt>
      <trkpt lat="41.728756" lon="2.190720">
        <ele>635.412920</ele>
        <time>2020-08-09T12:23:47.669Z</time>
      </trkpt>
      <trkpt lat="41.728857" lon="2.190815">
        <ele>636.152053</ele>
        <time>2020-08-09T12:23:51.664Z</time>
      </trkpt>
      <trkpt lat="41.728938" lon="2.190883">
        <ele>636.724577</ele>
        <time>2020-08-09T12:23:54.647Z</time>
      </trkpt>
      <trkpt lat="41.729008" lon="2.190960">
        <ele>637.267043</ele>
        <time>2020-08-09T12:23:57.662Z</time>
      </trkpt>
      <trkpt lat="41.729076" lon="2.191040">
        <ele>637.809056</ele>
        <time>2020-08-09T12:24:00.660Z</time>
      </trkpt>
      <trkpt lat="41.729148" lon="2.191123">
        <ele>638.377950</ele>
        <time>2020-08-09T12:24:03.685Z</time>
      </trkpt>
      <trkpt lat="41.729224" lon="2.191200">
        <ele>638.948648</ele>
        <time>2020-08-09T12:24:06.664Z</time>
      </trkpt>
      <trkpt lat="41.729298" lon="2.191269">
        <ele>639.488643</ele>
        <time>2020-08-09T12:24:09.641Z</time>
      </trkpt>
      <trkpt lat="41.729397" lon="2.191356">
        <ele>640.197776</ele>
        <time>2020-08-09T12:24:13.665Z</time>
      </trkpt>
      <trkpt lat="41.729479" lon="2.191418">
        <ele>640.761730</ele>
        <time>2020-08-09T12:24:17.662Z</time>
      </trkpt>
      <trkpt lat="41.729543" lon="2.191509">
        <ele>641.320675</ele>
        <time>2020-08-09T12:24:20.672Z</time>
      </trkpt>
      <trkpt lat="41.729581" lon="2.191650">
        <ele>641.990796</ele>
        <time>2020-08-09T12:24:24.658Z</time>
      </trkpt>
      <trkpt lat="41.729587" lon="2.191808">
        <ele>642.697984</ele>
        <time>2020-08-09T12:24:28.669Z</time>
      </trkpt>
      <trkpt lat="41.729605" lon="2.191961">
        <ele>643.390353</ele>
        <time>2020-08-09T12:24:32.665Z</time>
      </trkpt>
      <trkpt lat="41.729656" lon="2.192099">
        <ele>644.078718</ele>
        <time>2020-08-09T12:24:36.681Z</time>
      </trkpt>
      <trkpt lat="41.729736" lon="2.192211">
        <ele>644.771726</ele>
        <time>2020-08-09T12:24:40.665Z</time>
      </trkpt>
      <trkpt lat="41.729822" lon="2.192309">
        <ele>645.447926</ele>
        <time>2020-08-09T12:24:44.664Z</time>
      </trkpt>
      <trkpt lat="41.729926" lon="2.192367">
        <ele>646.122655</ele>
        <time>2020-08-09T12:24:48.670Z</time>
      </trkpt>
      <trkpt lat="41.730028" lon="2.192424">
        <ele>647.039324</ele>
        <time>2020-08-09T12:24:52.669Z</time>
      </trkpt>
      <trkpt lat="41.730131" lon="2.192453">
        <ele>647.930715</ele>
        <time>2020-08-09T12:24:56.660Z</time>
      </trkpt>
      <trkpt lat="41.730243" lon="2.192484">
        <ele>648.899305</ele>
        <time>2020-08-09T12:25:00.679Z</time>
      </trkpt>
      <trkpt lat="41.730355" lon="2.192524">
        <ele>649.880985</ele>
        <time>2020-08-09T12:25:04.667Z</time>
      </trkpt>
      <trkpt lat="41.730468" lon="2.192550">
        <ele>650.852026</ele>
        <time>2020-08-09T12:25:08.662Z</time>
      </trkpt>
      <trkpt lat="41.730573" lon="2.192567">
        <ele>651.747773</ele>
        <time>2020-08-09T12:25:12.665Z</time>
      </trkpt>
      <trkpt lat="41.730668" lon="2.192580">
        <ele>652.556545</ele>
        <time>2020-08-09T12:25:16.663Z</time>
      </trkpt>
      <trkpt lat="41.730773" lon="2.192576">
        <ele>653.446184</ele>
        <time>2020-08-09T12:25:20.663Z</time>
      </trkpt>
      <trkpt lat="41.730882" lon="2.192573">
        <ele>654.369536</ele>
        <time>2020-08-09T12:25:24.649Z</time>
      </trkpt>
      <trkpt lat="41.730984" lon="2.192546">
        <ele>655.250102</ele>
        <time>2020-08-09T12:25:28.664Z</time>
      </trkpt>
      <trkpt lat="41.731083" lon="2.192527">
        <ele>656.097122</ele>
        <time>2020-08-09T12:25:31.664Z</time>
      </trkpt>
      <trkpt lat="41.731175" lon="2.192515">
        <ele>656.879983</ele>
        <time>2020-08-09T12:25:34.664Z</time>
      </trkpt>
      <trkpt lat="41.731272" lon="2.192503">
        <ele>657.705002</ele>
        <time>2020-08-09T12:25:38.703Z</time>
      </trkpt>
      <trkpt lat="41.731372" lon="2.192478">
        <ele>658.566549</ele>
        <time>2020-08-09T12:25:42.652Z</time>
      </trkpt>
      <trkpt lat="41.731486" lon="2.192459">
        <ele>659.539493</ele>
        <time>2020-08-09T12:25:46.667Z</time>
      </trkpt>
      <trkpt lat="41.731595" lon="2.192450">
        <ele>660.464401</ele>
        <time>2020-08-09T12:25:50.661Z</time>
      </trkpt>
      <trkpt lat="41.731689" lon="2.192444">
        <ele>661.261421</ele>
        <time>2020-08-09T12:25:53.666Z</time>
      </trkpt>
      <trkpt lat="41.731785" lon="2.192447">
        <ele>661.868789</ele>
        <time>2020-08-09T12:25:56.661Z</time>
      </trkpt>
      <trkpt lat="41.731899" lon="2.192462">
        <ele>662.541703</ele>
        <time>2020-08-09T12:26:00.685Z</time>
      </trkpt>
      <trkpt lat="41.732000" lon="2.192482">
        <ele>663.141472</ele>
        <time>2020-08-09T12:26:04.675Z</time>
      </trkpt>
      <trkpt lat="41.732090" lon="2.192462">
        <ele>663.677399</ele>
        <time>2020-08-09T12:26:07.665Z</time>
      </trkpt>
      <trkpt lat="41.732137" lon="2.192346">
        <ele>664.256055</ele>
        <time>2020-08-09T12:26:10.652Z</time>
      </trkpt>
      <trkpt lat="41.732074" lon="2.192249">
        <ele>664.819793</ele>
        <time>2020-08-09T12:26:13.662Z</time>
      </trkpt>
      <trkpt lat="41.731964" lon="2.192267">
        <ele>665.470789</ele>
        <time>2020-08-09T12:26:16.666Z</time>
      </trkpt>
      <trkpt lat="41.731864" lon="2.192283">
        <ele>666.062413</ele>
        <time>2020-08-09T12:26:19.665Z</time>
      </trkpt>
      <trkpt lat="41.731764" lon="2.192288">
        <ele>666.650272</ele>
        <time>2020-08-09T12:26:22.699Z</time>
      </trkpt>
      <trkpt lat="41.731665" lon="2.192307">
        <ele>667.237784</ele>
        <time>2020-08-09T12:26:25.670Z</time>
      </trkpt>
      <trkpt lat="41.731567" lon="2.192304">
        <ele>667.813636</ele>
        <time>2020-08-09T12:26:28.668Z</time>
      </trkpt>
      <trkpt lat="41.731470" lon="2.192292">
        <ele>668.385886</ele>
        <time>2020-08-09T12:26:31.666Z</time>
      </trkpt>
      <trkpt lat="41.731369" lon="2.192283">
        <ele>668.980522</ele>
        <time>2020-08-09T12:26:34.667Z</time>
      </trkpt>
      <trkpt lat="41.731272" lon="2.192293">
        <ele>669.552033</ele>
        <time>2020-08-09T12:26:37.666Z</time>
      </trkpt>
      <trkpt lat="41.731174" lon="2.192296">
        <ele>670.127885</ele>
        <time>2020-08-09T12:26:40.667Z</time>
      </trkpt>
      <trkpt lat="41.731068" lon="2.192306">
        <ele>670.752125</ele>
        <time>2020-08-09T12:26:44.690Z</time>
      </trkpt>
      <trkpt lat="41.730958" lon="2.192304">
        <ele>671.398380</ele>
        <time>2020-08-09T12:26:48.665Z</time>
      </trkpt>
      <trkpt lat="41.730859" lon="2.192259">
        <ele>671.995022</ele>
        <time>2020-08-09T12:26:52.659Z</time>
      </trkpt>
      <trkpt lat="41.730753" lon="2.192213">
        <ele>672.387897</ele>
        <time>2020-08-09T12:26:56.647Z</time>
      </trkpt>
      <trkpt lat="41.730662" lon="2.192180">
        <ele>672.720311</ele>
        <time>2020-08-09T12:27:00.657Z</time>
      </trkpt>
      <trkpt lat="41.730556" lon="2.192130">
        <ele>673.116555</ele>
        <time>2020-08-09T12:27:04.661Z</time>
      </trkpt>
      <trkpt lat="41.730456" lon="2.192072">
        <ele>673.500775</ele>
        <time>2020-08-09T12:27:08.665Z</time>
      </trkpt>
      <trkpt lat="41.730358" lon="2.192002">
        <ele>673.892359</ele>
        <time>2020-08-09T12:27:12.657Z</time>
      </trkpt>
      <trkpt lat="41.730270" lon="2.191917">
        <ele>674.274866</ele>
        <time>2020-08-09T12:27:16.649Z</time>
      </trkpt>
      <trkpt lat="41.730193" lon="2.191827">
        <ele>674.635150</ele>
        <time>2020-08-09T12:27:20.663Z</time>
      </trkpt>
      <trkpt lat="41.730158" lon="2.191698">
        <ele>674.996346</ele>
        <time>2020-08-09T12:27:24.636Z</time>
      </trkpt>
      <trkpt lat="41.730149" lon="2.191562">
        <ele>675.355628</ele>
        <time>2020-08-09T12:27:28.678Z</time>
      </trkpt>
      <trkpt lat="41.730152" lon="2.191420">
        <ele>675.729445</ele>
        <time>2020-08-09T12:27:32.657Z</time>
      </trkpt>
      <trkpt lat="41.730159" lon="2.191287">
        <ele>676.080298</ele>
        <time>2020-08-09T12:27:36.662Z</time>
      </trkpt>
      <trkpt lat="41.730157" lon="2.191146">
        <ele>676.451401</ele>
        <time>2020-08-09T12:27:40.659Z</time>
      </trkpt>
      <trkpt lat="41.730128" lon="2.191007">
        <ele>676.831198</ele>
        <time>2020-08-09T12:27:44.672Z</time>
      </trkpt>
      <trkpt lat="41.730068" lon="2.190896">
        <ele>677.191860</ele>
        <time>2020-08-09T12:27:48.662Z</time>
      </trkpt>
      <trkpt lat="41.730002" lon="2.190805">
        <ele>677.525777</ele>
        <time>2020-08-09T12:27:52.661Z</time>
      </trkpt>
      <trkpt lat="41.729946" lon="2.190707">
        <ele>677.850576</ele>
        <time>2020-08-09T12:27:56.656Z</time>
      </trkpt>
      <trkpt lat="41.729885" lon="2.190604">
        <ele>678.196592</ele>
        <time>2020-08-09T12:28:00.654Z</time>
      </trkpt>
      <trkpt lat="41.729830" lon="2.190495">
        <ele>678.753369</ele>
        <time>2020-08-09T12:28:04.633Z</time>
      </trkpt>
      <trkpt lat="41.729772" lon="2.190392">
        <ele>679.401129</ele>
        <time>2020-08-09T12:28:08.638Z</time>
      </trkpt>
      <trkpt lat="41.729711" lon="2.190292">
        <ele>680.049511</ele>
        <time>2020-08-09T12:28:12.662Z</time>
      </trkpt>
      <trkpt lat="41.729641" lon="2.190202">
        <ele>680.702094</ele>
        <time>2020-08-09T12:28:16.648Z</time>
      </trkpt>
      <trkpt lat="41.729572" lon="2.190109">
        <ele>681.360435</ele>
        <time>2020-08-09T12:28:20.669Z</time>
      </trkpt>
      <trkpt lat="41.729499" lon="2.190017">
        <ele>682.034565</ele>
        <time>2020-08-09T12:28:24.666Z</time>
      </trkpt>
      <trkpt lat="41.729415" lon="2.189927">
        <ele>682.758047</ele>
        <time>2020-08-09T12:28:28.694Z</time>
      </trkpt>
      <trkpt lat="41.729330" lon="2.189836">
        <ele>683.489919</ele>
        <time>2020-08-09T12:28:32.660Z</time>
      </trkpt>
      <trkpt lat="41.729259" lon="2.189750">
        <ele>684.133740</ele>
        <time>2020-08-09T12:28:36.663Z</time>
      </trkpt>
      <trkpt lat="41.729172" lon="2.189682">
        <ele>684.811262</ele>
        <time>2020-08-09T12:28:40.655Z</time>
      </trkpt>
      <trkpt lat="41.729087" lon="2.189593">
        <ele>685.536909</ele>
        <time>2020-08-09T12:28:45.665Z</time>
      </trkpt>
      <trkpt lat="41.729016" lon="2.189514">
        <ele>686.157713</ele>
        <time>2020-08-09T12:28:49.665Z</time>
      </trkpt>
      <trkpt lat="41.728943" lon="2.189428">
        <ele>686.811578</ele>
        <time>2020-08-09T12:28:53.664Z</time>
      </trkpt>
      <trkpt lat="41.728873" lon="2.189333">
        <ele>687.481789</ele>
        <time>2020-08-09T12:28:57.658Z</time>
      </trkpt>
      <trkpt lat="41.728847" lon="2.189211">
        <ele>688.118743</ele>
        <time>2020-08-09T12:29:01.661Z</time>
      </trkpt>
      <trkpt lat="41.728858" lon="2.189088">
        <ele>688.740652</ele>
        <time>2020-08-09T12:29:05.677Z</time>
      </trkpt>
      <trkpt lat="41.728875" lon="2.188968">
        <ele>689.353841</ele>
        <time>2020-08-09T12:29:09.657Z</time>
      </trkpt>
      <trkpt lat="41.728919" lon="2.188840">
        <ele>690.061322</ele>
        <time>2020-08-09T12:29:14.640Z</time>
      </trkpt>
      <trkpt lat="41.728981" lon="2.188719">
        <ele>690.769862</ele>
        <time>2020-08-09T12:29:19.638Z</time>
      </trkpt>
      <trkpt lat="41.729037" lon="2.188622">
        <ele>691.340625</ele>
        <time>2020-08-09T12:29:23.648Z</time>
      </trkpt>
      <trkpt lat="41.729104" lon="2.188534">
        <ele>691.925710</ele>
        <time>2020-08-09T12:29:27.664Z</time>
      </trkpt>
      <trkpt lat="41.729163" lon="2.188433">
        <ele>692.522654</ele>
        <time>2020-08-09T12:29:31.666Z</time>
      </trkpt>
      <trkpt lat="41.729246" lon="2.188337">
        <ele>693.206428</ele>
        <time>2020-08-09T12:29:36.660Z</time>
      </trkpt>
      <trkpt lat="41.729334" lon="2.188301">
        <ele>693.780226</ele>
        <time>2020-08-09T12:29:40.657Z</time>
      </trkpt>
      <trkpt lat="41.729426" lon="2.188285">
        <ele>694.358775</ele>
        <time>2020-08-09T12:29:44.655Z</time>
      </trkpt>
      <trkpt lat="41.729518" lon="2.188277">
        <ele>694.933719</ele>
        <time>2020-08-09T12:29:48.641Z</time>
      </trkpt>
      <trkpt lat="41.729618" lon="2.188277">
        <ele>695.557346</ele>
        <time>2020-08-09T12:29:52.661Z</time>
      </trkpt>
      <trkpt lat="41.729709" lon="2.188259">
        <ele>696.130996</ele>
        <time>2020-08-09T12:29:56.655Z</time>
      </trkpt>
      <trkpt lat="41.729781" lon="2.188170">
        <ele>696.741884</ele>
        <time>2020-08-09T12:30:00.647Z</time>
      </trkpt>
      <trkpt lat="41.729806" lon="2.188039">
        <ele>697.371186</ele>
        <time>2020-08-09T12:30:04.648Z</time>
      </trkpt>
      <trkpt lat="41.729758" lon="2.187920">
        <ele>698.000741</ele>
        <time>2020-08-09T12:30:08.664Z</time>
      </trkpt>
      <trkpt lat="41.729691" lon="2.187824">
        <ele>698.612464</ele>
        <time>2020-08-09T12:30:12.646Z</time>
      </trkpt>
      <trkpt lat="41.729631" lon="2.187727">
        <ele>699.198818</ele>
        <time>2020-08-09T12:30:16.659Z</time>
      </trkpt>
      <trkpt lat="41.729581" lon="2.187620">
        <ele>699.786372</ele>
        <time>2020-08-09T12:30:20.659Z</time>
      </trkpt>
      <trkpt lat="41.729559" lon="2.187494">
        <ele>700.388623</ele>
        <time>2020-08-09T12:30:24.660Z</time>
      </trkpt>
      <trkpt lat="41.729583" lon="2.187374">
        <ele>700.966822</ele>
        <time>2020-08-09T12:30:28.662Z</time>
      </trkpt>
      <trkpt lat="41.729612" lon="2.187258">
        <ele>701.536183</ele>
        <time>2020-08-09T12:30:32.659Z</time>
      </trkpt>
      <trkpt lat="41.729657" lon="2.187146">
        <ele>702.075485</ele>
        <time>2020-08-09T12:30:36.665Z</time>
      </trkpt>
      <trkpt lat="41.729700" lon="2.187036">
        <ele>702.592659</ele>
        <time>2020-08-09T12:30:40.667Z</time>
      </trkpt>
      <trkpt lat="41.729747" lon="2.186925">
        <ele>703.124179</ele>
        <time>2020-08-09T12:30:44.707Z</time>
      </trkpt>
      <trkpt lat="41.729793" lon="2.186818">
        <ele>703.638467</ele>
        <time>2020-08-09T12:30:48.667Z</time>
      </trkpt>
      <trkpt lat="41.729857" lon="2.186702">
        <ele>704.239274</ele>
        <time>2020-08-09T12:30:53.668Z</time>
      </trkpt>
      <trkpt lat="41.729948" lon="2.186623">
        <ele>704.844383</ele>
        <time>2020-08-09T12:30:58.657Z</time>
      </trkpt>
      <trkpt lat="41.730037" lon="2.186587">
        <ele>705.363200</ele>
        <time>2020-08-09T12:31:02.662Z</time>
      </trkpt>
      <trkpt lat="41.730148" lon="2.186571">
        <ele>705.986229</ele>
        <time>2020-08-09T12:31:07.659Z</time>
      </trkpt>
      <trkpt lat="41.730242" lon="2.186574">
        <ele>706.510962</ele>
        <time>2020-08-09T12:31:11.663Z</time>
      </trkpt>
      <trkpt lat="41.730334" lon="2.186584">
        <ele>707.026071</ele>
        <time>2020-08-09T12:31:15.663Z</time>
      </trkpt>
      <trkpt lat="41.730433" lon="2.186564">
        <ele>707.584802</ele>
        <time>2020-08-09T12:31:19.660Z</time>
      </trkpt>
      <trkpt lat="41.730502" lon="2.186445">
        <ele>708.212419</ele>
        <time>2020-08-09T12:31:23.660Z</time>
      </trkpt>
      <trkpt lat="41.730491" lon="2.186292">
        <ele>708.852579</ele>
        <time>2020-08-09T12:31:27.667Z</time>
      </trkpt>
      <trkpt lat="41.730407" lon="2.186182">
        <ele>709.508041</ele>
        <time>2020-08-09T12:31:31.664Z</time>
      </trkpt>
      <trkpt lat="41.730310" lon="2.186104">
        <ele>710.139360</ele>
        <time>2020-08-09T12:31:35.667Z</time>
      </trkpt>
      <trkpt lat="41.730214" lon="2.186026">
        <ele>710.765900</ele>
        <time>2020-08-09T12:31:39.665Z</time>
      </trkpt>
      <trkpt lat="41.730116" lon="2.185957">
        <ele>711.383709</ele>
        <time>2020-08-09T12:31:43.672Z</time>
      </trkpt>
      <trkpt lat="41.730013" lon="2.185883">
        <ele>712.134430</ele>
        <time>2020-08-09T12:31:47.661Z</time>
      </trkpt>
      <trkpt lat="41.729920" lon="2.185809">
        <ele>712.898136</ele>
        <time>2020-08-09T12:31:51.671Z</time>
      </trkpt>
      <trkpt lat="41.729847" lon="2.185709">
        <ele>713.635255</ele>
        <time>2020-08-09T12:31:55.680Z</time>
      </trkpt>
      <trkpt lat="41.729796" lon="2.185580">
        <ele>714.404501</ele>
        <time>2020-08-09T12:31:59.660Z</time>
      </trkpt>
      <trkpt lat="41.729764" lon="2.185437">
        <ele>715.191175</ele>
        <time>2020-08-09T12:32:03.670Z</time>
      </trkpt>
      <trkpt lat="41.729765" lon="2.185313">
        <ele>715.844622</ele>
        <time>2020-08-09T12:32:07.664Z</time>
      </trkpt>
      <trkpt lat="41.729793" lon="2.185194">
        <ele>716.502111</ele>
        <time>2020-08-09T12:32:11.661Z</time>
      </trkpt>
      <trkpt lat="41.729866" lon="2.185119">
        <ele>717.151623</ele>
        <time>2020-08-09T12:32:14.660Z</time>
      </trkpt>
      <trkpt lat="41.729963" lon="2.185076">
        <ele>717.873029</ele>
        <time>2020-08-09T12:32:17.698Z</time>
      </trkpt>
      <trkpt lat="41.730064" lon="2.185047">
        <ele>718.602359</ele>
        <time>2020-08-09T12:32:20.665Z</time>
      </trkpt>
      <trkpt lat="41.730152" lon="2.185005">
        <ele>719.261947</ele>
        <time>2020-08-09T12:32:23.660Z</time>
      </trkpt>
      <trkpt lat="41.730264" lon="2.184963">
        <ele>720.083142</ele>
        <time>2020-08-09T12:32:27.666Z</time>
      </trkpt>
      <trkpt lat="41.730363" lon="2.184906">
        <ele>720.843958</ele>
        <time>2020-08-09T12:32:31.666Z</time>
      </trkpt>
      <trkpt lat="41.730456" lon="2.184856">
        <ele>721.551497</ele>
        <time>2020-08-09T12:32:35.673Z</time>
      </trkpt>
      <trkpt lat="41.730539" lon="2.184806">
        <ele>722.194044</ele>
        <time>2020-08-09T12:32:39.664Z</time>
      </trkpt>
      <trkpt lat="41.730632" lon="2.184769">
        <ele>722.879031</ele>
        <time>2020-08-09T12:32:43.678Z</time>
      </trkpt>
      <trkpt lat="41.730737" lon="2.184727">
        <ele>723.652743</ele>
        <time>2020-08-09T12:32:48.637Z</time>
      </trkpt>
      <trkpt lat="41.730835" lon="2.184693">
        <ele>724.366778</ele>
        <time>2020-08-09T12:32:52.663Z</time>
      </trkpt>
      <trkpt lat="41.730923" lon="2.184664">
        <ele>724.854297</ele>
        <time>2020-08-09T12:32:56.660Z</time>
      </trkpt>
      <trkpt lat="41.731036" lon="2.184638">
        <ele>725.471098</ele>
        <time>2020-08-09T12:33:00.662Z</time>
      </trkpt>
      <trkpt lat="41.731134" lon="2.184618">
        <ele>726.004387</ele>
        <time>2020-08-09T12:33:04.650Z</time>
      </trkpt>
      <trkpt lat="41.731226" lon="2.184594">
        <ele>726.508610</ele>
        <time>2020-08-09T12:33:08.652Z</time>
      </trkpt>
      <trkpt lat="41.731331" lon="2.184601">
        <ele>727.074176</ele>
        <time>2020-08-09T12:33:13.648Z</time>
      </trkpt>
      <trkpt lat="41.731427" lon="2.184593">
        <ele>727.591623</ele>
        <time>2020-08-09T12:33:18.674Z</time>
      </trkpt>
      <trkpt lat="41.731520" lon="2.184564">
        <ele>728.105302</ele>
        <time>2020-08-09T12:33:22.632Z</time>
      </trkpt>
      <trkpt lat="41.731628" lon="2.184566">
        <ele>728.686364</ele>
        <time>2020-08-09T12:33:27.643Z</time>
      </trkpt>
      <trkpt lat="41.731735" lon="2.184582">
        <ele>729.265563</ele>
        <time>2020-08-09T12:33:32.680Z</time>
      </trkpt>
      <trkpt lat="41.731825" lon="2.184600">
        <ele>729.755098</ele>
        <time>2020-08-09T12:33:36.664Z</time>
      </trkpt>
      <trkpt lat="41.731928" lon="2.184605">
        <ele>730.309569</ele>
        <time>2020-08-09T12:33:41.663Z</time>
      </trkpt>
      <trkpt lat="41.732031" lon="2.184589">
        <ele>730.867388</ele>
        <time>2020-08-09T12:33:46.666Z</time>
      </trkpt>
      <trkpt lat="41.732115" lon="2.184526">
        <ele>731.385248</ele>
        <time>2020-08-09T12:33:51.661Z</time>
      </trkpt>
      <trkpt lat="41.732161" lon="2.184418">
        <ele>731.884482</ele>
        <time>2020-08-09T12:33:57.669Z</time>
      </trkpt>
      <trkpt lat="41.732211" lon="2.184313">
        <ele>732.384530</ele>
        <time>2020-08-09T12:34:02.666Z</time>
      </trkpt>
      <trkpt lat="41.732287" lon="2.184245">
        <ele>732.876151</ele>
        <time>2020-08-09T12:34:07.667Z</time>
      </trkpt>
      <trkpt lat="41.732392" lon="2.184246">
        <ele>733.441032</ele>
        <time>2020-08-09T12:34:12.665Z</time>
      </trkpt>
      <trkpt lat="41.732489" lon="2.184246">
        <ele>733.962862</ele>
        <time>2020-08-09T12:34:17.664Z</time>
      </trkpt>
      <trkpt lat="41.732564" lon="2.184146">
        <ele>734.277972</ele>
        <time>2020-08-09T12:34:22.701Z</time>
      </trkpt>
      <trkpt lat="41.732603" lon="2.184034">
        <ele>734.517662</ele>
        <time>2020-08-09T12:34:26.662Z</time>
      </trkpt>
      <trkpt lat="41.732599" lon="2.183913">
        <ele>734.752554</ele>
        <time>2020-08-09T12:34:32.659Z</time>
      </trkpt>
      <trkpt lat="41.732531" lon="2.183825">
        <ele>734.998225</ele>
        <time>2020-08-09T12:34:37.668Z</time>
      </trkpt>
      <trkpt lat="41.732458" lon="2.183723">
        <ele>735.272305</ele>
        <time>2020-08-09T12:34:42.665Z</time>
      </trkpt>
      <trkpt lat="41.732378" lon="2.183634">
        <ele>735.542517</ele>
        <time>2020-08-09T12:34:47.671Z</time>
      </trkpt>
      <trkpt lat="41.732319" lon="2.183541">
        <ele>735.779243</ele>
        <time>2020-08-09T12:34:51.657Z</time>
      </trkpt>
      <trkpt lat="41.732267" lon="2.183439">
        <ele>736.018810</ele>
        <time>2020-08-09T12:34:55.662Z</time>
      </trkpt>
      <trkpt lat="41.732251" lon="2.183316">
        <ele>736.260948</ele>
        <time>2020-08-09T12:35:00.666Z</time>
      </trkpt>
      <trkpt lat="41.732265" lon="2.183192">
        <ele>736.504165</ele>
        <time>2020-08-09T12:35:05.679Z</time>
      </trkpt>
      <trkpt lat="41.732267" lon="2.183051">
        <ele>736.777664</ele>
        <time>2020-08-09T12:35:11.635Z</time>
      </trkpt>
      <trkpt lat="41.732238" lon="2.182910">
        <ele>737.061310</ele>
        <time>2020-08-09T12:35:16.661Z</time>
      </trkpt>
      <trkpt lat="41.732180" lon="2.182797">
        <ele>737.327288</ele>
        <time>2020-08-09T12:35:21.650Z</time>
      </trkpt>
      <trkpt lat="41.732125" lon="2.182687">
        <ele>737.584075</ele>
        <time>2020-08-09T12:35:26.659Z</time>
      </trkpt>
      <trkpt lat="41.732059" lon="2.182601">
        <ele>737.823315</ele>
        <time>2020-08-09T12:35:30.644Z</time>
      </trkpt>
      <trkpt lat="41.731975" lon="2.182546">
        <ele>738.066277</ele>
        <time>2020-08-09T12:35:34.657Z</time>
      </trkpt>
      <trkpt lat="41.731890" lon="2.182469">
        <ele>738.332913</ele>
        <time>2020-08-09T12:35:39.664Z</time>
      </trkpt>
      <trkpt lat="41.731773" lon="2.182323">
        <ele>738.732997</ele>
        <time>2020-08-09T12:46:02.644Z</time>
      </trkpt>
      <trkpt lat="41.731681" lon="2.182307">
        <ele>738.863641</ele>
        <time>2020-08-09T12:46:05.654Z</time>
      </trkpt>
      <trkpt lat="41.731570" lon="2.182294">
        <ele>739.020549</ele>
        <time>2020-08-09T12:46:07.639Z</time>
      </trkpt>
      <trkpt lat="41.731454" lon="2.182288">
        <ele>739.184025</ele>
        <time>2020-08-09T12:46:11.657Z</time>
      </trkpt>
      <trkpt lat="41.731358" lon="2.182279">
        <ele>739.319545</ele>
        <time>2020-08-09T12:46:14.659Z</time>
      </trkpt>
      <trkpt lat="41.731263" lon="2.182288">
        <ele>739.453660</ele>
        <time>2020-08-09T12:46:17.643Z</time>
      </trkpt>
      <trkpt lat="41.731174" lon="2.182318">
        <ele>739.582897</ele>
        <time>2020-08-09T12:46:22.644Z</time>
      </trkpt>
      <trkpt lat="41.731277" lon="2.182312">
        <ele>739.728081</ele>
        <time>2020-08-09T12:46:27.646Z</time>
      </trkpt>
      <trkpt lat="41.731371" lon="2.182294">
        <ele>739.861798</ele>
        <time>2020-08-09T12:46:30.665Z</time>
      </trkpt>
      <trkpt lat="41.731468" lon="2.182303">
        <ele>739.998723</ele>
        <time>2020-08-09T12:46:33.663Z</time>
      </trkpt>
      <trkpt lat="41.731563" lon="2.182324">
        <ele>740.134313</ele>
        <time>2020-08-09T12:46:36.662Z</time>
      </trkpt>
      <trkpt lat="41.731674" lon="2.182367">
        <ele>740.297026</ele>
        <time>2020-08-09T12:46:40.660Z</time>
      </trkpt>
      <trkpt lat="41.731778" lon="2.182403">
        <ele>740.448289</ele>
        <time>2020-08-09T12:46:44.662Z</time>
      </trkpt>
      <trkpt lat="41.731880" lon="2.182454">
        <ele>740.601602</ele>
        <time>2020-08-09T12:46:48.638Z</time>
      </trkpt>
      <trkpt lat="41.731984" lon="2.182469">
        <ele>740.748903</ele>
        <time>2020-08-09T12:46:53.659Z</time>
      </trkpt>
      <trkpt lat="41.732066" lon="2.182555">
        <ele>740.895540</ele>
        <time>2020-08-09T12:46:57.642Z</time>
      </trkpt>
      <trkpt lat="41.732147" lon="2.182664">
        <ele>741.057196</ele>
        <time>2020-08-09T12:47:02.627Z</time>
      </trkpt>
      <trkpt lat="41.732060" lon="2.182549">
        <ele>741.229289</ele>
        <time>2020-08-09T12:47:12.637Z</time>
      </trkpt>
      <trkpt lat="41.731980" lon="2.182478">
        <ele>741.379757</ele>
        <time>2020-08-09T12:47:16.656Z</time>
      </trkpt>
      <trkpt lat="41.731875" lon="2.182425">
        <ele>741.558529</ele>
        <time>2020-08-09T12:47:21.648Z</time>
      </trkpt>
      <trkpt lat="41.731775" lon="2.182387">
        <ele>741.724142</ele>
        <time>2020-08-09T12:47:25.643Z</time>
      </trkpt>
      <trkpt lat="41.731677" lon="2.182324">
        <ele>741.897324</ele>
        <time>2020-08-09T12:47:32.658Z</time>
      </trkpt>
      <trkpt lat="41.731569" lon="2.182320">
        <ele>742.069466</ele>
        <time>2020-08-09T12:47:36.666Z</time>
      </trkpt>
      <trkpt lat="41.731449" lon="2.182290">
        <ele>742.263961</ele>
        <time>2020-08-09T12:47:40.655Z</time>
      </trkpt>
      <trkpt lat="41.731339" lon="2.182288">
        <ele>742.439241</ele>
        <time>2020-08-09T12:47:43.660Z</time>
      </trkpt>
      <trkpt lat="41.731217" lon="2.182295">
        <ele>742.633801</ele>
        <time>2020-08-09T12:47:46.663Z</time>
      </trkpt>
      <trkpt lat="41.731090" lon="2.182326">
        <ele>742.839481</ele>
        <time>2020-08-09T12:47:49.662Z</time>
      </trkpt>
      <trkpt lat="41.730964" lon="2.182378">
        <ele>743.049542</ele>
        <time>2020-08-09T12:47:52.636Z</time>
      </trkpt>
      <trkpt lat="41.730847" lon="2.182404">
        <ele>743.238505</ele>
        <time>2020-08-09T12:47:55.650Z</time>
      </trkpt>
      <trkpt lat="41.730740" lon="2.182388">
        <ele>743.410046</ele>
        <time>2020-08-09T12:47:58.657Z</time>
      </trkpt>
      <trkpt lat="41.730640" lon="2.182364">
        <ele>743.571911</ele>
        <time>2020-08-09T12:48:01.655Z</time>
      </trkpt>
      <trkpt lat="41.730530" lon="2.182361">
        <ele>743.747211</ele>
        <time>2020-08-09T12:48:04.651Z</time>
      </trkpt>
      <trkpt lat="41.730421" lon="2.182395">
        <ele>743.925524</ele>
        <time>2020-08-09T12:48:07.660Z</time>
      </trkpt>
      <trkpt lat="41.730330" lon="2.182499">
        <ele>744.113665</ele>
        <time>2020-08-09T12:48:10.677Z</time>
      </trkpt>
      <trkpt lat="41.730238" lon="2.182589">
        <ele>744.127774</ele>
        <time>2020-08-09T12:48:13.664Z</time>
      </trkpt>
      <trkpt lat="41.730127" lon="2.182629">
        <ele>744.142011</ele>
        <time>2020-08-09T12:48:16.667Z</time>
      </trkpt>
      <trkpt lat="41.730012" lon="2.182594">
        <ele>744.156618</ele>
        <time>2020-08-09T12:48:19.643Z</time>
      </trkpt>
      <trkpt lat="41.729900" lon="2.182514">
        <ele>744.172338</ele>
        <time>2020-08-09T12:48:22.649Z</time>
      </trkpt>
      <trkpt lat="41.729785" lon="2.182433">
        <ele>744.188430</ele>
        <time>2020-08-09T12:48:25.648Z</time>
      </trkpt>
      <trkpt lat="41.729663" lon="2.182394">
        <ele>744.203966</ele>
        <time>2020-08-09T12:48:28.653Z</time>
      </trkpt>
      <trkpt lat="41.729535" lon="2.182397">
        <ele>744.219823</ele>
        <time>2020-08-09T12:48:31.652Z</time>
      </trkpt>
      <trkpt lat="41.729410" lon="2.182424">
        <ele>744.235505</ele>
        <time>2020-08-09T12:48:34.624Z</time>
      </trkpt>
      <trkpt lat="41.729288" lon="2.182473">
        <ele>744.251281</ele>
        <time>2020-08-09T12:48:37.638Z</time>
      </trkpt>
      <trkpt lat="41.729169" lon="2.182536">
        <ele>744.267129</ele>
        <time>2020-08-09T12:48:40.651Z</time>
      </trkpt>
      <trkpt lat="41.729060" lon="2.182636">
        <ele>744.283491</ele>
        <time>2020-08-09T12:48:43.663Z</time>
      </trkpt>
      <trkpt lat="41.728976" lon="2.182783">
        <ele>744.300606</ele>
        <time>2020-08-09T12:48:46.634Z</time>
      </trkpt>
      <trkpt lat="41.728894" lon="2.182896">
        <ele>744.315175</ele>
        <time>2020-08-09T12:48:49.664Z</time>
      </trkpt>
      <trkpt lat="41.728841" lon="2.183000">
        <ele>744.326816</ele>
        <time>2020-08-09T12:48:51.644Z</time>
      </trkpt>
      <trkpt lat="41.728763" lon="2.183121">
        <ele>744.257135</ele>
        <time>2020-08-09T12:48:54.650Z</time>
      </trkpt>
      <trkpt lat="41.728651" lon="2.183211">
        <ele>744.018022</ele>
        <time>2020-08-09T12:48:57.657Z</time>
      </trkpt>
      <trkpt lat="41.728538" lon="2.183287">
        <ele>743.786526</ele>
        <time>2020-08-09T12:49:00.658Z</time>
      </trkpt>
      <trkpt lat="41.728414" lon="2.183335">
        <ele>743.550207</ele>
        <time>2020-08-09T12:49:03.669Z</time>
      </trkpt>
      <trkpt lat="41.728322" lon="2.183364">
        <ele>743.377163</ele>
        <time>2020-08-09T12:49:05.659Z</time>
      </trkpt>
      <trkpt lat="41.728234" lon="2.183394">
        <ele>743.210908</ele>
        <time>2020-08-09T12:49:07.660Z</time>
      </trkpt>
      <trkpt lat="41.728149" lon="2.183437">
        <ele>743.044556</ele>
        <time>2020-08-09T12:49:09.662Z</time>
      </trkpt>
      <trkpt lat="41.728059" lon="2.183486">
        <ele>742.866689</ele>
        <time>2020-08-09T12:49:11.659Z</time>
      </trkpt>
      <trkpt lat="41.727968" lon="2.183523">
        <ele>742.692572</ele>
        <time>2020-08-09T12:49:13.664Z</time>
      </trkpt>
      <trkpt lat="41.727877" lon="2.183551">
        <ele>742.521621</ele>
        <time>2020-08-09T12:49:15.678Z</time>
      </trkpt>
      <trkpt lat="41.727785" lon="2.183567">
        <ele>742.351762</ele>
        <time>2020-08-09T12:49:17.665Z</time>
      </trkpt>
      <trkpt lat="41.727697" lon="2.183594">
        <ele>742.186470</ele>
        <time>2020-08-09T12:49:19.668Z</time>
      </trkpt>
      <trkpt lat="41.727574" lon="2.183618">
        <ele>741.958891</ele>
        <time>2020-08-09T12:49:22.648Z</time>
      </trkpt>
      <trkpt lat="41.727465" lon="2.183571">
        <ele>741.749240</ele>
        <time>2020-08-09T12:49:25.659Z</time>
      </trkpt>
      <trkpt lat="41.727374" lon="2.183455">
        <ele>741.519271</ele>
        <time>2020-08-09T12:49:28.662Z</time>
      </trkpt>
      <trkpt lat="41.727333" lon="2.183343">
        <ele>741.348808</ele>
        <time>2020-08-09T12:49:30.659Z</time>
      </trkpt>
      <trkpt lat="41.727323" lon="2.183214">
        <ele>741.171586</ele>
        <time>2020-08-09T12:49:32.629Z</time>
      </trkpt>
      <trkpt lat="41.727319" lon="2.183071">
        <ele>740.935656</ele>
        <time>2020-08-09T12:49:34.669Z</time>
      </trkpt>
      <trkpt lat="41.727319" lon="2.182926">
        <ele>740.618092</ele>
        <time>2020-08-09T12:49:36.659Z</time>
      </trkpt>
      <trkpt lat="41.727303" lon="2.182803">
        <ele>740.344648</ele>
        <time>2020-08-09T12:49:38.642Z</time>
      </trkpt>
      <trkpt lat="41.727277" lon="2.182688">
        <ele>740.081484</ele>
        <time>2020-08-09T12:49:40.660Z</time>
      </trkpt>
      <trkpt lat="41.727230" lon="2.182569">
        <ele>739.786617</ele>
        <time>2020-08-09T12:49:42.632Z</time>
      </trkpt>
      <trkpt lat="41.727155" lon="2.182474">
        <ele>739.483751</ele>
        <time>2020-08-09T12:49:44.634Z</time>
      </trkpt>
      <trkpt lat="41.727072" lon="2.182371">
        <ele>739.151770</ele>
        <time>2020-08-09T12:49:46.652Z</time>
      </trkpt>
      <trkpt lat="41.727002" lon="2.182238">
        <ele>738.795340</ele>
        <time>2020-08-09T12:49:48.649Z</time>
      </trkpt>
      <trkpt lat="41.726933" lon="2.182096">
        <ele>738.424237</ele>
        <time>2020-08-09T12:49:50.637Z</time>
      </trkpt>
      <trkpt lat="41.726860" lon="2.181947">
        <ele>738.033879</ele>
        <time>2020-08-09T12:49:52.660Z</time>
      </trkpt>
      <trkpt lat="41.726746" lon="2.181842">
        <ele>737.627927</ele>
        <time>2020-08-09T12:49:54.642Z</time>
      </trkpt>
      <trkpt lat="41.726632" lon="2.181776">
        <ele>737.263498</ele>
        <time>2020-08-09T12:49:56.639Z</time>
      </trkpt>
      <trkpt lat="41.726506" lon="2.181723">
        <ele>736.875956</ele>
        <time>2020-08-09T12:49:58.639Z</time>
      </trkpt>
      <trkpt lat="41.726380" lon="2.181671">
        <ele>736.489064</ele>
        <time>2020-08-09T12:50:00.650Z</time>
      </trkpt>
      <trkpt lat="41.726261" lon="2.181595">
        <ele>736.102215</ele>
        <time>2020-08-09T12:50:02.666Z</time>
      </trkpt>
      <trkpt lat="41.726154" lon="2.181497">
        <ele>735.657244</ele>
        <time>2020-08-09T12:50:04.657Z</time>
      </trkpt>
      <trkpt lat="41.726055" lon="2.181382">
        <ele>734.695066</ele>
        <time>2020-08-09T12:50:06.659Z</time>
      </trkpt>
      <trkpt lat="41.725944" lon="2.181269">
        <ele>733.671354</ele>
        <time>2020-08-09T12:50:08.668Z</time>
      </trkpt>
      <trkpt lat="41.725837" lon="2.181161">
        <ele>732.687600</ele>
        <time>2020-08-09T12:50:10.664Z</time>
      </trkpt>
      <trkpt lat="41.725718" lon="2.181046">
        <ele>731.610144</ele>
        <time>2020-08-09T12:50:12.656Z</time>
      </trkpt>
      <trkpt lat="41.725585" lon="2.180952">
        <ele>730.505912</ele>
        <time>2020-08-09T12:50:14.676Z</time>
      </trkpt>
      <trkpt lat="41.725452" lon="2.180835">
        <ele>729.337534</ele>
        <time>2020-08-09T12:50:16.667Z</time>
      </trkpt>
      <trkpt lat="41.725306" lon="2.180740">
        <ele>728.145645</ele>
        <time>2020-08-09T12:50:18.634Z</time>
      </trkpt>
      <trkpt lat="41.725143" lon="2.180650">
        <ele>726.851006</ele>
        <time>2020-08-09T12:50:20.649Z</time>
      </trkpt>
      <trkpt lat="41.725060" lon="2.180604">
        <ele>726.191413</ele>
        <time>2020-08-09T12:50:21.665Z</time>
      </trkpt>
      <trkpt lat="41.724903" lon="2.180520">
        <ele>724.949964</ele>
        <time>2020-08-09T12:50:23.663Z</time>
      </trkpt>
      <trkpt lat="41.724770" lon="2.180417">
        <ele>723.821871</ele>
        <time>2020-08-09T12:50:25.666Z</time>
      </trkpt>
      <trkpt lat="41.724687" lon="2.180264">
        <ele>722.785199</ele>
        <time>2020-08-09T12:50:27.642Z</time>
      </trkpt>
      <trkpt lat="41.724663" lon="2.180067">
        <ele>721.919260</ele>
        <time>2020-08-09T12:50:29.657Z</time>
      </trkpt>
      <trkpt lat="41.724737" lon="2.179871">
        <ele>721.032664</ele>
        <time>2020-08-09T12:50:31.661Z</time>
      </trkpt>
      <trkpt lat="41.724847" lon="2.179688">
        <ele>720.084235</ele>
        <time>2020-08-09T12:50:33.662Z</time>
      </trkpt>
      <trkpt lat="41.724916" lon="2.179594">
        <ele>719.552061</ele>
        <time>2020-08-09T12:50:34.643Z</time>
      </trkpt>
      <trkpt lat="41.725054" lon="2.179480">
        <ele>718.675285</ele>
        <time>2020-08-09T12:50:36.649Z</time>
      </trkpt>
      <trkpt lat="41.725210" lon="2.179486">
        <ele>717.831265</ele>
        <time>2020-08-09T12:50:38.670Z</time>
      </trkpt>
      <trkpt lat="41.725351" lon="2.179589">
        <ele>716.962745</ele>
        <time>2020-08-09T12:50:40.650Z</time>
      </trkpt>
      <trkpt lat="41.725496" lon="2.179714">
        <ele>716.030272</ele>
        <time>2020-08-09T12:50:42.660Z</time>
      </trkpt>
      <trkpt lat="41.725659" lon="2.179797">
        <ele>715.087229</ele>
        <time>2020-08-09T12:50:44.657Z</time>
      </trkpt>
      <trkpt lat="41.725834" lon="2.179778">
        <ele>714.137700</ele>
        <time>2020-08-09T12:50:46.656Z</time>
      </trkpt>
      <trkpt lat="41.725997" lon="2.179687">
        <ele>713.182709</ele>
        <time>2020-08-09T12:50:48.670Z</time>
      </trkpt>
      <trkpt lat="41.726074" lon="2.179604">
        <ele>712.735567</ele>
        <time>2020-08-09T12:50:49.662Z</time>
      </trkpt>
      <trkpt lat="41.726173" lon="2.179404">
        <ele>712.234193</ele>
        <time>2020-08-09T12:50:51.667Z</time>
      </trkpt>
      <trkpt lat="41.726213" lon="2.179294">
        <ele>711.978563</ele>
        <time>2020-08-09T12:50:52.664Z</time>
      </trkpt>
      <trkpt lat="41.726242" lon="2.179167">
        <ele>711.701102</ele>
        <time>2020-08-09T12:50:53.650Z</time>
      </trkpt>
      <trkpt lat="41.726278" lon="2.179045">
        <ele>711.427030</ele>
        <time>2020-08-09T12:50:54.648Z</time>
      </trkpt>
      <trkpt lat="41.726320" lon="2.178928">
        <ele>711.155798</ele>
        <time>2020-08-09T12:50:55.648Z</time>
      </trkpt>
      <trkpt lat="41.726373" lon="2.178818">
        <ele>710.882265</ele>
        <time>2020-08-09T12:50:56.659Z</time>
      </trkpt>
      <trkpt lat="41.726443" lon="2.178738">
        <ele>710.624726</ele>
        <time>2020-08-09T12:50:57.659Z</time>
      </trkpt>
      <trkpt lat="41.726522" lon="2.178664">
        <ele>710.354910</ele>
        <time>2020-08-09T12:50:58.659Z</time>
      </trkpt>
      <trkpt lat="41.726608" lon="2.178620">
        <ele>710.097226</ele>
        <time>2020-08-09T12:50:59.651Z</time>
      </trkpt>
      <trkpt lat="41.726709" lon="2.178613">
        <ele>709.814129</ele>
        <time>2020-08-09T12:51:00.654Z</time>
      </trkpt>
      <trkpt lat="41.726804" lon="2.178632">
        <ele>709.545260</ele>
        <time>2020-08-09T12:51:01.677Z</time>
      </trkpt>
      <trkpt lat="41.726892" lon="2.178670">
        <ele>709.286454</ele>
        <time>2020-08-09T12:51:02.644Z</time>
      </trkpt>
      <trkpt lat="41.726985" lon="2.178706">
        <ele>709.015483</ele>
        <time>2020-08-09T12:51:03.662Z</time>
      </trkpt>
      <trkpt lat="41.727150" lon="2.178648">
        <ele>708.537987</ele>
        <time>2020-08-09T12:51:05.663Z</time>
      </trkpt>
      <trkpt lat="41.727215" lon="2.178564">
        <ele>708.285203</ele>
        <time>2020-08-09T12:51:06.637Z</time>
      </trkpt>
      <trkpt lat="41.727266" lon="2.178347">
        <ele>707.809921</ele>
        <time>2020-08-09T12:51:08.652Z</time>
      </trkpt>
      <trkpt lat="41.727257" lon="2.178209">
        <ele>707.184179</ele>
        <time>2020-08-09T12:51:09.642Z</time>
      </trkpt>
      <trkpt lat="41.727245" lon="2.178072">
        <ele>706.542226</ele>
        <time>2020-08-09T12:51:10.650Z</time>
      </trkpt>
      <trkpt lat="41.727236" lon="2.177940">
        <ele>705.925360</ele>
        <time>2020-08-09T12:51:11.654Z</time>
      </trkpt>
      <trkpt lat="41.727253" lon="2.177792">
        <ele>705.228481</ele>
        <time>2020-08-09T12:51:12.641Z</time>
      </trkpt>
      <trkpt lat="41.727295" lon="2.177671">
        <ele>704.607441</ele>
        <time>2020-08-09T12:51:13.660Z</time>
      </trkpt>
      <trkpt lat="41.727343" lon="2.177552">
        <ele>703.977924</ele>
        <time>2020-08-09T12:51:14.661Z</time>
      </trkpt>
      <trkpt lat="41.727406" lon="2.177430">
        <ele>703.287496</ele>
        <time>2020-08-09T12:51:15.660Z</time>
      </trkpt>
      <trkpt lat="41.727466" lon="2.177299">
        <ele>702.572193</ele>
        <time>2020-08-09T12:51:16.666Z</time>
      </trkpt>
      <trkpt lat="41.727507" lon="2.177168">
        <ele>701.911103</ele>
        <time>2020-08-09T12:51:17.665Z</time>
      </trkpt>
      <trkpt lat="41.727527" lon="2.177030">
        <ele>701.256878</ele>
        <time>2020-08-09T12:51:18.647Z</time>
      </trkpt>
      <trkpt lat="41.727521" lon="2.176899">
        <ele>700.646080</ele>
        <time>2020-08-09T12:51:19.645Z</time>
      </trkpt>
      <trkpt lat="41.727491" lon="2.176772">
        <ele>700.026145</ele>
        <time>2020-08-09T12:51:20.667Z</time>
      </trkpt>
      <trkpt lat="41.727442" lon="2.176654">
        <ele>699.397712</ele>
        <time>2020-08-09T12:51:21.653Z</time>
      </trkpt>
      <trkpt lat="41.727364" lon="2.176564">
        <ele>698.755838</ele>
        <time>2020-08-09T12:51:22.655Z</time>
      </trkpt>
      <trkpt lat="41.727282" lon="2.176493">
        <ele>698.147039</ele>
        <time>2020-08-09T12:51:23.666Z</time>
      </trkpt>
      <trkpt lat="41.727189" lon="2.176457">
        <ele>697.543402</ele>
        <time>2020-08-09T12:51:24.656Z</time>
      </trkpt>
      <trkpt lat="41.727096" lon="2.176451">
        <ele>696.962809</ele>
        <time>2020-08-09T12:51:25.666Z</time>
      </trkpt>
      <trkpt lat="41.726916" lon="2.176446">
        <ele>696.225000</ele>
        <time>2020-08-09T12:51:27.660Z</time>
      </trkpt>
      <trkpt lat="41.726824" lon="2.176444">
        <ele>695.950232</ele>
        <time>2020-08-09T12:51:28.645Z</time>
      </trkpt>
      <trkpt lat="41.726654" lon="2.176427">
        <ele>695.441163</ele>
        <time>2020-08-09T12:51:30.661Z</time>
      </trkpt>
      <trkpt lat="41.726488" lon="2.176382">
        <ele>694.935407</ele>
        <time>2020-08-09T12:51:32.669Z</time>
      </trkpt>
      <trkpt lat="41.726340" lon="2.176302">
        <ele>694.458837</ele>
        <time>2020-08-09T12:51:34.662Z</time>
      </trkpt>
      <trkpt lat="41.726205" lon="2.176212">
        <ele>694.008553</ele>
        <time>2020-08-09T12:51:36.666Z</time>
      </trkpt>
      <trkpt lat="41.726070" lon="2.176127">
        <ele>693.563122</ele>
        <time>2020-08-09T12:51:38.669Z</time>
      </trkpt>
      <trkpt lat="41.725941" lon="2.176033">
        <ele>693.124617</ele>
        <time>2020-08-09T12:51:40.657Z</time>
      </trkpt>
      <trkpt lat="41.725799" lon="2.175948">
        <ele>692.660181</ele>
        <time>2020-08-09T12:51:42.688Z</time>
      </trkpt>
      <trkpt lat="41.725664" lon="2.175858">
        <ele>692.209897</ele>
        <time>2020-08-09T12:51:44.667Z</time>
      </trkpt>
      <trkpt lat="41.725516" lon="2.175767">
        <ele>691.723622</ele>
        <time>2020-08-09T12:51:46.651Z</time>
      </trkpt>
      <trkpt lat="41.725372" lon="2.175683">
        <ele>691.254621</ele>
        <time>2020-08-09T12:51:48.661Z</time>
      </trkpt>
      <trkpt lat="41.725222" lon="2.175606">
        <ele>691.046221</ele>
        <time>2020-08-09T12:51:50.662Z</time>
      </trkpt>
      <trkpt lat="41.725078" lon="2.175556">
        <ele>690.880571</ele>
        <time>2020-08-09T12:51:52.661Z</time>
      </trkpt>
      <trkpt lat="41.724931" lon="2.175509">
        <ele>690.712281</ele>
        <time>2020-08-09T12:51:54.646Z</time>
      </trkpt>
      <trkpt lat="41.724797" lon="2.175453">
        <ele>690.555974</ele>
        <time>2020-08-09T12:51:56.667Z</time>
      </trkpt>
      <trkpt lat="41.724685" lon="2.175356">
        <ele>690.407468</ele>
        <time>2020-08-09T12:51:58.664Z</time>
      </trkpt>
      <trkpt lat="41.724638" lon="2.175183">
        <ele>690.254457</ele>
        <time>2020-08-09T12:52:00.662Z</time>
      </trkpt>
      <trkpt lat="41.724681" lon="2.175009">
        <ele>690.102123</ele>
        <time>2020-08-09T12:52:02.665Z</time>
      </trkpt>
      <trkpt lat="41.724793" lon="2.174845">
        <ele>689.917372</ele>
        <time>2020-08-09T12:52:04.716Z</time>
      </trkpt>
      <trkpt lat="41.724893" lon="2.174674">
        <ele>689.736822</ele>
        <time>2020-08-09T12:52:06.661Z</time>
      </trkpt>
      <trkpt lat="41.725019" lon="2.174508">
        <ele>689.540047</ele>
        <time>2020-08-09T12:52:08.660Z</time>
      </trkpt>
      <trkpt lat="41.725183" lon="2.174399">
        <ele>689.336189</ele>
        <time>2020-08-09T12:52:10.670Z</time>
      </trkpt>
      <trkpt lat="41.725281" lon="2.174364">
        <ele>689.223250</ele>
        <time>2020-08-09T12:52:11.628Z</time>
      </trkpt>
      <trkpt lat="41.725451" lon="2.174278">
        <ele>688.079142</ele>
        <time>2020-08-09T12:52:13.665Z</time>
      </trkpt>
      <trkpt lat="41.725573" lon="2.174088">
        <ele>686.803139</ele>
        <time>2020-08-09T12:52:15.695Z</time>
      </trkpt>
      <trkpt lat="41.725587" lon="2.173957">
        <ele>686.129419</ele>
        <time>2020-08-09T12:52:16.656Z</time>
      </trkpt>
      <trkpt lat="41.725571" lon="2.173834">
        <ele>685.493790</ele>
        <time>2020-08-09T12:52:17.652Z</time>
      </trkpt>
      <trkpt lat="41.725528" lon="2.173705">
        <ele>684.774530</ele>
        <time>2020-08-09T12:52:18.665Z</time>
      </trkpt>
      <trkpt lat="41.725477" lon="2.173582">
        <ele>684.058194</ele>
        <time>2020-08-09T12:52:19.654Z</time>
      </trkpt>
      <trkpt lat="41.725410" lon="2.173474">
        <ele>683.343227</ele>
        <time>2020-08-09T12:52:20.665Z</time>
      </trkpt>
      <trkpt lat="41.725339" lon="2.173369">
        <ele>682.621907</ele>
        <time>2020-08-09T12:52:21.660Z</time>
      </trkpt>
      <trkpt lat="41.725273" lon="2.173262">
        <ele>681.915211</ele>
        <time>2020-08-09T12:52:22.664Z</time>
      </trkpt>
      <trkpt lat="41.725202" lon="2.173166">
        <ele>681.227158</ele>
        <time>2020-08-09T12:52:23.668Z</time>
      </trkpt>
      <trkpt lat="41.725135" lon="2.173071">
        <ele>680.561739</ele>
        <time>2020-08-09T12:52:24.657Z</time>
      </trkpt>
      <trkpt lat="41.725063" lon="2.172983">
        <ele>679.896968</ele>
        <time>2020-08-09T12:52:25.654Z</time>
      </trkpt>
      <trkpt lat="41.724984" lon="2.172909">
        <ele>679.239459</ele>
        <time>2020-08-09T12:52:26.649Z</time>
      </trkpt>
      <trkpt lat="41.724830" lon="2.172807">
        <ele>678.067646</ele>
        <time>2020-08-09T12:52:28.665Z</time>
      </trkpt>
      <trkpt lat="41.724667" lon="2.172745">
        <ele>676.914501</ele>
        <time>2020-08-09T12:52:30.657Z</time>
      </trkpt>
      <trkpt lat="41.724501" lon="2.172697">
        <ele>675.885128</ele>
        <time>2020-08-09T12:52:32.670Z</time>
      </trkpt>
      <trkpt lat="41.724342" lon="2.172657">
        <ele>674.904510</ele>
        <time>2020-08-09T12:52:34.663Z</time>
      </trkpt>
      <trkpt lat="41.724185" lon="2.172614">
        <ele>673.933177</ele>
        <time>2020-08-09T12:52:36.662Z</time>
      </trkpt>
      <trkpt lat="41.724034" lon="2.172572">
        <ele>672.998378</ele>
        <time>2020-08-09T12:52:38.674Z</time>
      </trkpt>
      <trkpt lat="41.723876" lon="2.172533">
        <ele>672.024547</ele>
        <time>2020-08-09T12:52:40.695Z</time>
      </trkpt>
      <trkpt lat="41.723726" lon="2.172466">
        <ele>671.066129</ele>
        <time>2020-08-09T12:52:42.665Z</time>
      </trkpt>
      <trkpt lat="41.723574" lon="2.172366">
        <ele>670.039703</ele>
        <time>2020-08-09T12:52:44.652Z</time>
      </trkpt>
      <trkpt lat="41.723451" lon="2.172213">
        <ele>669.022362</ele>
        <time>2020-08-09T12:52:46.664Z</time>
      </trkpt>
      <trkpt lat="41.723434" lon="2.172004">
        <ele>668.071229</ele>
        <time>2020-08-09T12:52:48.662Z</time>
      </trkpt>
      <trkpt lat="41.723504" lon="2.171807">
        <ele>667.084137</ele>
        <time>2020-08-09T12:52:50.665Z</time>
      </trkpt>
      <trkpt lat="41.723588" lon="2.171601">
        <ele>666.019126</ele>
        <time>2020-08-09T12:52:52.669Z</time>
      </trkpt>
      <trkpt lat="41.723639" lon="2.171501">
        <ele>665.320837</ele>
        <time>2020-08-09T12:52:53.657Z</time>
      </trkpt>
      <trkpt lat="41.723759" lon="2.171322">
        <ele>663.933640</ele>
        <time>2020-08-09T12:52:55.668Z</time>
      </trkpt>
      <trkpt lat="41.723840" lon="2.171250">
        <ele>663.182761</ele>
        <time>2020-08-09T12:52:56.662Z</time>
      </trkpt>
      <trkpt lat="41.723912" lon="2.171158">
        <ele>662.414205</ele>
        <time>2020-08-09T12:52:57.666Z</time>
      </trkpt>
      <trkpt lat="41.723962" lon="2.171040">
        <ele>661.631894</ele>
        <time>2020-08-09T12:52:58.638Z</time>
      </trkpt>
      <trkpt lat="41.723987" lon="2.170905">
        <ele>660.829963</ele>
        <time>2020-08-09T12:52:59.662Z</time>
      </trkpt>
      <trkpt lat="41.724004" lon="2.170765">
        <ele>660.012194</ele>
        <time>2020-08-09T12:53:00.672Z</time>
      </trkpt>
      <trkpt lat="41.724010" lon="2.170620">
        <ele>659.174926</ele>
        <time>2020-08-09T12:53:01.644Z</time>
      </trkpt>
      <trkpt lat="41.724011" lon="2.170479">
        <ele>658.361967</ele>
        <time>2020-08-09T12:53:02.716Z</time>
      </trkpt>
      <trkpt lat="41.724011" lon="2.170337">
        <ele>657.543279</ele>
        <time>2020-08-09T12:53:03.663Z</time>
      </trkpt>
      <trkpt lat="41.724007" lon="2.170189">
        <ele>656.689440</ele>
        <time>2020-08-09T12:53:04.665Z</time>
      </trkpt>
      <trkpt lat="41.724002" lon="2.170042">
        <ele>655.841045</ele>
        <time>2020-08-09T12:53:05.670Z</time>
      </trkpt>
      <trkpt lat="41.723998" lon="2.169901">
        <ele>655.027536</ele>
        <time>2020-08-09T12:53:06.665Z</time>
      </trkpt>
      <trkpt lat="41.723995" lon="2.169763">
        <ele>654.231572</ele>
        <time>2020-08-09T12:53:07.663Z</time>
      </trkpt>
      <trkpt lat="41.724000" lon="2.169641">
        <ele>653.527133</ele>
        <time>2020-08-09T12:53:08.657Z</time>
      </trkpt>
      <trkpt lat="41.724017" lon="2.169412">
        <ele>652.200340</ele>
        <time>2020-08-09T12:53:10.669Z</time>
      </trkpt>
      <trkpt lat="41.724094" lon="2.169229">
        <ele>651.822461</ele>
        <time>2020-08-09T12:53:12.665Z</time>
      </trkpt>
      <trkpt lat="41.724222" lon="2.169167">
        <ele>651.532878</ele>
        <time>2020-08-09T12:53:14.663Z</time>
      </trkpt>
      <trkpt lat="41.724369" lon="2.169179">
        <ele>651.219540</ele>
        <time>2020-08-09T12:53:16.659Z</time>
      </trkpt>
      <trkpt lat="41.724520" lon="2.169231">
        <ele>650.887831</ele>
        <time>2020-08-09T12:53:18.659Z</time>
      </trkpt>
      <trkpt lat="41.724688" lon="2.169303">
        <ele>650.512554</ele>
        <time>2020-08-09T12:53:20.645Z</time>
      </trkpt>
      <trkpt lat="41.724776" lon="2.169342">
        <ele>650.315348</ele>
        <time>2020-08-09T12:53:21.632Z</time>
      </trkpt>
      <trkpt lat="41.724858" lon="2.169392">
        <ele>650.123668</ele>
        <time>2020-08-09T12:53:22.669Z</time>
      </trkpt>
      <trkpt lat="41.724946" lon="2.169454">
        <ele>649.912132</ele>
        <time>2020-08-09T12:53:23.655Z</time>
      </trkpt>
      <trkpt lat="41.725027" lon="2.169507">
        <ele>649.720344</ele>
        <time>2020-08-09T12:53:24.658Z</time>
      </trkpt>
      <trkpt lat="41.725186" lon="2.169524">
        <ele>649.380981</ele>
        <time>2020-08-09T12:53:26.656Z</time>
      </trkpt>
      <trkpt lat="41.725294" lon="2.169381">
        <ele>649.057930</ele>
        <time>2020-08-09T12:53:28.659Z</time>
      </trkpt>
      <trkpt lat="41.725336" lon="2.169177">
        <ele>648.721895</ele>
        <time>2020-08-09T12:53:30.653Z</time>
      </trkpt>
      <trkpt lat="41.725304" lon="2.168964">
        <ele>648.376883</ele>
        <time>2020-08-09T12:53:32.642Z</time>
      </trkpt>
      <trkpt lat="41.725217" lon="2.168770">
        <ele>647.399621</ele>
        <time>2020-08-09T12:53:34.633Z</time>
      </trkpt>
      <trkpt lat="41.725138" lon="2.168713">
        <ele>646.808788</ele>
        <time>2020-08-09T12:53:35.644Z</time>
      </trkpt>
      <trkpt lat="41.724972" lon="2.168646">
        <ele>645.667186</ele>
        <time>2020-08-09T12:53:37.665Z</time>
      </trkpt>
      <trkpt lat="41.724804" lon="2.168581">
        <ele>644.515734</ele>
        <time>2020-08-09T12:53:39.673Z</time>
      </trkpt>
      <trkpt lat="41.724671" lon="2.168479">
        <ele>643.506631</ele>
        <time>2020-08-09T12:53:41.652Z</time>
      </trkpt>
      <trkpt lat="41.724557" lon="2.168318">
        <ele>642.415948</ele>
        <time>2020-08-09T12:53:43.644Z</time>
      </trkpt>
      <trkpt lat="41.724440" lon="2.168145">
        <ele>641.268583</ele>
        <time>2020-08-09T12:53:45.665Z</time>
      </trkpt>
      <trkpt lat="41.724334" lon="2.168001">
        <ele>640.274580</ele>
        <time>2020-08-09T12:53:47.659Z</time>
      </trkpt>
      <trkpt lat="41.724216" lon="2.167854">
        <ele>639.213598</ele>
        <time>2020-08-09T12:53:49.649Z</time>
      </trkpt>
      <trkpt lat="41.724091" lon="2.167732">
        <ele>638.195263</ele>
        <time>2020-08-09T12:53:51.655Z</time>
      </trkpt>
      <trkpt lat="41.723960" lon="2.167613">
        <ele>637.153080</ele>
        <time>2020-08-09T12:53:53.653Z</time>
      </trkpt>
      <trkpt lat="41.723808" lon="2.167545">
        <ele>636.440138</ele>
        <time>2020-08-09T12:53:55.639Z</time>
      </trkpt>
      <trkpt lat="41.723719" lon="2.167516">
        <ele>636.393766</ele>
        <time>2020-08-09T12:53:56.645Z</time>
      </trkpt>
      <trkpt lat="41.723555" lon="2.167462">
        <ele>636.308267</ele>
        <time>2020-08-09T12:53:58.650Z</time>
      </trkpt>
      <trkpt lat="41.723416" lon="2.167400">
        <ele>636.234097</ele>
        <time>2020-08-09T12:54:00.644Z</time>
      </trkpt>
      <trkpt lat="41.723326" lon="2.167300">
        <ele>636.174903</ele>
        <time>2020-08-09T12:54:02.654Z</time>
      </trkpt>
      <trkpt lat="41.723277" lon="2.167156">
        <ele>636.115102</ele>
        <time>2020-08-09T12:54:04.637Z</time>
      </trkpt>
      <trkpt lat="41.723287" lon="2.167012">
        <ele>636.060454</ele>
        <time>2020-08-09T12:54:06.661Z</time>
      </trkpt>
      <trkpt lat="41.723352" lon="2.166914">
        <ele>636.010914</ele>
        <time>2020-08-09T12:54:08.658Z</time>
      </trkpt>
      <trkpt lat="41.723423" lon="2.166829">
        <ele>635.962709</ele>
        <time>2020-08-09T12:54:10.658Z</time>
      </trkpt>
      <trkpt lat="41.723490" lon="2.166747">
        <ele>635.916767</ele>
        <time>2020-08-09T12:54:12.661Z</time>
      </trkpt>
      <trkpt lat="41.723585" lon="2.166651">
        <ele>635.856525</ele>
        <time>2020-08-09T12:54:15.661Z</time>
      </trkpt>
      <trkpt lat="41.723676" lon="2.166583">
        <ele>635.803773</ele>
        <time>2020-08-09T12:54:18.639Z</time>
      </trkpt>
      <trkpt lat="41.723761" lon="2.166481">
        <ele>635.746003</ele>
        <time>2020-08-09T12:54:21.646Z</time>
      </trkpt>
      <trkpt lat="41.723860" lon="2.166371">
        <ele>635.680889</ele>
        <time>2020-08-09T12:54:24.652Z</time>
      </trkpt>
      <trkpt lat="41.723926" lon="2.166287">
        <ele>635.634803</ele>
        <time>2020-08-09T12:54:26.655Z</time>
      </trkpt>
      <trkpt lat="41.724000" lon="2.166201">
        <ele>635.585208</ele>
        <time>2020-08-09T12:54:28.653Z</time>
      </trkpt>
      <trkpt lat="41.724070" lon="2.166116">
        <ele>635.628942</ele>
        <time>2020-08-09T12:54:30.633Z</time>
      </trkpt>
      <trkpt lat="41.724144" lon="2.166032">
        <ele>635.797483</ele>
        <time>2020-08-09T12:54:32.643Z</time>
      </trkpt>
      <trkpt lat="41.724224" lon="2.165941">
        <ele>635.979849</ele>
        <time>2020-08-09T12:54:34.651Z</time>
      </trkpt>
      <trkpt lat="41.724301" lon="2.165861">
        <ele>636.149172</ele>
        <time>2020-08-09T12:54:36.643Z</time>
      </trkpt>
      <trkpt lat="41.724382" lon="2.165781">
        <ele>636.324041</ele>
        <time>2020-08-09T12:54:38.652Z</time>
      </trkpt>
      <trkpt lat="41.724458" lon="2.165695">
        <ele>636.496911</ele>
        <time>2020-08-09T12:54:40.643Z</time>
      </trkpt>
      <trkpt lat="41.724553" lon="2.165587">
        <ele>636.713417</ele>
        <time>2020-08-09T12:54:43.628Z</time>
      </trkpt>
      <trkpt lat="41.724618" lon="2.165499">
        <ele>636.873995</ele>
        <time>2020-08-09T12:54:45.647Z</time>
      </trkpt>
      <trkpt lat="41.724705" lon="2.165377">
        <ele>637.092843</ele>
        <time>2020-08-09T12:54:48.653Z</time>
      </trkpt>
      <trkpt lat="41.724796" lon="2.165250">
        <ele>637.321182</ele>
        <time>2020-08-09T12:54:51.632Z</time>
      </trkpt>
      <trkpt lat="41.724882" lon="2.165121">
        <ele>637.545520</ele>
        <time>2020-08-09T12:54:54.631Z</time>
      </trkpt>
      <trkpt lat="41.724979" lon="2.164994">
        <ele>637.781200</ele>
        <time>2020-08-09T12:54:57.648Z</time>
      </trkpt>
      <trkpt lat="41.725044" lon="2.164908">
        <ele>637.939945</ele>
        <time>2020-08-09T12:54:59.650Z</time>
      </trkpt>
      <trkpt lat="41.725120" lon="2.164811">
        <ele>638.122345</ele>
        <time>2020-08-09T12:55:01.649Z</time>
      </trkpt>
      <trkpt lat="41.725189" lon="2.164706">
        <ele>638.303792</ele>
        <time>2020-08-09T12:55:03.644Z</time>
      </trkpt>
      <trkpt lat="41.725246" lon="2.164600">
        <ele>638.473238</ele>
        <time>2020-08-09T12:55:05.658Z</time>
      </trkpt>
      <trkpt lat="41.725301" lon="2.164495">
        <ele>638.639612</ele>
        <time>2020-08-09T12:55:07.659Z</time>
      </trkpt>
      <trkpt lat="41.725364" lon="2.164368">
        <ele>638.724653</ele>
        <time>2020-08-09T12:55:09.662Z</time>
      </trkpt>
      <trkpt lat="41.725416" lon="2.164258">
        <ele>638.769687</ele>
        <time>2020-08-09T12:55:11.658Z</time>
      </trkpt>
      <trkpt lat="41.725467" lon="2.164136">
        <ele>638.818051</ele>
        <time>2020-08-09T12:55:13.639Z</time>
      </trkpt>
      <trkpt lat="41.725512" lon="2.164018">
        <ele>638.863882</ele>
        <time>2020-08-09T12:55:15.646Z</time>
      </trkpt>
      <trkpt lat="41.725562" lon="2.163894">
        <ele>638.912628</ele>
        <time>2020-08-09T12:55:17.646Z</time>
      </trkpt>
      <trkpt lat="41.725611" lon="2.163778">
        <ele>638.958728</ele>
        <time>2020-08-09T12:55:19.639Z</time>
      </trkpt>
      <trkpt lat="41.725654" lon="2.163656">
        <ele>639.005392</ele>
        <time>2020-08-09T12:55:21.635Z</time>
      </trkpt>
      <trkpt lat="41.725700" lon="2.163533">
        <ele>639.052975</ele>
        <time>2020-08-09T12:55:23.666Z</time>
      </trkpt>
      <trkpt lat="41.725747" lon="2.163406">
        <ele>639.102003</ele>
        <time>2020-08-09T12:55:25.635Z</time>
      </trkpt>
      <trkpt lat="41.725800" lon="2.163289">
        <ele>639.149339</ele>
        <time>2020-08-09T12:55:27.660Z</time>
      </trkpt>
      <trkpt lat="41.725843" lon="2.163176">
        <ele>639.193209</ele>
        <time>2020-08-09T12:55:29.629Z</time>
      </trkpt>
      <trkpt lat="41.725886" lon="2.163056">
        <ele>639.239248</ele>
        <time>2020-08-09T12:55:31.626Z</time>
      </trkpt>
      <trkpt lat="41.725928" lon="2.162926">
        <ele>639.288242</ele>
        <time>2020-08-09T12:55:33.646Z</time>
      </trkpt>
      <trkpt lat="41.725981" lon="2.162802">
        <ele>639.337663</ele>
        <time>2020-08-09T12:55:35.658Z</time>
      </trkpt>
      <trkpt lat="41.726027" lon="2.162669">
        <ele>639.388362</ele>
        <time>2020-08-09T12:55:37.659Z</time>
      </trkpt>
      <trkpt lat="41.726073" lon="2.162534">
        <ele>639.439689</ele>
        <time>2020-08-09T12:55:39.658Z</time>
      </trkpt>
      <trkpt lat="41.726123" lon="2.162382">
        <ele>639.497140</ele>
        <time>2020-08-09T12:55:41.664Z</time>
      </trkpt>
      <trkpt lat="41.726168" lon="2.162240">
        <ele>639.660853</ele>
        <time>2020-08-09T12:55:43.644Z</time>
      </trkpt>
      <trkpt lat="41.726215" lon="2.162090">
        <ele>639.903427</ele>
        <time>2020-08-09T12:55:45.661Z</time>
      </trkpt>
      <trkpt lat="41.726266" lon="2.161937">
        <ele>640.153283</ele>
        <time>2020-08-09T12:55:47.666Z</time>
      </trkpt>
      <trkpt lat="41.726317" lon="2.161774">
        <ele>640.416823</ele>
        <time>2020-08-09T12:55:49.659Z</time>
      </trkpt>
      <trkpt lat="41.726367" lon="2.161627">
        <ele>640.657702</ele>
        <time>2020-08-09T12:55:51.665Z</time>
      </trkpt>
      <trkpt lat="41.726417" lon="2.161494">
        <ele>640.879754</ele>
        <time>2020-08-09T12:55:53.635Z</time>
      </trkpt>
      <trkpt lat="41.726471" lon="2.161353">
        <ele>641.116061</ele>
        <time>2020-08-09T12:55:55.669Z</time>
      </trkpt>
      <trkpt lat="41.726523" lon="2.161217">
        <ele>641.343911</ele>
        <time>2020-08-09T12:55:57.661Z</time>
      </trkpt>
      <trkpt lat="41.726589" lon="2.161093">
        <ele>641.571007</ele>
        <time>2020-08-09T12:55:59.659Z</time>
      </trkpt>
      <trkpt lat="41.726642" lon="2.160953">
        <ele>641.805077</ele>
        <time>2020-08-09T12:56:01.652Z</time>
      </trkpt>
      <trkpt lat="41.726697" lon="2.160819">
        <ele>642.033104</ele>
        <time>2020-08-09T12:56:03.653Z</time>
      </trkpt>
      <trkpt lat="41.726760" lon="2.160685">
        <ele>642.269247</ele>
        <time>2020-08-09T12:56:05.661Z</time>
      </trkpt>
      <trkpt lat="41.726820" lon="2.160535">
        <ele>642.523006</ele>
        <time>2020-08-09T12:56:07.658Z</time>
      </trkpt>
      <trkpt lat="41.726894" lon="2.160395">
        <ele>642.778807</ele>
        <time>2020-08-09T12:56:09.644Z</time>
      </trkpt>
      <trkpt lat="41.726962" lon="2.160273">
        <ele>643.005849</ele>
        <time>2020-08-09T12:56:11.652Z</time>
      </trkpt>
      <trkpt lat="41.727028" lon="2.160158">
        <ele>643.102906</ele>
        <time>2020-08-09T12:56:13.660Z</time>
      </trkpt>
      <trkpt lat="41.727084" lon="2.160042">
        <ele>643.088621</ele>
        <time>2020-08-09T12:56:15.662Z</time>
      </trkpt>
      <trkpt lat="41.727136" lon="2.159916">
        <ele>643.073733</ele>
        <time>2020-08-09T12:56:17.662Z</time>
      </trkpt>
      <trkpt lat="41.727195" lon="2.159797">
        <ele>643.058961</ele>
        <time>2020-08-09T12:56:19.643Z</time>
      </trkpt>
      <trkpt lat="41.727230" lon="2.159674">
        <ele>643.045350</ele>
        <time>2020-08-09T12:56:21.622Z</time>
      </trkpt>
      <trkpt lat="41.727267" lon="2.159540">
        <ele>643.030576</ele>
        <time>2020-08-09T12:56:23.656Z</time>
      </trkpt>
      <trkpt lat="41.727290" lon="2.159405">
        <ele>643.016258</ele>
        <time>2020-08-09T12:56:25.642Z</time>
      </trkpt>
      <trkpt lat="41.727295" lon="2.159260">
        <ele>643.001249</ele>
        <time>2020-08-09T12:56:27.653Z</time>
      </trkpt>
      <trkpt lat="41.727281" lon="2.159120">
        <ele>642.986644</ele>
        <time>2020-08-09T12:56:29.648Z</time>
      </trkpt>
      <trkpt lat="41.727277" lon="2.158999">
        <ele>642.974120</ele>
        <time>2020-08-09T12:56:31.635Z</time>
      </trkpt>
      <trkpt lat="41.727269" lon="2.158835">
        <ele>642.957127</ele>
        <time>2020-08-09T12:56:34.656Z</time>
      </trkpt>
      <trkpt lat="41.727265" lon="2.158677">
        <ele>642.940780</ele>
        <time>2020-08-09T12:56:37.652Z</time>
      </trkpt>
      <trkpt lat="41.727254" lon="2.158521">
        <ele>642.924578</ele>
        <time>2020-08-09T12:56:40.651Z</time>
      </trkpt>
      <trkpt lat="41.727240" lon="2.158358">
        <ele>642.907613</ele>
        <time>2020-08-09T12:56:43.653Z</time>
      </trkpt>
      <trkpt lat="41.727229" lon="2.158197">
        <ele>642.890896</ele>
        <time>2020-08-09T12:56:46.642Z</time>
      </trkpt>
      <trkpt lat="41.727225" lon="2.158028">
        <ele>642.873412</ele>
        <time>2020-08-09T12:56:49.650Z</time>
      </trkpt>
      <trkpt lat="41.727214" lon="2.157861">
        <ele>642.838913</ele>
        <time>2020-08-09T12:56:52.648Z</time>
      </trkpt>
      <trkpt lat="41.727217" lon="2.157695">
        <ele>642.766841</ele>
        <time>2020-08-09T12:56:55.661Z</time>
      </trkpt>
      <trkpt lat="41.727222" lon="2.157523">
        <ele>642.692129</ele>
        <time>2020-08-09T12:56:58.640Z</time>
      </trkpt>
      <trkpt lat="41.727223" lon="2.157356">
        <ele>642.619642</ele>
        <time>2020-08-09T12:57:01.643Z</time>
      </trkpt>
      <trkpt lat="41.727230" lon="2.157174">
        <ele>642.540541</ele>
        <time>2020-08-09T12:57:04.650Z</time>
      </trkpt>
      <trkpt lat="41.727221" lon="2.157050">
        <ele>642.486466</ele>
        <time>2020-08-09T12:57:06.660Z</time>
      </trkpt>
      <trkpt lat="41.727224" lon="2.156915">
        <ele>642.427844</ele>
        <time>2020-08-09T12:57:08.664Z</time>
      </trkpt>
      <trkpt lat="41.727221" lon="2.156774">
        <ele>642.366620</ele>
        <time>2020-08-09T12:57:10.667Z</time>
      </trkpt>
      <trkpt lat="41.727228" lon="2.156639">
        <ele>642.307883</ele>
        <time>2020-08-09T12:57:12.651Z</time>
      </trkpt>
      <trkpt lat="41.727224" lon="2.156501">
        <ele>642.247940</ele>
        <time>2020-08-09T12:57:14.648Z</time>
      </trkpt>
      <trkpt lat="41.727216" lon="2.156358">
        <ele>642.185697</ele>
        <time>2020-08-09T12:57:16.653Z</time>
      </trkpt>
      <trkpt lat="41.727227" lon="2.156221">
        <ele>642.125891</ele>
        <time>2020-08-09T12:57:18.661Z</time>
      </trkpt>
      <trkpt lat="41.727231" lon="2.156080">
        <ele>642.064646</ele>
        <time>2020-08-09T12:57:20.653Z</time>
      </trkpt>
      <trkpt lat="41.727233" lon="2.155933">
        <ele>642.000832</ele>
        <time>2020-08-09T12:57:22.621Z</time>
      </trkpt>
      <trkpt lat="41.727241" lon="2.155802">
        <ele>641.943782</ele>
        <time>2020-08-09T12:57:24.633Z</time>
      </trkpt>
      <trkpt lat="41.727244" lon="2.155674">
        <ele>641.888197</ele>
        <time>2020-08-09T12:57:26.653Z</time>
      </trkpt>
      <trkpt lat="41.727258" lon="2.155543">
        <ele>641.830758</ele>
        <time>2020-08-09T12:57:28.641Z</time>
      </trkpt>
      <trkpt lat="41.727264" lon="2.155411">
        <ele>641.824649</ele>
        <time>2020-08-09T12:57:30.660Z</time>
      </trkpt>
      <trkpt lat="41.727279" lon="2.155283">
        <ele>641.837023</ele>
        <time>2020-08-09T12:57:32.649Z</time>
      </trkpt>
      <trkpt lat="41.727285" lon="2.155152">
        <ele>641.849557</ele>
        <time>2020-08-09T12:57:34.643Z</time>
      </trkpt>
      <trkpt lat="41.727290" lon="2.155026">
        <ele>641.861607</ele>
        <time>2020-08-09T12:57:36.649Z</time>
      </trkpt>
      <trkpt lat="41.727300" lon="2.154906">
        <ele>641.873139</ele>
        <time>2020-08-09T12:57:38.643Z</time>
      </trkpt>
      <trkpt lat="41.727299" lon="2.154778">
        <ele>641.885364</ele>
        <time>2020-08-09T12:57:40.646Z</time>
      </trkpt>
      <trkpt lat="41.727297" lon="2.154651">
        <ele>641.897495</ele>
        <time>2020-08-09T12:57:42.651Z</time>
      </trkpt>
      <trkpt lat="41.727282" lon="2.154528">
        <ele>641.909397</ele>
        <time>2020-08-09T12:57:44.631Z</time>
      </trkpt>
      <trkpt lat="41.727279" lon="2.154356">
        <ele>641.925828</ele>
        <time>2020-08-09T12:57:47.623Z</time>
      </trkpt>
      <trkpt lat="41.727277" lon="2.154186">
        <ele>641.942065</ele>
        <time>2020-08-09T12:57:50.638Z</time>
      </trkpt>
      <trkpt lat="41.727255" lon="2.154033">
        <ele>641.956945</ele>
        <time>2020-08-09T12:57:53.644Z</time>
      </trkpt>
      <trkpt lat="41.727247" lon="2.153870">
        <ele>641.972546</ele>
        <time>2020-08-09T12:57:56.653Z</time>
      </trkpt>
      <trkpt lat="41.727235" lon="2.153707">
        <ele>641.988188</ele>
        <time>2020-08-09T12:57:59.650Z</time>
      </trkpt>
      <trkpt lat="41.727232" lon="2.153534">
        <ele>642.004714</ele>
        <time>2020-08-09T12:58:02.645Z</time>
      </trkpt>
      <trkpt lat="41.727218" lon="2.153373">
        <ele>642.020194</ele>
        <time>2020-08-09T12:58:05.648Z</time>
      </trkpt>
      <trkpt lat="41.727210" lon="2.153208">
        <ele>642.035985</ele>
        <time>2020-08-09T12:58:08.645Z</time>
      </trkpt>
      <trkpt lat="41.727212" lon="2.153050">
        <ele>642.227019</ele>
        <time>2020-08-09T12:58:11.623Z</time>
      </trkpt>
      <trkpt lat="41.727240" lon="2.152913">
        <ele>642.673079</ele>
        <time>2020-08-09T12:58:14.663Z</time>
      </trkpt>
      <trkpt lat="41.727301" lon="2.152780">
        <ele>643.163301</ele>
        <time>2020-08-09T12:58:17.658Z</time>
      </trkpt>
      <trkpt lat="41.727380" lon="2.152660">
        <ele>643.665794</ele>
        <time>2020-08-09T12:58:20.644Z</time>
      </trkpt>
      <trkpt lat="41.727435" lon="2.152563">
        <ele>644.048341</ele>
        <time>2020-08-09T12:58:22.624Z</time>
      </trkpt>
      <trkpt lat="41.727506" lon="2.152414">
        <ele>644.603481</ele>
        <time>2020-08-09T12:58:25.662Z</time>
      </trkpt>
      <trkpt lat="41.727551" lon="2.152304">
        <ele>644.997402</ele>
        <time>2020-08-09T12:58:27.645Z</time>
      </trkpt>
      <trkpt lat="41.727607" lon="2.152207">
        <ele>645.382509</ele>
        <time>2020-08-09T12:58:29.636Z</time>
      </trkpt>
      <trkpt lat="41.727673" lon="2.152062">
        <ele>645.915852</ele>
        <time>2020-08-09T12:58:32.641Z</time>
      </trkpt>
      <trkpt lat="41.727743" lon="2.151927">
        <ele>646.432064</ele>
        <time>2020-08-09T12:58:35.646Z</time>
      </trkpt>
      <trkpt lat="41.727801" lon="2.151816">
        <ele>646.857574</ele>
        <time>2020-08-09T12:58:38.651Z</time>
      </trkpt>
      <trkpt lat="41.727868" lon="2.151714">
        <ele>647.284274</ele>
        <time>2020-08-09T12:58:41.653Z</time>
      </trkpt>
      <trkpt lat="41.727975" lon="2.151645">
        <ele>647.783924</ele>
        <time>2020-08-09T12:58:45.651Z</time>
      </trkpt>
      <trkpt lat="41.728066" lon="2.151637">
        <ele>648.167646</ele>
        <time>2020-08-09T12:58:48.649Z</time>
      </trkpt>
      <trkpt lat="41.728156" lon="2.151630">
        <ele>648.546976</ele>
        <time>2020-08-09T12:58:51.625Z</time>
      </trkpt>
      <trkpt lat="41.728251" lon="2.151614">
        <ele>648.949852</ele>
        <time>2020-08-09T12:58:54.648Z</time>
      </trkpt>
      <trkpt lat="41.728354" lon="2.151597">
        <ele>649.386519</ele>
        <time>2020-08-09T12:58:57.646Z</time>
      </trkpt>
      <trkpt lat="41.728446" lon="2.151561">
        <ele>649.760964</ele>
        <time>2020-08-09T12:59:00.641Z</time>
      </trkpt>
      <trkpt lat="41.728519" lon="2.151486">
        <ele>650.084655</ele>
        <time>2020-08-09T12:59:03.652Z</time>
      </trkpt>
      <trkpt lat="41.728575" lon="2.151372">
        <ele>650.443063</ele>
        <time>2020-08-09T12:59:06.654Z</time>
      </trkpt>
      <trkpt lat="41.728620" lon="2.151233">
        <ele>650.840957</ele>
        <time>2020-08-09T12:59:09.657Z</time>
      </trkpt>
      <trkpt lat="41.728673" lon="2.151073">
        <ele>651.300662</ele>
        <time>2020-08-09T12:59:12.654Z</time>
      </trkpt>
      <trkpt lat="41.728749" lon="2.150930">
        <ele>651.761686</ele>
        <time>2020-08-09T12:59:15.656Z</time>
      </trkpt>
      <trkpt lat="41.728837" lon="2.150810">
        <ele>652.203494</ele>
        <time>2020-08-09T12:59:18.628Z</time>
      </trkpt>
      <trkpt lat="41.728922" lon="2.150719">
        <ele>652.586337</ele>
        <time>2020-08-09T12:59:21.634Z</time>
      </trkpt>
      <trkpt lat="41.729006" lon="2.150653">
        <ele>652.928985</ele>
        <time>2020-08-09T12:59:24.678Z</time>
      </trkpt>
      <trkpt lat="41.729080" lon="2.150562">
        <ele>653.282415</ele>
        <time>2020-08-09T12:59:27.684Z</time>
      </trkpt>
      <trkpt lat="41.729117" lon="2.150433">
        <ele>653.645337</ele>
        <time>2020-08-09T12:59:30.635Z</time>
      </trkpt>
      <trkpt lat="41.729117" lon="2.150295">
        <ele>654.007737</ele>
        <time>2020-08-09T12:59:33.646Z</time>
      </trkpt>
      <trkpt lat="41.729081" lon="2.150172">
        <ele>654.354697</ele>
        <time>2020-08-09T12:59:36.658Z</time>
      </trkpt>
      <trkpt lat="41.729010" lon="2.150063">
        <ele>654.734636</ele>
        <time>2020-08-09T12:59:39.639Z</time>
      </trkpt>
      <trkpt lat="41.728917" lon="2.149970">
        <ele>655.142972</ele>
        <time>2020-08-09T12:59:42.648Z</time>
      </trkpt>
      <trkpt lat="41.728823" lon="2.149881">
        <ele>655.547982</ele>
        <time>2020-08-09T12:59:45.649Z</time>
      </trkpt>
      <trkpt lat="41.728737" lon="2.149796">
        <ele>655.924019</ele>
        <time>2020-08-09T12:59:48.630Z</time>
      </trkpt>
      <trkpt lat="41.728654" lon="2.149724">
        <ele>656.156403</ele>
        <time>2020-08-09T12:59:51.634Z</time>
      </trkpt>
      <trkpt lat="41.728565" lon="2.149607">
        <ele>656.441141</ele>
        <time>2020-08-09T12:59:55.653Z</time>
      </trkpt>
      <trkpt lat="41.728498" lon="2.149489">
        <ele>656.693845</ele>
        <time>2020-08-09T12:59:58.641Z</time>
      </trkpt>
      <trkpt lat="41.728446" lon="2.149364">
        <ele>656.937752</ele>
        <time>2020-08-09T13:00:01.660Z</time>
      </trkpt>
      <trkpt lat="41.728398" lon="2.149226">
        <ele>657.197245</ele>
        <time>2020-08-09T13:00:04.649Z</time>
      </trkpt>
      <trkpt lat="41.728383" lon="2.149078">
        <ele>657.451806</ele>
        <time>2020-08-09T13:00:07.646Z</time>
      </trkpt>
      <trkpt lat="41.728367" lon="2.148930">
        <ele>657.706685</ele>
        <time>2020-08-09T13:00:10.655Z</time>
      </trkpt>
      <trkpt lat="41.728357" lon="2.148769">
        <ele>657.982037</ele>
        <time>2020-08-09T13:00:13.646Z</time>
      </trkpt>
      <trkpt lat="41.728346" lon="2.148614">
        <ele>658.247406</ele>
        <time>2020-08-09T13:00:16.643Z</time>
      </trkpt>
      <trkpt lat="41.728335" lon="2.148460">
        <ele>658.511078</ele>
        <time>2020-08-09T13:00:19.651Z</time>
      </trkpt>
      <trkpt lat="41.728324" lon="2.148306">
        <ele>658.774750</ele>
        <time>2020-08-09T13:00:22.655Z</time>
      </trkpt>
      <trkpt lat="41.728331" lon="2.148166">
        <ele>659.013896</ele>
        <time>2020-08-09T13:00:25.643Z</time>
      </trkpt>
      <trkpt lat="41.728429" lon="2.148123">
        <ele>659.249396</ele>
        <time>2020-08-09T13:00:28.650Z</time>
      </trkpt>
      <trkpt lat="41.728553" lon="2.148123">
        <ele>659.532578</ele>
        <time>2020-08-09T13:00:31.643Z</time>
      </trkpt>
      <trkpt lat="41.728679" lon="2.148117">
        <ele>659.820509</ele>
        <time>2020-08-09T13:00:34.650Z</time>
      </trkpt>
      <trkpt lat="41.728788" lon="2.148089">
        <ele>660.076726</ele>
        <time>2020-08-09T13:00:37.647Z</time>
      </trkpt>
      <trkpt lat="41.728866" lon="2.148017">
        <ele>660.318316</ele>
        <time>2020-08-09T13:00:40.654Z</time>
      </trkpt>
      <trkpt lat="41.728924" lon="2.147910">
        <ele>660.570052</ele>
        <time>2020-08-09T13:00:44.647Z</time>
      </trkpt>
      <trkpt lat="41.728972" lon="2.147801">
        <ele>660.810967</ele>
        <time>2020-08-09T13:00:49.633Z</time>
      </trkpt>
      <trkpt lat="41.729046" lon="2.147720">
        <ele>661.054687</ele>
        <time>2020-08-09T13:00:54.650Z</time>
      </trkpt>
      <trkpt lat="41.729110" lon="2.147631">
        <ele>661.289952</ele>
        <time>2020-08-09T13:01:00.650Z</time>
      </trkpt>
      <trkpt lat="41.729177" lon="2.147540">
        <ele>661.533284</ele>
        <time>2020-08-09T13:01:05.663Z</time>
      </trkpt>
      <trkpt lat="41.729252" lon="2.147459">
        <ele>661.778984</ele>
        <time>2020-08-09T13:01:09.653Z</time>
      </trkpt>
      <trkpt lat="41.729338" lon="2.147399">
        <ele>662.026292</ele>
        <time>2020-08-09T13:01:12.650Z</time>
      </trkpt>
      <trkpt lat="41.729426" lon="2.147329">
        <ele>662.287320</ele>
        <time>2020-08-09T13:01:15.641Z</time>
      </trkpt>
      <trkpt lat="41.729536" lon="2.147233">
        <ele>662.622154</ele>
        <time>2020-08-09T13:01:18.658Z</time>
      </trkpt>
      <trkpt lat="41.729604" lon="2.147141">
        <ele>662.868632</ele>
        <time>2020-08-09T13:01:20.644Z</time>
      </trkpt>
      <trkpt lat="41.729653" lon="2.147027">
        <ele>663.119053</ele>
        <time>2020-08-09T13:01:22.632Z</time>
      </trkpt>
      <trkpt lat="41.729681" lon="2.146908">
        <ele>663.356565</ele>
        <time>2020-08-09T13:01:24.644Z</time>
      </trkpt>
      <trkpt lat="41.729692" lon="2.146779">
        <ele>663.603718</ele>
        <time>2020-08-09T13:01:26.647Z</time>
      </trkpt>
      <trkpt lat="41.729700" lon="2.146651">
        <ele>663.848222</ele>
        <time>2020-08-09T13:01:28.639Z</time>
      </trkpt>
      <trkpt lat="41.729713" lon="2.146531">
        <ele>664.079040</ele>
        <time>2020-08-09T13:01:30.651Z</time>
      </trkpt>
      <trkpt lat="41.729723" lon="2.146352">
        <ele>664.420725</ele>
        <time>2020-08-09T13:01:33.664Z</time>
      </trkpt>
      <trkpt lat="41.729720" lon="2.146205">
        <ele>664.626995</ele>
        <time>2020-08-09T13:01:36.645Z</time>
      </trkpt>
      <trkpt lat="41.729742" lon="2.146080">
        <ele>664.583703</ele>
        <time>2020-08-09T13:01:39.644Z</time>
      </trkpt>
      <trkpt lat="41.729766" lon="2.145941">
        <ele>664.535609</ele>
        <time>2020-08-09T13:01:42.649Z</time>
      </trkpt>
      <trkpt lat="41.729769" lon="2.145810">
        <ele>664.491430</ele>
        <time>2020-08-09T13:01:45.647Z</time>
      </trkpt>
      <trkpt lat="41.729782" lon="2.145663">
        <ele>664.441531</ele>
        <time>2020-08-09T13:01:48.645Z</time>
      </trkpt>
      <trkpt lat="41.729785" lon="2.145522">
        <ele>664.393981</ele>
        <time>2020-08-09T13:01:51.657Z</time>
      </trkpt>
      <trkpt lat="41.729796" lon="2.145393">
        <ele>664.350214</ele>
        <time>2020-08-09T13:01:55.649Z</time>
      </trkpt>
      <trkpt lat="41.729725" lon="2.145265">
        <ele>664.296453</ele>
        <time>2020-08-09T13:01:59.630Z</time>
      </trkpt>
      <trkpt lat="41.729661" lon="2.145173">
        <ele>664.254057</ele>
        <time>2020-08-09T13:02:02.641Z</time>
      </trkpt>
      <trkpt lat="41.729597" lon="2.145073">
        <ele>664.209650</ele>
        <time>2020-08-09T13:02:05.646Z</time>
      </trkpt>
      <trkpt lat="41.729522" lon="2.144978">
        <ele>664.163033</ele>
        <time>2020-08-09T13:02:08.648Z</time>
      </trkpt>
      <trkpt lat="41.729446" lon="2.144885">
        <ele>664.116544</ele>
        <time>2020-08-09T13:02:11.647Z</time>
      </trkpt>
      <trkpt lat="41.729366" lon="2.144777">
        <ele>664.065249</ele>
        <time>2020-08-09T13:02:15.628Z</time>
      </trkpt>
      <trkpt lat="41.729364" lon="2.144630">
        <ele>664.015688</ele>
        <time>2020-08-09T13:02:19.647Z</time>
      </trkpt>
      <trkpt lat="41.729441" lon="2.144508">
        <ele>663.961828</ele>
        <time>2020-08-09T13:02:22.627Z</time>
      </trkpt>
      <trkpt lat="41.729500" lon="2.144358">
        <ele>663.904671</ele>
        <time>2020-08-09T13:02:25.641Z</time>
      </trkpt>
      <trkpt lat="41.729568" lon="2.144218">
        <ele>663.848363</ele>
        <time>2020-08-09T13:02:28.652Z</time>
      </trkpt>
      <trkpt lat="41.729637" lon="2.144110">
        <ele>664.039687</ele>
        <time>2020-08-09T13:02:31.656Z</time>
      </trkpt>
      <trkpt lat="41.729704" lon="2.144017">
        <ele>664.409607</ele>
        <time>2020-08-09T13:02:34.652Z</time>
      </trkpt>
      <trkpt lat="41.729776" lon="2.143908">
        <ele>664.826176</ele>
        <time>2020-08-09T13:02:37.650Z</time>
      </trkpt>
      <trkpt lat="41.729855" lon="2.143826">
        <ele>665.209370</ele>
        <time>2020-08-09T13:02:40.645Z</time>
      </trkpt>
      <trkpt lat="41.729936" lon="2.143759">
        <ele>665.574389</ele>
        <time>2020-08-09T13:02:43.655Z</time>
      </trkpt>
      <trkpt lat="41.730035" lon="2.143682">
        <ele>666.013336</ele>
        <time>2020-08-09T13:02:47.655Z</time>
      </trkpt>
      <trkpt lat="41.730123" lon="2.143600">
        <ele>666.424356</ele>
        <time>2020-08-09T13:02:51.656Z</time>
      </trkpt>
      <trkpt lat="41.730183" lon="2.143465">
        <ele>666.874012</ele>
        <time>2020-08-09T13:02:55.651Z</time>
      </trkpt>
      <trkpt lat="41.730224" lon="2.143343">
        <ele>667.256911</ele>
        <time>2020-08-09T13:02:58.636Z</time>
      </trkpt>
      <trkpt lat="41.730264" lon="2.143232">
        <ele>667.609658</ele>
        <time>2020-08-09T13:03:01.643Z</time>
      </trkpt>
      <trkpt lat="41.730320" lon="2.143105">
        <ele>668.031798</ele>
        <time>2020-08-09T13:03:05.660Z</time>
      </trkpt>
      <trkpt lat="41.730358" lon="2.142980">
        <ele>668.418055</ele>
        <time>2020-08-09T13:03:08.656Z</time>
      </trkpt>
      <trkpt lat="41.730408" lon="2.142838">
        <ele>668.867381</ele>
        <time>2020-08-09T13:03:11.645Z</time>
      </trkpt>
      <trkpt lat="41.730452" lon="2.142695">
        <ele>669.310026</ele>
        <time>2020-08-09T13:03:14.651Z</time>
      </trkpt>
      <trkpt lat="41.730505" lon="2.142577">
        <ele>669.704152</ele>
        <time>2020-08-09T13:03:17.646Z</time>
      </trkpt>
      <trkpt lat="41.730555" lon="2.142444">
        <ele>670.130327</ele>
        <time>2020-08-09T13:03:20.655Z</time>
      </trkpt>
      <trkpt lat="41.730605" lon="2.142294">
        <ele>670.600458</ele>
        <time>2020-08-09T13:03:23.646Z</time>
      </trkpt>
      <trkpt lat="41.730648" lon="2.142141">
        <ele>670.954198</ele>
        <time>2020-08-09T13:03:26.651Z</time>
      </trkpt>
      <trkpt lat="41.730689" lon="2.141983">
        <ele>671.274796</ele>
        <time>2020-08-09T13:03:29.640Z</time>
      </trkpt>
      <trkpt lat="41.730723" lon="2.141825">
        <ele>671.589948</ele>
        <time>2020-08-09T13:03:32.635Z</time>
      </trkpt>
      <trkpt lat="41.730767" lon="2.141666">
        <ele>671.914954</ele>
        <time>2020-08-09T13:03:35.646Z</time>
      </trkpt>
      <trkpt lat="41.730819" lon="2.141530">
        <ele>672.207823</ele>
        <time>2020-08-09T13:03:38.646Z</time>
      </trkpt>
      <trkpt lat="41.730885" lon="2.141420">
        <ele>672.478329</ele>
        <time>2020-08-09T13:03:42.662Z</time>
      </trkpt>
      <trkpt lat="41.730920" lon="2.141304">
        <ele>672.718131</ele>
        <time>2020-08-09T13:03:45.651Z</time>
      </trkpt>
      <trkpt lat="41.730961" lon="2.141192">
        <ele>672.957217</ele>
        <time>2020-08-09T13:03:48.649Z</time>
      </trkpt>
      <trkpt lat="41.730992" lon="2.141077">
        <ele>673.191556</ele>
        <time>2020-08-09T13:03:51.644Z</time>
      </trkpt>
      <trkpt lat="41.731062" lon="2.140957">
        <ele>673.483463</ele>
        <time>2020-08-09T13:03:55.652Z</time>
      </trkpt>
      <trkpt lat="41.731140" lon="2.140855">
        <ele>673.763357</ele>
        <time>2020-08-09T13:03:59.659Z</time>
      </trkpt>
      <trkpt lat="41.731201" lon="2.140760">
        <ele>674.003546</ele>
        <time>2020-08-09T13:04:02.644Z</time>
      </trkpt>
      <trkpt lat="41.731267" lon="2.140646">
        <ele>674.280068</ele>
        <time>2020-08-09T13:04:05.650Z</time>
      </trkpt>
      <trkpt lat="41.731340" lon="2.140567">
        <ele>674.521044</ele>
        <time>2020-08-09T13:04:08.655Z</time>
      </trkpt>
      <trkpt lat="41.731432" lon="2.140486">
        <ele>674.803748</ele>
        <time>2020-08-09T13:04:12.640Z</time>
      </trkpt>
      <trkpt lat="41.731499" lon="2.140390">
        <ele>675.055655</ele>
        <time>2020-08-09T13:04:16.646Z</time>
      </trkpt>
      <trkpt lat="41.731578" lon="2.140291">
        <ele>675.333433</ele>
        <time>2020-08-09T13:04:21.647Z</time>
      </trkpt>
      <trkpt lat="41.731658" lon="2.140217">
        <ele>675.659255</ele>
        <time>2020-08-09T13:04:27.636Z</time>
      </trkpt>
      <trkpt lat="41.731741" lon="2.140149">
        <ele>675.988014</ele>
        <time>2020-08-09T13:04:33.660Z</time>
      </trkpt>
      <trkpt lat="41.731833" lon="2.140091">
        <ele>676.331606</ele>
        <time>2020-08-09T13:04:39.661Z</time>
      </trkpt>
      <trkpt lat="41.731909" lon="2.140024">
        <ele>676.639035</ele>
        <time>2020-08-09T13:04:44.660Z</time>
      </trkpt>
      <trkpt lat="41.731993" lon="2.139965">
        <ele>676.959535</ele>
        <time>2020-08-09T13:04:51.661Z</time>
      </trkpt>
      <trkpt lat="41.732069" lon="2.139879">
        <ele>677.295691</ele>
        <time>2020-08-09T13:04:59.662Z</time>
      </trkpt>
      <trkpt lat="41.732154" lon="2.139796">
        <ele>677.651113</ele>
        <time>2020-08-09T13:05:07.700Z</time>
      </trkpt>
      <trkpt lat="41.732231" lon="2.139727">
        <ele>677.964146</ele>
        <time>2020-08-09T13:05:12.668Z</time>
      </trkpt>
      <trkpt lat="41.732315" lon="2.139680">
        <ele>678.271766</ele>
        <time>2020-08-09T13:05:18.672Z</time>
      </trkpt>
      <trkpt lat="41.732423" lon="2.139638">
        <ele>678.651797</ele>
        <time>2020-08-09T13:05:23.647Z</time>
      </trkpt>
      <trkpt lat="41.732511" lon="2.139609">
        <ele>678.958042</ele>
        <time>2020-08-09T13:05:27.663Z</time>
      </trkpt>
      <trkpt lat="41.732619" lon="2.139582">
        <ele>679.329311</ele>
        <time>2020-08-09T13:05:32.670Z</time>
      </trkpt>
      <trkpt lat="41.732710" lon="2.139555">
        <ele>679.644282</ele>
        <time>2020-08-09T13:05:36.648Z</time>
      </trkpt>
      <trkpt lat="41.732809" lon="2.139531">
        <ele>679.984270</ele>
        <time>2020-08-09T13:05:40.659Z</time>
      </trkpt>
      <trkpt lat="41.732905" lon="2.139520">
        <ele>680.309873</ele>
        <time>2020-08-09T13:05:44.651Z</time>
      </trkpt>
      <trkpt lat="41.733010" lon="2.139507">
        <ele>680.666218</ele>
        <time>2020-08-09T13:05:48.651Z</time>
      </trkpt>
      <trkpt lat="41.733114" lon="2.139457">
        <ele>681.039608</ele>
        <time>2020-08-09T13:05:52.660Z</time>
      </trkpt>
      <trkpt lat="41.733211" lon="2.139382">
        <ele>681.418060</ele>
        <time>2020-08-09T13:05:56.655Z</time>
      </trkpt>
      <trkpt lat="41.733285" lon="2.139283">
        <ele>681.445416</ele>
        <time>2020-08-09T13:06:00.651Z</time>
      </trkpt>
      <trkpt lat="41.733370" lon="2.139189">
        <ele>681.472145</ele>
        <time>2020-08-09T13:06:05.651Z</time>
      </trkpt>
      <trkpt lat="41.733456" lon="2.139097">
        <ele>681.498833</ele>
        <time>2020-08-09T13:06:09.646Z</time>
      </trkpt>
      <trkpt lat="41.733528" lon="2.139017">
        <ele>681.521517</ele>
        <time>2020-08-09T13:06:12.651Z</time>
      </trkpt>
      <trkpt lat="41.733595" lon="2.138899">
        <ele>681.548352</ele>
        <time>2020-08-09T13:06:16.656Z</time>
      </trkpt>
      <trkpt lat="41.733661" lon="2.138787">
        <ele>681.574181</ele>
        <time>2020-08-09T13:06:19.645Z</time>
      </trkpt>
      <trkpt lat="41.733725" lon="2.138697">
        <ele>681.596680</ele>
        <time>2020-08-09T13:06:22.643Z</time>
      </trkpt>
      <trkpt lat="41.733795" lon="2.138574">
        <ele>681.624676</ele>
        <time>2020-08-09T13:06:26.645Z</time>
      </trkpt>
      <trkpt lat="41.733843" lon="2.138470">
        <ele>681.646808</ele>
        <time>2020-08-09T13:06:30.649Z</time>
      </trkpt>
      <trkpt lat="41.733902" lon="2.138366">
        <ele>681.670452</ele>
        <time>2020-08-09T13:06:33.650Z</time>
      </trkpt>
      <trkpt lat="41.733958" lon="2.138266">
        <ele>681.693079</ele>
        <time>2020-08-09T13:06:37.649Z</time>
      </trkpt>
      <trkpt lat="41.734035" lon="2.138176">
        <ele>681.717859</ele>
        <time>2020-08-09T13:06:41.648Z</time>
      </trkpt>
      <trkpt lat="41.734104" lon="2.138084">
        <ele>681.741466</ele>
        <time>2020-08-09T13:06:45.645Z</time>
      </trkpt>
      <trkpt lat="41.734186" lon="2.138010">
        <ele>681.765442</ele>
        <time>2020-08-09T13:06:50.650Z</time>
      </trkpt>
      <trkpt lat="41.734238" lon="2.137906">
        <ele>681.788099</ele>
        <time>2020-08-09T13:07:06.651Z</time>
      </trkpt>
      <trkpt lat="41.734288" lon="2.137792">
        <ele>681.812031</ele>
        <time>2020-08-09T13:07:15.656Z</time>
      </trkpt>
      <trkpt lat="41.734353" lon="2.137694">
        <ele>681.835760</ele>
        <time>2020-08-09T13:07:23.649Z</time>
      </trkpt>
      <trkpt lat="41.734414" lon="2.137594">
        <ele>681.913566</ele>
        <time>2020-08-09T13:07:31.640Z</time>
      </trkpt>
      <trkpt lat="41.734534" lon="2.137377">
        <ele>682.945615</ele>
        <time>2020-08-09T13:08:48.654Z</time>
      </trkpt>
      <trkpt lat="41.734622" lon="2.137286">
        <ele>683.514790</ele>
        <time>2020-08-09T13:08:53.630Z</time>
      </trkpt>
      <trkpt lat="41.734667" lon="2.137175">
        <ele>683.997487</ele>
        <time>2020-08-09T13:09:08.635Z</time>
      </trkpt>
      <trkpt lat="41.734709" lon="2.137059">
        <ele>684.490158</ele>
        <time>2020-08-09T13:09:20.628Z</time>
      </trkpt>
      <trkpt lat="41.734742" lon="2.136943">
        <ele>684.964527</ele>
        <time>2020-08-09T13:09:30.652Z</time>
      </trkpt>
      <trkpt lat="41.734768" lon="2.136827">
        <ele>685.427341</ele>
        <time>2020-08-09T13:09:44.668Z</time>
      </trkpt>
      <trkpt lat="41.734800" lon="2.136701">
        <ele>685.935923</ele>
        <time>2020-08-09T13:09:51.655Z</time>
      </trkpt>
      <trkpt lat="41.734821" lon="2.136574">
        <ele>686.432978</ele>
        <time>2020-08-09T13:09:59.652Z</time>
      </trkpt>
      <trkpt lat="41.734870" lon="2.136466">
        <ele>686.915948</ele>
        <time>2020-08-09T13:10:06.659Z</time>
      </trkpt>
      <trkpt lat="41.734937" lon="2.136369">
        <ele>687.421006</ele>
        <time>2020-08-09T13:10:14.656Z</time>
      </trkpt>
      <trkpt lat="41.735016" lon="2.136306">
        <ele>687.891740</ele>
        <time>2020-08-09T13:10:21.692Z</time>
      </trkpt>
      <trkpt lat="41.735099" lon="2.136246">
        <ele>688.374641</ele>
        <time>2020-08-09T13:10:29.653Z</time>
      </trkpt>
      <trkpt lat="41.735198" lon="2.136237">
        <ele>688.882741</ele>
        <time>2020-08-09T13:10:37.660Z</time>
      </trkpt>
      <trkpt lat="41.735291" lon="2.136242">
        <ele>689.359336</ele>
        <time>2020-08-09T13:10:49.648Z</time>
      </trkpt>
      <trkpt lat="41.735393" lon="2.136248">
        <ele>689.882135</ele>
        <time>2020-08-09T13:10:58.652Z</time>
      </trkpt>
      <trkpt lat="41.735473" lon="2.136186">
        <ele>690.355352</ele>
        <time>2020-08-09T13:11:08.650Z</time>
      </trkpt>
      <trkpt lat="41.735549" lon="2.136116">
        <ele>690.827571</ele>
        <time>2020-08-09T13:11:22.645Z</time>
      </trkpt>
      <trkpt lat="41.735637" lon="2.136063">
        <ele>691.259497</ele>
        <time>2020-08-09T13:11:40.658Z</time>
      </trkpt>
      <trkpt lat="41.735729" lon="2.136064">
        <ele>691.615929</ele>
        <time>2020-08-09T13:11:59.693Z</time>
      </trkpt>
      <trkpt lat="41.735830" lon="2.136034">
        <ele>692.016712</ele>
        <time>2020-08-09T13:12:05.641Z</time>
      </trkpt>
      <trkpt lat="41.735920" lon="2.136004">
        <ele>692.376008</ele>
        <time>2020-08-09T13:12:09.645Z</time>
      </trkpt>
      <trkpt lat="41.736016" lon="2.135950">
        <ele>692.779359</ele>
        <time>2020-08-09T13:12:15.651Z</time>
      </trkpt>
      <trkpt lat="41.736100" lon="2.135901">
        <ele>693.134281</ele>
        <time>2020-08-09T13:12:20.648Z</time>
      </trkpt>
      <trkpt lat="41.736185" lon="2.135848">
        <ele>693.497482</ele>
        <time>2020-08-09T13:12:26.648Z</time>
      </trkpt>
      <trkpt lat="41.736269" lon="2.135768">
        <ele>693.896720</ele>
        <time>2020-08-09T13:12:32.651Z</time>
      </trkpt>
      <trkpt lat="41.736339" lon="2.135680">
        <ele>694.268558</ele>
        <time>2020-08-09T13:12:38.652Z</time>
      </trkpt>
      <trkpt lat="41.736412" lon="2.135599">
        <ele>694.635731</ele>
        <time>2020-08-09T13:12:44.647Z</time>
      </trkpt>
      <trkpt lat="41.736491" lon="2.135535">
        <ele>694.993366</ele>
        <time>2020-08-09T13:12:48.647Z</time>
      </trkpt>
      <trkpt lat="41.736596" lon="2.135474">
        <ele>695.436728</ele>
        <time>2020-08-09T13:12:52.647Z</time>
      </trkpt>
      <trkpt lat="41.736697" lon="2.135428">
        <ele>695.849995</ele>
        <time>2020-08-09T13:12:56.652Z</time>
      </trkpt>
      <trkpt lat="41.736790" lon="2.135398">
        <ele>696.220580</ele>
        <time>2020-08-09T13:13:00.659Z</time>
      </trkpt>
      <trkpt lat="41.736893" lon="2.135362">
        <ele>696.632964</ele>
        <time>2020-08-09T13:13:04.650Z</time>
      </trkpt>
      <trkpt lat="41.737008" lon="2.135313">
        <ele>697.100466</ele>
        <time>2020-08-09T13:13:08.692Z</time>
      </trkpt>
      <trkpt lat="41.737100" lon="2.135278">
        <ele>697.470969</ele>
        <time>2020-08-09T13:13:11.650Z</time>
      </trkpt>
      <trkpt lat="41.737193" lon="2.135258">
        <ele>697.835872</ele>
        <time>2020-08-09T13:13:14.645Z</time>
      </trkpt>
      <trkpt lat="41.737296" lon="2.135247">
        <ele>698.174535</ele>
        <time>2020-08-09T13:13:17.646Z</time>
      </trkpt>
      <trkpt lat="41.737389" lon="2.135227">
        <ele>698.427829</ele>
        <time>2020-08-09T13:13:20.655Z</time>
      </trkpt>
      <trkpt lat="41.737503" lon="2.135212">
        <ele>698.735871</ele>
        <time>2020-08-09T13:13:24.643Z</time>
      </trkpt>
      <trkpt lat="41.737596" lon="2.135213">
        <ele>698.985973</ele>
        <time>2020-08-09T13:13:27.645Z</time>
      </trkpt>
      <trkpt lat="41.737686" lon="2.135214">
        <ele>699.228008</ele>
        <time>2020-08-09T13:13:30.647Z</time>
      </trkpt>
      <trkpt lat="41.737800" lon="2.135234">
        <ele>699.537191</ele>
        <time>2020-08-09T13:13:34.642Z</time>
      </trkpt>
      <trkpt lat="41.737899" lon="2.135230">
        <ele>699.803541</ele>
        <time>2020-08-09T13:13:37.659Z</time>
      </trkpt>
      <trkpt lat="41.738008" lon="2.135228">
        <ele>700.096690</ele>
        <time>2020-08-09T13:13:41.645Z</time>
      </trkpt>
      <trkpt lat="41.738109" lon="2.135209">
        <ele>700.370961</ele>
        <time>2020-08-09T13:13:45.646Z</time>
      </trkpt>
      <trkpt lat="41.738226" lon="2.135174">
        <ele>700.693339</ele>
        <time>2020-08-09T13:13:49.647Z</time>
      </trkpt>
      <trkpt lat="41.738328" lon="2.135158">
        <ele>700.969509</ele>
        <time>2020-08-09T13:13:53.645Z</time>
      </trkpt>
      <trkpt lat="41.738433" lon="2.135123">
        <ele>701.260477</ele>
        <time>2020-08-09T13:13:57.643Z</time>
      </trkpt>
      <trkpt lat="41.738538" lon="2.135093">
        <ele>701.549187</ele>
        <time>2020-08-09T13:14:01.664Z</time>
      </trkpt>
      <trkpt lat="41.738652" lon="2.135061">
        <ele>701.862407</ele>
        <time>2020-08-09T13:14:05.642Z</time>
      </trkpt>
      <trkpt lat="41.738750" lon="2.135060">
        <ele>702.125955</ele>
        <time>2020-08-09T13:14:09.658Z</time>
      </trkpt>
      <trkpt lat="41.738857" lon="2.135066">
        <ele>702.413949</ele>
        <time>2020-08-09T13:14:14.645Z</time>
      </trkpt>
      <trkpt lat="41.738965" lon="2.135049">
        <ele>702.706378</ele>
        <time>2020-08-09T13:14:20.657Z</time>
      </trkpt>
      <trkpt lat="41.739055" lon="2.135064">
        <ele>702.883800</ele>
        <time>2020-08-09T13:14:25.643Z</time>
      </trkpt>
      <trkpt lat="41.739165" lon="2.135107">
        <ele>702.931794</ele>
        <time>2020-08-09T13:14:30.645Z</time>
      </trkpt>
      <trkpt lat="41.739266" lon="2.135145">
        <ele>702.975733</ele>
        <time>2020-08-09T13:14:33.631Z</time>
      </trkpt>
      <trkpt lat="41.739360" lon="2.135173">
        <ele>703.016065</ele>
        <time>2020-08-09T13:14:36.651Z</time>
      </trkpt>
      <trkpt lat="41.739477" lon="2.135214">
        <ele>703.066718</ele>
        <time>2020-08-09T13:14:39.642Z</time>
      </trkpt>
      <trkpt lat="41.739583" lon="2.135255">
        <ele>703.112929</ele>
        <time>2020-08-09T13:14:42.644Z</time>
      </trkpt>
      <trkpt lat="41.739658" lon="2.135156">
        <ele>703.157021</ele>
        <time>2020-08-09T13:14:47.661Z</time>
      </trkpt>
      <trkpt lat="41.739700" lon="2.135040">
        <ele>703.197318</ele>
        <time>2020-08-09T13:14:52.652Z</time>
      </trkpt>
      <trkpt lat="41.739738" lon="2.134912">
        <ele>703.240372</ele>
        <time>2020-08-09T13:14:57.642Z</time>
      </trkpt>
      <trkpt lat="41.739802" lon="2.134812">
        <ele>703.281547</ele>
        <time>2020-08-09T13:15:02.643Z</time>
      </trkpt>
      <trkpt lat="41.739887" lon="2.134755">
        <ele>703.321358</ele>
        <time>2020-08-09T13:15:06.647Z</time>
      </trkpt>
      <trkpt lat="41.739993" lon="2.134703">
        <ele>703.368637</ele>
        <time>2020-08-09T13:15:10.645Z</time>
      </trkpt>
      <trkpt lat="41.740099" lon="2.134648">
        <ele>703.416246</ele>
        <time>2020-08-09T13:15:14.635Z</time>
      </trkpt>
      <trkpt lat="41.740188" lon="2.134583">
        <ele>703.458700</ele>
        <time>2020-08-09T13:15:18.641Z</time>
      </trkpt>
      <trkpt lat="41.740282" lon="2.134517">
        <ele>703.503147</ele>
        <time>2020-08-09T13:15:22.645Z</time>
      </trkpt>
      <trkpt lat="41.740377" lon="2.134457">
        <ele>703.547135</ele>
        <time>2020-08-09T13:15:26.645Z</time>
      </trkpt>
      <trkpt lat="41.740467" lon="2.134396">
        <ele>703.589378</ele>
        <time>2020-08-09T13:15:30.657Z</time>
      </trkpt>
      <trkpt lat="41.740549" lon="2.134326">
        <ele>703.699884</ele>
        <time>2020-08-09T13:15:34.645Z</time>
      </trkpt>
      <trkpt lat="41.740652" lon="2.134258">
        <ele>704.393062</ele>
        <time>2020-08-09T13:15:39.638Z</time>
      </trkpt>
      <trkpt lat="41.740757" lon="2.134196">
        <ele>705.085760</ele>
        <time>2020-08-09T13:15:43.640Z</time>
      </trkpt>
      <trkpt lat="41.740832" lon="2.134118">
        <ele>705.658884</ele>
        <time>2020-08-09T13:16:12.639Z</time>
      </trkpt>
      <trkpt lat="41.740852" lon="2.133993">
        <ele>706.234769</ele>
        <time>2020-08-09T13:16:25.626Z</time>
      </trkpt>
      <trkpt lat="41.740854" lon="2.133872">
        <ele>706.779969</ele>
        <time>2020-08-09T13:16:36.637Z</time>
      </trkpt>
      <trkpt lat="41.740891" lon="2.133755">
        <ele>707.352398</ele>
        <time>2020-08-09T13:16:44.635Z</time>
      </trkpt>
      <trkpt lat="41.740954" lon="2.133660">
        <ele>707.924931</ele>
        <time>2020-08-09T13:17:15.645Z</time>
      </trkpt>
      <trkpt lat="41.741027" lon="2.133578">
        <ele>708.499969</ele>
        <time>2020-08-09T13:17:34.647Z</time>
      </trkpt>
      <trkpt lat="41.741121" lon="2.133532">
        <ele>709.104106</ele>
        <time>2020-08-09T13:17:45.640Z</time>
      </trkpt>
      <trkpt lat="41.741195" lon="2.133447">
        <ele>709.692487</ele>
        <time>2020-08-09T13:18:00.649Z</time>
      </trkpt>
      <trkpt lat="41.741284" lon="2.133407">
        <ele>710.259199</ele>
        <time>2020-08-09T13:18:13.654Z</time>
      </trkpt>
      <trkpt lat="41.741343" lon="2.133309">
        <ele>710.826433</ele>
        <time>2020-08-09T13:18:20.662Z</time>
      </trkpt>
      <trkpt lat="41.741416" lon="2.133235">
        <ele>711.379012</ele>
        <time>2020-08-09T13:18:29.643Z</time>
      </trkpt>
      <trkpt lat="41.741512" lon="2.133189">
        <ele>711.994505</ele>
        <time>2020-08-09T13:18:40.638Z</time>
      </trkpt>
      <trkpt lat="41.741608" lon="2.133190">
        <ele>712.574086</ele>
        <time>2020-08-09T13:18:48.643Z</time>
      </trkpt>
      <trkpt lat="41.741692" lon="2.133136">
        <ele>713.136527</ele>
        <time>2020-08-09T13:18:56.647Z</time>
      </trkpt>
      <trkpt lat="41.741781" lon="2.133083">
        <ele>713.724485</ele>
        <time>2020-08-09T13:19:16.667Z</time>
      </trkpt>
      <trkpt lat="41.741848" lon="2.132986">
        <ele>714.319911</ele>
        <time>2020-08-09T13:19:28.640Z</time>
      </trkpt>
      <trkpt lat="41.741927" lon="2.132922">
        <ele>714.689909</ele>
        <time>2020-08-09T13:19:35.647Z</time>
      </trkpt>
      <trkpt lat="41.742018" lon="2.132855">
        <ele>715.018515</ele>
        <time>2020-08-09T13:19:42.643Z</time>
      </trkpt>
      <trkpt lat="41.742103" lon="2.132809">
        <ele>715.308636</ele>
        <time>2020-08-09T13:19:49.644Z</time>
      </trkpt>
      <trkpt lat="41.742278" lon="2.132738">
        <ele>715.887317</ele>
        <time>2020-08-09T13:20:23.649Z</time>
      </trkpt>
      <trkpt lat="41.742370" lon="2.132717">
        <ele>716.182681</ele>
        <time>2020-08-09T13:20:33.644Z</time>
      </trkpt>
      <trkpt lat="41.742469" lon="2.132687">
        <ele>716.503916</ele>
        <time>2020-08-09T13:20:43.641Z</time>
      </trkpt>
      <trkpt lat="41.742574" lon="2.132648">
        <ele>716.848757</ele>
        <time>2020-08-09T13:21:55.641Z</time>
      </trkpt>
      <trkpt lat="41.742671" lon="2.132603">
        <ele>717.173625</ele>
        <time>2020-08-09T13:22:03.661Z</time>
      </trkpt>
      <trkpt lat="41.742755" lon="2.132559">
        <ele>717.459061</ele>
        <time>2020-08-09T13:22:07.626Z</time>
      </trkpt>
      <trkpt lat="41.742838" lon="2.132511">
        <ele>717.745160</ele>
        <time>2020-08-09T13:22:11.650Z</time>
      </trkpt>
      <trkpt lat="41.742925" lon="2.132465">
        <ele>718.041160</ele>
        <time>2020-08-09T13:22:17.641Z</time>
      </trkpt>
      <trkpt lat="41.743043" lon="2.132353">
        <ele>718.498788</ele>
        <time>2020-08-09T13:22:50.641Z</time>
      </trkpt>
      <trkpt lat="41.743129" lon="2.132301">
        <ele>718.797387</ele>
        <time>2020-08-09T13:22:58.639Z</time>
      </trkpt>
      <trkpt lat="41.743213" lon="2.132245">
        <ele>719.094313</ele>
        <time>2020-08-09T13:23:06.649Z</time>
      </trkpt>
      <trkpt lat="41.743289" lon="2.132171">
        <ele>719.391623</ele>
        <time>2020-08-09T13:23:16.636Z</time>
      </trkpt>
      <trkpt lat="41.743360" lon="2.132094">
        <ele>719.680684</ele>
        <time>2020-08-09T13:23:25.657Z</time>
      </trkpt>
      <trkpt lat="41.743444" lon="2.132034">
        <ele>719.981936</ele>
        <time>2020-08-09T13:23:34.639Z</time>
      </trkpt>
      <trkpt lat="41.743602" lon="2.131863">
        <ele>720.290500</ele>
        <time>2020-08-09T13:24:09.641Z</time>
      </trkpt>
      <trkpt lat="41.743682" lon="2.131765">
        <ele>720.378000</ele>
        <time>2020-08-09T13:24:15.645Z</time>
      </trkpt>
      <trkpt lat="41.743763" lon="2.131696">
        <ele>720.455485</ele>
        <time>2020-08-09T13:24:19.647Z</time>
      </trkpt>
      <trkpt lat="41.743830" lon="2.131611">
        <ele>720.529967</ele>
        <time>2020-08-09T13:24:25.649Z</time>
      </trkpt>
      <trkpt lat="41.743923" lon="2.131547">
        <ele>720.614369</ele>
        <time>2020-08-09T13:24:31.647Z</time>
      </trkpt>
      <trkpt lat="41.744012" lon="2.131480">
        <ele>720.696780</ele>
        <time>2020-08-09T13:24:38.653Z</time>
      </trkpt>
      <trkpt lat="41.744100" lon="2.131434">
        <ele>720.773038</ele>
        <time>2020-08-09T13:24:42.661Z</time>
      </trkpt>
      <trkpt lat="41.744190" lon="2.131392">
        <ele>720.849977</ele>
        <time>2020-08-09T13:24:46.646Z</time>
      </trkpt>
      <trkpt lat="41.744269" lon="2.131305">
        <ele>720.932525</ele>
        <time>2020-08-09T13:24:51.640Z</time>
      </trkpt>
      <trkpt lat="41.744336" lon="2.131212">
        <ele>721.010398</ele>
        <time>2020-08-09T13:24:58.645Z</time>
      </trkpt>
      <trkpt lat="41.744412" lon="2.131116">
        <ele>721.094712</ele>
        <time>2020-08-09T13:25:05.645Z</time>
      </trkpt>
      <trkpt lat="41.744480" lon="2.131011">
        <ele>721.178463</ele>
        <time>2020-08-09T13:25:11.641Z</time>
      </trkpt>
      <trkpt lat="41.744554" lon="2.130911">
        <ele>721.263302</ele>
        <time>2020-08-09T13:25:17.638Z</time>
      </trkpt>
      <trkpt lat="41.744614" lon="2.130801">
        <ele>721.345381</ele>
        <time>2020-08-09T13:25:24.639Z</time>
      </trkpt>
      <trkpt lat="41.744657" lon="2.130695">
        <ele>721.418059</ele>
        <time>2020-08-09T13:25:30.708Z</time>
      </trkpt>
      <trkpt lat="41.744729" lon="2.130608">
        <ele>721.496323</ele>
        <time>2020-08-09T13:25:35.656Z</time>
      </trkpt>
      <trkpt lat="41.744790" lon="2.130509">
        <ele>721.573664</ele>
        <time>2020-08-09T13:25:41.632Z</time>
      </trkpt>
      <trkpt lat="41.744843" lon="2.130392">
        <ele>721.920406</ele>
        <time>2020-08-09T13:25:46.648Z</time>
      </trkpt>
      <trkpt lat="41.744902" lon="2.130286">
        <ele>722.753537</ele>
        <time>2020-08-09T13:25:51.639Z</time>
      </trkpt>
      <trkpt lat="41.744954" lon="2.130164">
        <ele>723.638690</ele>
        <time>2020-08-09T13:25:57.643Z</time>
      </trkpt>
      <trkpt lat="41.745001" lon="2.130041">
        <ele>724.509280</ele>
        <time>2020-08-09T13:26:06.644Z</time>
      </trkpt>
      <trkpt lat="41.745039" lon="2.129919">
        <ele>725.342145</ele>
        <time>2020-08-09T13:26:12.645Z</time>
      </trkpt>
      <trkpt lat="41.745049" lon="2.129794">
        <ele>726.134139</ele>
        <time>2020-08-09T13:26:19.648Z</time>
      </trkpt>
      <trkpt lat="41.745075" lon="2.129674">
        <ele>726.921349</ele>
        <time>2020-08-09T13:26:25.706Z</time>
      </trkpt>
      <trkpt lat="41.745131" lon="2.129562">
        <ele>727.770714</ele>
        <time>2020-08-09T13:26:31.633Z</time>
      </trkpt>
      <trkpt lat="41.745190" lon="2.129459">
        <ele>728.588773</ele>
        <time>2020-08-09T13:26:38.644Z</time>
      </trkpt>
      <trkpt lat="41.745251" lon="2.129361">
        <ele>729.392790</ele>
        <time>2020-08-09T13:26:45.645Z</time>
      </trkpt>
      <trkpt lat="41.745304" lon="2.129260">
        <ele>730.170682</ele>
        <time>2020-08-09T13:26:53.641Z</time>
      </trkpt>
      <trkpt lat="41.745349" lon="2.129155">
        <ele>730.933522</ele>
        <time>2020-08-09T13:27:00.652Z</time>
      </trkpt>
      <trkpt lat="41.745406" lon="2.128999">
        <ele>732.027811</ele>
        <time>2020-08-09T13:27:33.644Z</time>
      </trkpt>
      <trkpt lat="41.745459" lon="2.128891">
        <ele>732.842168</ele>
        <time>2020-08-09T13:27:42.621Z</time>
      </trkpt>
      <trkpt lat="41.745512" lon="2.128761">
        <ele>733.775432</ele>
        <time>2020-08-09T13:28:49.646Z</time>
      </trkpt>
      <trkpt lat="41.745565" lon="2.128665">
        <ele>734.527775</ele>
        <time>2020-08-09T13:28:58.645Z</time>
      </trkpt>
      <trkpt lat="41.745612" lon="2.128557">
        <ele>735.315430</ele>
        <time>2020-08-09T13:29:08.649Z</time>
      </trkpt>
      <trkpt lat="41.745660" lon="2.128440">
        <ele>736.156583</ele>
        <time>2020-08-09T13:29:18.646Z</time>
      </trkpt>
      <trkpt lat="41.745717" lon="2.128336">
        <ele>736.943854</ele>
        <time>2020-08-09T13:29:27.644Z</time>
      </trkpt>
      <trkpt lat="41.745806" lon="2.128234">
        <ele>737.768231</ele>
        <time>2020-08-09T13:30:47.624Z</time>
      </trkpt>
      <trkpt lat="41.745903" lon="2.128097">
        <ele>738.760260</ele>
        <time>2020-08-09T13:31:55.645Z</time>
      </trkpt>
      <trkpt lat="41.746023" lon="2.128000">
        <ele>739.746792</ele>
        <time>2020-08-09T13:33:00.627Z</time>
      </trkpt>
      <trkpt lat="41.746106" lon="2.128081">
        <ele>740.469583</ele>
        <time>2020-08-09T13:33:54.642Z</time>
      </trkpt>
      <trkpt lat="41.746165" lon="2.128188">
        <ele>741.168424</ele>
        <time>2020-08-09T13:34:06.644Z</time>
      </trkpt>
      <trkpt lat="41.746182" lon="2.128317">
        <ele>741.856480</ele>
        <time>2020-08-09T13:34:34.638Z</time>
      </trkpt>
      <trkpt lat="41.746290" lon="2.128431">
        <ele>742.824264</ele>
        <time>2020-08-09T13:35:05.641Z</time>
      </trkpt>
      <trkpt lat="41.746368" lon="2.128510">
        <ele>743.512524</ele>
        <time>2020-08-09T13:35:13.649Z</time>
      </trkpt>
      <trkpt lat="41.746458" lon="2.128523">
        <ele>744.149782</ele>
        <time>2020-08-09T13:35:24.640Z</time>
      </trkpt>
      <trkpt lat="41.746562" lon="2.128416">
        <ele>745.072764</ele>
        <time>2020-08-09T13:35:48.643Z</time>
      </trkpt>
      <trkpt lat="41.746655" lon="2.128348">
        <ele>745.818560</ele>
        <time>2020-08-09T13:36:03.647Z</time>
      </trkpt>
      <trkpt lat="41.746736" lon="2.128285">
        <ele>746.477847</ele>
        <time>2020-08-09T13:36:08.641Z</time>
      </trkpt>
      <trkpt lat="41.746819" lon="2.128233">
        <ele>747.122840</ele>
        <time>2020-08-09T13:36:13.643Z</time>
      </trkpt>
      <trkpt lat="41.746897" lon="2.128141">
        <ele>747.854295</ele>
        <time>2020-08-09T13:36:18.643Z</time>
      </trkpt>
      <trkpt lat="41.746957" lon="2.128040">
        <ele>748.532409</ele>
        <time>2020-08-09T13:36:23.644Z</time>
      </trkpt>
      <trkpt lat="41.747026" lon="2.127953">
        <ele>749.199317</ele>
        <time>2020-08-09T13:36:28.644Z</time>
      </trkpt>
      <trkpt lat="41.747077" lon="2.127854">
        <ele>749.633384</ele>
        <time>2020-08-09T13:36:34.641Z</time>
      </trkpt>
      <trkpt lat="41.747160" lon="2.127787">
        <ele>749.934210</ele>
        <time>2020-08-09T13:36:42.650Z</time>
      </trkpt>
      <trkpt lat="41.747250" lon="2.127737">
        <ele>750.236694</ele>
        <time>2020-08-09T13:36:48.643Z</time>
      </trkpt>
      <trkpt lat="41.747344" lon="2.127683">
        <ele>750.554221</ele>
        <time>2020-08-09T13:36:54.642Z</time>
      </trkpt>
      <trkpt lat="41.747425" lon="2.127626">
        <ele>750.838264</ele>
        <time>2020-08-09T13:37:00.642Z</time>
      </trkpt>
      <trkpt lat="41.747510" lon="2.127559">
        <ele>751.144425</ele>
        <time>2020-08-09T13:37:08.621Z</time>
      </trkpt>
      <trkpt lat="41.747594" lon="2.127490">
        <ele>751.450309</ele>
        <time>2020-08-09T13:37:17.689Z</time>
      </trkpt>
      <trkpt lat="41.747676" lon="2.127420">
        <ele>751.752154</ele>
        <time>2020-08-09T13:37:24.644Z</time>
      </trkpt>
      <trkpt lat="41.747777" lon="2.127398">
        <ele>752.069852</ele>
        <time>2020-08-09T13:37:32.644Z</time>
      </trkpt>
      <trkpt lat="41.747869" lon="2.127343">
        <ele>752.382618</ele>
        <time>2020-08-09T13:37:39.642Z</time>
      </trkpt>
      <trkpt lat="41.747970" lon="2.127348">
        <ele>752.696415</ele>
        <time>2020-08-09T13:37:46.648Z</time>
      </trkpt>
      <trkpt lat="41.748067" lon="2.127395">
        <ele>753.016655</ele>
        <time>2020-08-09T13:37:53.649Z</time>
      </trkpt>
      <trkpt lat="41.748165" lon="2.127422">
        <ele>753.327286</ele>
        <time>2020-08-09T13:37:59.657Z</time>
      </trkpt>
      <trkpt lat="41.748253" lon="2.127456">
        <ele>753.611632</ele>
        <time>2020-08-09T13:38:05.655Z</time>
      </trkpt>
      <trkpt lat="41.748351" lon="2.127494">
        <ele>753.928379</ele>
        <time>2020-08-09T13:38:12.636Z</time>
      </trkpt>
      <trkpt lat="41.748420" lon="2.127399">
        <ele>754.235495</ele>
        <time>2020-08-09T13:38:17.632Z</time>
      </trkpt>
      <trkpt lat="41.748501" lon="2.127314">
        <ele>754.554891</ele>
        <time>2020-08-09T13:38:21.658Z</time>
      </trkpt>
      <trkpt lat="41.748557" lon="2.127180">
        <ele>754.910668</ele>
        <time>2020-08-09T13:38:25.640Z</time>
      </trkpt>
      <trkpt lat="41.748618" lon="2.127087">
        <ele>755.119361</ele>
        <time>2020-08-09T13:38:28.638Z</time>
      </trkpt>
      <trkpt lat="41.748667" lon="2.126980">
        <ele>755.242826</ele>
        <time>2020-08-09T13:38:31.645Z</time>
      </trkpt>
      <trkpt lat="41.748732" lon="2.126874">
        <ele>755.377757</ele>
        <time>2020-08-09T13:38:35.639Z</time>
      </trkpt>
      <trkpt lat="41.748806" lon="2.126747">
        <ele>755.536224</ele>
        <time>2020-08-09T13:38:39.643Z</time>
      </trkpt>
      <trkpt lat="41.748852" lon="2.126640">
        <ele>755.657666</ele>
        <time>2020-08-09T13:38:42.612Z</time>
      </trkpt>
      <trkpt lat="41.748917" lon="2.126536">
        <ele>755.791083</ele>
        <time>2020-08-09T13:38:46.640Z</time>
      </trkpt>
      <trkpt lat="41.748975" lon="2.126404">
        <ele>755.941731</ele>
        <time>2020-08-09T13:38:51.607Z</time>
      </trkpt>
      <trkpt lat="41.749034" lon="2.126314">
        <ele>756.059548</ele>
        <time>2020-08-09T13:38:55.626Z</time>
      </trkpt>
      <trkpt lat="41.749092" lon="2.126183">
        <ele>756.209349</ele>
        <time>2020-08-09T13:39:00.640Z</time>
      </trkpt>
      <trkpt lat="41.749141" lon="2.126054">
        <ele>756.351701</ele>
        <time>2020-08-09T13:39:04.625Z</time>
      </trkpt>
      <trkpt lat="41.749193" lon="2.125917">
        <ele>756.502859</ele>
        <time>2020-08-09T13:39:08.647Z</time>
      </trkpt>
      <trkpt lat="41.749268" lon="2.125798">
        <ele>756.656049</ele>
        <time>2020-08-09T13:39:12.640Z</time>
      </trkpt>
      <trkpt lat="41.749319" lon="2.125698">
        <ele>756.775168</ele>
        <time>2020-08-09T13:39:15.635Z</time>
      </trkpt>
      <trkpt lat="41.749376" lon="2.125569">
        <ele>756.922604</ele>
        <time>2020-08-09T13:39:19.621Z</time>
      </trkpt>
      <trkpt lat="41.749440" lon="2.125439">
        <ele>757.075769</ele>
        <time>2020-08-09T13:39:23.649Z</time>
      </trkpt>
      <trkpt lat="41.749491" lon="2.125338">
        <ele>757.195701</ele>
        <time>2020-08-09T13:39:26.658Z</time>
      </trkpt>
      <trkpt lat="41.749545" lon="2.125210">
        <ele>757.340305</ele>
        <time>2020-08-09T13:39:30.645Z</time>
      </trkpt>
      <trkpt lat="41.749598" lon="2.125108">
        <ele>757.513996</ele>
        <time>2020-08-09T13:39:33.636Z</time>
      </trkpt>
      <trkpt lat="41.749655" lon="2.125014">
        <ele>757.837133</ele>
        <time>2020-08-09T13:39:36.634Z</time>
      </trkpt>
      <trkpt lat="41.749704" lon="2.124908">
        <ele>758.169781</ele>
        <time>2020-08-09T13:39:39.644Z</time>
      </trkpt>
      <trkpt lat="41.749764" lon="2.124776">
        <ele>758.582115</ele>
        <time>2020-08-09T13:39:43.653Z</time>
      </trkpt>
      <trkpt lat="41.749817" lon="2.124670">
        <ele>758.922513</ele>
        <time>2020-08-09T13:39:47.650Z</time>
      </trkpt>
      <trkpt lat="41.749903" lon="2.124580">
        <ele>759.312641</ele>
        <time>2020-08-09T13:39:52.639Z</time>
      </trkpt>
      <trkpt lat="41.749973" lon="2.124477">
        <ele>759.684315</ele>
        <time>2020-08-09T13:39:56.617Z</time>
      </trkpt>
      <trkpt lat="41.750029" lon="2.124347">
        <ele>760.084761</ele>
        <time>2020-08-09T13:40:00.639Z</time>
      </trkpt>
      <trkpt lat="41.750111" lon="2.124240">
        <ele>760.493955</ele>
        <time>2020-08-09T13:40:04.623Z</time>
      </trkpt>
      <trkpt lat="41.750189" lon="2.124147">
        <ele>760.867226</ele>
        <time>2020-08-09T13:40:08.643Z</time>
      </trkpt>
      <trkpt lat="41.750270" lon="2.124064">
        <ele>761.231788</ele>
        <time>2020-08-09T13:40:12.646Z</time>
      </trkpt>
      <trkpt lat="41.750285" lon="2.123933">
        <ele>761.585336</ele>
        <time>2020-08-09T13:40:16.642Z</time>
      </trkpt>
      <trkpt lat="41.750255" lon="2.123819">
        <ele>761.907807</ele>
        <time>2020-08-09T13:40:19.647Z</time>
      </trkpt>
      <trkpt lat="41.750212" lon="2.123673">
        <ele>762.326527</ele>
        <time>2020-08-09T13:40:23.644Z</time>
      </trkpt>
      <trkpt lat="41.750179" lon="2.123535">
        <ele>762.713105</ele>
        <time>2020-08-09T13:40:27.643Z</time>
      </trkpt>
      <trkpt lat="41.750175" lon="2.123399">
        <ele>763.076181</ele>
        <time>2020-08-09T13:40:36.641Z</time>
      </trkpt>
      <trkpt lat="41.750112" lon="2.123272">
        <ele>763.483023</ele>
        <time>2020-08-09T13:40:41.650Z</time>
      </trkpt>
      <trkpt lat="41.750044" lon="2.123147">
        <ele>763.883088</ele>
        <time>2020-08-09T13:40:45.639Z</time>
      </trkpt>
      <trkpt lat="41.749991" lon="2.123041">
        <ele>764.089058</ele>
        <time>2020-08-09T13:40:48.640Z</time>
      </trkpt>
      <trkpt lat="41.749925" lon="2.122942">
        <ele>764.303363</ele>
        <time>2020-08-09T13:40:51.639Z</time>
      </trkpt>
      <trkpt lat="41.749856" lon="2.122814">
        <ele>764.558263</ele>
        <time>2020-08-09T13:40:55.642Z</time>
      </trkpt>
      <trkpt lat="41.749784" lon="2.122689">
        <ele>764.813168</ele>
        <time>2020-08-09T13:40:59.624Z</time>
      </trkpt>
      <trkpt lat="41.749734" lon="2.122543">
        <ele>765.072476</ele>
        <time>2020-08-09T13:41:03.648Z</time>
      </trkpt>
      <trkpt lat="41.749720" lon="2.122392">
        <ele>765.318087</ele>
        <time>2020-08-09T13:41:07.620Z</time>
      </trkpt>
      <trkpt lat="41.749722" lon="2.122265">
        <ele>765.523130</ele>
        <time>2020-08-09T13:41:10.652Z</time>
      </trkpt>
      <trkpt lat="41.749746" lon="2.122118">
        <ele>765.766025</ele>
        <time>2020-08-09T13:41:13.625Z</time>
      </trkpt>
      <trkpt lat="41.749767" lon="2.121951">
        <ele>766.039389</ele>
        <time>2020-08-09T13:41:16.641Z</time>
      </trkpt>
      <trkpt lat="41.749779" lon="2.121778">
        <ele>766.319841</ele>
        <time>2020-08-09T13:41:19.634Z</time>
      </trkpt>
      <trkpt lat="41.749772" lon="2.121595">
        <ele>766.615618</ele>
        <time>2020-08-09T13:41:22.652Z</time>
      </trkpt>
      <trkpt lat="41.749789" lon="2.121420">
        <ele>766.900478</ele>
        <time>2020-08-09T13:41:25.623Z</time>
      </trkpt>
      <trkpt lat="41.749804" lon="2.121244">
        <ele>767.186415</ele>
        <time>2020-08-09T13:41:28.636Z</time>
      </trkpt>
      <trkpt lat="41.749818" lon="2.121119">
        <ele>767.390445</ele>
        <time>2020-08-09T13:41:30.652Z</time>
      </trkpt>
      <trkpt lat="41.749820" lon="2.120996">
        <ele>767.589032</ele>
        <time>2020-08-09T13:41:32.642Z</time>
      </trkpt>
      <trkpt lat="41.749829" lon="2.120820">
        <ele>767.755228</ele>
        <time>2020-08-09T13:41:35.615Z</time>
      </trkpt>
      <trkpt lat="41.749863" lon="2.120653">
        <ele>767.755228</ele>
        <time>2020-08-09T13:41:38.643Z</time>
      </trkpt>
      <trkpt lat="41.749906" lon="2.120544">
        <ele>767.755228</ele>
        <time>2020-08-09T13:41:40.630Z</time>
      </trkpt>
      <trkpt lat="41.749954" lon="2.120391">
        <ele>767.755228</ele>
        <time>2020-08-09T13:41:43.640Z</time>
      </trkpt>
      <trkpt lat="41.750006" lon="2.120234">
        <ele>767.755228</ele>
        <time>2020-08-09T13:41:46.644Z</time>
      </trkpt>
      <trkpt lat="41.750041" lon="2.120117">
        <ele>767.755228</ele>
        <time>2020-08-09T13:41:48.637Z</time>
      </trkpt>
      <trkpt lat="41.750082" lon="2.120008">
        <ele>767.755228</ele>
        <time>2020-08-09T13:41:50.648Z</time>
      </trkpt>
      <trkpt lat="41.750124" lon="2.119898">
        <ele>767.755228</ele>
        <time>2020-08-09T13:41:52.643Z</time>
      </trkpt>
      <trkpt lat="41.750158" lon="2.119785">
        <ele>767.755228</ele>
        <time>2020-08-09T13:41:54.623Z</time>
      </trkpt>
      <trkpt lat="41.750202" lon="2.119622">
        <ele>767.755228</ele>
        <time>2020-08-09T13:41:57.637Z</time>
      </trkpt>
      <trkpt lat="41.750252" lon="2.119466">
        <ele>767.755228</ele>
        <time>2020-08-09T13:42:00.648Z</time>
      </trkpt>
      <trkpt lat="41.750279" lon="2.119345">
        <ele>767.755228</ele>
        <time>2020-08-09T13:42:04.643Z</time>
      </trkpt>
      <trkpt lat="41.750273" lon="2.119353">
        <ele>767.755228</ele>
        <time>2020-08-09T13:42:08.037Z</time>
      </trkpt>
    </trkseg>
  </trk>
</gpx>
